SN277 / OO-SFD 7700 Squawk Report (3rd of September, 2021)

Aircraft A333 Reg No. OO-SFD Age 13 years old
Model A330 Jet engines 2 First flight 03-10-08
Registered 26-04-19 Rollout 21-08-08 Delivered 27-10-08
Construction No. 959 Line No. N/A Series 343X
ADSHEX 44CCC4 Airline name Brussels Airlines Owner Aercap Holdings N.V.
Airfield based Brussels-Zaventem~Vlaams-Brabant~OO First tracked N/A

Flight history for OO-SFD

Route Flight No Date Playback
Brussels Airport (BRU) - Blaise Diagne International (DSS) - Banjul Intl (BJL) SN203 2021-10-22 13:13:00
Brussels Airport (BRU) - Kigali Intl (KGL) - Entebbe Intl (EBB) - Brussels Airport (BRU) SN465 2021-10-22 04:29:00
Ndjili Intl (FIH) - Brussels Airport (BRU) SN358 2021-10-21 04:19:00
Brussels Airport (BRU) - Ndjili Intl (FIH) SN357 2021-10-21 01:55:00
Brussels Airport (BRU) - Douala (DLA) - Yaounde Nsimalen (NSI) - Brussels Airport (BRU) SN379 2021-10-20 09:54:00
Banjul Intl (BJL) - Blaise Diagne International (DSS) - Brussels Airport (BRU) SN204 2021-10-19 04:09:00
Brussels Airport (BRU) - Blaise Diagne International (DSS) - Banjul Intl (BJL) SN203 2021-10-18 17:24:00
John F Kennedy Intl (JFK) - Brussels Airport (BRU) SN502 2021-10-18 10:22:00
Brussels Airport (BRU) - John F Kennedy Intl (JFK) SN501 2021-10-17 22:20:00
Gnassingbe Eyadema Intl (LFW) - Kotoka International (ACC) - Brussels Airport (BRU) SN278 2021-10-17 04:37:00
Brussels Airport (BRU) - Kotoka International (ACC) - Gnassingbe Eyadema Intl (LFW) SN277 2021-10-16 20:45:00
John F Kennedy Intl (JFK) - Brussels Airport (BRU) SN502 2021-10-16 09:55:00
Brussels Airport (BRU) - John F Kennedy Intl (JFK) SN501 2021-10-15 22:11:00
Banjul Intl (BJL) - Blaise Diagne International (DSS) - Brussels Airport (BRU) SN204 2021-10-15 03:27:00
Brussels Airport (BRU) - Blaise Diagne International (DSS) - Banjul Intl (BJL) SN203 2021-10-14 19:44:00
John F Kennedy Intl (JFK) - Brussels Airport (BRU) SN502 2021-10-14 10:38:00
Brussels Airport (BRU) - John F Kennedy Intl (JFK) SN501 2021-10-13 16:00:00
Brussels Airport (BRU) - Freetown Lungi (FNA) - Monrovia Roberts International (ROB) - Brussels Airport (BRU) SN243 2021-10-13 03:02:00
Banjul Intl (BJL) - Blaise Diagne International (DSS) - Brussels Airport (BRU) SN204 2021-10-12 02:52:00
Brussels Airport (BRU) - Blaise Diagne International (DSS) - Banjul Intl (BJL) SN203 2021-10-11 19:19:00
Time Lat Lon Altitude Heading Speed Vertical Rate
2021-09-04 05:29:52 GMT 50.900997 4.489346 0 157 0 0
2021-09-04 05:29:45 GMT 50.901161 4.489307 0 157 2 0
2021-09-04 05:29:34 GMT 50.901169 4.489381 0 157 0 0
2021-09-04 05:29:23 GMT 50.901134 4.489325 0 157 0 0
2021-09-04 05:29:11 GMT 50.901127 4.489326 0 157 0 0
2021-09-04 05:29:03 GMT 50.901127 4.489307 0 157 0 0
2021-09-04 05:28:39 GMT 50.901127 4.489326 0 157 0 0
2021-09-04 05:28:33 GMT 50.901157 4.489325 0 157 0 0
2021-09-04 05:28:24 GMT 50.901123 4.489325 0 157 0 0
2021-09-04 05:28:14 GMT 50.901127 4.489307 0 157 0 0
2021-09-04 05:28:03 GMT 50.901134 4.489233 0 157 6 0
2021-09-04 05:27:53 GMT 50.901157 4.489400 0 157 0 0
2021-09-04 05:27:43 GMT 50.901146 4.489400 0 157 0 0
2021-09-04 05:27:33 GMT 50.901173 4.489403 0 157 0 0
2021-09-04 05:27:24 GMT 50.901218 4.489384 0 157 0 0
2021-09-04 05:27:12 GMT 50.901184 4.489384 0 157 0 0
2021-09-04 05:27:02 GMT 50.901134 4.489325 0 157 0 0
2021-09-04 05:26:43 GMT 50.901134 4.489346 0 157 0 0
2021-09-04 05:26:32 GMT 50.901134 4.489344 0 157 0 0
2021-09-04 05:26:21 GMT 50.901134 4.489307 0 157 0 0
2021-09-04 05:26:11 GMT 50.901196 4.489269 0 154 0 0
2021-09-04 05:25:58 GMT 50.901398 4.489121 0 160 7 0
2021-09-04 05:25:49 GMT 50.901592 4.488917 0 180 10 0
2021-09-04 05:25:41 GMT 50.901958 4.488861 0 233 11 0
2021-09-04 05:25:30 GMT 50.902302 4.489803 0 244 21 0
2021-09-04 05:25:21 GMT 50.902733 4.491310 0 244 23 0
2021-09-04 05:25:11 GMT 50.903149 4.492779 0 244 19 0
2021-09-04 05:25:02 GMT 50.903435 4.493742 0 233 16 0
2021-09-04 05:24:59 GMT 50.903511 4.494019 0 222 17 0
2021-09-04 05:24:49 GMT 50.904102 4.494553 0 194 21 0
2021-09-04 05:24:39 GMT 50.905163 4.494986 0 194 25 0
2021-09-04 05:24:30 GMT 50.906269 4.495430 0 194 24 0
2021-09-04 05:24:19 GMT 50.907234 4.495839 0 194 19 0
2021-09-04 05:24:09 GMT 50.908051 4.496250 0 225 19 0
2021-09-04 05:23:59 GMT 50.908516 4.497128 0 244 13 0
2021-09-04 05:23:48 GMT 50.908726 4.498005 0 289 15 0
2021-09-04 05:23:38 GMT 50.908340 4.498940 0 340 20 0
2021-09-04 05:23:28 GMT 50.907337 4.499273 0 357 30 0
2021-09-04 05:23:16 GMT 50.905369 4.498901 0 14 52 0
2021-09-04 05:23:07 GMT 50.902542 4.497757 -50 14 90 0
2021-09-04 05:22:57 GMT 50.897873 4.495858 -50 14 130 -192
2021-09-04 05:22:47 GMT 50.891792 4.493332 50 14 137 -448
2021-09-04 05:22:43 GMT 50.889744 4.492493 50 14 137 -448
2021-09-04 05:22:38 GMT 50.883316 4.489919 225 14 133 -704
2021-09-04 05:22:35 GMT 50.884781 4.490587 150 14 135 -448
2021-09-04 05:22:28 GMT 50.880066 4.488657 250 14 134 -832
2021-09-04 05:22:25 GMT 50.878738 4.488138 275 14 134 -768
2021-09-04 05:22:18 GMT 50.872704 4.485703 400 14 132 -704
2021-09-04 05:22:15 GMT 50.872704 4.485703 400 14 132 -704
2021-09-04 05:22:06 GMT 50.866932 4.483337 500 14 131 -704
2021-09-04 05:21:59 GMT 50.862350 4.481457 600 14 132 -640
2021-09-04 05:21:55 GMT 50.858273 4.479752 675 14 134 -704
2021-09-04 05:21:51 GMT 50.858273 4.479752 675 14 135 -704
2021-09-04 05:21:48 GMT 50.856491 4.479081 725 14 138 -768
2021-09-04 05:21:45 GMT 50.854641 4.478302 750 14 141 -704
2021-09-04 05:21:42 GMT 50.852501 4.477463 800 14 140 -704
2021-09-04 05:21:37 GMT 50.849945 4.476409 850 14 143 -768
2021-09-04 05:21:34 GMT 50.847660 4.475403 900 15 146 -832
2021-09-04 05:21:31 GMT 50.846031 4.474716 925 14 148 -768
2021-09-04 05:21:27 GMT 50.843033 4.473514 1,025 14 150 -768
2021-09-04 05:21:24 GMT 50.841049 4.472733 1,025 14 153 -768
2021-09-04 05:21:18 GMT 50.836166 4.470767 1,175 14 161 -832
2021-09-04 05:21:15 GMT 50.834747 4.470174 1,175 14 160 -832
2021-09-04 05:21:11 GMT 50.831909 4.469060 1,200 14 162 -896
2021-09-04 05:21:08 GMT 50.829666 4.468169 1,300 14 170 -768
2021-09-04 05:21:05 GMT 50.827362 4.467239 1,300 14 165 -896
2021-09-04 05:21:01 GMT 50.824310 4.466017 1,350 14 169 -768
2021-09-04 05:20:57 GMT 50.817947 4.463418 1,875 15 193 -832
2021-09-04 05:20:52 GMT 50.817947 4.463418 1,500 14 172 -896
2021-09-04 05:20:48 GMT 50.813599 4.461637 1,550 14 175 -960
2021-09-04 05:20:44 GMT 50.811211 4.460602 1,600 14 175 -960
2021-09-04 05:20:40 GMT 50.808655 4.459558 1,675 14 175 -960
2021-09-04 05:20:37 GMT 50.804832 4.458008 1,725 14 175 -896
2021-09-04 05:20:34 GMT 50.803299 4.457331 1,750 14 175 -896
2021-09-04 05:20:29 GMT 50.799294 4.455719 1,825 14 175 -896
2021-09-04 05:20:26 GMT 50.797291 4.454956 1,875 15 193 -832
2021-09-04 05:20:23 GMT 50.795101 4.454041 1,900 14 176 -832
2021-09-04 05:20:20 GMT 50.792770 4.453100 1,950 13 178 -896
2021-09-04 05:20:17 GMT 50.790215 4.452057 2,025 14 185 -128
2021-09-04 05:20:14 GMT 50.787888 4.451218 2,025 14 185 -128
2021-09-04 05:20:11 GMT 50.784851 4.449983 2,100 13 181 -1024
2021-09-04 05:20:07 GMT 50.782013 4.448943 2,150 13 181 -960
2021-09-04 05:20:03 GMT 50.778763 4.447681 2,225 14 181 -960
2021-09-04 05:19:59 GMT 50.774918 4.446122 2,375 15 182 -1024
2021-09-04 05:19:56 GMT 50.772289 4.445038 2,350 15 182 -960
2021-09-04 05:19:52 GMT 50.770203 4.444192 2,400 15 181 -1024
2021-09-04 05:19:48 GMT 50.766403 4.442485 2,500 15 182 -1024
2021-09-04 05:19:45 GMT 50.764114 4.441446 2,575 15 181 -1024
2021-09-04 05:19:42 GMT 50.762192 4.440629 2,550 15 182 -1024
2021-09-04 05:19:37 GMT 50.757431 4.438477 2,650 15 181 -960
2021-09-04 05:19:34 GMT 50.755672 4.437790 2,675 14 182 -640
2021-09-04 05:19:31 GMT 50.752945 4.436621 2,725 14 182 -512
2021-09-04 05:19:28 GMT 50.750519 4.435582 2,725 14 186 -64
2021-09-04 05:19:25 GMT 50.747478 4.434357 2,800 15 193 -832
2021-09-04 05:19:22 GMT 50.745430 4.433517 2,750 14 190 -256
2021-09-04 05:19:19 GMT 50.743244 4.432602 2,750 14 193 -640
2021-09-04 05:19:15 GMT 50.738632 4.430695 2,825 15 193 -832
2021-09-04 05:19:12 GMT 50.736557 4.429791 2,850 15 193 -896
2021-09-04 05:19:09 GMT 50.733791 4.428635 2,900 15 194 -896
2021-09-04 05:19:05 GMT 50.731064 4.427490 2,975 13 194 -960
2021-09-04 05:19:02 GMT 50.725479 4.425412 3,000 12 194 -896
2021-09-04 05:18:59 GMT 50.725479 4.425412 3,075 10 194 -960
2021-09-04 05:18:56 GMT 50.722759 4.424591 3,100 9 194 -1024
2021-09-04 05:18:53 GMT 50.720013 4.423904 3,250 5 193 -960
2021-09-04 05:18:49 GMT 50.716507 4.423185 3,250 5 193 -960
2021-09-04 05:18:46 GMT 50.713169 4.422607 3,275 4 194 -896
2021-09-04 05:18:41 GMT 50.709320 4.422294 3,400 355 196 -832
2021-09-04 05:18:37 GMT 50.705673 4.422302 3,400 353 196 -896
2021-09-04 05:18:34 GMT 50.702461 4.422989 3,450 346 196 -896
2021-09-04 05:18:31 GMT 50.700623 4.423704 3,525 341 197 -640
2021-09-04 05:18:28 GMT 50.697235 4.425412 3,525 340 199 -576
2021-09-04 05:18:25 GMT 50.694763 4.426896 3,550 340 200 -576
2021-09-04 05:18:21 GMT 50.691479 4.428787 3,575 340 201 -512
2021-09-04 05:18:18 GMT 50.689289 4.430008 3,600 340 202 -512
2021-09-04 05:18:15 GMT 50.686432 4.431721 3,650 340 205 -512
2021-09-04 05:18:12 GMT 50.681351 4.434617 3,650 340 205 -512
2021-09-04 05:18:09 GMT 50.677872 4.436695 3,675 340 207 -512
2021-09-04 05:18:06 GMT 50.677872 4.436695 3,700 340 209 -512
2021-09-04 05:18:03 GMT 50.675694 4.437943 3,750 340 211 -512
2021-09-04 05:18:00 GMT 50.672653 4.439664 3,775 340 212 -576
2021-09-04 05:17:57 GMT 50.670296 4.441000 3,775 340 212 -576
2021-09-04 05:17:54 GMT 50.667480 4.442669 3,800 340 215 -512
2021-09-04 05:17:51 GMT 50.664059 4.444638 3,825 340 217 -512
2021-09-04 05:17:47 GMT 50.660522 4.446644 3,850 340 218 -512
2021-09-04 05:17:44 GMT 50.657494 4.448424 3,875 340 220 -256
2021-09-04 05:17:40 GMT 50.654068 4.450403 3,875 340 225 0
2021-09-04 05:17:37 GMT 50.651394 4.451913 3,875 340 227 -128
2021-09-04 05:17:34 GMT 50.648415 4.453620 3,875 340 229 -128
2021-09-04 05:17:30 GMT 50.644089 4.456113 3,900 340 229 -64
2021-09-04 05:17:27 GMT 50.640923 4.457925 3,900 340 231 0
2021-09-04 05:17:23 GMT 50.637497 4.459943 3,900 340 230 0
2021-09-04 05:17:20 GMT 50.634029 4.461934 3,900 340 230 0
2021-09-04 05:17:17 GMT 50.630913 4.463715 3,900 340 230 0
2021-09-04 05:17:14 GMT 50.628387 4.465220 3,900 340 230 0
2021-09-04 05:17:11 GMT 50.624069 4.467724 3,900 340 229 0
2021-09-04 05:17:08 GMT 50.622578 4.468615 3,900 340 229 0
2021-09-04 05:17:05 GMT 50.618668 4.470842 3,900 340 229 -64
2021-09-04 05:17:00 GMT 50.613503 4.473885 3,900 340 230 0
2021-09-04 05:16:57 GMT 50.611408 4.475073 3,900 340 231 64
2021-09-04 05:16:54 GMT 50.608658 4.476712 3,900 340 232 64
2021-09-04 05:16:51 GMT 50.604378 4.479156 3,900 340 234 0
2021-09-04 05:16:47 GMT 50.600739 4.481265 3,900 340 236 0
2021-09-04 05:16:44 GMT 50.598175 4.482783 3,900 340 243 -64
2021-09-04 05:16:39 GMT 50.591583 4.486614 3,900 340 243 -64
2021-09-04 05:16:36 GMT 50.590038 4.487470 3,900 340 245 -64
2021-09-04 05:16:33 GMT 50.586639 4.489474 3,900 340 246 0
2021-09-04 05:16:30 GMT 50.583481 4.491384 3,900 338 250 64
2021-09-04 05:16:27 GMT 50.580215 4.493482 3,900 336 253 64
2021-09-04 05:16:24 GMT 50.576752 4.495938 3,900 334 255 -64
2021-09-04 05:16:20 GMT 50.572723 4.499273 3,900 330 258 -192
2021-09-04 05:16:17 GMT 50.569290 4.502443 3,900 328 261 -128
2021-09-04 05:16:13 GMT 50.565460 4.506325 3,925 327 262 -192
2021-09-04 05:16:10 GMT 50.562946 4.508997 3,950 327 266 -512
2021-09-04 05:16:07 GMT 50.559082 4.513154 3,950 327 266 -704
2021-09-04 05:16:03 GMT 50.555557 4.516899 4,025 326 267 -1088
2021-09-04 05:16:00 GMT 50.551308 4.521394 4,100 327 267 -1280
2021-09-04 05:15:57 GMT 50.549770 4.522953 4,150 327 267 -1216
2021-09-04 05:15:54 GMT 50.545532 4.527451 4,200 327 267 -1152
2021-09-04 05:15:50 GMT 50.542328 4.530776 4,250 327 268 -960
2021-09-04 05:15:46 GMT 50.537621 4.535646 4,350 327 268 -896
2021-09-04 05:15:43 GMT 50.534912 4.538510 4,375 327 268 -896
2021-09-04 05:15:39 GMT 50.529987 4.543589 4,475 327 268 -896
2021-09-04 05:15:36 GMT 50.526718 4.546967 4,500 327 269 -896
2021-09-04 05:15:31 GMT 50.523003 4.550789 4,575 327 270 -832
2021-09-04 05:15:28 GMT 50.519073 4.554773 4,725 328 271 -896
2021-09-04 05:15:25 GMT 50.516487 4.557396 4,650 328 271 -1024
2021-09-04 05:15:21 GMT 50.512390 4.561627 4,750 328 272 -1664
2021-09-04 05:15:18 GMT 50.508480 4.565562 4,850 328 272 -2048
2021-09-04 05:15:15 GMT 50.500660 4.573430 5,050 328 272 -2304
2021-09-04 05:15:11 GMT 50.496368 4.577757 5,075 328 272 -2176
2021-09-04 05:15:07 GMT 50.496368 4.577757 5,250 328 272 -2240
2021-09-04 05:15:03 GMT 50.492603 4.581522 5,425 328 272 -2176
2021-09-04 05:15:00 GMT 50.490044 4.584120 6,600 328 272 -2240
2021-09-04 05:14:57 GMT 50.485977 4.588165 5,600 328 272 -2240
2021-09-04 05:14:54 GMT 50.483826 4.590334 5,675 328 272 -2240
2021-09-04 05:14:51 GMT 50.479889 4.594237 5,825 328 273 -2240
2021-09-04 05:14:47 GMT 50.474728 4.599411 6,000 328 275 -2112
2021-09-04 05:14:44 GMT 50.472916 4.601267 6,050 328 275 -2048
2021-09-04 05:14:41 GMT 50.469143 4.605053 6,300 328 276 -1856
2021-09-04 05:14:38 GMT 50.465744 4.608403 6,250 328 278 -1600
2021-09-04 05:14:34 GMT 50.461880 4.612254 6,400 328 281 -1280
2021-09-04 05:14:31 GMT 50.458191 4.615920 6,450 328 284 -1088
2021-09-04 05:14:28 GMT 50.453827 4.620271 6,550 328 288 -960
2021-09-04 05:14:25 GMT 50.451508 4.622570 6,925 328 317 -1152
2021-09-04 05:14:22 GMT 50.448753 4.625393 6,625 328 292 -1024
2021-09-04 05:14:19 GMT 50.444138 4.630015 6,700 328 296 -1024
2021-09-04 05:14:16 GMT 50.440979 4.633187 6,675 328 299 -1024
2021-09-04 05:14:12 GMT 50.437023 4.637195 6,775 328 304 -1024
2021-09-04 05:14:07 GMT 50.430679 4.643531 6,875 328 311 -1088
2021-09-04 05:14:04 GMT 50.427387 4.646920 6,875 328 311 -1088
2021-09-04 05:14:00 GMT 50.422073 4.652276 6,975 328 318 -1152
2021-09-04 05:13:57 GMT 50.417862 4.656468 7,025 328 320 -1088
2021-09-04 05:13:54 GMT 50.414677 4.659688 7,075 327 323 -960
2021-09-04 05:13:51 GMT 50.411419 4.663028 7,150 327 328 -1216
2021-09-04 05:13:48 GMT 50.407135 4.667482 7,250 327 331 -1920
2021-09-04 05:13:45 GMT 50.403690 4.671045 7,350 327 333 -2496
2021-09-04 05:13:41 GMT 50.398361 4.676634 7,450 327 333 -2688
2021-09-04 05:13:38 GMT 50.394566 4.680621 7,650 327 336 -2368
2021-09-04 05:13:35 GMT 50.390469 4.684927 7,725 326 337 -1984
2021-09-04 05:13:32 GMT 50.386368 4.689283 7,775 326 339 -1664
2021-09-04 05:13:27 GMT 50.380974 4.694948 7,875 326 340 -1152
2021-09-04 05:13:24 GMT 50.375565 4.700703 7,950 327 340 -576
2021-09-04 05:13:20 GMT 50.371197 4.705266 7,975 327 340 -512
2021-09-04 05:13:17 GMT 50.366123 4.710611 8,000 327 338 0
2021-09-04 05:13:14 GMT 50.362427 4.714580 8,000 327 339 0
2021-09-04 05:13:11 GMT 50.359608 4.717514 8,000 327 338 0
2021-09-04 05:13:08 GMT 50.351318 4.726200 8,000 327 338 0
2021-09-04 05:13:05 GMT 50.351318 4.726200 8,000 327 338 0
2021-09-04 05:13:01 GMT 50.346680 4.731060 8,000 327 338 0
2021-09-04 05:12:56 GMT 50.340240 4.737854 8,000 327 338 -128
2021-09-04 05:12:53 GMT 50.336929 4.741251 8,000 327 338 -64
2021-09-04 05:12:50 GMT 50.333118 4.745277 8,000 327 338 0
2021-09-04 05:12:47 GMT 50.328045 4.750548 8,000 327 338 0
2021-09-04 05:12:43 GMT 50.322598 4.756264 8,000 327 338 0
2021-09-04 05:12:40 GMT 50.319851 4.759084 8,000 327 338 0
2021-09-04 05:12:35 GMT 50.312897 4.766404 8,000 327 338 0
2021-09-04 05:12:32 GMT 50.309509 4.769873 8,000 327 338 64
2021-09-04 05:12:28 GMT 50.303558 4.776089 8,000 327 338 64
2021-09-04 05:12:25 GMT 50.300171 4.779631 8,000 327 338 0
2021-09-04 05:12:21 GMT 50.293533 4.786570 8,000 327 338 0
2021-09-04 05:12:18 GMT 50.290615 4.789594 8,000 327 338 -128
2021-09-04 05:12:15 GMT 50.285431 4.794954 8,000 327 340 0
2021-09-04 05:12:12 GMT 50.282684 4.797845 8,000 327 341 0
2021-09-04 05:12:09 GMT 50.279350 4.801322 8,000 327 343 0
2021-09-04 05:12:06 GMT 50.274601 4.806222 8,000 327 342 64
2021-09-04 05:12:03 GMT 50.270924 4.810007 8,000 327 345 0
2021-09-04 05:12:00 GMT 50.266983 4.814036 8,000 327 348 0
2021-09-04 05:11:57 GMT 50.261986 4.819212 8,000 327 348 0
2021-09-04 05:11:53 GMT 50.257282 4.824037 8,000 327 348 0
2021-09-04 05:11:49 GMT 50.252815 4.828640 8,000 327 349 0
2021-09-04 05:11:46 GMT 50.247391 4.834273 8,000 327 350 -64
2021-09-04 05:11:43 GMT 50.244621 4.837102 8,000 327 350 -192
2021-09-04 05:11:40 GMT 50.240013 4.841853 8,025 327 350 -192
2021-09-04 05:11:37 GMT 50.234894 4.847198 8,025 327 350 -192
2021-09-04 05:11:34 GMT 50.232845 4.849276 8,025 327 351 -192
2021-09-04 05:11:30 GMT 50.225304 4.857145 8,050 327 352 -448
2021-09-04 05:11:27 GMT 50.223175 4.859354 8,050 327 352 -448
2021-09-04 05:11:24 GMT 50.219009 4.863763 8,075 327 353 -768
2021-09-04 05:11:21 GMT 50.214596 4.868354 8,150 327 354 -960
2021-09-04 05:11:17 GMT 50.209625 4.873593 8,250 326 355 -896
2021-09-04 05:11:14 GMT 50.204727 4.878725 9,050 326 362 -1536
2021-09-04 05:11:11 GMT 50.201569 4.882050 8,300 326 356 -896
2021-09-04 05:11:08 GMT 50.196259 4.887687 8,375 326 356 -896
2021-09-04 05:11:05 GMT 50.191692 4.892479 9,050 326 362 -1536
2021-09-04 05:11:02 GMT 50.188065 4.896361 8,450 326 357 -896
2021-09-04 05:10:59 GMT 50.184677 4.899975 8,500 326 358 -896
2021-09-04 05:10:55 GMT 50.174332 4.910816 8,575 326 360 -1216
2021-09-04 05:10:52 GMT 50.174332 4.910816 8,650 326 360 -1600
2021-09-04 05:10:49 GMT 50.170837 4.914526 8,825 326 361 -1728
2021-09-04 05:10:45 GMT 50.164124 4.921658 8,825 326 361 -1728
2021-09-04 05:10:42 GMT 50.160645 4.925272 9,025 326 363 -1408
2021-09-04 05:10:39 GMT 50.156685 4.929447 8,975 326 362 -1472
2021-09-04 05:10:34 GMT 50.150116 4.936475 9,175 326 364 -1408
2021-09-04 05:10:29 GMT 50.142673 4.944367 9,200 326 366 -1408
2021-09-04 05:10:26 GMT 50.139042 4.948227 9,275 326 367 -1408
2021-09-04 05:10:23 GMT 50.135410 4.952087 9,325 326 367 -1408
2021-09-04 05:10:20 GMT 50.130432 4.957436 9,450 326 367 -1408
2021-09-04 05:10:17 GMT 50.126007 4.962109 9,525 326 368 -1344
2021-09-04 05:10:14 GMT 50.121910 4.966414 9,750 325 368 -1408
2021-09-04 05:10:10 GMT 50.116463 4.972278 9,625 320 370 -1024
2021-09-04 05:10:07 GMT 50.110840 4.978469 9,725 325 368 -1344
2021-09-04 05:10:04 GMT 50.107849 4.981854 9,975 320 370 -1024
2021-09-04 05:09:59 GMT 50.100357 4.990829 9,950 319 371 -1024
2021-09-04 05:09:56 GMT 50.097004 4.995142 9,925 320 370 -1024
2021-09-04 05:09:53 GMT 50.093307 5.000080 9,925 320 370 -1024
2021-09-04 05:09:49 GMT 50.088299 5.007168 10,125 316 374 -1088
2021-09-04 05:09:46 GMT 50.084244 5.013163 10,100 316 373 -896
2021-09-04 05:09:43 GMT 50.080765 5.018367 10,125 316 373 -960
2021-09-04 05:09:40 GMT 50.076599 5.024800 10,200 316 374 -1472
2021-09-04 05:09:37 GMT 50.073448 5.029586 10,250 316 375 -1536
2021-09-04 05:09:34 GMT 50.068981 5.036415 10,325 316 377 -1088
2021-09-04 05:09:30 GMT 50.061344 5.048069 10,425 316 379 -1216
2021-09-04 05:09:27 GMT 50.061344 5.048069 10,450 316 381 -2240
2021-09-04 05:09:23 GMT 50.056137 5.055952 10,600 316 381 -1920
2021-09-04 05:09:19 GMT 50.047146 5.069671 12,400 316 381 -2240
2021-09-04 05:09:16 GMT 50.047146 5.069671 10,900 316 381 -2240
2021-09-04 05:09:13 GMT 50.043003 5.075981 10,950 316 381 -2240
2021-09-04 05:09:09 GMT 50.037277 5.084718 11,175 316 381 -1984
2021-09-04 05:09:05 GMT 50.032578 5.091940 11,250 316 381 -1920
2021-09-04 05:09:02 GMT 50.029999 5.095922 11,325 316 392 -3136
2021-09-04 05:08:58 GMT 50.023727 5.105535 11,450 316 383 -1792
2021-09-04 05:08:55 GMT 50.021301 5.109149 11,500 316 383 -1792
2021-09-04 05:08:52 GMT 50.017307 5.115249 11,600 316 384 -1728
2021-09-04 05:08:48 GMT 50.011047 5.124905 11,800 316 386 -1920
2021-09-04 05:08:45 GMT 50.007809 5.129799 11,925 316 386 -2432
2021-09-04 05:08:42 GMT 50.004646 5.134698 11,900 316 386 -2432
2021-09-04 05:08:39 GMT 50.000175 5.141453 12,125 316 386 -2688
2021-09-04 05:08:36 GMT 49.995193 5.149025 12,225 316 386 -2752
2021-09-04 05:08:32 GMT 49.991379 5.154889 12,375 316 386 -3072
2021-09-04 05:08:29 GMT 49.986908 5.161644 12,575 316 386 -3392
2021-09-04 05:08:26 GMT 49.983604 5.166692 12,725 316 387 -3456
2021-09-04 05:08:22 GMT 49.978546 5.174344 12,950 316 388 -3392
2021-09-04 05:08:18 GMT 49.971863 5.184535 13,250 316 389 -3264
2021-09-04 05:08:15 GMT 49.970078 5.187282 13,425 316 391 -3200
2021-09-04 05:08:12 GMT 49.961349 5.200467 13,550 316 393 -3712
2021-09-04 05:08:09 GMT 49.961349 5.200467 13,750 316 393 -3456
2021-09-04 05:08:06 GMT 49.958370 5.205070 13,975 316 394 -4032
2021-09-04 05:08:03 GMT 49.954010 5.211639 14,125 316 394 -4352
2021-09-04 05:08:00 GMT 49.949898 5.217838 14,250 316 393 -4544
2021-09-04 05:07:57 GMT 49.944443 5.226023 14,600 316 395 -4352
2021-09-04 05:07:54 GMT 49.942032 5.229715 14,725 316 395 -4352
2021-09-04 05:07:51 GMT 49.939194 5.234095 14,875 316 396 -4160
2021-09-04 05:07:48 GMT 49.931419 5.245823 15,225 316 398 -4032
2021-09-04 05:07:45 GMT 49.931419 5.245823 17,200 316 409 -4352
2021-09-04 05:07:42 GMT 49.926178 5.253778 21,000 316 437 -3968
2021-09-04 05:07:39 GMT 49.921967 5.260076 15,750 316 403 -4224
2021-09-04 05:07:35 GMT 49.917313 5.267202 16,750 316 407 -4864
2021-09-04 05:07:32 GMT 49.912125 5.275028 16,300 316 406 -4608
2021-09-04 05:07:28 GMT 49.907211 5.282420 16,600 316 407 -4928
2021-09-04 05:07:25 GMT 49.901951 5.290362 16,925 316 407 -5056
2021-09-04 05:07:22 GMT 49.899490 5.294109 18,075 316 419 -3456
2021-09-04 05:07:19 GMT 49.894920 5.300903 17,350 316 410 -4224
2021-09-04 05:07:16 GMT 49.890793 5.307192 17,675 316 409 -4352
2021-09-04 05:07:13 GMT 49.887333 5.312409 17,750 316 411 -4096
2021-09-04 05:07:10 GMT 49.883057 5.318901 18,025 316 419 -3456
2021-09-04 05:07:07 GMT 49.878662 5.325550 18,150 316 419 -3456
2021-09-04 05:07:03 GMT 49.873535 5.333284 18,450 316 427 -3520
2021-09-04 05:07:00 GMT 49.870110 5.338465 18,575 316 439 -4032
2021-09-04 05:06:57 GMT 49.864056 5.347595 18,800 316 429 -4096
2021-09-04 05:06:54 GMT 49.861176 5.351932 19,000 316 429 -4160
2021-09-04 05:06:51 GMT 49.856842 5.358433 19,250 316 432 -4032
2021-09-04 05:06:48 GMT 49.851395 5.366673 19,475 316 435 -3904
2021-09-04 05:06:45 GMT 49.849113 5.370087 19,550 316 435 -3904
2021-09-04 05:06:42 GMT 49.843948 5.377882 19,875 316 437 -3968
2021-09-04 05:06:39 GMT 49.840530 5.383012 20,400 316 444 -3264
2021-09-04 05:06:36 GMT 49.834579 5.391974 20,225 316 443 -3712
2021-09-04 05:06:33 GMT 49.831650 5.396383 20,550 316 443 -3648
2021-09-04 05:06:30 GMT 49.827255 5.402961 20,475 316 443 -3712
2021-09-04 05:06:27 GMT 49.822128 5.410694 20,725 316 447 -2624
2021-09-04 05:06:24 GMT 49.813522 5.423632 20,875 316 450 -2176
2021-09-04 05:06:21 GMT 49.813522 5.423632 21,000 316 453 -2496
2021-09-04 05:06:18 GMT 49.808716 5.430788 20,975 316 454 -2688
2021-09-04 05:06:15 GMT 49.803864 5.438084 21,175 316 453 -2560
2021-09-04 05:06:12 GMT 49.799351 5.444839 21,375 316 453 -2816
2021-09-04 05:06:09 GMT 49.796043 5.449813 21,550 316 453 -2816
2021-09-04 05:06:06 GMT 49.789017 5.460428 21,550 316 453 -2816
2021-09-04 05:06:03 GMT 49.785988 5.464956 21,725 316 453 -2816
2021-09-04 05:05:59 GMT 49.780655 5.472926 21,925 316 454 -2752
2021-09-04 05:05:56 GMT 49.775070 5.481238 22,075 316 454 -2688
2021-09-04 05:05:53 GMT 49.770996 5.487382 22,200 316 454 -2688
2021-09-04 05:05:50 GMT 49.766438 5.494203 22,300 316 454 -2688
2021-09-04 05:05:47 GMT 49.761921 5.501033 22,425 316 455 -2688
2021-09-04 05:05:44 GMT 49.751724 5.516293 22,550 316 455 -2688
2021-09-04 05:05:41 GMT 49.751724 5.516293 22,800 316 455 -2816
2021-09-04 05:05:38 GMT 49.748932 5.520407 22,800 316 455 -2816
2021-09-04 05:05:35 GMT 49.743851 5.528002 23,600 317 461 -1792
2021-09-04 05:05:32 GMT 49.739063 5.535105 23,100 317 456 -2688
2021-09-04 05:05:29 GMT 49.735062 5.541085 23,400 317 457 -2112
2021-09-04 05:05:26 GMT 49.724819 5.556335 23,475 317 457 -2112
2021-09-04 05:05:23 GMT 49.724819 5.556335 23,425 317 457 -2112
2021-09-04 05:05:19 GMT 49.717789 5.566728 23,575 317 459 -2240
2021-09-04 05:05:15 GMT 49.711853 5.575489 23,775 317 460 -2304
2021-09-04 05:05:12 GMT 49.709038 5.579644 23,875 317 461 -2176
2021-09-04 05:05:09 GMT 49.703568 5.587704 23,950 317 461 -1984
2021-09-04 05:05:06 GMT 49.699127 5.594282 24,075 317 461 -1664
2021-09-04 05:05:03 GMT 49.690155 5.607509 24,125 317 461 -1280
2021-09-04 05:05:00 GMT 49.690155 5.607509 24,200 317 463 -512
2021-09-04 05:04:57 GMT 49.685108 5.614904 24,250 317 462 -704
2021-09-04 05:04:54 GMT 49.681183 5.620663 24,275 317 463 -512
2021-09-04 05:04:51 GMT 49.676453 5.627598 24,350 317 463 -512
2021-09-04 05:04:48 GMT 49.671432 5.634974 24,325 317 463 -512
2021-09-04 05:04:45 GMT 49.667358 5.640901 24,350 317 463 -512
2021-09-04 05:04:42 GMT 49.662811 5.647567 24,375 317 463 -512
2021-09-04 05:04:39 GMT 49.657608 5.655212 24,400 317 463 -512
2021-09-04 05:04:36 GMT 49.652710 5.662339 24,400 317 463 -512
2021-09-04 05:04:33 GMT 49.647354 5.670174 24,450 317 463 -512
2021-09-04 05:04:30 GMT 49.642609 5.677111 24,475 317 463 -512
2021-09-04 05:04:27 GMT 49.639538 5.681713 24,500 317 463 -512
2021-09-04 05:04:24 GMT 49.634811 5.688677 24,525 316 463 -512
2021-09-04 05:04:21 GMT 49.630188 5.695544 24,675 316 464 -512
2021-09-04 05:04:18 GMT 49.625153 5.703133 24,575 316 464 -512
2021-09-04 05:04:15 GMT 49.620529 5.710072 24,600 316 464 -512
2021-09-04 05:04:12 GMT 49.615887 5.717122 24,625 316 464 -512
2021-09-04 05:04:09 GMT 49.611885 5.723209 24,650 316 465 -512
2021-09-04 05:04:06 GMT 49.607071 5.730454 24,650 317 465 -512
2021-09-04 05:04:03 GMT 49.601688 5.738352 24,700 318 464 -512
2021-09-04 05:04:00 GMT 49.596989 5.745107 24,700 318 465 -512
2021-09-04 05:03:57 GMT 49.593777 5.749561 24,725 318 465 -512
2021-09-04 05:03:54 GMT 49.587166 5.758543 24,775 321 467 -512
2021-09-04 05:03:51 GMT 49.582352 5.764931 24,900 323 469 -640
2021-09-04 05:03:48 GMT 49.576969 5.771831 24,850 330 466 -1024
2021-09-04 05:03:45 GMT 49.572453 5.777472 24,825 322 467 -704
2021-09-04 05:03:41 GMT 49.566494 5.784673 24,875 323 469 -640
2021-09-04 05:03:37 GMT 49.553970 5.799119 24,925 325 469 -960
2021-09-04 05:03:34 GMT 49.553970 5.799119 25,025 325 469 -960
2021-09-04 05:03:31 GMT 49.549458 5.804047 25,000 326 469 -1024
2021-09-04 05:03:29 GMT 49.545361 5.808427 25,050 326 469 -1024
2021-09-04 05:03:26 GMT 49.540100 5.814008 25,150 328 470 -1024
2021-09-04 05:03:23 GMT 49.532558 5.821640 25,150 327 469 -1024
2021-09-04 05:03:20 GMT 49.527924 5.826223 25,200 328 468 -1024
2021-09-04 05:03:17 GMT 49.524628 5.829476 25,200 328 468 -1024
2021-09-04 05:03:14 GMT 49.519135 5.834680 25,275 329 468 -1024
2021-09-04 05:03:11 GMT 49.512356 5.840941 25,375 331 463 -1088
2021-09-04 05:03:08 GMT 49.505951 5.846606 25,425 331 461 -1088
2021-09-04 05:03:04 GMT 49.499817 5.851882 25,550 333 453 -256
2021-09-04 05:03:01 GMT 49.489746 5.860122 25,550 333 455 -448
2021-09-04 05:02:58 GMT 49.489746 5.860122 25,575 334 453 -192
2021-09-04 05:02:55 GMT 49.483017 5.865398 25,575 335 451 64
2021-09-04 05:02:52 GMT 49.471161 5.873999 25,575 337 450 -256
2021-09-04 05:02:49 GMT 49.471161 5.873999 25,600 339 449 -1280
2021-09-04 05:02:46 GMT 49.464111 5.878697 25,600 339 449 -1088
2021-09-04 05:02:41 GMT 49.454041 5.884697 26,425 341 449 -2048
2021-09-04 05:02:38 GMT 49.449837 5.886965 25,875 342 450 -2112
2021-09-04 05:02:35 GMT 49.445133 5.889488 26,125 342 450 -2112
2021-09-04 05:02:31 GMT 49.437332 5.893442 26,250 342 450 -2240
2021-09-04 05:02:28 GMT 49.429230 5.897634 26,175 342 451 -2240
2021-09-04 05:02:25 GMT 49.424286 5.900151 26,900 342 454 -2304
2021-09-04 05:02:22 GMT 49.418564 5.903039 26,350 342 453 -2240
2021-09-04 05:02:19 GMT 49.412384 5.906208 26,950 342 454 -2304
2021-09-04 05:02:16 GMT 49.406357 5.909271 26,950 342 454 -2304
2021-09-04 05:02:13 GMT 49.399372 5.912813 26,700 342 454 -2304
2021-09-04 05:02:10 GMT 49.395493 5.914800 26,850 342 454 -2304
2021-09-04 05:02:07 GMT 49.387829 5.918667 26,975 342 455 -2304
2021-09-04 05:02:04 GMT 49.383957 5.920715 27,225 342 455 -2240
2021-09-04 05:02:01 GMT 49.375492 5.925028 27,225 342 456 -2240
2021-09-04 05:01:58 GMT 49.364182 5.930786 27,325 342 457 -2304
2021-09-04 05:01:55 GMT 49.364182 5.930786 28,000 342 458 -2304
2021-09-04 05:01:52 GMT 49.356453 5.934713 27,575 342 458 -2240
2021-09-04 05:01:49 GMT 49.353378 5.936279 27,650 342 458 -2240
2021-09-04 05:01:46 GMT 49.347233 5.939411 28,000 342 459 -2304
2021-09-04 05:01:43 GMT 49.339226 5.943459 27,850 342 459 -2304
2021-09-04 05:01:40 GMT 49.332642 5.946773 27,975 342 459 -2304
2021-09-04 05:01:37 GMT 49.329437 5.948463 28,575 342 460 -2240
2021-09-04 05:01:34 GMT 49.322098 5.952132 28,225 342 460 -2240
2021-09-04 05:01:31 GMT 49.310970 5.957842 28,325 342 461 -2304
2021-09-04 05:01:28 GMT 49.303474 5.961601 28,475 342 461 -2304
2021-09-04 05:01:25 GMT 49.303474 5.961601 28,575 342 461 -2304
2021-09-04 05:01:22 GMT 49.298538 5.964168 28,675 342 462 -2304
2021-09-04 05:01:19 GMT 49.292583 5.967166 28,800 342 462 -2304
2021-09-04 05:01:16 GMT 49.285538 5.970717 28,925 342 463 -2304
2021-09-04 05:01:12 GMT 49.278152 5.974539 29,100 342 464 -2304
2021-09-04 05:01:09 GMT 49.270523 5.978394 31,400 342 464 -2304
2021-09-04 05:01:05 GMT 49.264435 5.981492 29,450 342 464 -2304
2021-09-04 05:01:01 GMT 49.255051 5.986211 29,450 342 465 -2304
2021-09-04 05:00:58 GMT 49.248093 5.989732 29,575 342 465 -2304
2021-09-04 05:00:54 GMT 49.242260 5.992681 29,750 342 466 -2176
2021-09-04 05:00:51 GMT 49.232857 5.997451 29,975 342 467 -2688
2021-09-04 05:00:48 GMT 49.228867 5.999451 29,975 342 467 -2304
2021-09-04 05:00:45 GMT 49.221268 6.003324 30,075 342 467 -2688
2021-09-04 05:00:41 GMT 49.213768 6.007064 30,275 342 467 -3136
2021-09-04 05:00:38 GMT 49.208229 6.009883 30,500 342 467 -3200
2021-09-04 05:00:35 GMT 49.202225 6.012972 30,600 342 467 -3136
2021-09-04 05:00:32 GMT 49.195496 6.016423 30,800 342 466 -3008
2021-09-04 05:00:29 GMT 49.189133 6.019663 30,925 342 466 -2752
2021-09-04 05:00:25 GMT 49.181992 6.023325 31,100 342 466 -2560
2021-09-04 05:00:22 GMT 49.176315 6.026212 31,225 342 466 -2304
2021-09-04 05:00:19 GMT 49.169769 6.029593 31,375 342 467 -2304
2021-09-04 05:00:16 GMT 49.164749 6.032145 31,475 342 467 -2304
2021-09-04 05:00:13 GMT 49.157684 6.035720 31,475 342 467 -2304
2021-09-04 05:00:10 GMT 49.145290 6.042047 31,725 342 470 -2368
2021-09-04 05:00:07 GMT 49.145290 6.042047 31,875 342 469 -2304
2021-09-04 05:00:03 GMT 49.136257 6.046600 31,975 342 469 -2304
2021-09-04 05:00:00 GMT 49.131042 6.049312 32,050 342 469 -2304
2021-09-04 04:59:57 GMT 49.125179 6.052310 32,150 342 470 -2368
2021-09-04 04:59:54 GMT 49.117546 6.056141 32,375 342 470 -2368
2021-09-04 04:59:50 GMT 49.109024 6.060509 32,500 342 471 -2304
2021-09-04 04:59:47 GMT 49.103668 6.063185 32,525 342 471 -2304
2021-09-04 04:59:43 GMT 49.095612 6.067341 32,775 342 472 -2368
2021-09-04 04:59:40 GMT 49.089287 6.070525 32,875 342 472 -2368
2021-09-04 04:59:37 GMT 49.082073 6.074211 33,075 342 473 -2368
2021-09-04 04:59:34 GMT 49.070160 6.080299 33,125 342 472 -2304
2021-09-04 04:59:31 GMT 49.070160 6.080299 34,650 342 475 -2368
2021-09-04 04:59:28 GMT 49.057400 6.086787 33,525 342 475 -2368
2021-09-04 04:59:25 GMT 49.057400 6.086787 33,475 342 475 -2304
2021-09-04 04:59:22 GMT 49.051998 6.089534 33,500 342 474 -2368
2021-09-04 04:59:18 GMT 49.044506 6.093292 33,675 342 475 -2304
2021-09-04 04:59:15 GMT 49.039215 6.096004 33,725 342 476 -2304
2021-09-04 04:59:12 GMT 49.031193 6.100086 33,925 342 477 -2304
2021-09-04 04:59:09 GMT 49.025024 6.103187 34,050 342 478 -2304
2021-09-04 04:59:06 GMT 49.019348 6.106004 34,150 342 478 -2304
2021-09-04 04:59:03 GMT 49.013077 6.109173 34,275 342 479 -2304
2021-09-04 04:59:00 GMT 49.006241 6.112591 34,375 342 479 -2304
2021-09-04 04:58:57 GMT 48.999954 6.115771 34,675 342 478 -2432
2021-09-04 04:58:54 GMT 48.993118 6.119173 34,675 342 479 -2432
2021-09-04 04:58:51 GMT 48.987946 6.121770 34,775 342 478 -2368
2021-09-04 04:58:48 GMT 48.979145 6.126179 34,850 342 478 -2240
2021-09-04 04:58:45 GMT 48.976212 6.127625 34,900 342 478 -2112
2021-09-04 04:58:42 GMT 48.959976 6.135723 35,075 342 477 -1856
2021-09-04 04:58:39 GMT 48.959976 6.135723 35,150 342 477 -1600
2021-09-04 04:58:36 GMT 48.953587 6.138900 35,325 342 477 -1280
2021-09-04 04:58:33 GMT 48.950134 6.140653 35,325 342 477 -1216
2021-09-04 04:58:30 GMT 48.942398 6.144527 35,375 342 480 -1024
2021-09-04 04:58:27 GMT 48.937248 6.147067 35,400 342 479 -960
2021-09-04 04:58:24 GMT 48.930500 6.150465 35,475 342 479 -1024
2021-09-04 04:58:21 GMT 48.923904 6.153752 35,550 342 480 -960
2021-09-04 04:58:18 GMT 48.918533 6.156464 35,550 342 480 -960
2021-09-04 04:58:15 GMT 48.912323 6.159598 35,625 342 480 -960
2021-09-04 04:58:12 GMT 48.906006 6.162767 35,700 342 480 -960
2021-09-04 04:58:08 GMT 48.895584 6.168028 35,800 342 480 -1024
2021-09-04 04:58:05 GMT 48.891350 6.170197 35,825 341 482 -960
2021-09-04 04:58:01 GMT 48.880642 6.175690 35,875 341 481 -768
2021-09-04 04:57:58 GMT 48.876526 6.177838 35,875 341 481 -1024
2021-09-04 04:57:55 GMT 48.870121 6.181183 35,925 341 482 -960
2021-09-04 04:57:52 GMT 48.863892 6.184458 35,975 341 481 -576
2021-09-04 04:57:49 GMT 48.856979 6.188190 36,000 341 481 -128
2021-09-04 04:57:46 GMT 48.851349 6.191218 36,000 343 480 0
2021-09-04 04:57:43 GMT 48.845032 6.194388 36,000 345 480 64
2021-09-04 04:57:40 GMT 48.838669 6.197416 36,000 349 479 -64
2021-09-04 04:57:37 GMT 48.831062 6.200626 36,000 346 480 64
2021-09-04 04:57:34 GMT 48.826546 6.202360 36,000 347 480 0
2021-09-04 04:57:31 GMT 48.818771 6.205035 36,000 349 479 -64
2021-09-04 04:57:28 GMT 48.811066 6.207275 36,000 353 479 -128
2021-09-04 04:57:25 GMT 48.806030 6.208543 36,000 355 478 64
2021-09-04 04:57:22 GMT 48.798710 6.210022 36,000 355 478 0
2021-09-04 04:57:19 GMT 48.791794 6.211149 36,000 355 478 64
2021-09-04 04:57:16 GMT 48.787170 6.211853 36,000 355 478 0
2021-09-04 04:57:13 GMT 48.777390 6.213202 36,000 355 479 0
2021-09-04 04:57:10 GMT 48.772659 6.213825 36,000 355 479 0
2021-09-04 04:57:07 GMT 48.764633 6.214937 36,000 355 479 0
2021-09-04 04:57:04 GMT 48.760757 6.215515 36,000 355 479 0
2021-09-04 04:57:01 GMT 48.754253 6.216382 36,000 355 478 0
2021-09-04 04:56:58 GMT 48.746105 6.217539 36,000 355 479 0
2021-09-04 04:56:55 GMT 48.739426 6.218473 36,000 355 479 0
2021-09-04 04:56:52 GMT 48.733116 6.219346 36,000 355 480 0
2021-09-04 04:56:49 GMT 48.726738 6.220213 36,000 355 478 0
2021-09-04 04:56:46 GMT 48.719711 6.221153 36,000 355 478 0
2021-09-04 04:56:43 GMT 48.713196 6.222065 36,000 355 478 0
2021-09-04 04:56:40 GMT 48.708115 6.222769 36,000 355 478 0
2021-09-04 04:56:37 GMT 48.699646 6.223899 36,000 355 479 0
2021-09-04 04:56:34 GMT 48.693920 6.224695 36,000 355 479 0
2021-09-04 04:56:31 GMT 48.687309 6.225634 36,000 355 479 0
2021-09-04 04:56:28 GMT 48.681538 6.226429 36,000 355 479 0
2021-09-04 04:56:25 GMT 48.673279 6.227558 36,000 355 479 0
2021-09-04 04:56:22 GMT 48.668655 6.228192 36,000 355 479 0
2021-09-04 04:56:19 GMT 48.658634 6.229537 36,000 355 478 0
2021-09-04 04:56:16 GMT 48.652676 6.230405 36,000 355 478 0
2021-09-04 04:56:13 GMT 48.645767 6.231361 36,000 355 478 0
2021-09-04 04:56:10 GMT 48.638149 6.232356 36,000 355 480 0
2021-09-04 04:56:07 GMT 48.632721 6.233121 36,000 355 480 0
2021-09-04 04:56:04 GMT 48.625900 6.234037 36,000 355 480 0
2021-09-04 04:56:01 GMT 48.620361 6.234812 36,000 355 480 0
2021-09-04 04:55:58 GMT 48.611755 6.236009 36,000 355 480 0
2021-09-04 04:55:55 GMT 48.600494 6.237558 36,000 355 480 0
2021-09-04 04:55:52 GMT 48.600494 6.237558 36,000 355 480 0
2021-09-04 04:55:49 GMT 48.593903 6.238474 36,000 355 480 0
2021-09-04 04:55:46 GMT 48.581867 6.240162 36,000 355 480 0
2021-09-04 04:55:43 GMT 48.581867 6.240162 36,000 355 481 0
2021-09-04 04:55:40 GMT 48.574326 6.241174 36,000 355 481 0
2021-09-04 04:55:37 GMT 48.567352 6.242136 36,000 355 481 0
2021-09-04 04:55:34 GMT 48.561756 6.242909 36,000 355 481 0
2021-09-04 04:55:31 GMT 48.553333 6.244065 36,000 355 480 0
2021-09-04 04:55:28 GMT 48.546257 6.245077 36,000 355 482 0
2021-09-04 04:55:25 GMT 48.541718 6.245657 36,000 355 482 0
2021-09-04 04:55:22 GMT 48.533936 6.246713 36,000 355 482 0
2021-09-04 04:55:19 GMT 48.528103 6.247535 36,000 355 482 0
2021-09-04 04:55:16 GMT 48.520561 6.248546 36,000 355 481 0
2021-09-04 04:55:13 GMT 48.514320 6.249414 36,000 355 481 0
2021-09-04 04:55:09 GMT 48.506126 6.250498 36,000 355 481 0
2021-09-04 04:55:07 GMT 48.500702 6.251291 36,000 355 481 0
2021-09-04 04:55:04 GMT 48.494064 6.252136 36,000 355 481 0
2021-09-04 04:55:01 GMT 48.488068 6.252981 36,000 355 481 0
2021-09-04 04:54:58 GMT 48.482300 6.253756 36,000 355 482 0
2021-09-04 04:54:55 GMT 48.473774 6.254907 36,000 355 482 0
2021-09-04 04:54:53 GMT 48.470764 6.255305 36,000 355 482 0
2021-09-04 04:54:50 GMT 48.463814 6.256280 36,000 355 482 0
2021-09-04 04:54:47 GMT 48.450729 6.258087 36,000 355 482 0
2021-09-04 04:54:44 GMT 48.450729 6.258087 36,000 355 482 0
2021-09-04 04:54:41 GMT 48.444073 6.259027 36,000 355 482 0
2021-09-04 04:54:38 GMT 48.437183 6.259966 36,000 355 482 0
2021-09-04 04:54:35 GMT 48.429459 6.261051 36,000 355 482 0
2021-09-04 04:54:33 GMT 48.425220 6.261629 36,000 355 482 0
2021-09-04 04:54:30 GMT 48.419262 6.262424 36,000 355 482 0
2021-09-04 04:54:28 GMT 48.415833 6.262911 36,000 355 484 0
2021-09-04 04:54:24 GMT 48.405853 6.264249 36,000 355 483 0
2021-09-04 04:54:21 GMT 48.399712 6.265098 36,000 355 483 0
2021-09-04 04:54:18 GMT 48.394169 6.265893 36,000 355 483 0
2021-09-04 04:54:15 GMT 48.380081 6.267841 36,000 355 483 0
2021-09-04 04:54:12 GMT 48.380081 6.267841 36,000 355 483 0
2021-09-04 04:54:09 GMT 48.372070 6.268897 36,000 355 483 0
2021-09-04 04:54:06 GMT 48.363541 6.270085 36,000 355 482 0
2021-09-04 04:54:03 GMT 48.359070 6.270664 36,000 355 484 0
2021-09-04 04:54:00 GMT 48.351654 6.271714 36,000 355 484 0
2021-09-04 04:53:57 GMT 48.346298 6.272419 36,000 355 484 0
2021-09-04 04:53:54 GMT 48.339287 6.273410 36,000 355 484 0
2021-09-04 04:53:51 GMT 48.332863 6.274278 36,000 355 484 0
2021-09-04 04:53:48 GMT 48.326157 6.275217 36,000 355 484 0
2021-09-04 04:53:45 GMT 48.319153 6.276151 36,000 355 482 -64
2021-09-04 04:53:42 GMT 48.313614 6.276926 36,000 355 483 0
2021-09-04 04:53:39 GMT 48.300476 6.278757 36,000 355 483 0
2021-09-04 04:53:36 GMT 48.300476 6.278757 36,000 355 483 0
2021-09-04 04:53:33 GMT 48.291824 6.279884 36,000 355 484 0
2021-09-04 04:53:30 GMT 48.287239 6.280566 36,000 355 483 0
2021-09-04 04:53:27 GMT 48.278114 6.281794 36,000 355 483 0
2021-09-04 04:53:24 GMT 48.270573 6.282806 36,000 355 483 0
2021-09-04 04:53:21 GMT 48.265686 6.283457 36,000 355 482 0
2021-09-04 04:53:18 GMT 48.259029 6.284397 36,000 355 482 -64
2021-09-04 04:53:15 GMT 48.250946 6.285447 36,000 355 482 0
2021-09-04 04:53:12 GMT 48.246689 6.286011 36,000 355 482 0
2021-09-04 04:53:09 GMT 48.238037 6.287208 36,000 355 481 0
2021-09-04 04:53:06 GMT 48.225742 6.288878 36,000 355 482 0
2021-09-04 04:53:03 GMT 48.225742 6.288878 36,000 355 481 0
2021-09-04 04:53:00 GMT 48.218994 6.289743 36,000 355 481 0
2021-09-04 04:52:57 GMT 48.214432 6.290396 36,000 355 481 0
2021-09-04 04:52:54 GMT 48.205307 6.291624 36,000 355 482 0
2021-09-04 04:52:51 GMT 48.200775 6.292208 36,000 355 481 0
2021-09-04 04:52:48 GMT 48.191025 6.293546 36,000 355 481 0
2021-09-04 04:52:44 GMT 48.183472 6.294532 36,000 355 481 0
2021-09-04 04:52:41 GMT 48.171936 6.296082 36,000 355 482 0
2021-09-04 04:52:38 GMT 48.171936 6.296082 36,000 355 482 0
2021-09-04 04:52:36 GMT 48.166626 6.296786 36,000 355 482 0
2021-09-04 04:52:33 GMT 48.156940 6.298124 36,000 355 482 0
2021-09-04 04:52:30 GMT 48.152206 6.298737 36,000 355 482 0
2021-09-04 04:52:27 GMT 48.146744 6.299462 36,000 355 482 0
2021-09-04 04:52:23 GMT 48.136002 6.300934 36,000 355 481 0
2021-09-04 04:52:20 GMT 48.130779 6.301645 36,000 355 481 0
2021-09-04 04:52:17 GMT 48.124008 6.302513 36,000 355 482 0
2021-09-04 04:52:13 GMT 48.114670 6.303818 36,000 355 482 0
2021-09-04 04:52:10 GMT 48.107922 6.304673 36,000 355 482 0
2021-09-04 04:52:07 GMT 48.099609 6.305809 36,000 355 482 0
2021-09-04 04:52:04 GMT 48.095074 6.306434 36,000 355 482 0
2021-09-04 04:52:01 GMT 48.086975 6.307526 36,000 355 481 0
2021-09-04 04:51:58 GMT 48.082226 6.308195 36,000 355 481 0
2021-09-04 04:51:56 GMT 48.078453 6.308688 36,000 355 481 0
2021-09-04 04:51:53 GMT 48.070911 6.309674 36,000 355 481 0
2021-09-04 04:51:50 GMT 48.062393 6.310822 36,000 355 481 0
2021-09-04 04:51:47 GMT 48.057724 6.311440 36,000 355 480 0
2021-09-04 04:51:44 GMT 48.051086 6.312332 36,000 355 480 0
2021-09-04 04:51:41 GMT 48.044563 6.313265 36,000 355 480 0
2021-09-04 04:51:37 GMT 48.035568 6.314461 36,000 355 480 0
2021-09-04 04:51:34 GMT 48.022110 6.316246 36,000 355 480 0
2021-09-04 04:51:31 GMT 48.022110 6.316246 36,000 355 480 0
2021-09-04 04:51:28 GMT 48.013607 6.317420 36,000 355 480 0
2021-09-04 04:51:24 GMT 48.006180 6.318375 36,000 355 480 0
2021-09-04 04:51:21 GMT 48.000340 6.319181 36,000 355 479 0
2021-09-04 04:51:18 GMT 47.993591 6.320091 36,000 355 479 0
2021-09-04 04:51:15 GMT 47.984985 6.321259 36,000 355 479 0
2021-09-04 04:51:12 GMT 47.979218 6.322014 36,000 355 479 0
2021-09-04 04:51:09 GMT 47.973495 6.322769 36,000 355 479 0
2021-09-04 04:51:06 GMT 47.966541 6.323688 36,000 355 479 0
2021-09-04 04:51:03 GMT 47.953629 6.325447 36,000 355 479 0
2021-09-04 04:51:00 GMT 47.953629 6.325447 36,000 355 479 0
2021-09-04 04:50:57 GMT 47.939400 6.327350 36,000 355 479 0
2021-09-04 04:50:54 GMT 47.939400 6.327350 36,000 355 479 0
2021-09-04 04:50:51 GMT 47.934631 6.327988 36,000 355 478 0
2021-09-04 04:50:48 GMT 47.926941 6.329018 36,000 355 478 0
2021-09-04 04:50:46 GMT 47.922409 6.329604 36,000 355 478 0
2021-09-04 04:50:43 GMT 47.916683 6.330379 36,000 355 478 0
2021-09-04 04:50:40 GMT 47.910141 6.331215 36,000 355 478 0
2021-09-04 04:50:37 GMT 47.902679 6.332245 36,000 355 478 0
2021-09-04 04:50:33 GMT 47.892334 6.333618 36,000 355 478 0
2021-09-04 04:50:30 GMT 47.888008 6.334182 36,000 355 478 0
2021-09-04 04:50:26 GMT 47.873154 6.336159 36,000 355 478 0
2021-09-04 04:50:23 GMT 47.873154 6.336159 36,000 355 478 0
2021-09-04 04:50:20 GMT 47.865990 6.337139 36,000 355 478 0
2021-09-04 04:50:16 GMT 47.855530 6.338562 36,000 355 478 0
2021-09-04 04:50:13 GMT 47.849232 6.339393 36,000 355 478 0
2021-09-04 04:50:10 GMT 47.843628 6.340073 36,000 355 478 0
2021-09-04 04:50:07 GMT 47.835892 6.341103 36,000 355 479 0
2021-09-04 04:50:03 GMT 47.827744 6.342201 36,000 355 479 0
2021-09-04 04:50:00 GMT 47.822021 6.342957 36,000 355 479 0
2021-09-04 04:49:57 GMT 47.814827 6.343900 36,000 355 479 0
2021-09-04 04:49:54 GMT 47.808105 6.344810 36,000 355 479 0
2021-09-04 04:49:51 GMT 47.800186 6.345909 36,000 355 479 0
2021-09-04 04:49:48 GMT 47.795105 6.346527 36,000 355 479 0
2021-09-04 04:49:45 GMT 47.786499 6.347694 36,000 355 479 0
2021-09-04 04:49:42 GMT 47.782146 6.348267 36,000 355 479 0
2021-09-04 04:49:39 GMT 47.775421 6.349205 36,000 355 479 0
2021-09-04 04:49:36 GMT 47.765621 6.350450 36,000 355 479 0
2021-09-04 04:49:33 GMT 47.761322 6.351059 36,000 355 479 0
2021-09-04 04:49:30 GMT 47.748917 6.352707 36,000 355 479 0
2021-09-04 04:49:27 GMT 47.748917 6.352707 36,000 355 479 0
2021-09-04 04:49:25 GMT 47.743511 6.353408 36,000 355 479 0
2021-09-04 04:49:22 GMT 47.736900 6.354253 36,000 355 479 0
2021-09-04 04:49:19 GMT 47.731640 6.354957 36,000 355 479 -64
2021-09-04 04:49:16 GMT 47.724014 6.356003 36,000 355 479 0
2021-09-04 04:49:12 GMT 47.709106 6.357985 36,000 355 479 -64
2021-09-04 04:49:09 GMT 47.709106 6.357985 36,000 355 479 -64
2021-09-04 04:49:06 GMT 47.700729 6.359042 36,000 355 478 0
2021-09-04 04:49:03 GMT 47.693653 6.360028 36,000 355 479 0
2021-09-04 04:49:00 GMT 47.688034 6.360741 36,000 355 478 0
2021-09-04 04:48:57 GMT 47.681442 6.361633 36,000 355 478 0
2021-09-04 04:48:54 GMT 47.673477 6.362663 36,000 355 478 0
2021-09-04 04:48:51 GMT 47.668095 6.363338 36,000 355 478 0
2021-09-04 04:48:48 GMT 47.660831 6.364324 36,000 355 478 0
2021-09-04 04:48:45 GMT 47.656311 6.364929 36,000 355 478 0
2021-09-04 04:48:42 GMT 47.649567 6.365802 36,000 355 478 0
2021-09-04 04:48:39 GMT 47.640537 6.367000 36,000 355 478 0
2021-09-04 04:48:36 GMT 47.635925 6.367634 36,000 355 479 0
2021-09-04 04:48:33 GMT 47.630199 6.368408 36,000 355 479 0
2021-09-04 04:48:30 GMT 47.622803 6.369392 36,000 355 478 0
2021-09-04 04:48:27 GMT 47.617401 6.370098 36,000 355 478 0
2021-09-04 04:48:24 GMT 47.609116 6.371178 36,000 355 478 0
2021-09-04 04:48:21 GMT 47.602642 6.372070 36,000 355 478 0
2021-09-04 04:48:18 GMT 47.590073 6.373690 36,000 355 478 0
2021-09-04 04:48:15 GMT 47.590073 6.373690 36,000 355 478 0
2021-09-04 04:48:12 GMT 47.582932 6.374611 36,000 355 478 0
2021-09-04 04:48:09 GMT 47.574432 6.375732 36,000 355 478 0
2021-09-04 04:48:06 GMT 47.569172 6.376437 36,000 355 478 0
2021-09-04 04:48:03 GMT 47.563980 6.377151 36,000 355 478 0
2021-09-04 04:48:00 GMT 47.555145 6.378319 36,000 355 478 0
2021-09-04 04:47:57 GMT 47.549339 6.379113 36,000 355 478 0
2021-09-04 04:47:54 GMT 47.543613 6.379817 36,000 355 478 0
2021-09-04 04:47:51 GMT 47.536423 6.380791 36,000 355 478 0
2021-09-04 04:47:47 GMT 47.526203 6.382141 36,000 355 478 0
2021-09-04 04:47:44 GMT 47.523010 6.382576 36,000 355 478 0
2021-09-04 04:47:41 GMT 47.515869 6.383479 36,000 355 477 0
2021-09-04 04:47:38 GMT 47.508911 6.384430 36,000 355 478 0
2021-09-04 04:47:35 GMT 47.503418 6.385117 36,000 355 478 0
2021-09-04 04:47:32 GMT 47.487007 6.387282 36,000 355 478 0
2021-09-04 04:47:29 GMT 47.487007 6.387282 36,000 355 478 0
2021-09-04 04:47:26 GMT 47.478439 6.388409 36,000 355 478 0
2021-09-04 04:47:24 GMT 47.478439 6.388409 36,000 355 478 0
2021-09-04 04:47:21 GMT 47.469410 6.389606 36,000 355 477 0
2021-09-04 04:47:18 GMT 47.462677 6.390472 36,000 355 477 0
2021-09-04 04:47:15 GMT 47.454987 6.391502 36,000 355 477 0
2021-09-04 04:47:12 GMT 47.449722 6.392189 36,000 355 477 0
2021-09-04 04:47:08 GMT 47.442215 6.393150 36,000 355 477 0
2021-09-04 04:47:05 GMT 47.436592 6.393902 36,000 355 477 0
2021-09-04 04:47:02 GMT 47.428677 6.394958 36,000 355 477 0
2021-09-04 04:46:59 GMT 47.421112 6.395966 36,000 355 477 0
2021-09-04 04:46:56 GMT 47.416260 6.396584 36,000 355 477 0
2021-09-04 04:46:54 GMT 47.410995 6.397270 36,000 355 477 0
2021-09-04 04:46:50 GMT 47.403076 6.398300 36,000 355 477 0
2021-09-04 04:46:47 GMT 47.397583 6.399055 36,000 355 477 0
2021-09-04 04:46:44 GMT 47.382660 6.400978 36,000 355 477 0
2021-09-04 04:46:41 GMT 47.376938 6.401733 36,000 355 477 0
2021-09-04 04:46:38 GMT 47.376938 6.401733 36,000 355 477 0
2021-09-04 04:46:35 GMT 47.371216 6.402489 36,000 355 477 0
2021-09-04 04:46:32 GMT 47.362427 6.403656 36,000 355 476 0
2021-09-04 04:46:29 GMT 47.356846 6.404395 36,000 355 476 0
2021-09-04 04:46:26 GMT 47.349930 6.405304 36,000 355 476 0
2021-09-04 04:46:23 GMT 47.343567 6.406128 36,000 355 476 0
2021-09-04 04:46:20 GMT 47.336178 6.407072 36,000 355 476 0
2021-09-04 04:46:17 GMT 47.330612 6.407845 36,000 355 476 0
2021-09-04 04:46:14 GMT 47.324707 6.408600 36,000 355 476 0
2021-09-04 04:46:11 GMT 47.318207 6.409466 36,000 355 476 0
2021-09-04 04:46:08 GMT 47.308758 6.410663 36,000 355 476 0
2021-09-04 04:46:05 GMT 47.304291 6.411278 36,000 355 476 0
2021-09-04 04:46:02 GMT 47.297585 6.412142 36,000 355 476 0
2021-09-04 04:45:59 GMT 47.291107 6.412994 36,000 355 476 0
2021-09-04 04:45:56 GMT 47.283875 6.413956 36,000 355 476 0
2021-09-04 04:45:54 GMT 47.279480 6.414505 36,000 355 476 0
2021-09-04 04:45:51 GMT 47.273804 6.415260 36,000 355 476 0
2021-09-04 04:45:48 GMT 47.264908 6.416438 36,000 355 476 0
2021-09-04 04:45:45 GMT 47.260391 6.416977 36,000 355 476 0
2021-09-04 04:45:42 GMT 47.252060 6.418076 36,000 355 476 0
2021-09-04 04:45:39 GMT 47.246426 6.418833 36,000 355 476 0
2021-09-04 04:45:36 GMT 47.240978 6.419537 36,000 355 476 0
2021-09-04 04:45:33 GMT 47.233841 6.420479 36,000 355 476 0
2021-09-04 04:45:30 GMT 47.226917 6.421368 36,000 355 476 0
2021-09-04 04:45:27 GMT 47.219238 6.422354 36,000 355 477 0
2021-09-04 04:45:24 GMT 47.213047 6.423129 36,000 355 478 0
2021-09-04 04:45:21 GMT 47.206146 6.424049 36,000 355 477 0
2021-09-04 04:45:17 GMT 47.198570 6.425030 36,000 355 477 0
2021-09-04 04:45:14 GMT 47.194290 6.425560 36,000 355 477 0
2021-09-04 04:45:12 GMT 47.187469 6.426453 36,000 355 477 0
2021-09-04 04:45:09 GMT 47.180740 6.427354 36,000 355 477 0
2021-09-04 04:45:06 GMT 47.174175 6.428199 36,000 355 477 0
2021-09-04 04:45:03 GMT 47.167797 6.429044 36,000 355 478 0
2021-09-04 04:45:00 GMT 47.161186 6.429889 36,000 355 478 0
2021-09-04 04:44:57 GMT 47.152390 6.431016 36,000 355 478 0
2021-09-04 04:44:54 GMT 47.147873 6.431602 36,000 355 478 0
2021-09-04 04:44:51 GMT 47.141823 6.432354 36,000 355 478 0
2021-09-04 04:44:48 GMT 47.134232 6.433388 36,000 355 478 0
2021-09-04 04:44:45 GMT 47.129021 6.434044 36,000 355 478 0
2021-09-04 04:44:43 GMT 47.122330 6.434898 36,000 355 478 0
2021-09-04 04:44:40 GMT 47.116837 6.435585 36,000 355 478 0
2021-09-04 04:44:37 GMT 47.109787 6.436546 36,000 355 478 0
2021-09-04 04:44:34 GMT 47.103508 6.437354 36,000 355 478 0
2021-09-04 04:44:31 GMT 47.097317 6.438129 36,000 355 478 64
2021-09-04 04:44:28 GMT 47.089172 6.439186 36,000 355 478 0
2021-09-04 04:44:24 GMT 47.081257 6.440242 36,000 355 478 0
2021-09-04 04:44:21 GMT 47.074646 6.441087 36,000 355 478 0
2021-09-04 04:44:18 GMT 47.066689 6.442073 36,000 355 479 0
2021-09-04 04:44:15 GMT 47.062408 6.442657 36,000 355 480 0
2021-09-04 04:44:12 GMT 47.057003 6.443341 36,000 355 479 0
2021-09-04 04:44:09 GMT 47.048393 6.444467 36,000 355 479 0
2021-09-04 04:44:06 GMT 47.042435 6.445242 36,000 355 479 0
2021-09-04 04:44:03 GMT 47.035034 6.446228 36,000 355 479 0
2021-09-04 04:44:00 GMT 47.029495 6.446915 36,000 355 479 0
2021-09-04 04:43:57 GMT 47.021858 6.447918 36,000 355 480 0
2021-09-04 04:43:54 GMT 47.016132 6.448693 36,000 355 480 0
2021-09-04 04:43:51 GMT 47.008591 6.449608 36,000 355 480 0
2021-09-04 04:43:48 GMT 47.001328 6.450594 36,000 355 480 0
2021-09-04 04:43:45 GMT 46.995667 6.451309 36,000 355 480 0
2021-09-04 04:43:43 GMT 46.990250 6.452003 36,000 355 480 0
2021-09-04 04:43:39 GMT 46.981064 6.453232 36,000 355 480 0
2021-09-04 04:43:36 GMT 46.974140 6.454116 36,000 355 480 0
2021-09-04 04:43:33 GMT 46.969254 6.454749 36,000 355 479 0
2021-09-04 04:43:30 GMT 46.962410 6.455595 36,000 355 477 0
2021-09-04 04:43:27 GMT 46.955658 6.456459 36,000 355 479 0
2021-09-04 04:43:24 GMT 46.948380 6.457420 36,000 355 479 0
2021-09-04 04:43:20 GMT 46.940872 6.458382 36,000 355 479 0
2021-09-04 04:43:17 GMT 46.934151 6.459257 36,000 355 479 0
2021-09-04 04:43:14 GMT 46.926544 6.460236 36,000 355 479 0
2021-09-04 04:43:12 GMT 46.923119 6.460665 36,000 355 479 0
2021-09-04 04:43:08 GMT 46.914597 6.461815 36,000 355 478 0
2021-09-04 04:43:05 GMT 46.906548 6.462848 36,000 355 478 0
2021-09-04 04:43:02 GMT 46.901054 6.463553 36,000 355 478 0
2021-09-04 04:42:58 GMT 46.891022 6.464836 36,000 355 478 0
2021-09-04 04:42:55 GMT 46.884659 6.465660 36,000 355 478 0
2021-09-04 04:42:53 GMT 46.880337 6.466229 36,000 355 478 0
2021-09-04 04:42:50 GMT 46.872890 6.467215 36,000 355 478 0
2021-09-04 04:42:47 GMT 46.868134 6.467789 36,000 355 477 0
2021-09-04 04:42:44 GMT 46.861313 6.468670 36,000 355 477 0
2021-09-04 04:42:42 GMT 46.857788 6.469139 36,000 355 477 0
2021-09-04 04:42:39 GMT 46.849335 6.470261 36,000 355 477 0
2021-09-04 04:42:35 GMT 46.839188 6.471565 36,000 355 477 0
2021-09-04 04:42:32 GMT 46.834717 6.472153 36,000 355 477 0
2021-09-04 04:42:27 GMT 46.821590 6.473831 36,000 355 477 0
2021-09-04 04:42:24 GMT 46.817551 6.474364 36,000 355 477 0
2021-09-04 04:42:21 GMT 46.811722 6.475136 36,000 355 477 0
2021-09-04 04:42:18 GMT 46.803909 6.476172 36,000 355 477 0
2021-09-04 04:42:14 GMT 46.795238 6.477333 36,000 355 477 0
2021-09-04 04:42:11 GMT 46.789284 6.478088 36,000 355 477 0
2021-09-04 04:42:08 GMT 46.779411 6.479324 36,000 355 477 0
2021-09-04 04:42:05 GMT 46.775223 6.479874 36,000 356 477 0
2021-09-04 04:42:02 GMT 46.767654 6.480862 36,000 356 477 0
2021-09-04 04:41:58 GMT 46.760746 6.481728 36,000 356 477 0
2021-09-04 04:41:55 GMT 46.746639 6.483444 36,000 356 477 0
2021-09-04 04:41:52 GMT 46.737762 6.484613 36,000 356 477 -64
2021-09-04 04:41:49 GMT 46.737762 6.484613 36,000 356 477 64
2021-09-04 04:41:45 GMT 46.731171 6.485417 36,000 356 477 0
2021-09-04 04:41:42 GMT 46.716522 6.487221 36,000 356 477 0
2021-09-04 04:41:39 GMT 46.716522 6.487221 36,000 356 478 0
2021-09-04 04:41:36 GMT 46.712036 6.487829 36,000 356 478 0
2021-09-04 04:41:33 GMT 46.705399 6.488633 36,000 356 478 0
2021-09-04 04:41:31 GMT 46.700546 6.489235 36,000 356 478 0
2021-09-04 04:41:27 GMT 46.691528 6.490374 36,000 356 478 0
2021-09-04 04:41:24 GMT 46.684250 6.491245 36,000 356 478 0
2021-09-04 04:41:21 GMT 46.678627 6.491959 36,000 356 479 0
2021-09-04 04:41:17 GMT 46.668365 6.493188 36,000 356 479 64
2021-09-04 04:41:14 GMT 46.661404 6.494087 36,000 356 479 64
2021-09-04 04:41:11 GMT 46.655910 6.494705 36,000 356 479 64
2021-09-04 04:41:07 GMT 46.647530 6.495735 36,000 356 479 0
2021-09-04 04:41:04 GMT 46.641449 6.496470 36,000 356 479 0
2021-09-04 04:41:01 GMT 46.634125 6.497341 36,000 356 479 0
2021-09-04 04:40:58 GMT 46.626205 6.498279 36,000 356 479 0
2021-09-04 04:40:55 GMT 46.620529 6.498962 36,000 356 479 0
2021-09-04 04:40:52 GMT 46.613033 6.499855 36,000 356 479 0
2021-09-04 04:40:49 GMT 46.607307 6.500542 36,000 356 479 0
2021-09-04 04:40:46 GMT 46.598698 6.501640 36,000 355 479 0
2021-09-04 04:40:43 GMT 46.595390 6.502052 36,000 355 479 0
2021-09-04 04:40:40 GMT 46.588852 6.502901 36,000 355 480 -64
2021-09-04 04:40:36 GMT 46.577282 6.504387 36,000 355 480 0
2021-09-04 04:40:33 GMT 46.571228 6.505246 36,000 355 480 0
2021-09-04 04:40:30 GMT 46.567474 6.505782 36,000 355 480 0
2021-09-04 04:40:27 GMT 46.559738 6.506854 36,000 355 480 0
2021-09-04 04:40:24 GMT 46.552795 6.507820 36,000 355 480 0
2021-09-04 04:40:21 GMT 46.546185 6.508781 36,000 355 480 0
2021-09-04 04:40:18 GMT 46.537575 6.509949 36,000 355 480 0
2021-09-04 04:40:14 GMT 46.530167 6.511007 36,000 355 480 0
2021-09-04 04:40:11 GMT 46.523190 6.512009 36,000 355 480 -64
2021-09-04 04:40:07 GMT 46.515152 6.513151 36,000 355 480 0
2021-09-04 04:40:04 GMT 46.507416 6.514223 36,000 355 480 0
2021-09-04 04:40:00 GMT 46.500656 6.515167 36,000 355 481 0
2021-09-04 04:39:56 GMT 46.489811 6.516747 36,000 355 481 0
2021-09-04 04:39:53 GMT 46.484505 6.517502 36,000 355 480 0
2021-09-04 04:39:50 GMT 46.478439 6.518309 36,000 355 480 0
2021-09-04 04:39:46 GMT 46.468815 6.519699 36,000 355 480 0
2021-09-04 04:39:43 GMT 46.463425 6.520453 36,000 355 480 0
2021-09-04 04:39:40 GMT 46.455688 6.521525 36,000 355 480 0
2021-09-04 04:39:36 GMT 46.446625 6.522797 36,000 355 480 0
2021-09-04 04:39:33 GMT 46.440559 6.523682 36,000 355 480 0
2021-09-04 04:39:30 GMT 46.433167 6.524673 36,000 355 480 0
2021-09-04 04:39:26 GMT 46.424217 6.525948 36,000 355 480 0
2021-09-04 04:39:23 GMT 46.418381 6.526817 36,000 355 480 0
2021-09-04 04:39:20 GMT 46.411560 6.527755 36,000 355 479 0
2021-09-04 04:39:17 GMT 46.404575 6.528763 36,000 355 479 0
2021-09-04 04:39:14 GMT 46.399734 6.529449 36,000 355 479 0
2021-09-04 04:39:11 GMT 46.389584 6.530891 36,000 355 479 0
2021-09-04 04:39:08 GMT 46.383774 6.531707 36,000 355 479 0
2021-09-04 04:39:05 GMT 46.378052 6.532578 36,000 355 479 0
2021-09-04 04:39:02 GMT 46.372513 6.533315 36,000 355 479 -64
2021-09-04 04:38:59 GMT 46.365143 6.534393 36,000 355 479 -64
2021-09-04 04:38:55 GMT 46.355988 6.535659 36,000 355 479 0
2021-09-04 04:38:52 GMT 46.350723 6.536396 36,000 355 478 64
2021-09-04 04:38:49 GMT 46.340607 6.537870 36,000 355 478 0
2021-09-04 04:38:45 GMT 46.334015 6.538808 36,000 355 478 0
2021-09-04 04:38:42 GMT 46.321106 6.540573 36,000 355 478 0
2021-09-04 04:38:39 GMT 46.321106 6.540573 36,000 355 479 0
2021-09-04 04:38:36 GMT 46.314541 6.541534 36,000 355 479 0
2021-09-04 04:38:33 GMT 46.308014 6.542425 36,000 355 479 0
2021-09-04 04:38:31 GMT 46.296715 6.544075 36,000 355 479 0
2021-09-04 04:38:28 GMT 46.296715 6.544075 36,000 355 479 0
2021-09-04 04:38:25 GMT 46.290100 6.544968 36,000 355 479 0
2021-09-04 04:38:22 GMT 46.285259 6.545654 36,000 355 479 0
2021-09-04 04:38:20 GMT 46.278763 6.546579 36,000 355 479 0
2021-09-04 04:38:17 GMT 46.272125 6.547517 36,000 355 479 0
2021-09-04 04:38:14 GMT 46.266548 6.548332 36,000 355 479 0
2021-09-04 04:38:11 GMT 46.257843 6.549526 36,000 355 479 0
2021-09-04 04:38:08 GMT 46.253559 6.550117 36,000 355 479 0
2021-09-04 04:38:04 GMT 46.237034 6.552452 36,000 355 479 0
2021-09-04 04:38:01 GMT 46.237034 6.552452 36,000 355 479 0
2021-09-04 04:37:58 GMT 46.232143 6.553139 36,000 355 479 0
2021-09-04 04:37:54 GMT 46.222229 6.554512 36,000 355 479 0
2021-09-04 04:37:51 GMT 46.214314 6.555611 36,000 355 479 0
2021-09-04 04:37:48 GMT 46.208038 6.556493 36,000 355 479 0
2021-09-04 04:37:45 GMT 46.202728 6.557297 36,000 355 480 0
2021-09-04 04:37:42 GMT 46.195557 6.558289 36,000 355 480 0
2021-09-04 04:37:39 GMT 46.189041 6.559173 36,000 355 480 0
2021-09-04 04:37:36 GMT 46.180565 6.560417 36,000 355 480 0
2021-09-04 04:37:33 GMT 46.175259 6.561104 36,000 355 480 0
2021-09-04 04:37:28 GMT 46.165009 6.562589 36,000 355 480 0
2021-09-04 04:37:24 GMT 46.155380 6.563919 36,000 355 480 0
2021-09-04 04:37:21 GMT 46.150307 6.564606 36,000 355 480 0
2021-09-04 04:37:18 GMT 46.142258 6.565738 36,000 355 480 0
2021-09-04 04:37:15 GMT 46.136719 6.566542 36,000 355 480 0
2021-09-04 04:37:12 GMT 46.128658 6.567696 36,000 355 480 0
2021-09-04 04:37:09 GMT 46.122620 6.568484 36,000 355 480 0
2021-09-04 04:37:06 GMT 46.115753 6.569489 36,000 355 481 0
2021-09-04 04:37:03 GMT 46.109116 6.570427 36,000 355 481 0
2021-09-04 04:37:00 GMT 46.104359 6.571060 36,000 355 481 0
2021-09-04 04:36:57 GMT 46.097282 6.572090 36,000 355 481 0
2021-09-04 04:36:54 GMT 46.088562 6.573308 36,000 355 481 0
2021-09-04 04:36:51 GMT 46.083252 6.574045 36,000 355 481 0
2021-09-04 04:36:48 GMT 46.074055 6.575317 36,000 355 481 0
2021-09-04 04:36:45 GMT 46.069519 6.575920 36,000 355 481 0
2021-09-04 04:36:42 GMT 46.059769 6.577327 36,000 355 481 0
2021-09-04 04:36:40 GMT 46.059769 6.577327 36,000 355 481 0
2021-09-04 04:36:37 GMT 46.051941 6.578407 36,000 355 481 -64
2021-09-04 04:36:33 GMT 46.042969 6.579672 36,000 355 481 0
2021-09-04 04:36:30 GMT 46.035557 6.580673 36,000 355 481 0
2021-09-04 04:36:27 GMT 46.030106 6.581413 36,000 355 481 0
2021-09-04 04:36:24 GMT 46.022369 6.582552 36,000 355 481 0
2021-09-04 04:36:21 GMT 46.016647 6.583356 36,000 355 481 0
2021-09-04 04:36:18 GMT 46.002827 6.585274 36,000 355 481 64
2021-09-04 04:36:15 GMT 46.002827 6.585274 36,000 355 481 0
2021-09-04 04:36:12 GMT 45.987442 6.587376 36,000 355 481 0
2021-09-04 04:36:09 GMT 45.987442 6.587376 36,000 355 481 0
2021-09-04 04:36:05 GMT 45.974293 6.589188 36,000 355 480 0
2021-09-04 04:36:02 GMT 45.974293 6.589188 36,000 355 480 0
2021-09-04 04:35:59 GMT 45.967987 6.590055 36,000 355 480 0
2021-09-04 04:35:56 GMT 45.962265 6.590859 36,000 355 480 0
2021-09-04 04:35:53 GMT 45.954300 6.591998 36,000 355 480 64
2021-09-04 04:35:50 GMT 45.947662 6.592936 36,000 355 480 0
2021-09-04 04:35:47 GMT 45.939743 6.594008 36,000 355 480 0
2021-09-04 04:35:44 GMT 45.935188 6.594681 36,000 355 480 0
2021-09-04 04:35:41 GMT 45.927925 6.595642 36,000 355 480 0
2021-09-04 04:35:38 GMT 45.921432 6.596553 36,000 355 480 0
2021-09-04 04:35:35 GMT 45.914471 6.597496 36,000 355 479 64
2021-09-04 04:35:32 GMT 45.908512 6.598320 36,000 355 479 64
2021-09-04 04:35:27 GMT 45.894829 6.600243 36,000 355 479 0
2021-09-04 04:35:24 GMT 45.890404 6.600861 36,000 355 479 0
2021-09-04 04:35:21 GMT 45.885563 6.601547 36,000 355 479 0
2021-09-04 04:35:18 GMT 45.877186 6.602715 36,000 355 479 0
2021-09-04 04:35:15 GMT 45.870026 6.603721 36,000 355 479 0
2021-09-04 04:35:12 GMT 45.864429 6.604500 36,000 355 479 0
2021-09-04 04:35:09 GMT 45.855515 6.605731 36,000 355 478 0
2021-09-04 04:35:06 GMT 45.850788 6.606422 36,000 355 478 64
2021-09-04 04:35:03 GMT 45.844070 6.607339 36,000 355 478 0
2021-09-04 04:35:00 GMT 45.835846 6.608482 36,000 355 477 0
2021-09-04 04:34:57 GMT 45.831345 6.609080 36,000 355 477 0
2021-09-04 04:34:54 GMT 45.824627 6.610062 36,000 355 477 0
2021-09-04 04:34:51 GMT 45.818573 6.610889 36,000 355 477 64
2021-09-04 04:34:48 GMT 45.810570 6.611984 36,000 355 477 -64
2021-09-04 04:34:45 GMT 45.803120 6.613083 36,000 355 477 -64
2021-09-04 04:34:41 GMT 45.794319 6.614319 36,000 355 477 0
2021-09-04 04:34:38 GMT 45.781311 6.616114 36,000 355 477 0
2021-09-04 04:34:34 GMT 45.781311 6.616114 36,000 355 477 0
2021-09-04 04:34:31 GMT 45.774490 6.617119 36,000 355 477 -64
2021-09-04 04:34:28 GMT 45.766800 6.618191 36,000 355 477 -64
2021-09-04 04:34:24 GMT 45.759033 6.619263 36,000 355 477 0
2021-09-04 04:34:21 GMT 45.752792 6.620134 36,000 355 477 -64
2021-09-04 04:34:18 GMT 45.745331 6.621138 36,000 355 477 -64
2021-09-04 04:34:15 GMT 45.738510 6.622076 36,000 355 477 -64
2021-09-04 04:34:12 GMT 45.732834 6.622880 36,000 355 477 -64
2021-09-04 04:34:09 GMT 45.726883 6.623684 36,000 355 478 0
2021-09-04 04:34:05 GMT 45.718441 6.624893 36,000 355 478 0
2021-09-04 04:34:02 GMT 45.709641 6.626060 36,000 355 478 0
2021-09-04 04:33:58 GMT 45.702896 6.627034 36,000 355 479 0
2021-09-04 04:33:55 GMT 45.693878 6.628239 36,000 355 480 0
2021-09-04 04:33:52 GMT 45.686600 6.629244 36,000 355 480 0
2021-09-04 04:33:48 GMT 45.678635 6.630316 36,000 355 481 0
2021-09-04 04:33:45 GMT 45.674194 6.630919 36,000 355 482 0
2021-09-04 04:33:42 GMT 45.666115 6.632034 36,000 355 482 0
2021-09-04 04:33:39 GMT 45.659546 6.632929 36,000 355 483 0
2021-09-04 04:33:36 GMT 45.652679 6.633866 36,000 355 483 0
2021-09-04 04:33:33 GMT 45.645214 6.634850 36,000 355 483 0
2021-09-04 04:33:29 GMT 45.638672 6.635742 36,000 355 484 0
2021-09-04 04:33:26 GMT 45.631668 6.636703 36,000 355 484 0
2021-09-04 04:33:23 GMT 45.624893 6.637618 36,000 355 484 0
2021-09-04 04:33:20 GMT 45.617294 6.638623 36,000 355 484 0
2021-09-04 04:33:16 GMT 45.608719 6.639793 36,000 355 484 0
2021-09-04 04:33:13 GMT 45.602600 6.640632 36,000 355 484 0
2021-09-04 04:33:10 GMT 45.596146 6.641570 36,000 355 484 -64
2021-09-04 04:33:07 GMT 45.588699 6.642540 36,000 355 483 0
2021-09-04 04:33:04 GMT 45.581268 6.643580 36,000 355 483 0
2021-09-04 04:33:01 GMT 45.574585 6.644518 36,000 355 483 64
2021-09-04 04:32:57 GMT 45.566448 6.645630 36,000 355 483 0
2021-09-04 04:32:53 GMT 45.556904 6.646935 36,000 355 483 0
2021-09-04 04:32:48 GMT 45.546429 6.648376 36,000 355 483 0
2021-09-04 04:32:44 GMT 45.536133 6.649737 36,000 355 483 0
2021-09-04 04:32:41 GMT 45.529114 6.650681 36,000 355 483 0
2021-09-04 04:32:38 GMT 45.523453 6.651437 36,000 355 483 0
2021-09-04 04:32:35 GMT 45.518097 6.652156 36,000 355 483 0
2021-09-04 04:32:32 GMT 45.511330 6.653093 36,000 355 483 0
2021-09-04 04:32:29 GMT 45.503555 6.654097 36,000 355 483 0
2021-09-04 04:32:26 GMT 45.494896 6.655303 36,000 355 483 0
2021-09-04 04:32:23 GMT 45.490242 6.655906 36,000 355 483 0
2021-09-04 04:32:19 GMT 45.482468 6.656978 36,000 355 483 0
2021-09-04 04:32:16 GMT 45.475708 6.657846 36,000 355 482 0
2021-09-04 04:32:13 GMT 45.468155 6.658892 36,000 355 482 0
2021-09-04 04:32:10 GMT 45.461613 6.659725 36,000 355 482 0
2021-09-04 04:32:06 GMT 45.452637 6.660985 36,000 355 482 0
2021-09-04 04:32:03 GMT 45.445953 6.661835 36,000 355 482 0
2021-09-04 04:32:00 GMT 45.439316 6.662750 36,000 355 481 -64
2021-09-04 04:31:56 GMT 45.430481 6.663927 36,000 355 481 0
2021-09-04 04:31:53 GMT 45.425812 6.664516 36,000 355 481 0
2021-09-04 04:31:50 GMT 45.416828 6.665754 36,000 355 481 0
2021-09-04 04:31:47 GMT 45.410980 6.666543 36,000 355 481 0
2021-09-04 04:31:44 GMT 45.404678 6.667428 36,000 355 481 0
2021-09-04 04:31:41 GMT 45.397293 6.668505 36,000 355 481 0
2021-09-04 04:31:38 GMT 45.391525 6.669290 36,000 355 481 0
2021-09-04 04:31:35 GMT 45.385872 6.670041 36,000 355 481 0
2021-09-04 04:31:32 GMT 45.378250 6.671121 36,000 355 481 -64
2021-09-04 04:31:28 GMT 45.368832 6.672453 36,000 355 481 64
2021-09-04 04:31:25 GMT 45.363235 6.673213 36,000 355 481 64
2021-09-04 04:31:22 GMT 45.355801 6.674261 36,000 355 481 0
2021-09-04 04:31:19 GMT 45.349190 6.675199 36,000 355 480 0
2021-09-04 04:31:16 GMT 45.336803 6.676874 36,000 355 481 0
2021-09-04 04:31:13 GMT 45.336803 6.676874 36,000 355 481 0
2021-09-04 04:31:10 GMT 45.329266 6.677879 36,000 355 480 -64
2021-09-04 04:31:07 GMT 45.324097 6.678576 36,000 355 480 0
2021-09-04 04:31:03 GMT 45.314926 6.679821 36,000 355 480 0
2021-09-04 04:30:59 GMT 45.304184 6.681322 36,000 355 480 0
2021-09-04 04:30:56 GMT 45.296818 6.682300 36,000 355 480 -64
2021-09-04 04:30:53 GMT 45.292282 6.682892 36,000 355 479 0
2021-09-04 04:30:50 GMT 45.282120 6.684331 36,000 355 479 0
2021-09-04 04:30:47 GMT 45.278595 6.684788 36,000 355 479 0
2021-09-04 04:30:44 GMT 45.271446 6.685784 36,000 355 479 0
2021-09-04 04:30:41 GMT 45.265594 6.686554 36,000 355 479 0
2021-09-04 04:30:37 GMT 45.256760 6.687731 36,000 355 480 0
2021-09-04 04:30:34 GMT 45.249615 6.688731 36,000 355 480 0
2021-09-04 04:30:31 GMT 45.241653 6.689803 36,000 355 480 0
2021-09-04 04:30:27 GMT 45.232956 6.690935 36,000 355 480 0
2021-09-04 04:30:22 GMT 45.224010 6.692148 36,000 355 480 0
2021-09-04 04:30:19 GMT 45.216614 6.693159 36,000 355 480 0
2021-09-04 04:30:16 GMT 45.211075 6.693878 36,000 355 480 64
2021-09-04 04:30:13 GMT 45.203110 6.694990 36,000 355 480 64
2021-09-04 04:30:09 GMT 45.195518 6.696033 36,000 355 480 0
2021-09-04 04:30:06 GMT 45.186768 6.697213 36,000 355 480 64
2021-09-04 04:30:03 GMT 45.180176 6.698129 36,000 355 480 64
2021-09-04 04:30:00 GMT 45.175964 6.698717 36,000 355 480 0
2021-09-04 04:29:56 GMT 45.166798 6.699918 36,000 355 480 0
2021-09-04 04:29:53 GMT 45.158524 6.701072 36,000 355 480 0
2021-09-04 04:29:50 GMT 45.153763 6.701727 36,000 355 480 0
2021-09-04 04:29:47 GMT 45.145615 6.702799 36,000 355 480 0
2021-09-04 04:29:43 GMT 45.137653 6.703871 36,000 355 480 0
2021-09-04 04:29:38 GMT 45.125427 6.705518 36,000 355 480 0
2021-09-04 04:29:35 GMT 45.118057 6.706483 36,000 355 479 0
2021-09-04 04:29:31 GMT 45.109314 6.707676 36,000 355 479 0
2021-09-04 04:29:27 GMT 45.103485 6.708493 36,000 355 479 0
2021-09-04 04:29:24 GMT 45.093658 6.709835 36,000 355 479 0
2021-09-04 04:29:20 GMT 45.087708 6.710619 36,000 355 480 0
2021-09-04 04:29:17 GMT 45.080841 6.711535 36,000 355 480 0
2021-09-04 04:29:13 GMT 45.071365 6.712843 36,000 355 479 0
2021-09-04 04:29:10 GMT 45.064896 6.713718 36,000 355 480 0
2021-09-04 04:29:06 GMT 45.052414 6.715393 36,000 355 480 0
2021-09-04 04:29:03 GMT 45.047203 6.716130 36,000 355 480 0
2021-09-04 04:28:59 GMT 45.040825 6.717001 36,000 355 480 0
2021-09-04 04:28:56 GMT 45.033749 6.717939 36,000 355 480 0
2021-09-04 04:28:52 GMT 45.025139 6.719078 36,000 355 480 0
2021-09-04 04:28:48 GMT 45.015747 6.720363 36,000 355 480 0
2021-09-04 04:28:45 GMT 45.009029 6.721288 36,000 355 480 0
2021-09-04 04:28:42 GMT 45.002289 6.722194 36,000 355 479 64
2021-09-04 04:28:39 GMT 44.995346 6.723097 36,000 355 479 0
2021-09-04 04:28:36 GMT 44.989388 6.723901 36,000 355 479 -64
2021-09-04 04:28:33 GMT 44.980225 6.725137 36,000 355 479 0
2021-09-04 04:28:28 GMT 44.971092 6.726379 36,000 355 479 0
2021-09-04 04:28:25 GMT 44.965134 6.727183 36,000 355 479 0
2021-09-04 04:28:22 GMT 44.958389 6.728080 36,000 355 479 0
2021-09-04 04:28:19 GMT 44.952026 6.728930 36,000 355 479 0
2021-09-04 04:28:15 GMT 44.944183 6.729997 36,000 355 479 -64
2021-09-04 04:28:12 GMT 44.937805 6.730868 36,000 355 479 -64
2021-09-04 04:28:08 GMT 44.925468 6.732542 36,000 355 478 64
2021-09-04 04:28:05 GMT 44.922272 6.732984 36,000 355 479 0
2021-09-04 04:28:02 GMT 44.912384 6.734292 36,000 355 479 0
2021-09-04 04:27:59 GMT 44.906662 6.735077 36,000 355 479 -64
2021-09-04 04:27:55 GMT 44.899155 6.736058 36,000 355 479 -64
2021-09-04 04:27:52 GMT 44.891922 6.737039 36,000 355 479 0
2021-09-04 04:27:48 GMT 44.883774 6.738150 36,000 355 479 0
2021-09-04 04:27:45 GMT 44.876724 6.739066 36,000 355 479 64
2021-09-04 04:27:41 GMT 44.867889 6.740243 36,000 355 479 0
2021-09-04 04:27:38 GMT 44.861298 6.741093 36,000 355 479 0
2021-09-04 04:27:34 GMT 44.853561 6.742140 36,000 355 479 0
2021-09-04 04:27:28 GMT 44.839462 6.744036 36,000 355 480 64
2021-09-04 04:27:24 GMT 44.832039 6.745003 36,000 355 480 -64
2021-09-04 04:27:21 GMT 44.821705 6.746409 36,000 355 479 -64
2021-09-04 04:27:17 GMT 44.812729 6.747567 36,000 355 479 64
2021-09-04 04:27:13 GMT 44.805908 6.748483 36,000 355 479 64
2021-09-04 04:27:07 GMT 44.794006 6.750118 36,000 355 479 0
2021-09-04 04:27:03 GMT 44.784119 6.751426 36,000 355 479 0
2021-09-04 04:27:00 GMT 44.775970 6.752472 36,000 355 478 0
2021-09-04 04:26:57 GMT 44.771530 6.753060 36,000 355 478 64
2021-09-04 04:26:54 GMT 44.764297 6.754107 36,000 355 478 64
2021-09-04 04:26:49 GMT 44.754181 6.755415 36,000 355 478 0
2021-09-04 04:26:46 GMT 44.745346 6.756657 36,000 355 478 -64
2021-09-04 04:26:43 GMT 44.739075 6.757463 36,000 355 478 0
2021-09-04 04:26:37 GMT 44.727203 6.759070 36,000 355 478 0
2021-09-04 04:26:33 GMT 44.718292 6.760254 36,000 355 478 0
2021-09-04 04:26:30 GMT 44.710304 6.761348 36,000 355 478 0
2021-09-04 04:26:27 GMT 44.704468 6.762085 36,000 355 478 0
2021-09-04 04:26:24 GMT 44.699615 6.762739 36,000 355 478 0
2021-09-04 04:26:21 GMT 44.693127 6.763559 36,000 355 478 0
2021-09-04 04:26:18 GMT 44.684875 6.764701 36,000 355 478 0
2021-09-04 04:26:15 GMT 44.676773 6.765747 36,000 355 478 0
2021-09-04 04:26:11 GMT 44.671463 6.766466 36,000 355 478 -64
2021-09-04 04:26:07 GMT 44.660587 6.767913 36,000 355 477 0
2021-09-04 04:26:03 GMT 44.653885 6.768821 36,000 355 477 64
2021-09-04 04:26:00 GMT 44.640747 6.770586 36,000 355 476 0
2021-09-04 04:25:57 GMT 44.640747 6.770586 36,000 355 476 0
2021-09-04 04:25:54 GMT 44.634155 6.771436 36,000 355 476 0
2021-09-04 04:25:51 GMT 44.626373 6.772468 36,000 355 476 0
2021-09-04 04:25:48 GMT 44.609520 6.774746 36,000 355 476 0
2021-09-04 04:25:44 GMT 44.609520 6.774746 36,000 355 476 0
2021-09-04 04:25:41 GMT 44.603607 6.775550 36,000 355 476 0
2021-09-04 04:25:36 GMT 44.594391 6.776823 36,000 355 475 0
2021-09-04 04:25:33 GMT 44.586521 6.777895 36,000 355 475 0
2021-09-04 04:25:30 GMT 44.581730 6.778497 36,000 355 475 0
2021-09-04 04:25:26 GMT 44.571442 6.779904 36,000 355 475 -64
2021-09-04 04:25:20 GMT 44.559311 6.781638 36,000 355 475 0
2021-09-04 04:25:16 GMT 44.548954 6.783053 36,000 355 474 0
2021-09-04 04:25:12 GMT 44.539783 6.784393 36,000 355 474 -64
2021-09-04 04:25:08 GMT 44.532150 6.785464 36,000 355 475 0
2021-09-04 04:25:05 GMT 44.526470 6.786268 36,000 355 475 -64
2021-09-04 04:25:00 GMT 44.514359 6.787981 36,000 355 475 0
2021-09-04 04:24:56 GMT 44.506027 6.789224 36,000 354 475 0
2021-09-04 04:24:53 GMT 44.499146 6.790221 36,000 354 475 -64
2021-09-04 04:24:48 GMT 44.487259 6.791970 36,000 354 476 0
2021-09-04 04:24:45 GMT 44.481766 6.792821 36,000 358 481 -64
2021-09-04 04:24:42 GMT 44.476612 6.793570 36,000 354 476 -64
2021-09-04 04:24:39 GMT 44.468513 6.794843 36,000 354 476 0
2021-09-04 04:24:35 GMT 44.460068 6.796090 36,000 354 477 64
2021-09-04 04:24:32 GMT 44.453804 6.797054 36,000 354 477 64
2021-09-04 04:24:29 GMT 44.447239 6.798125 36,000 354 478 64
2021-09-04 04:24:25 GMT 44.438210 6.799465 36,000 354 478 64
2021-09-04 04:24:22 GMT 44.432484 6.800403 36,000 354 479 64
2021-09-04 04:24:18 GMT 44.421913 6.802011 36,000 355 479 0
2021-09-04 04:24:14 GMT 44.415070 6.803016 36,000 358 481 -64
2021-09-04 04:24:10 GMT 44.405914 6.804265 36,000 355 480 0
2021-09-04 04:24:07 GMT 44.398819 6.805246 36,000 355 480 64
2021-09-04 04:24:04 GMT 44.392181 6.806030 36,000 357 480 0
2021-09-04 04:24:00 GMT 44.383648 6.806901 36,000 359 481 0
2021-09-04 04:23:57 GMT 44.376572 6.807504 36,000 358 481 -64
2021-09-04 04:23:54 GMT 44.370102 6.807906 36,000 359 482 0
2021-09-04 04:23:51 GMT 44.363678 6.808241 36,000 359 482 0
2021-09-04 04:23:48 GMT 44.356789 6.808509 36,000 359 482 0
2021-09-04 04:23:45 GMT 44.349976 6.808711 36,000 359 481 0
2021-09-04 04:23:42 GMT 44.343292 6.809038 36,000 359 481 0
2021-09-04 04:23:37 GMT 44.332535 6.809447 36,000 359 481 0
2021-09-04 04:23:34 GMT 44.324947 6.809715 36,000 359 481 0
2021-09-04 04:23:31 GMT 44.318989 6.809983 36,000 359 481 0
2021-09-04 04:23:28 GMT 44.302090 6.810653 36,000 359 481 0
2021-09-04 04:23:24 GMT 44.302090 6.810653 36,000 359 481 0
2021-09-04 04:23:21 GMT 44.293198 6.810988 36,000 359 481 -64
2021-09-04 04:23:17 GMT 44.286392 6.811262 36,000 359 481 -64
2021-09-04 04:23:13 GMT 44.278301 6.811590 36,000 359 481 0
2021-09-04 04:23:10 GMT 44.270947 6.811925 36,000 359 482 0
2021-09-04 04:23:07 GMT 44.264523 6.812126 36,000 359 482 0
2021-09-04 04:23:03 GMT 44.255264 6.812504 36,000 359 482 0
2021-09-04 04:23:00 GMT 44.250694 6.812729 36,000 359 483 0
2021-09-04 04:22:57 GMT 44.242813 6.813028 36,000 359 483 0
2021-09-04 04:22:54 GMT 44.234756 6.813289 36,000 359 483 0
2021-09-04 04:22:50 GMT 44.226162 6.813667 36,000 359 484 64
2021-09-04 04:22:45 GMT 44.217224 6.814002 36,000 359 484 64
2021-09-04 04:22:42 GMT 44.210175 6.814270 36,000 359 485 128
2021-09-04 04:22:39 GMT 44.201584 6.814605 36,000 359 487 64
2021-09-04 04:22:36 GMT 44.197067 6.814806 36,000 359 487 0
2021-09-04 04:22:32 GMT 44.186779 6.815186 36,000 359 486 0
2021-09-04 04:22:29 GMT 44.180031 6.815447 36,000 359 486 0
2021-09-04 04:22:26 GMT 44.174862 6.815643 36,000 359 487 64
2021-09-04 04:22:23 GMT 44.166294 6.815970 36,000 359 487 0
2021-09-04 04:22:20 GMT 44.159409 6.816250 36,000 359 487 0
2021-09-04 04:22:16 GMT 44.149979 6.816633 36,000 359 487 0
2021-09-04 04:22:13 GMT 44.144348 6.816889 36,000 359 487 0
2021-09-04 04:22:09 GMT 44.135788 6.817208 36,000 359 487 -64
2021-09-04 04:22:06 GMT 44.126446 6.817540 36,000 359 487 -64
2021-09-04 04:22:03 GMT 44.120728 6.817783 36,000 359 487 0
2021-09-04 04:21:59 GMT 44.113178 6.818063 36,000 359 487 64
2021-09-04 04:21:54 GMT 44.102146 6.818521 36,000 359 486 0
2021-09-04 04:21:51 GMT 44.094513 6.818782 36,000 359 486 0
2021-09-04 04:21:48 GMT 44.085434 6.819188 36,000 359 486 0
2021-09-04 04:21:45 GMT 44.082275 6.819316 36,000 359 486 0
2021-09-04 04:21:40 GMT 44.067326 6.819894 36,000 359 486 0
2021-09-04 04:21:37 GMT 44.062729 6.820083 36,000 359 485 0
2021-09-04 04:21:33 GMT 44.051971 6.820530 36,000 359 485 0
2021-09-04 04:21:28 GMT 44.044235 6.820810 36,000 359 485 0
2021-09-04 04:21:25 GMT 44.036270 6.821168 36,000 359 485 0
2021-09-04 04:21:21 GMT 44.027069 6.821552 36,000 359 484 0
2021-09-04 04:21:18 GMT 44.021378 6.821790 36,000 359 484 0
2021-09-04 04:21:15 GMT 44.013657 6.822063 36,000 359 484 0
2021-09-04 04:21:12 GMT 44.006699 6.822382 36,000 359 484 0
2021-09-04 04:21:09 GMT 43.999687 6.822641 36,000 359 484 0
2021-09-04 04:21:04 GMT 43.990631 6.822957 36,000 359 484 0
2021-09-04 04:21:01 GMT 43.982227 6.823295 36,000 359 484 0
2021-09-04 04:20:57 GMT 43.974289 6.823596 36,000 359 484 0
2021-09-04 04:20:54 GMT 43.967377 6.823851 36,000 359 483 0
2021-09-04 04:20:49 GMT 43.953735 6.824362 36,000 359 483 0
2021-09-04 04:20:42 GMT 43.937119 6.824995 36,000 359 483 0
2021-09-04 04:20:38 GMT 43.931767 6.825191 36,000 359 483 0
2021-09-04 04:20:34 GMT 43.922363 6.825583 36,000 359 483 0
2021-09-04 04:20:31 GMT 43.914776 6.825845 36,000 359 483 0
2021-09-04 04:20:28 GMT 43.908417 6.826087 36,000 359 483 0
2021-09-04 04:20:21 GMT 43.892303 6.826725 36,000 359 483 0
2021-09-04 04:20:18 GMT 43.887177 6.826917 36,000 359 483 0
2021-09-04 04:20:11 GMT 43.869663 6.827611 36,000 359 483 0
2021-09-04 04:20:07 GMT 43.862541 6.827872 36,000 359 483 0
2021-09-04 04:20:02 GMT 43.848484 6.828461 36,000 359 483 0
2021-09-04 04:19:58 GMT 43.841446 6.828706 36,000 359 483 0
2021-09-04 04:19:53 GMT 43.824139 6.829376 36,000 359 483 0
2021-09-04 04:19:50 GMT 43.824139 6.829376 36,000 359 483 0
2021-09-04 04:19:46 GMT 43.814083 6.829769 36,000 359 483 0
2021-09-04 04:19:41 GMT 43.801712 6.830302 36,000 359 483 0
2021-09-04 04:19:37 GMT 43.795368 6.830488 36,000 359 483 0
2021-09-04 04:19:30 GMT 43.778275 6.831197 36,000 359 483 64
2021-09-04 04:19:27 GMT 43.771671 6.831469 36,000 359 484 64
2021-09-04 04:19:22 GMT 43.761848 6.831861 36,000 359 484 0
2021-09-04 04:19:19 GMT 43.751907 6.832219 36,000 359 483 0
2021-09-04 04:19:16 GMT 43.748444 6.832384 36,000 359 483 0
2021-09-04 04:19:10 GMT 43.733685 6.832908 36,000 359 483 0
2021-09-04 04:19:06 GMT 43.724796 6.833300 36,000 359 483 0
2021-09-04 04:19:01 GMT 43.715515 6.833624 36,000 359 483 0
2021-09-04 04:18:57 GMT 43.704033 6.834085 36,000 359 483 0
2021-09-04 04:18:51 GMT 43.693634 6.834454 36,000 359 483 0
2021-09-04 04:18:46 GMT 43.680801 6.835000 36,000 359 484 0
2021-09-04 04:18:39 GMT 43.664928 6.835589 36,000 359 484 0
2021-09-04 04:18:36 GMT 43.657993 6.835850 36,000 359 484 0
2021-09-04 04:18:31 GMT 43.648357 6.836243 36,000 359 484 0
2021-09-04 04:18:28 GMT 43.640442 6.836562 36,000 359 484 0
2021-09-04 04:18:25 GMT 43.633484 6.836818 36,000 359 484 0
2021-09-04 04:18:21 GMT 43.625080 6.837158 36,000 359 485 0
2021-09-04 04:18:17 GMT 43.616043 6.837520 36,000 359 485 0
2021-09-04 04:18:11 GMT 43.601337 6.838008 36,000 359 487 0
2021-09-04 04:18:08 GMT 43.597183 6.838223 36,000 359 487 0
2021-09-04 04:18:05 GMT 43.588348 6.838531 36,000 359 486 0
2021-09-04 04:18:00 GMT 43.579365 6.838858 36,000 359 486 0
2021-09-04 04:17:56 GMT 43.570038 6.839245 36,000 359 486 0
2021-09-04 04:17:50 GMT 43.556763 6.839756 36,000 359 486 0
2021-09-04 04:17:45 GMT 43.544079 6.840232 36,000 359 487 0
2021-09-04 04:17:40 GMT 43.533512 6.840624 36,000 359 487 0
2021-09-04 04:17:37 GMT 43.525726 6.840905 36,000 359 487 64
2021-09-04 04:17:34 GMT 43.518997 6.841161 36,000 359 487 0
2021-09-04 04:17:29 GMT 43.507965 6.841608 36,000 359 487 0
2021-09-04 04:17:26 GMT 43.502228 6.841801 36,000 359 486 0
2021-09-04 04:17:19 GMT 43.485374 6.842455 36,000 359 486 0
2021-09-04 04:17:14 GMT 43.474228 6.842886 36,000 359 486 0
2021-09-04 04:17:09 GMT 43.457199 6.843524 36,000 359 485 0
2021-09-04 04:17:06 GMT 43.457199 6.843524 36,000 359 485 0
2021-09-04 04:16:59 GMT 43.441040 6.844163 36,000 359 485 0
2021-09-04 04:16:56 GMT 43.434448 6.844417 36,000 359 485 0
2021-09-04 04:16:49 GMT 43.416183 6.845121 36,000 359 484 0
2021-09-04 04:16:45 GMT 43.409821 6.845333 36,000 359 484 0
2021-09-04 04:16:39 GMT 43.392929 6.846015 36,000 359 484 0
2021-09-04 04:16:35 GMT 43.388443 6.846143 36,000 359 484 0
2021-09-04 04:16:32 GMT 43.381844 6.846379 36,000 359 484 64
2021-09-04 04:16:28 GMT 43.371185 6.846846 36,000 359 485 0
2021-09-04 04:16:25 GMT 43.366158 6.847033 36,000 359 485 0
2021-09-04 04:16:21 GMT 43.357170 6.847360 36,000 359 485 0
2021-09-04 04:16:18 GMT 43.349899 6.847612 36,000 359 485 0
2021-09-04 04:16:15 GMT 43.343300 6.847883 36,000 359 485 -64
2021-09-04 04:16:12 GMT 43.335896 6.848145 36,000 359 485 -64
2021-09-04 04:16:08 GMT 43.326912 6.848472 36,000 359 485 -64
2021-09-04 04:16:05 GMT 43.321095 6.848733 36,000 359 485 0
2021-09-04 04:16:02 GMT 43.313370 6.849017 36,000 359 485 0
2021-09-04 04:15:58 GMT 43.303986 6.849401 36,000 359 484 0
2021-09-04 04:15:55 GMT 43.298050 6.849583 36,000 359 484 0
2021-09-04 04:15:52 GMT 43.291443 6.849848 36,000 359 484 0
2021-09-04 04:15:50 GMT 43.286728 6.850039 36,000 359 484 0
2021-09-04 04:15:45 GMT 43.275970 6.850423 36,000 359 484 0
2021-09-04 04:15:42 GMT 43.268909 6.850760 36,000 359 485 0
2021-09-04 04:15:39 GMT 43.259739 6.851087 36,000 359 485 -64
2021-09-04 04:15:35 GMT 43.252441 6.851381 36,000 359 485 -64
2021-09-04 04:15:32 GMT 43.245758 6.851636 36,000 359 485 0
2021-09-04 04:15:28 GMT 43.230179 6.852264 36,000 359 485 64
2021-09-04 04:15:25 GMT 43.230179 6.852264 36,000 359 485 0
2021-09-04 04:15:20 GMT 43.219070 6.852658 36,000 359 485 0
2021-09-04 04:15:15 GMT 43.207741 6.853115 36,000 359 485 0
2021-09-04 04:15:12 GMT 43.200802 6.853376 36,000 359 485 -64
2021-09-04 04:15:10 GMT 43.196568 6.853572 36,000 359 485 0
2021-09-04 04:15:04 GMT 43.184326 6.854000 36,000 359 485 0
2021-09-04 04:15:00 GMT 43.174362 6.854422 36,000 359 485 0
2021-09-04 04:14:55 GMT 43.162628 6.854830 36,000 359 484 0
2021-09-04 04:14:49 GMT 43.150620 6.855338 36,000 359 484 0
2021-09-04 04:14:46 GMT 43.141449 6.855665 36,000 359 484 0
2021-09-04 04:14:42 GMT 43.133514 6.855980 36,000 359 484 0
2021-09-04 04:14:39 GMT 43.128693 6.856188 36,000 359 484 0
2021-09-04 04:14:36 GMT 43.120331 6.856491 36,000 359 484 0
2021-09-04 04:14:32 GMT 43.099598 6.857300 36,000 359 484 0
2021-09-04 04:14:27 GMT 43.099598 6.857300 36,000 359 484 0
2021-09-04 04:14:24 GMT 43.094376 6.857513 36,000 359 484 0
2021-09-04 04:14:20 GMT 43.083725 6.857954 36,000 359 484 0
2021-09-04 04:14:14 GMT 43.072132 6.858346 36,000 359 484 0
2021-09-04 04:14:09 GMT 43.060364 6.858790 36,000 359 484 0
2021-09-04 04:14:04 GMT 43.048508 6.859237 36,000 359 484 0
2021-09-04 04:14:01 GMT 43.043037 6.859458 36,000 359 484 0
2021-09-04 04:13:59 GMT 43.038254 6.859621 36,000 359 484 0
2021-09-04 04:13:54 GMT 43.026047 6.860112 36,000 359 483 0
2021-09-04 04:13:51 GMT 43.015457 6.860451 36,000 359 484 64
2021-09-04 04:13:49 GMT 43.015457 6.860451 36,000 359 484 0
2021-09-04 04:13:44 GMT 43.004166 6.860897 36,000 359 484 0
2021-09-04 04:13:41 GMT 42.998348 6.861158 36,000 359 484 0
2021-09-04 04:13:39 GMT 42.993645 6.861289 36,000 359 484 0
2021-09-04 04:13:34 GMT 42.981674 6.861792 36,000 359 484 0
2021-09-04 04:13:31 GMT 42.975071 6.862008 36,000 359 484 0
2021-09-04 04:13:26 GMT 42.963898 6.862466 36,000 359 484 0
2021-09-04 04:13:23 GMT 42.958496 6.862662 36,000 359 484 0
2021-09-04 04:13:20 GMT 42.951920 6.862878 36,000 359 484 0
2021-09-04 04:13:18 GMT 42.947662 6.863070 36,000 359 484 0
2021-09-04 04:13:14 GMT 42.938339 6.863382 36,000 359 485 0
2021-09-04 04:13:11 GMT 42.930984 6.863708 36,000 359 484 0
2021-09-04 04:13:08 GMT 42.925049 6.863900 36,000 359 485 0
2021-09-04 04:13:04 GMT 42.915951 6.864232 36,000 359 484 0
2021-09-04 04:13:01 GMT 42.908131 6.864559 36,000 359 484 0
2021-09-04 04:12:55 GMT 42.891788 6.865147 36,000 359 484 0
2021-09-04 04:12:51 GMT 42.886093 6.865369 36,000 359 484 0
2021-09-04 04:12:48 GMT 42.880150 6.865605 36,000 359 484 0
2021-09-04 04:12:45 GMT 42.872284 6.865932 36,000 359 484 0
2021-09-04 04:12:41 GMT 42.863480 6.866263 36,000 359 484 0
2021-09-04 04:12:39 GMT 42.857666 6.866455 36,000 359 484 0
2021-09-04 04:12:34 GMT 42.847366 6.866902 36,000 359 484 -64
2021-09-04 04:12:31 GMT 42.840637 6.867158 36,000 359 483 0
2021-09-04 04:12:28 GMT 42.835182 6.867305 36,000 359 483 0
2021-09-04 04:12:24 GMT 42.825256 6.867733 36,000 359 483 0
2021-09-04 04:12:21 GMT 42.818344 6.867988 36,000 359 483 0
2021-09-04 04:12:18 GMT 42.812531 6.868180 36,000 359 483 0
2021-09-04 04:12:14 GMT 42.802460 6.868577 36,000 359 483 0
2021-09-04 04:12:11 GMT 42.795547 6.868827 36,000 359 483 0
2021-09-04 04:12:08 GMT 42.789322 6.869014 36,000 359 483 0
2021-09-04 04:12:04 GMT 42.780396 6.869389 36,000 359 483 0
2021-09-04 04:12:01 GMT 42.773361 6.869585 36,000 359 483 0
2021-09-04 04:11:58 GMT 42.766754 6.869826 36,000 359 483 0
2021-09-04 04:11:54 GMT 42.758137 6.870160 36,000 359 483 0
2021-09-04 04:11:51 GMT 42.751202 6.870415 36,000 359 483 0
2021-09-04 04:11:48 GMT 42.744499 6.870671 36,000 359 483 64
2021-09-04 04:11:43 GMT 42.734024 6.870990 36,000 359 484 0
2021-09-04 04:11:40 GMT 42.726059 6.871324 36,000 359 484 0
2021-09-04 04:11:35 GMT 42.714661 6.871761 36,000 359 484 0
2021-09-04 04:11:31 GMT 42.706604 6.872011 36,000 359 484 0
2021-09-04 04:11:27 GMT 42.699341 6.872331 36,000 359 484 0
2021-09-04 04:11:24 GMT 42.691177 6.872635 36,000 359 484 0
2021-09-04 04:11:21 GMT 42.684353 6.872906 36,000 359 484 0
2021-09-04 04:11:17 GMT 42.676849 6.873134 36,000 359 484 0
2021-09-04 04:11:13 GMT 42.667130 6.873545 36,000 359 484 0
2021-09-04 04:11:10 GMT 42.660610 6.873737 36,000 359 484 0
2021-09-04 04:11:08 GMT 42.654694 6.874008 36,000 359 484 0
2021-09-04 04:11:04 GMT 42.639267 6.874570 36,000 359 484 0
2021-09-04 04:11:01 GMT 42.639267 6.874570 36,000 359 484 0
2021-09-04 04:10:57 GMT 42.631210 6.874882 36,000 359 484 0
2021-09-04 04:10:54 GMT 42.623611 6.875132 36,000 359 484 0
2021-09-04 04:10:51 GMT 42.616882 6.875381 36,000 359 484 0
2021-09-04 04:10:47 GMT 42.609169 6.875717 36,000 359 484 0
2021-09-04 04:10:44 GMT 42.601582 6.875972 36,000 359 484 0
2021-09-04 04:10:41 GMT 42.594414 6.876228 36,000 359 484 0
2021-09-04 04:10:37 GMT 42.586258 6.876567 36,000 359 484 0
2021-09-04 04:10:34 GMT 42.580399 6.876755 36,000 359 484 0
2021-09-04 04:10:31 GMT 42.571701 6.877129 36,000 359 484 0
2021-09-04 04:10:27 GMT 42.563644 6.877379 36,000 359 485 0
2021-09-04 04:10:21 GMT 42.549397 6.877952 36,000 359 485 0
2021-09-04 04:10:17 GMT 42.540646 6.878272 36,000 359 485 64
2021-09-04 04:10:11 GMT 42.526772 6.878783 36,000 359 485 0
2021-09-04 04:10:07 GMT 42.518784 6.879064 36,000 359 485 0
2021-09-04 04:10:03 GMT 42.510727 6.879314 36,000 359 486 0
2021-09-04 04:10:00 GMT 42.504410 6.879564 36,000 359 486 0
2021-09-04 04:09:56 GMT 42.495438 6.879876 36,000 359 486 0
2021-09-04 04:09:53 GMT 42.487106 6.880188 36,000 359 486 0
2021-09-04 04:09:50 GMT 42.481522 6.880375 36,000 359 486 0
2021-09-04 04:09:46 GMT 42.472866 6.880699 36,000 359 487 0
2021-09-04 04:09:43 GMT 42.465088 6.880999 36,000 359 487 64
2021-09-04 04:09:40 GMT 42.459229 6.881187 36,000 359 487 0
2021-09-04 04:09:36 GMT 42.450565 6.881529 36,000 359 487 0
2021-09-04 04:09:30 GMT 42.436020 6.881998 36,000 359 488 0
2021-09-04 04:09:27 GMT 42.428146 6.882310 36,000 359 488 0
2021-09-04 04:09:23 GMT 42.418774 6.882615 36,000 359 488 0
2021-09-04 04:09:20 GMT 42.413792 6.882807 36,000 359 488 0
2021-09-04 04:09:16 GMT 42.404339 6.883190 36,000 359 488 -64
2021-09-04 04:09:13 GMT 42.391491 6.883637 36,000 359 488 0
2021-09-04 04:09:10 GMT 42.391491 6.883637 36,000 359 488 0
2021-09-04 04:09:08 GMT 42.386856 6.883808 36,000 359 488 0
2021-09-04 04:09:06 GMT 42.381111 6.884084 36,000 359 488 64
2021-09-04 04:09:00 GMT 42.368820 6.884495 36,000 359 488 0
2021-09-04 04:08:58 GMT 42.364212 6.884723 36,000 359 488 0
2021-09-04 04:08:56 GMT 42.358658 6.884932 36,000 359 488 0
2021-09-04 04:08:50 GMT 42.346298 6.885369 36,000 359 487 0
2021-09-04 04:08:48 GMT 42.341766 6.885556 36,000 359 487 0
2021-09-04 04:08:46 GMT 42.336136 6.885744 36,000 359 487 0
2021-09-04 04:08:40 GMT 42.324005 6.886243 36,000 359 487 0
2021-09-04 04:08:36 GMT 42.313980 6.886639 36,000 359 487 0
2021-09-04 04:08:30 GMT 42.301132 6.887086 36,000 359 487 0
2021-09-04 04:08:27 GMT 42.294754 6.887367 36,000 359 486 0
2021-09-04 04:08:25 GMT 42.290680 6.887491 36,000 359 486 0
2021-09-04 04:08:20 GMT 42.278549 6.887928 36,000 359 486 0
2021-09-04 04:08:18 GMT 42.272919 6.888178 36,000 359 486 0
2021-09-04 04:08:15 GMT 42.268204 6.888365 36,000 359 486 0
2021-09-04 04:08:12 GMT 42.259331 6.888683 36,000 359 486 0
2021-09-04 04:08:09 GMT 42.253044 6.888939 36,000 359 486 0
2021-09-04 04:08:06 GMT 42.246002 6.889239 36,000 359 486 0
2021-09-04 04:08:01 GMT 42.236572 6.889551 36,000 359 486 0
2021-09-04 04:07:57 GMT 42.225208 6.889961 36,000 359 486 0
2021-09-04 04:07:55 GMT 42.221855 6.890088 36,000 359 486 0
2021-09-04 04:07:50 GMT 42.210823 6.890536 36,000 359 486 0
2021-09-04 04:07:46 GMT 42.200489 6.890919 36,000 359 487 -64
2021-09-04 04:07:39 GMT 42.187317 6.891362 36,000 359 487 0
2021-09-04 04:07:35 GMT 42.177303 6.891749 36,000 359 487 0
2021-09-04 04:07:29 GMT 42.164795 6.892173 36,000 359 488 0
2021-09-04 04:07:27 GMT 42.159393 6.892360 36,000 359 488 0
2021-09-04 04:07:25 GMT 42.155239 6.892516 36,000 359 488 0
2021-09-04 04:07:19 GMT 42.141586 6.892985 36,000 359 489 64
2021-09-04 04:07:15 GMT 42.132065 6.893297 36,000 359 489 -64
2021-09-04 04:07:09 GMT 42.118835 6.893793 36,000 359 490 64
2021-09-04 04:07:05 GMT 42.108456 6.894176 36,000 359 490 0
2021-09-04 04:06:59 GMT 42.095280 6.894624 36,000 359 490 0
2021-09-04 04:06:55 GMT 42.086483 6.895007 36,000 359 490 0
2021-09-04 04:06:50 GMT 42.075027 6.895419 36,000 359 490 0
2021-09-04 04:06:45 GMT 42.063950 6.895794 36,000 359 490 0
2021-09-04 04:06:40 GMT 42.052498 6.896220 36,000 359 490 0
2021-09-04 04:06:35 GMT 42.041061 6.896667 36,000 359 489 0
2021-09-04 04:06:30 GMT 42.028885 6.897104 36,000 359 489 0
2021-09-04 04:06:24 GMT 42.017445 6.897562 36,000 359 489 0
2021-09-04 04:06:20 GMT 41.998264 6.898264 36,000 359 488 0
2021-09-04 04:06:12 GMT 41.990120 6.898584 36,000 359 488 0
2021-09-04 04:06:09 GMT 41.982018 6.898839 36,000 359 487 0
2021-09-04 04:06:03 GMT 41.969742 6.899352 36,000 359 487 0
2021-09-04 04:06:00 GMT 41.960838 6.899670 36,000 359 487 0
2021-09-04 04:05:58 GMT 41.958710 6.899726 36,000 359 487 0
2021-09-04 04:05:53 GMT 41.946873 6.900181 36,000 359 487 0
2021-09-04 04:05:48 GMT 41.935501 6.900600 36,000 359 487 0
2021-09-04 04:05:43 GMT 41.924515 6.900975 36,000 359 487 64
2021-09-04 04:05:39 GMT 41.915726 6.901287 36,000 359 487 0
2021-09-04 04:05:33 GMT 41.901764 6.901786 36,000 359 487 0
2021-09-04 04:05:29 GMT 41.892105 6.902161 36,000 359 487 0
2021-09-04 04:05:25 GMT 41.882629 6.902535 36,000 359 487 0
2021-09-04 04:05:22 GMT 41.877090 6.902736 36,000 359 487 0
2021-09-04 04:05:19 GMT 41.869686 6.902991 36,000 359 488 0
2021-09-04 04:05:14 GMT 41.858608 6.903438 36,000 359 488 0
2021-09-04 04:05:09 GMT 41.847015 6.903846 36,000 359 488 0
2021-09-04 04:05:05 GMT 41.836395 6.904221 36,000 359 488 0
2021-09-04 04:05:02 GMT 41.831680 6.904408 36,000 359 488 0
2021-09-04 04:04:59 GMT 41.824577 6.904652 36,000 359 488 0
2021-09-04 04:04:55 GMT 41.813965 6.905035 36,000 359 488 64
2021-09-04 04:04:52 GMT 41.810146 6.905227 36,000 359 488 0
2021-09-04 04:04:49 GMT 41.802467 6.905482 36,000 359 489 0
2021-09-04 04:04:46 GMT 41.794922 6.905781 36,000 359 489 0
2021-09-04 04:04:43 GMT 41.787804 6.906057 36,000 359 489 0
2021-09-04 04:04:39 GMT 41.779999 6.906343 36,000 359 489 0
2021-09-04 04:04:34 GMT 41.767548 6.906780 36,000 359 490 0
2021-09-04 04:04:29 GMT 41.756332 6.907207 36,000 359 490 0
2021-09-04 04:04:24 GMT 41.743904 6.907654 36,000 359 490 0
2021-09-04 04:04:19 GMT 41.734039 6.908028 36,000 359 490 0
2021-09-04 04:04:13 GMT 41.720768 6.908548 36,000 359 491 -64
2021-09-04 04:04:08 GMT 41.710693 6.908902 36,000 359 491 -64
2021-09-04 04:04:03 GMT 41.698051 6.909315 36,000 359 491 64
2021-09-04 04:03:59 GMT 41.690002 6.909589 36,000 359 492 0
2021-09-04 04:03:57 GMT 41.685471 6.909776 36,000 359 492 0
2021-09-04 04:03:53 GMT 41.675797 6.910145 36,000 359 492 0
2021-09-04 04:03:49 GMT 41.666382 6.910463 36,000 359 492 0
2021-09-04 04:03:47 GMT 41.662720 6.910588 36,000 359 492 0
2021-09-04 04:03:43 GMT 41.652740 6.910962 36,000 359 492 0
2021-09-04 04:03:39 GMT 41.644188 6.911295 36,000 359 492 64
2021-09-04 04:03:37 GMT 41.638412 6.911462 36,000 359 492 0
2021-09-04 04:03:33 GMT 41.628845 6.911836 36,000 359 493 0
2021-09-04 04:03:29 GMT 41.620308 6.912125 36,000 359 493 0
2021-09-04 04:03:27 GMT 41.615513 6.912317 36,000 359 493 0
2021-09-04 04:03:22 GMT 41.606049 6.912648 36,000 359 493 0
2021-09-04 04:03:19 GMT 41.598083 6.912960 36,000 359 494 0
2021-09-04 04:03:17 GMT 41.593048 6.913147 36,000 359 494 0
2021-09-04 04:03:12 GMT 41.581833 6.913522 36,000 359 494 0
2021-09-04 04:03:09 GMT 41.574406 6.913786 36,000 359 494 0
2021-09-04 04:03:06 GMT 41.569843 6.913977 36,000 359 495 0
2021-09-04 04:03:03 GMT 41.559448 6.914333 36,000 359 495 0
2021-09-04 04:02:59 GMT 41.552124 6.914583 36,000 359 495 0
2021-09-04 04:02:56 GMT 41.546173 6.914832 36,000 359 496 -64
2021-09-04 04:02:52 GMT 41.536419 6.915191 36,000 359 496 -64
2021-09-04 04:02:48 GMT 41.523468 6.915644 36,000 359 497 0
2021-09-04 04:02:46 GMT 41.523468 6.915644 36,000 359 497 0
2021-09-04 04:02:41 GMT 41.511654 6.916085 36,000 359 497 0
2021-09-04 04:02:38 GMT 41.502670 6.916341 36,000 359 498 0
2021-09-04 04:02:32 GMT 41.491013 6.916767 36,000 359 500 0
2021-09-04 04:02:29 GMT 41.482956 6.917080 36,000 359 500 64
2021-09-04 04:02:27 GMT 41.478184 6.917235 36,000 359 500 0
2021-09-04 04:02:22 GMT 41.466408 6.917618 36,000 359 501 0
2021-09-04 04:02:19 GMT 41.459423 6.917874 36,000 359 502 0
2021-09-04 04:02:17 GMT 41.453884 6.918065 36,000 359 502 0
2021-09-04 04:02:11 GMT 41.442711 6.918449 36,000 359 502 64
2021-09-04 04:02:08 GMT 41.435440 6.918703 36,000 359 502 0
2021-09-04 04:02:06 GMT 41.430542 6.918890 36,000 359 502 0
2021-09-04 04:02:01 GMT 41.419418 6.919327 36,000 359 502 64
2021-09-04 04:01:58 GMT 41.410583 6.919639 36,000 359 502 0
2021-09-04 04:01:55 GMT 41.404911 6.919854 36,000 359 502 0
2021-09-04 04:01:51 GMT 41.395367 6.920173 36,000 359 502 0
2021-09-04 04:01:48 GMT 41.387501 6.920429 36,000 359 502 0
2021-09-04 04:01:46 GMT 41.382935 6.920593 36,000 359 502 -64
2021-09-04 04:01:41 GMT 41.371254 6.921012 36,000 359 502 0
2021-09-04 04:01:38 GMT 41.364269 6.921262 36,000 359 501 0
2021-09-04 04:01:35 GMT 41.359428 6.921449 36,000 359 501 0
2021-09-04 04:01:31 GMT 41.349792 6.921753 36,000 359 501 0
2021-09-04 04:01:28 GMT 41.340775 6.922119 36,000 359 501 0
2021-09-04 04:01:25 GMT 41.336151 6.922302 36,000 359 501 0
2021-09-04 04:01:21 GMT 41.326981 6.922573 36,000 359 500 0
2021-09-04 04:01:18 GMT 41.317383 6.922974 36,000 359 500 64
2021-09-04 04:01:15 GMT 41.312988 6.923096 36,000 359 500 64
2021-09-04 04:01:11 GMT 41.300537 6.923584 36,000 359 500 -64
2021-09-04 04:01:08 GMT 41.296677 6.923696 36,000 359 500 -64
2021-09-04 04:01:05 GMT 41.288727 6.924011 36,000 359 500 0
2021-09-04 04:01:02 GMT 41.280167 6.924316 36,000 359 500 0
2021-09-04 04:00:58 GMT 41.273254 6.924561 36,000 359 499 0
2021-09-04 04:00:54 GMT 41.263905 6.924882 36,000 359 499 0
2021-09-04 04:00:51 GMT 41.256737 6.925194 36,000 359 499 0
2021-09-04 04:00:48 GMT 41.248077 6.925476 36,000 359 499 0
2021-09-04 04:00:45 GMT 41.241852 6.925720 36,000 359 499 0
2021-09-04 04:00:40 GMT 41.230087 6.926086 36,000 359 499 64
2021-09-04 04:00:37 GMT 41.223961 6.926318 36,000 359 499 -64
2021-09-04 04:00:35 GMT 41.213348 6.926693 36,000 359 499 64
2021-09-04 04:00:28 GMT 41.202038 6.927067 36,000 359 499 64
2021-09-04 04:00:25 GMT 41.194866 6.927317 36,000 359 500 0
2021-09-04 04:00:21 GMT 41.187233 6.927567 36,000 359 499 0
2021-09-04 04:00:17 GMT 41.178818 6.927917 36,000 359 499 0
2021-09-04 04:00:14 GMT 41.170612 6.928191 36,000 359 499 0
2021-09-04 04:00:11 GMT 41.163723 6.928440 36,000 359 499 64
2021-09-04 04:00:08 GMT 41.156891 6.928711 36,000 359 499 64
2021-09-04 04:00:06 GMT 41.154831 6.928772 36,000 359 499 0
2021-09-04 04:00:04 GMT 41.148033 6.929002 36,000 359 498 -64
2021-09-04 04:00:00 GMT 41.139748 6.929314 36,000 359 498 0
2021-09-04 03:59:57 GMT 41.132721 6.929565 36,000 359 498 0
2021-09-04 03:59:54 GMT 41.124893 6.929810 36,000 359 498 0
2021-09-04 03:59:48 GMT 41.110611 6.930359 36,000 359 498 0
2021-09-04 03:59:46 GMT 41.107021 6.930438 36,000 359 498 0
2021-09-04 03:59:44 GMT 41.102554 6.930664 36,000 359 498 0
2021-09-04 03:59:41 GMT 41.094269 6.930908 36,000 359 498 0
2021-09-04 03:59:37 GMT 41.086540 6.931249 36,000 359 498 0
2021-09-04 03:59:34 GMT 41.078384 6.931519 36,000 359 498 0
2021-09-04 03:59:30 GMT 41.070328 6.931824 36,000 359 498 0
2021-09-04 03:59:27 GMT 41.063187 6.932068 36,000 359 498 0
2021-09-04 03:59:24 GMT 41.053627 6.932435 36,000 359 498 0
2021-09-04 03:59:21 GMT 41.047760 6.932617 36,000 359 498 0
2021-09-04 03:59:17 GMT 41.040081 6.932872 36,000 359 498 0
2021-09-04 03:59:13 GMT 41.030960 6.933228 36,000 359 498 0
2021-09-04 03:59:07 GMT 41.017036 6.933684 36,000 359 498 -64
2021-09-04 03:59:03 GMT 41.007019 6.934021 36,000 359 498 0
2021-09-04 03:58:57 GMT 40.993881 6.934509 36,000 359 498 0
2021-09-04 03:58:53 GMT 40.984356 6.934808 36,000 359 498 0
2021-09-04 03:58:50 GMT 40.977421 6.935057 36,000 359 498 0
2021-09-04 03:58:46 GMT 40.969368 6.935369 36,000 359 499 0
2021-09-04 03:58:43 GMT 40.960922 6.935669 36,000 359 499 0
2021-09-04 03:58:40 GMT 40.953552 6.935913 36,000 359 499 0
2021-09-04 03:58:37 GMT 40.947441 6.936118 36,000 359 499 -64
2021-09-04 03:58:32 GMT 40.936935 6.936462 36,000 359 499 0
2021-09-04 03:58:28 GMT 40.925400 6.936890 36,000 359 499 0
2021-09-04 03:58:23 GMT 40.913086 6.937304 36,000 359 499 0
2021-09-04 03:58:18 GMT 40.902557 6.937622 36,000 359 499 0
2021-09-04 03:58:12 GMT 40.890106 6.938110 36,000 359 499 0
2021-09-04 03:58:07 GMT 40.878296 6.938477 36,000 359 500 0
2021-09-04 03:57:57 GMT 40.854538 6.939331 36,000 359 500 0
2021-09-04 03:57:47 GMT 40.831879 6.940125 36,000 359 499 0
2021-09-04 03:57:38 GMT 40.809834 6.940862 36,000 359 499 0
2021-09-04 03:57:36 GMT 40.806622 6.940987 36,000 359 499 0
2021-09-04 03:57:28 GMT 40.787487 6.941674 36,000 359 499 0
2021-09-04 03:57:17 GMT 40.761185 6.942610 36,000 359 498 0
2021-09-04 03:57:08 GMT 40.740936 6.943359 36,000 359 498 64
2021-09-04 03:57:06 GMT 40.737350 6.943481 36,000 359 498 64
2021-09-04 03:56:59 GMT 40.719986 6.944046 36,000 359 497 0
2021-09-04 03:56:56 GMT 40.714447 6.944296 36,000 359 497 0
2021-09-04 03:56:47 GMT 40.693546 6.945045 36,000 359 497 0
2021-09-04 03:56:45 GMT 40.690334 6.945170 36,000 359 497 0
2021-09-04 03:56:39 GMT 40.673492 6.945740 36,000 359 496 0
2021-09-04 03:56:35 GMT 40.667267 6.945984 36,000 359 496 0
2021-09-04 03:56:25 GMT 40.635124 6.947167 36,000 359 495 0
2021-09-04 03:56:15 GMT 40.619888 6.947693 36,000 359 494 0
2021-09-04 03:56:07 GMT 40.602863 6.948291 36,000 359 494 0
2021-09-04 03:56:05 GMT 40.574158 6.949280 36,000 359 495 0
2021-09-04 03:55:55 GMT 40.574158 6.949280 36,000 359 495 0
2021-09-04 03:55:45 GMT 40.551453 6.950073 36,000 359 496 0
2021-09-04 03:55:37 GMT 40.534241 6.950684 36,000 359 497 0
2021-09-04 03:55:34 GMT 40.527100 6.950928 36,000 359 497 0
2021-09-04 03:55:30 GMT 40.515152 6.951294 36,000 359 498 0
2021-09-04 03:55:27 GMT 40.510529 6.951477 36,000 359 498 0
2021-09-04 03:55:24 GMT 40.504532 6.951660 36,000 359 498 0
2021-09-04 03:55:18 GMT 40.487686 6.952271 36,000 359 499 0
2021-09-04 03:55:14 GMT 40.480545 6.952515 36,000 359 499 0
2021-09-04 03:55:09 GMT 40.469116 6.952910 36,000 359 500 64
2021-09-04 03:55:06 GMT 40.462879 6.953097 36,000 359 500 0
2021-09-04 03:55:04 GMT 40.456970 6.953308 36,000 359 500 0
2021-09-04 03:54:57 GMT 40.441269 6.953857 36,000 359 500 0
2021-09-04 03:54:54 GMT 40.433971 6.954096 36,000 359 500 0
2021-09-04 03:54:47 GMT 40.418236 6.954658 36,000 359 501 0
2021-09-04 03:54:44 GMT 40.411068 6.954908 36,000 359 501 0
2021-09-04 03:54:38 GMT 40.397507 6.955383 36,000 359 501 0
2021-09-04 03:54:35 GMT 40.389862 6.955688 36,000 359 501 0
2021-09-04 03:54:33 GMT 40.386299 6.955781 36,000 359 501 -64
2021-09-04 03:54:24 GMT 40.363678 6.956604 36,000 359 501 0
2021-09-04 03:54:17 GMT 40.347702 6.957153 36,025 359 501 -64
2021-09-04 03:54:14 GMT 40.339371 6.957458 36,000 359 501 0
2021-09-04 03:54:06 GMT 40.323921 6.958029 36,000 359 502 0
2021-09-04 03:54:03 GMT 40.316162 6.958313 36,000 359 502 0
2021-09-04 03:53:57 GMT 40.302090 6.958778 36,000 359 503 0
2021-09-04 03:53:53 GMT 40.292545 6.959090 36,000 359 503 0
2021-09-04 03:53:44 GMT 40.272758 6.959776 36,000 359 504 0
2021-09-04 03:53:42 GMT 40.268234 6.959961 36,000 359 504 0
2021-09-04 03:53:34 GMT 40.249485 6.960588 36,000 359 504 64
2021-09-04 03:53:32 GMT 40.244827 6.960775 36,000 359 504 0
2021-09-04 03:53:29 GMT 40.236870 6.961025 36,000 359 504 -64
2021-09-04 03:53:23 GMT 40.221272 6.961587 36,000 359 504 -64
2021-09-04 03:53:20 GMT 40.215317 6.961792 36,000 359 504 0
2021-09-04 03:53:14 GMT 40.202606 6.962211 36,000 359 504 0
2021-09-04 03:53:12 GMT 40.198105 6.962341 36,000 359 504 0
2021-09-04 03:53:04 GMT 40.179329 6.963022 36,000 359 504 0
2021-09-04 03:53:02 GMT 40.173512 6.963210 36,000 359 504 0
2021-09-04 03:52:54 GMT 40.155670 6.963867 36,000 359 505 0
2021-09-04 03:52:52 GMT 40.151001 6.963989 36,000 359 505 0
2021-09-04 03:52:44 GMT 40.132095 6.964661 36,000 359 505 0
2021-09-04 03:52:42 GMT 40.126587 6.964833 36,000 359 506 0
2021-09-04 03:52:34 GMT 40.108932 6.965454 36,000 359 506 0
2021-09-04 03:52:31 GMT 40.102055 6.965707 36,000 359 506 0
2021-09-04 03:52:24 GMT 40.084969 6.966331 36,000 359 506 0
2021-09-04 03:52:22 GMT 40.079224 6.966492 36,000 359 506 0
2021-09-04 03:52:14 GMT 40.061874 6.967102 36,000 359 507 0
2021-09-04 03:52:11 GMT 40.054367 6.967346 36,000 359 507 0
2021-09-04 03:52:04 GMT 40.037392 6.967954 36,000 359 507 0
2021-09-04 03:52:01 GMT 40.031292 6.968141 36,000 359 507 0
2021-09-04 03:51:54 GMT 40.013809 6.968750 36,000 359 507 0
2021-09-04 03:51:51 GMT 40.006901 6.969015 36,000 359 507 0
2021-09-04 03:51:44 GMT 39.990372 6.969543 36,000 359 507 0
2021-09-04 03:51:40 GMT 39.983204 6.969826 36,000 359 507 0
2021-09-04 03:51:34 GMT 39.967117 6.970337 36,000 359 508 0
2021-09-04 03:51:30 GMT 39.959045 6.970638 36,000 359 507 0
2021-09-04 03:51:24 GMT 39.943310 6.971137 36,000 359 507 0
2021-09-04 03:51:21 GMT 39.935486 6.971436 36,000 359 507 0
2021-09-04 03:51:13 GMT 39.919739 6.971960 36,000 359 507 0
2021-09-04 03:51:10 GMT 39.911423 6.972229 36,000 359 507 0
2021-09-04 03:51:03 GMT 39.895500 6.972778 36,000 359 507 0
2021-09-04 03:50:59 GMT 39.887074 6.973022 36,000 359 507 0
2021-09-04 03:50:53 GMT 39.872864 6.973512 36,000 359 506 0
2021-09-04 03:50:49 GMT 39.862915 6.973816 36,000 359 506 0
2021-09-04 03:50:43 GMT 39.849136 6.974304 36,000 359 506 0
2021-09-04 03:50:39 GMT 39.839779 6.974609 36,000 359 506 0
2021-09-04 03:50:33 GMT 39.825851 6.975124 36,000 359 505 0
2021-09-04 03:50:29 GMT 39.815598 6.975482 36,000 359 505 0
2021-09-04 03:50:23 GMT 39.802395 6.975891 36,000 359 505 0
2021-09-04 03:50:19 GMT 39.791409 6.976318 36,000 359 504 0
2021-09-04 03:50:13 GMT 39.778606 6.976746 36,000 359 504 0
2021-09-04 03:50:08 GMT 39.767532 6.977095 36,000 359 504 64
2021-09-04 03:50:03 GMT 39.755100 6.977539 36,000 359 503 0
2021-09-04 03:49:59 GMT 39.744625 6.977905 36,000 359 503 -64
2021-09-04 03:49:53 GMT 39.732288 6.978333 36,000 359 502 0
2021-09-04 03:49:47 GMT 39.719532 6.978760 36,000 359 502 0
2021-09-04 03:49:43 GMT 39.707794 6.979184 36,000 359 502 0
2021-09-04 03:49:38 GMT 39.697586 6.979543 36,000 359 501 0
2021-09-04 03:49:33 GMT 39.684631 6.979961 36,000 359 501 0
2021-09-04 03:49:27 GMT 39.672089 6.980438 36,000 359 501 0
2021-09-04 03:49:23 GMT 39.661697 6.980796 36,000 359 501 0
2021-09-04 03:49:18 GMT 39.649982 6.981201 36,000 359 501 0
2021-09-04 03:49:13 GMT 39.638439 6.981567 36,000 359 501 0
2021-09-04 03:49:07 GMT 39.626495 6.981991 36,000 359 500 0
2021-09-04 03:49:03 GMT 39.615025 6.982361 36,000 359 500 0
2021-09-04 03:48:57 GMT 39.602314 6.982788 36,000 359 500 0
2021-09-04 03:48:53 GMT 39.591934 6.983154 36,000 359 500 0
2021-09-04 03:48:51 GMT 39.589737 6.983245 36,000 359 500 0
2021-09-04 03:48:48 GMT 39.578945 6.983643 36,000 359 500 0
2021-09-04 03:48:42 GMT 39.568333 6.983948 36,000 359 500 0
2021-09-04 03:48:37 GMT 39.555954 6.984379 36,000 359 500 0
2021-09-04 03:48:32 GMT 39.545517 6.984797 36,000 359 500 0
2021-09-04 03:48:27 GMT 39.532333 6.985215 36,000 359 500 0
2021-09-04 03:48:22 GMT 39.522526 6.985535 36,000 359 501 0
2021-09-04 03:48:16 GMT 39.508373 6.986023 36,000 359 501 -64
2021-09-04 03:48:11 GMT 39.497177 6.986409 36,000 359 501 -64
2021-09-04 03:48:07 GMT 39.485596 6.986827 36,000 359 500 0
2021-09-04 03:48:01 GMT 39.473877 6.987183 36,000 359 500 0
2021-09-04 03:47:57 GMT 39.461746 6.987603 36,000 359 500 0
2021-09-04 03:47:52 GMT 39.451904 6.987915 36,000 359 500 0
2021-09-04 03:47:46 GMT 39.438496 6.988403 36,000 359 500 64
2021-09-04 03:47:41 GMT 39.424759 6.988857 36,000 359 500 0
2021-09-04 03:47:36 GMT 39.414246 6.989258 36,000 359 500 0
2021-09-04 03:47:32 GMT 39.406265 6.989514 36,000 359 500 0
2021-09-04 03:47:26 GMT 39.391155 6.990051 36,000 359 499 0
2021-09-04 03:47:22 GMT 39.383148 6.990290 36,000 359 499 0
2021-09-04 03:47:16 GMT 39.368252 6.990784 36,000 359 499 0
2021-09-04 03:47:12 GMT 39.359390 6.991126 36,000 359 499 0
2021-09-04 03:47:05 GMT 39.343578 6.991638 36,000 359 498 0
2021-09-04 03:47:02 GMT 39.336548 6.991902 36,000 359 498 0
2021-09-04 03:46:56 GMT 39.320301 6.992432 36,000 359 498 0
2021-09-04 03:46:52 GMT 39.313522 6.992619 36,000 359 498 0
2021-09-04 03:46:45 GMT 39.296722 6.993216 36,000 359 498 0
2021-09-04 03:46:41 GMT 39.289436 6.993469 36,000 359 498 0
2021-09-04 03:46:35 GMT 39.274261 6.993958 36,000 359 497 0
2021-09-04 03:46:32 GMT 39.267139 6.994202 36,000 359 497 -64
2021-09-04 03:46:25 GMT 39.244141 6.994995 36,000 359 497 0
2021-09-04 03:46:22 GMT 39.244141 6.994995 36,000 359 497 0
2021-09-04 03:46:15 GMT 39.227234 6.995544 36,000 359 496 -64
2021-09-04 03:46:12 GMT 39.220493 6.995789 36,000 359 496 64
2021-09-04 03:46:05 GMT 39.204529 6.996321 36,000 359 496 0
2021-09-04 03:46:02 GMT 39.198009 6.996521 36,000 359 496 0
2021-09-04 03:45:55 GMT 39.179199 6.997192 36,000 359 496 0
2021-09-04 03:45:52 GMT 39.174500 6.997336 36,000 359 496 0
2021-09-04 03:45:42 GMT 39.151920 6.998108 36,000 359 494 64
2021-09-04 03:45:32 GMT 39.128414 6.998901 36,000 359 494 0
2021-09-04 03:45:22 GMT 39.105698 6.999664 36,000 359 493 0
2021-09-04 03:45:12 GMT 39.082672 7.000441 36,000 359 492 0
2021-09-04 03:45:02 GMT 39.060150 7.001217 36,000 359 492 0
2021-09-04 03:44:51 GMT 39.037170 7.001993 36,000 359 492 0
2021-09-04 03:44:41 GMT 39.014191 7.002769 36,000 359 491 -64
2021-09-04 03:44:31 GMT 38.991596 7.003540 36,000 359 492 0
2021-09-04 03:44:21 GMT 38.968365 7.004333 36,000 359 493 0
2021-09-04 03:44:10 GMT 38.944244 7.005157 36,000 359 496 64
2021-09-04 03:44:01 GMT 38.922409 7.005874 36,000 359 500 0
2021-09-04 03:43:51 GMT 38.898865 7.006592 36,000 359 504 -64
2021-09-04 03:43:41 GMT 38.876007 7.007324 36,000 359 505 192
2021-09-04 03:43:31 GMT 38.852917 7.008057 36,000 359 506 64
2021-09-04 03:43:21 GMT 38.829502 7.008850 36,000 359 506 64
2021-09-04 03:43:11 GMT 38.805725 7.009755 36,000 359 506 0
2021-09-04 03:43:01 GMT 38.782333 7.010710 36,000 359 507 64
2021-09-04 03:42:51 GMT 38.757484 7.010254 36,000 3 511 -64
2021-09-04 03:42:41 GMT 38.733604 7.008179 36,000 4 513 0
2021-09-04 03:42:30 GMT 38.710052 7.005874 36,000 4 513 -64
2021-09-04 03:42:20 GMT 38.685047 7.003540 36,000 4 513 0
2021-09-04 03:42:10 GMT 38.660980 7.001217 36,000 4 514 -64
2021-09-04 03:42:00 GMT 38.637497 6.999008 36,000 4 514 0
2021-09-04 03:41:50 GMT 38.613510 6.996798 36,000 4 515 0
2021-09-04 03:41:41 GMT 38.592865 6.994828 36,000 4 515 0
2021-09-04 03:41:39 GMT 38.588104 6.994410 36,000 4 515 64
2021-09-04 03:41:30 GMT 38.564117 6.992141 36,000 4 515 0
2021-09-04 03:41:19 GMT 38.540691 6.989929 36,000 4 515 0
2021-09-04 03:41:11 GMT 38.520535 6.988037 36,000 4 514 0
2021-09-04 03:41:09 GMT 38.516018 6.987610 36,000 4 514 0
2021-09-04 03:41:01 GMT 38.496838 6.985840 36,000 4 513 -64
2021-09-04 03:40:59 GMT 38.492203 6.985394 36,000 4 513 -64
2021-09-04 03:40:51 GMT 38.473377 6.983643 36,000 4 512 0
2021-09-04 03:40:48 GMT 38.467743 6.983154 36,000 4 512 64
2021-09-04 03:40:41 GMT 38.449078 6.981384 36,000 4 512 0
2021-09-04 03:40:38 GMT 38.444000 6.980916 36,000 4 511 -64
2021-09-04 03:40:31 GMT 38.425709 6.979248 36,000 4 511 0
2021-09-04 03:40:29 GMT 38.419796 6.978699 36,000 4 511 0
2021-09-04 03:40:20 GMT 38.401360 6.976975 36,000 4 511 -64
2021-09-04 03:40:18 GMT 38.395264 6.976438 36,000 4 511 -64
2021-09-04 03:40:11 GMT 38.378502 6.974885 36,000 4 510 0
2021-09-04 03:40:08 GMT 38.372173 6.974229 36,000 4 510 64
2021-09-04 03:40:01 GMT 38.355103 6.972637 36,000 4 510 -64
2021-09-04 03:39:58 GMT 38.347687 6.972019 36,000 4 510 0
2021-09-04 03:39:50 GMT 38.328964 6.970299 36,000 4 510 64
2021-09-04 03:39:48 GMT 38.324596 6.969870 36,000 4 510 0
2021-09-04 03:39:40 GMT 38.307884 6.968317 36,000 4 510 0
2021-09-04 03:39:37 GMT 38.300343 6.967661 36,000 4 510 0
2021-09-04 03:39:30 GMT 38.283508 6.966092 36,000 4 510 0
2021-09-04 03:39:28 GMT 38.276089 6.965392 36,000 4 510 64
2021-09-04 03:39:19 GMT 38.258789 6.963754 36,000 4 511 -64
2021-09-04 03:39:17 GMT 38.252884 6.963170 36,000 4 511 -64
2021-09-04 03:39:10 GMT 38.236473 6.961630 36,000 4 510 64
2021-09-04 03:39:07 GMT 38.228622 6.960949 36,000 4 510 64
2021-09-04 03:39:00 GMT 38.213287 6.959488 36,000 4 511 -64
2021-09-04 03:38:57 GMT 38.205143 6.958704 36,000 4 511 -64
2021-09-04 03:38:50 GMT 38.189594 6.957271 36,000 4 511 0
2021-09-04 03:38:46 GMT 38.180054 6.956391 36,000 4 511 0
2021-09-04 03:38:40 GMT 38.165176 6.954989 36,000 4 511 0
2021-09-04 03:38:36 GMT 38.156708 6.954229 36,000 4 511 -64
2021-09-04 03:38:30 GMT 38.141506 6.952793 36,000 4 511 -64
2021-09-04 03:38:27 GMT 38.132904 6.952008 36,000 4 511 0
2021-09-04 03:38:20 GMT 38.118370 6.950644 36,000 4 511 64
2021-09-04 03:38:16 GMT 38.109055 6.949788 36,000 4 511 64
2021-09-04 03:38:10 GMT 38.095001 6.948435 36,000 4 512 0
2021-09-04 03:38:06 GMT 38.084385 6.947479 36,000 4 512 0
2021-09-04 03:38:00 GMT 38.070885 6.946225 36,000 4 513 0
2021-09-04 03:37:56 GMT 38.060349 6.945229 36,000 4 513 0
2021-09-04 03:37:50 GMT 38.047470 6.944016 36,000 4 513 0
2021-09-04 03:37:46 GMT 38.036453 6.943009 36,000 4 513 0
2021-09-04 03:37:40 GMT 38.023911 6.941898 36,000 4 513 0
2021-09-04 03:37:35 GMT 38.011826 6.940730 36,000 4 513 0
2021-09-04 03:37:30 GMT 37.999149 6.939598 36,000 4 512 0
2021-09-04 03:37:25 GMT 37.988766 6.938642 36,000 4 512 0
2021-09-04 03:37:19 GMT 37.974197 6.937282 36,000 4 512 0
2021-09-04 03:37:15 GMT 37.964035 6.936347 36,000 4 512 0
2021-09-04 03:37:09 GMT 37.950920 6.935120 36,000 4 512 0
2021-09-04 03:37:05 GMT 37.940773 6.934164 36,000 4 512 0
2021-09-04 03:36:58 GMT 37.924118 6.932665 36,000 4 511 0
2021-09-04 03:36:54 GMT 37.915878 6.931906 36,000 4 511 0
2021-09-04 03:36:50 GMT 37.904182 6.930821 36,000 4 511 -64
2021-09-04 03:36:44 GMT 37.892124 6.929686 36,000 4 511 0
2021-09-04 03:36:35 GMT 37.867638 6.927417 36,000 4 510 -64
2021-09-04 03:36:29 GMT 37.855862 6.926343 36,000 4 510 -64
2021-09-04 03:36:24 GMT 37.843384 6.925148 36,000 4 510 0
2021-09-04 03:36:19 GMT 37.832199 6.924133 36,000 4 510 0
2021-09-04 03:36:14 GMT 37.819977 6.923023 36,000 4 510 0
2021-09-04 03:36:10 GMT 37.810318 6.922146 36,000 4 510 0
2021-09-04 03:36:04 GMT 37.795807 6.920790 36,000 4 511 0
2021-09-04 03:36:00 GMT 37.785892 6.919894 36,000 4 511 0
2021-09-04 03:35:54 GMT 37.772949 6.918700 36,000 4 511 0
2021-09-04 03:35:50 GMT 37.763035 6.917804 36,000 4 511 0
2021-09-04 03:35:43 GMT 37.748184 6.916431 36,000 4 511 64
2021-09-04 03:35:39 GMT 37.738270 6.915535 36,000 4 511 64
2021-09-04 03:35:34 GMT 37.724583 6.914281 36,000 4 512 0
2021-09-04 03:35:29 GMT 37.715012 6.913381 36,000 4 512 0
2021-09-04 03:35:23 GMT 37.699860 6.911978 36,000 4 512 0
2021-09-04 03:35:19 GMT 37.692078 6.911277 36,000 4 512 0
2021-09-04 03:35:13 GMT 37.676353 6.909803 36,000 4 512 64
2021-09-04 03:35:03 GMT 37.652893 6.907654 36,000 4 511 0
2021-09-04 03:34:53 GMT 37.628452 6.905385 36,000 4 511 -64
2021-09-04 03:34:42 GMT 37.604618 6.903235 36,000 4 511 -64
2021-09-04 03:34:32 GMT 37.580086 6.900966 36,000 4 511 0
2021-09-04 03:34:22 GMT 37.556854 6.898771 36,000 4 511 0
2021-09-04 03:34:12 GMT 37.532417 6.896548 36,000 4 511 64
2021-09-04 03:34:02 GMT 37.508698 6.894388 36,000 4 512 64
2021-09-04 03:33:57 GMT 37.497345 6.893395 36,000 4 513 0
2021-09-04 03:33:51 GMT 37.484070 6.892168 35,975 4 513 64
2021-09-04 03:33:46 GMT 37.472363 6.891115 36,000 4 513 -64
2021-09-04 03:33:41 GMT 37.459900 6.890006 36,000 4 513 0
2021-09-04 03:33:36 GMT 37.448318 6.888954 36,025 4 513 0
2021-09-04 03:33:32 GMT 37.436100 6.887831 36,000 4 513 0
2021-09-04 03:33:27 GMT 37.425842 6.886850 36,000 4 512 0
2021-09-04 03:33:21 GMT 37.411751 6.885562 36,000 4 512 64
2021-09-04 03:33:16 GMT 37.400986 6.884571 36,000 4 512 128
2021-09-04 03:33:11 GMT 37.387638 6.883353 36,000 4 512 0
2021-09-04 03:33:06 GMT 37.375580 6.882278 36,000 4 512 -64
2021-09-04 03:33:01 GMT 37.364456 6.881263 36,000 4 512 0
2021-09-04 03:32:50 GMT 37.339737 6.879078 36,000 4 512 0
2021-09-04 03:32:40 GMT 37.315887 6.876915 36,000 4 511 0
2021-09-04 03:32:31 GMT 37.292160 6.874695 36,000 4 510 0
2021-09-04 03:32:27 GMT 37.283569 6.873935 36,000 4 510 0
2021-09-04 03:32:19 GMT 37.266129 6.872357 36,000 4 510 0
2021-09-04 03:32:10 GMT 37.243652 6.870336 36,000 4 509 0
2021-09-04 03:32:00 GMT 37.220032 6.868208 36,000 4 509 0
2021-09-04 03:31:50 GMT 37.196449 6.866037 36,000 4 508 0
2021-09-04 03:31:39 GMT 37.172699 6.863884 36,000 4 507 0
2021-09-04 03:31:30 GMT 37.148392 6.861722 36,000 4 505 0
2021-09-04 03:31:19 GMT 37.124863 6.859618 36,000 4 504 0
2021-09-04 03:31:09 GMT 37.101761 6.857499 36,000 4 503 0
2021-09-04 03:30:59 GMT 37.077831 6.855349 36,000 4 503 0
2021-09-04 03:30:48 GMT 37.053673 6.853140 36,000 4 503 0
2021-09-04 03:30:38 GMT 37.030563 6.851086 36,000 4 502 0
2021-09-04 03:30:28 GMT 37.007259 6.848961 36,000 4 502 0
2021-09-04 03:30:18 GMT 36.983047 6.846820 36,000 4 501 0
2021-09-04 03:30:07 GMT 36.958969 6.844658 36,000 4 501 0
2021-09-04 03:29:58 GMT 36.936687 6.842631 36,000 4 500 0
2021-09-04 03:29:48 GMT 36.913467 6.840567 36,000 4 500 0
2021-09-04 03:29:38 GMT 36.890694 6.838512 36,000 4 501 0
2021-09-04 03:29:26 GMT 36.860962 6.835834 36,000 4 501 0
2021-09-04 03:29:17 GMT 36.841553 6.834126 36,000 4 501 64
2021-09-04 03:29:06 GMT 36.816441 6.831860 36,000 4 502 0
2021-09-04 03:28:56 GMT 36.794422 6.829873 36,000 4 502 0
2021-09-04 03:28:45 GMT 36.768681 6.827535 36,000 4 502 0
2021-09-04 03:25:44 GMT 36.350456 6.790427 36,000 4 495 0
2021-09-04 03:25:39 GMT 36.290726 6.785088 36,000 4 495 0
2021-09-04 03:25:18 GMT 36.290726 6.785088 36,000 4 494 0
2021-09-04 03:25:08 GMT 36.270905 6.783314 36,000 4 494 0
We lost coverage of the aircraft here for a total of 222 minutes
2021-09-03 23:43:14 GMT 6.419973 0.146989 18,175 15 414 1088
2021-09-03 23:43:03 GMT 6.400452 0.141472 17,925 15 413 1216
2021-09-03 23:42:59 GMT 6.392899 0.139377 17,825 15 411 1792
2021-09-03 23:42:49 GMT 6.374725 0.134210 17,500 15 409 1920
2021-09-03 23:42:39 GMT 6.356049 0.128950 17,150 15 409 2304
2021-09-03 23:42:29 GMT 6.337738 0.123782 16,775 15 409 2176
2021-09-03 23:42:20 GMT 6.320770 0.119003 16,450 15 409 1984
2021-09-03 23:42:10 GMT 6.301963 0.113699 16,125 15 407 1856
2021-09-03 23:41:19 GMT 6.210813 0.087938 14,800 15 388 1216
2021-09-03 23:41:13 GMT 6.200758 0.085097 14,650 15 385 1792
2021-09-03 23:41:02 GMT 6.181811 0.079793 14,275 15 383 2368
2021-09-03 23:40:52 GMT 6.164886 0.074996 13,825 15 385 2688
2021-09-03 23:40:43 GMT 6.148573 0.070369 13,450 15 385 2304
2021-09-03 23:40:31 GMT 6.128462 0.064687 13,050 15 382 1472
2021-09-03 23:40:22 GMT 6.113297 0.060425 12,800 15 382 1472
2021-09-03 23:40:00 GMT 6.074602 0.049533 12,250 15 377 1472
2021-09-03 23:39:50 GMT 6.059006 0.045156 12,025 15 376 1472
2021-09-03 23:39:42 GMT 6.044110 0.040962 11,800 15 375 1536
2021-09-03 23:39:32 GMT 6.027537 0.036274 11,575 15 372 1216
2021-09-03 23:39:14 GMT 5.998675 0.028223 11,375 15 362 448
2021-09-03 23:39:11 GMT 5.993833 0.026850 11,350 15 361 448
2021-09-03 23:39:02 GMT 5.978851 0.022671 11,250 15 353 576
2021-09-03 23:38:51 GMT 5.963062 0.018279 11,150 15 346 640
2021-09-03 23:38:41 GMT 5.947311 0.013873 11,025 15 339 768
2021-09-03 23:38:31 GMT 5.931702 0.009497 10,925 15 331 640
2021-09-03 23:38:21 GMT 5.917348 0.005493 10,825 15 324 704
2021-09-03 23:38:10 GMT 5.902222 0.001210 10,700 15 316 704
2021-09-03 23:38:00 GMT 5.887711 -0.002886 10,600 15 308 704
2021-09-03 23:37:49 GMT 5.873217 -0.006961 10,475 15 300 640
2021-09-03 23:37:41 GMT 5.861672 -0.010229 10,375 15 292 640
2021-09-03 23:37:31 GMT 5.848663 -0.013873 10,175 15 286 1856
2021-09-03 23:37:21 GMT 5.835789 -0.017521 9,850 15 286 1792
2021-09-03 23:37:10 GMT 5.822296 -0.021274 9,550 15 285 1728
2021-09-03 23:37:01 GMT 5.810231 -0.024672 9,250 15 284 1792
2021-09-03 23:36:51 GMT 5.797429 -0.028223 8,925 15 283 1920
2021-09-03 23:36:41 GMT 5.784668 -0.031795 8,600 15 283 2112
2021-09-03 23:36:31 GMT 5.771805 -0.035380 8,200 15 284 2304
2021-09-03 23:36:19 GMT 5.756557 -0.039731 7,775 16 286 2176
2021-09-03 23:36:10 GMT 5.746175 -0.042761 7,500 16 286 1920
2021-09-03 23:36:00 GMT 5.733281 -0.046502 7,200 16 284 1600
2021-09-03 23:35:51 GMT 5.721359 -0.049997 6,950 16 281 1728
2021-09-03 23:35:40 GMT 5.707993 -0.053907 6,625 16 279 1792
2021-09-03 23:35:29 GMT 5.694351 -0.057864 6,325 16 276 1728
2021-09-03 23:35:21 GMT 5.684143 -0.060890 6,050 16 274 1984
2021-09-03 23:35:11 GMT 5.671783 -0.064568 5,700 16 274 2304
2021-09-03 23:35:01 GMT 5.659635 -0.068191 5,325 16 274 2304
2021-09-03 23:34:50 GMT 5.646786 -0.072074 4,900 16 275 2432
2021-09-03 23:34:41 GMT 5.634962 -0.075626 4,550 16 275 1984
2021-09-03 23:34:30 GMT 5.622070 -0.079465 4,250 16 273 1664
2021-09-03 23:34:20 GMT 5.610214 -0.082770 3,975 15 268 1600
2021-09-03 23:34:09 GMT 5.597441 -0.086186 3,775 15 260 768
2021-09-03 23:34:00 GMT 5.587372 -0.089939 3,650 27 253 1024
2021-09-03 23:33:49 GMT 5.577209 -0.096736 3,450 41 248 1408
2021-09-03 23:33:40 GMT 5.569977 -0.104882 3,200 54 246 1344
2021-09-03 23:33:30 GMT 5.563843 -0.114705 3,025 61 242 960
2021-09-03 23:33:20 GMT 5.558441 -0.124574 2,875 61 234 512
2021-09-03 23:33:10 GMT 5.553170 -0.134298 2,750 61 227 960
2021-09-03 23:33:00 GMT 5.548003 -0.143343 2,550 60 224 1216
2021-09-03 23:32:48 GMT 5.543487 -0.154282 2,350 78 220 832
2021-09-03 23:32:40 GMT 5.543068 -0.162711 2,275 98 214 384
2021-09-03 23:32:30 GMT 5.545990 -0.171824 2,225 120 199 640
2021-09-03 23:32:20 GMT 5.551866 -0.178812 2,100 142 188 640
2021-09-03 23:32:10 GMT 5.559265 -0.182485 2,025 168 171 448
2021-09-03 23:32:09 GMT 5.560013 -0.182648 2,000 174 168 768
2021-09-03 23:32:08 GMT 5.560851 -0.182742 2,000 174 168 896
2021-09-03 23:32:06 GMT 5.562387 -0.182884 1,950 179 166 1280
2021-09-03 23:32:05 GMT 5.563179 -0.182884 1,925 185 165 1792
2021-09-03 23:32:04 GMT 5.564072 -0.182857 1,900 188 165 2048
2021-09-03 23:32:03 GMT 5.565460 -0.182695 1,825 194 164 2432
2021-09-03 23:32:01 GMT 5.566298 -0.182553 1,775 196 164 2432
2021-09-03 23:32:00 GMT 5.567093 -0.182345 1,725 198 163 2496
2021-09-03 23:31:57 GMT 5.568579 -0.181937 1,650 200 163 2432
2021-09-03 23:31:56 GMT 5.569336 -0.181647 1,625 201 163 2368
2021-09-03 23:31:54 GMT 5.572070 -0.180611 1,475 202 163 2240
2021-09-03 23:31:51 GMT 5.573456 -0.180064 1,400 202 163 2304
2021-09-03 23:31:50 GMT 5.574188 -0.179785 1,350 202 163 2496
2021-09-03 23:31:47 GMT 5.577144 -0.178623 1,175 203 164 2624
2021-09-03 23:31:44 GMT 5.577850 -0.178342 1,125 203 164 2688
2021-09-03 23:31:43 GMT 5.579146 -0.177818 1,075 203 164 2688
2021-09-03 23:31:42 GMT 5.579844 -0.177486 1,000 203 165 2816
2021-09-03 23:31:41 GMT 5.580551 -0.177224 950 203 165 2880
2021-09-03 23:31:40 GMT 5.581194 -0.176918 900 203 165 3008
2021-09-03 23:31:38 GMT 5.582611 -0.176340 800 203 167 3200
2021-09-03 23:31:37 GMT 5.583389 -0.176061 725 203 169 3200
2021-09-03 23:31:35 GMT 5.584946 -0.175409 625 203 169 3200
2021-09-03 23:31:34 GMT 5.585617 -0.175118 575 203 173 3008
2021-09-03 23:31:33 GMT 5.586411 -0.174804 525 202 173 2880
2021-09-03 23:31:32 GMT 5.587106 -0.174503 475 202 175 2752
2021-09-03 23:31:30 GMT 5.588503 -0.173982 400 202 177 2496
2021-09-03 23:31:28 GMT 5.589890 -0.173407 300 202 180 1856
2021-09-03 23:31:27 GMT 5.591482 -0.172751 250 202 180 1472
2021-09-03 23:31:25 GMT 5.592316 -0.172429 200 202 180 1280
2021-09-03 23:31:24 GMT 5.593112 -0.172135 175 202 177 384
2021-09-03 23:31:22 GMT 5.594555 -0.171567 150 202 173 192
2021-09-03 23:31:20 GMT 5.596207 -0.170893 150 203 165 0
2021-09-03 23:31:19 GMT 5.597717 -0.170288 150 203 153 0
2021-09-03 23:31:17 GMT 5.598450 -0.170009 150 203 153 0
2021-09-03 23:31:14 GMT 5.600327 -0.169246 200 203 153 0
2021-09-03 23:31:10 GMT 5.602615 -0.168286 200 203 140 -128
2021-09-03 23:31:08 GMT 5.603806 -0.167774 200 203 132 -64
2021-09-03 23:31:07 GMT 5.605087 -0.167262 200 203 126 -64
2021-09-03 23:31:05 GMT 5.605634 -0.167021 200 203 126 -64
2021-09-03 23:31:04 GMT 5.606232 -0.166797 200 203 123 0
2021-09-03 23:31:03 GMT 5.606827 -0.166564 200 203 115 0
2021-09-03 23:31:01 GMT 5.607776 -0.166168 225 203 108 0
2021-09-03 23:30:59 GMT 5.608893 -0.165695 225 203 100 0
2021-09-03 23:30:58 GMT 5.609126 -0.165600 225 203 97 0
2021-09-03 23:30:57 GMT 5.609585 -0.165412 0 202 94
2021-09-03 23:30:55 GMT 5.610359 -0.165091 0 202 86
2021-09-03 23:30:54 GMT 5.610871 -0.164890 0 202 84
2021-09-03 23:30:53 GMT 5.611244 -0.164737 0 202 80
2021-09-03 23:30:51 GMT 5.611759 -0.164516 0 202 72
2021-09-03 23:30:50 GMT 5.612068 -0.164388 0 202 67
2021-09-03 23:30:48 GMT 5.612984 -0.164015 0 202 55
2021-09-03 23:30:37 GMT 5.614619 -0.163339 0 202 24
2021-09-03 23:30:35 GMT 5.614817 -0.163256 0 199 21
2021-09-03 23:30:34 GMT 5.614898 -0.163232 0 199 20
2021-09-03 23:30:33 GMT 5.614975 -0.163177 0 194 20
2021-09-03 23:30:32 GMT 5.615143 -0.163114 0 185 18
2021-09-03 23:30:30 GMT 5.615215 -0.163084 0 177 18
2021-09-03 23:30:29 GMT 5.615295 -0.163072 0 174 18
2021-09-03 23:30:28 GMT 5.615364 -0.163072 0 165 19
2021-09-03 23:30:25 GMT 5.615631 -0.163090 0 146 19
2021-09-03 23:30:24 GMT 5.615707 -0.163119 0 137 18
2021-09-03 23:30:23 GMT 5.615856 -0.163212 0 126 19
2021-09-03 23:30:21 GMT 5.615891 -0.163247 0 123 19
2021-09-03 23:30:20 GMT 5.615957 -0.163327 0 118 18
2021-09-03 23:30:18 GMT 5.616039 -0.163445 0 112 18
2021-09-03 23:30:17 GMT 5.616085 -0.163538 0 106 18
2021-09-03 23:30:07 GMT 5.616248 -0.164096 0 81 6
2021-09-03 23:29:56 GMT 5.616245 -0.164201 0 78 0
2021-09-03 23:29:52 GMT 5.616248 -0.164215 0 78 0
2021-09-03 23:29:51 GMT 5.616245 -0.164213 0 78 0
2021-09-03 23:29:50 GMT 5.616245 -0.164201 0 78 0
2021-09-03 23:29:48 GMT 5.616248 -0.164215 0 78 0
2021-09-03 23:29:47 GMT 5.616245 -0.164213 0 78 2
2021-09-03 23:29:46 GMT 5.616248 -0.164215 0 75 2
2021-09-03 23:29:43 GMT 5.616245 -0.164236 0 75 2
2021-09-03 23:29:42 GMT 5.616245 -0.164248 0 75 4
2021-09-03 23:29:41 GMT 5.616245 -0.164271 0 73 4
2021-09-03 23:29:39 GMT 5.616245 -0.164294 0 73 4
2021-09-03 23:29:38 GMT 5.616248 -0.164321 0 70 6
2021-09-03 23:29:37 GMT 5.616245 -0.164376 0 64 10
2021-09-03 23:29:34 GMT 5.616237 -0.164463 0 56 13
2021-09-03 23:29:32 GMT 5.616211 -0.164551 0 47 16
2021-09-03 23:29:31 GMT 5.616177 -0.164620 0 45 15
2021-09-03 23:29:26 GMT 5.615934 -0.164866 0 25 16
2021-09-03 23:29:25 GMT 5.615719 -0.164969 0 22 17
2021-09-03 23:29:23 GMT 5.615719 -0.164969 0 22 17
2021-09-03 23:29:22 GMT 5.615643 -0.165008 0 22 18
2021-09-03 23:29:12 GMT 5.614780 -0.165354 0 22 21
2021-09-03 23:29:00 GMT 5.613606 -0.165837 0 22 23
2021-09-03 23:28:59 GMT 5.613502 -0.165884 0 22 23
2021-09-03 23:28:58 GMT 5.613316 -0.165959 0 22 23
2021-09-03 23:28:56 GMT 5.613201 -0.165994 0 22 23
2021-09-03 23:28:55 GMT 5.613106 -0.166038 0 22 23
2021-09-03 23:28:54 GMT 5.613001 -0.166085 0 22 23
2021-09-03 23:28:52 GMT 5.612801 -0.166168 0 22 23
2021-09-03 23:28:50 GMT 5.612606 -0.166238 0 22 23
2021-09-03 23:28:48 GMT 5.612400 -0.166331 0 22 24
2021-09-03 23:28:47 GMT 5.612309 -0.166366 0 22 24
2021-09-03 23:28:46 GMT 5.612171 -0.166424 0 22 25
2021-09-03 23:28:44 GMT 5.612058 -0.166464 0 22 25
2021-09-03 23:28:42 GMT 5.611828 -0.166564 0 22 26
2021-09-03 23:28:41 GMT 5.611733 -0.166606 0 22 26
2021-09-03 23:28:40 GMT 5.611465 -0.166713 0 22 26
2021-09-03 23:28:39 GMT 5.611372 -0.166760 0 22 26
2021-09-03 23:28:37 GMT 5.611244 -0.166808 0 22 25
2021-09-03 23:28:36 GMT 5.611139 -0.166855 0 22 25
We lost coverage of the aircraft here for a total of 74 minutes
2021-09-03 22:14:55 GMT 5.603446 -0.171200 0 292 4 0
2021-09-03 22:14:45 GMT 5.603376 -0.171022 0 295 7 0
2021-09-03 22:12:43 GMT 5.592402 -0.174301 0 329 18 0
2021-09-03 22:12:39 GMT 5.592134 -0.174195 0 309 19 0
2021-09-03 22:12:37 GMT 5.591995 -0.174059 0 295 20 0
2021-09-03 22:12:28 GMT 5.591808 -0.173248 0 244 21 0
2021-09-03 22:12:23 GMT 5.592030 -0.172802 0 222 19 0
2021-09-03 22:12:21 GMT 5.592157 -0.172680 0 213 19 0
2021-09-03 22:12:20 GMT 5.592224 -0.172616 0 210 21 0
2021-09-03 22:12:15 GMT 5.592635 -0.172372 0 202 29 0
2021-09-03 22:12:01 GMT 5.595348 -0.171254 0 202 65 0
2021-09-03 22:12:00 GMT 5.595657 -0.171126 0 202 66 0
2021-09-03 22:11:59 GMT 5.595916 -0.171022 0 202 67 0
2021-09-03 22:11:57 GMT 5.596481 -0.170789 0 202 68 0
2021-09-03 22:11:56 GMT 5.596766 -0.170679 0 202 69 0
2021-09-03 22:11:54 GMT 5.597720 -0.170288 0 202 74 0
2021-09-03 22:11:51 GMT 5.598381 -0.170009 0 202 78 0
2021-09-03 22:11:47 GMT 5.599445 -0.169578 0 202 84 0
2021-09-03 22:11:46 GMT 5.600153 -0.169294 0 202 88 0
2021-09-03 22:11:45 GMT 5.600361 -0.169206 0 202 92 0
2021-09-03 22:11:44 GMT 5.601196 -0.168868 0 202 96 0
2021-09-03 22:11:41 GMT 5.602066 -0.168507 125 202 105 0
2021-09-03 22:11:40 GMT 5.602615 -0.168286 125 203 102 -192
2021-09-03 22:11:35 GMT 5.605448 -0.167115 125 203 123 -192
2021-09-03 22:11:34 GMT 5.605448 -0.167115 125 203 123 -192
2021-09-03 22:11:32 GMT 5.607589 -0.166216 150 202 131 -128
2021-09-03 22:11:30 GMT 5.607589 -0.166216 150 202 131 -128
2021-09-03 22:11:29 GMT 5.608109 -0.166005 150 203 132 -128
2021-09-03 22:11:26 GMT 5.609619 -0.165400 150 203 136 -192
2021-09-03 22:11:25 GMT 5.610489 -0.165028 150 203 137 -128
2021-09-03 22:11:24 GMT 5.611407 -0.164653 150 203 139 -192
2021-09-03 22:11:22 GMT 5.612245 -0.164321 150 204 140 -192
2021-09-03 22:11:19 GMT 5.614700 -0.163305 200 203 140 -448
2021-09-03 22:11:17 GMT 5.615177 -0.163090 225 203 140 -512
2021-09-03 22:11:16 GMT 5.615876 -0.162806 225 203 141 -576
2021-09-03 22:11:14 GMT 5.616993 -0.162332 250 202 140 -640
2021-09-03 22:11:13 GMT 5.617552 -0.162096 275 202 140 -576
2021-09-03 22:11:12 GMT 5.618179 -0.161862 275 203 140 -640
2021-09-03 22:11:10 GMT 5.619507 -0.161338 300 203 140 -576
2021-09-03 22:11:09 GMT 5.620148 -0.161071 300 203 140 -576
2021-09-03 22:11:06 GMT 5.621741 -0.160438 350 203 139 -704
2021-09-03 22:11:05 GMT 5.622347 -0.160154 350 203 139 -768
2021-09-03 22:11:03 GMT 5.623650 -0.159633 375 203 139 -832
2021-09-03 22:11:02 GMT 5.624176 -0.159395 400 203 139 -832
2021-09-03 22:11:01 GMT 5.624954 -0.159069 400 203 139 -768
2021-09-03 22:10:59 GMT 5.625931 -0.158686 425 203 138 -832
2021-09-03 22:10:57 GMT 5.627700 -0.157928 475 203 139 -704
2021-09-03 22:10:54 GMT 5.628891 -0.157440 500 203 139 -704
2021-09-03 22:10:52 GMT 5.630127 -0.156928 525 203 140 -640
2021-09-03 22:10:51 GMT 5.630814 -0.156648 525 203 139 -704
2021-09-03 22:10:50 GMT 5.632541 -0.155940 550 203 140 -768
2021-09-03 22:10:48 GMT 5.632541 -0.155940 550 203 140 -768
2021-09-03 22:10:47 GMT 5.633333 -0.155655 575 203 140 -768
2021-09-03 22:10:46 GMT 5.634567 -0.155112 600 203 140 -768
2021-09-03 22:10:43 GMT 5.635800 -0.154614 625 203 140 -704
2021-09-03 22:10:42 GMT 5.636124 -0.154460 650 203 141 -640
2021-09-03 22:10:41 GMT 5.636778 -0.154235 650 203 142 -640
2021-09-03 22:10:40 GMT 5.637634 -0.153855 675 203 143 -704
2021-09-03 22:10:38 GMT 5.638686 -0.153430 700 203 142 -640
2021-09-03 22:10:37 GMT 5.639236 -0.153203 700 203 141 -704
2021-09-03 22:10:36 GMT 5.640502 -0.152672 725 202 141 -768
2021-09-03 22:10:34 GMT 5.641159 -0.152412 725 202 142 -768
2021-09-03 22:10:33 GMT 5.641805 -0.152151 750 202 142 -768
2021-09-03 22:10:31 GMT 5.643036 -0.151667 775 203 141 -768
2021-09-03 22:10:30 GMT 5.643621 -0.151441 800 203 140 -768
2021-09-03 22:10:28 GMT 5.644730 -0.150969 800 203 140 -832
2021-09-03 22:10:27 GMT 5.645390 -0.150731 825 203 140 -768
2021-09-03 22:10:26 GMT 5.645966 -0.150457 850 202 140 -704
2021-09-03 22:10:25 GMT 5.646554 -0.150257 850 203 140 -640
2021-09-03 22:10:24 GMT 5.647764 -0.149736 875 203 141 -512
2021-09-03 22:10:22 GMT 5.648462 -0.149452 875 204 141 -448
2021-09-03 22:10:20 GMT 5.649719 -0.148921 900 204 141 -384
2021-09-03 22:10:19 GMT 5.650864 -0.148409 925 204 140 -576
2021-09-03 22:10:17 GMT 5.651413 -0.148176 925 203 139 -640
2021-09-03 22:10:15 GMT 5.652559 -0.147700 950 203 138 -704
2021-09-03 22:10:14 GMT 5.653443 -0.147321 950 203 138 -704
2021-09-03 22:10:12 GMT 5.655624 -0.146407 1,000 203 138 -704
2021-09-03 22:10:10 GMT 5.655624 -0.146407 1,000 203 139 -704
2021-09-03 22:10:08 GMT 5.656769 -0.145941 1,025 203 139 -704
2021-09-03 22:10:07 GMT 5.657400 -0.145664 1,050 203 139 -704
2021-09-03 22:10:06 GMT 5.657959 -0.145429 1,050 203 139 -768
2021-09-03 22:10:03 GMT 5.659914 -0.144622 1,100 203 140 -768
2021-09-03 22:10:02 GMT 5.661118 -0.144172 1,125 203 140 -704
2021-09-03 22:10:00 GMT 5.661730 -0.143911 1,125 202 140 -704
2021-09-03 22:09:59 GMT 5.662335 -0.143675 1,150 202 140 -768
2021-09-03 22:09:57 GMT 5.663545 -0.143154 1,175 202 139 -704
2021-09-03 22:09:56 GMT 5.664150 -0.142917 1,175 202 139 -704
2021-09-03 22:09:55 GMT 5.664802 -0.142680 1,200 202 138 -704
2021-09-03 22:09:53 GMT 5.666016 -0.142171 1,225 202 137 -768
2021-09-03 22:09:52 GMT 5.666664 -0.141923 1,225 202 138 -768
2021-09-03 22:09:50 GMT 5.667572 -0.141565 1,250 202 138 -640
2021-09-03 22:09:49 GMT 5.668294 -0.141307 1,275 202 138 -640
2021-09-03 22:09:47 GMT 5.670202 -0.140549 1,300 203 139 -768
2021-09-03 22:09:45 GMT 5.670776 -0.140308 1,325 203 140 -704
2021-09-03 22:09:44 GMT 5.671967 -0.139796 1,350 203 142 -704
2021-09-03 22:09:41 GMT 5.673275 -0.139223 1,375 203 143 -704
2021-09-03 22:09:39 GMT 5.674299 -0.138844 1,375 203 145 -640
2021-09-03 22:09:38 GMT 5.674988 -0.138539 1,400 203 146 -640
2021-09-03 22:09:36 GMT 5.675928 -0.138134 1,400 203 147 -640
2021-09-03 22:09:35 GMT 5.677551 -0.137469 1,425 203 150 -640
2021-09-03 22:09:34 GMT 5.677551 -0.137469 1,450 203 150 -640
2021-09-03 22:09:32 GMT 5.679466 -0.136666 1,475 203 152 -896
2021-09-03 22:09:30 GMT 5.680025 -0.136429 1,500 203 152 -896
2021-09-03 22:09:29 GMT 5.680710 -0.136165 1,525 203 153 -832
2021-09-03 22:09:27 GMT 5.682166 -0.135577 1,550 203 154 -640
2021-09-03 22:09:26 GMT 5.682725 -0.135340 1,550 203 154 -576
2021-09-03 22:09:25 GMT 5.683423 -0.135056 1,550 203 155 -576
2021-09-03 22:09:23 GMT 5.684692 -0.134489 1,575 203 156 -640
2021-09-03 22:09:22 GMT 5.685332 -0.134251 1,575 203 156 -832
2021-09-03 22:09:21 GMT 5.686775 -0.133683 1,600 203 156 -832
2021-09-03 22:09:19 GMT 5.687427 -0.133399 1,625 203 156 -832
2021-09-03 22:09:18 GMT 5.688125 -0.133115 1,625 203 156 -832
2021-09-03 22:09:16 GMT 5.689475 -0.132546 1,650 203 157 -896
2021-09-03 22:09:15 GMT 5.690186 -0.132255 1,675 203 157 -960
2021-09-03 22:09:14 GMT 5.690781 -0.131976 1,700 203 157 -960
2021-09-03 22:09:13 GMT 5.691477 -0.131694 1,700 203 157 -960
2021-09-03 22:09:10 GMT 5.693478 -0.130889 1,750 203 158 -960
2021-09-03 22:09:09 GMT 5.694855 -0.130300 1,775 203 158 -1088
2021-09-03 22:09:07 GMT 5.695527 -0.130036 1,800 202 158 -1088
2021-09-03 22:09:06 GMT 5.696228 -0.129788 1,825 202 158 -1088
2021-09-03 22:09:04 GMT 5.697854 -0.129137 1,850 202 158 -1024
2021-09-03 22:09:02 GMT 5.698975 -0.128670 1,875 203 159 -832
2021-09-03 22:08:59 GMT 5.700760 -0.127972 1,900 203 159 -832
2021-09-03 22:08:50 GMT 5.707352 -0.125272 2,050 203 162 -704
2021-09-03 22:08:40 GMT 5.714401 -0.122339 2,100 203 162 -64
2021-09-03 22:08:29 GMT 5.721497 -0.119406 2,075 203 169 192
2021-09-03 22:08:18 GMT 5.729230 -0.116209 2,075 203 175 -64
2021-09-03 22:08:08 GMT 5.737005 -0.112989 2,100 203 182 -128
2021-09-03 22:07:48 GMT 5.753815 -0.106093 2,225 203 195 -384
2021-09-03 22:07:39 GMT 5.761917 -0.102787 2,275 203 200 -384
2021-09-03 22:07:29 GMT 5.770660 -0.099203 2,350 203 206 -384
2021-09-03 22:07:19 GMT 5.779600 -0.095562 2,425 203 212 -448
2021-09-03 22:07:07 GMT 5.790214 -0.091205 2,550 203 216 -832
2021-09-03 22:06:58 GMT 5.798447 -0.087798 2,725 203 217 -1280
2021-09-03 22:06:49 GMT 5.807671 -0.083960 2,925 204 219 -1280
2021-09-03 22:06:39 GMT 5.816986 -0.079837 3,125 205 221 -1024
2021-09-03 22:06:29 GMT 5.826416 -0.076392 3,300 195 224 -1280
2021-09-03 22:06:19 GMT 5.836906 -0.073826 3,500 198 227 -1280
2021-09-03 22:06:09 GMT 5.845917 -0.068851 3,725 224 223 -1216
2021-09-03 22:05:55 GMT 5.852783 -0.057026 3,875 256 220 -64
2021-09-03 22:05:49 GMT 5.854409 -0.050480 3,875 258 221 0
2021-09-03 22:05:39 GMT 5.856674 -0.040128 3,875 258 219 0
2021-09-03 22:05:28 GMT 5.858780 -0.029002 3,875 261 219 0
2021-09-03 22:05:19 GMT 5.860228 -0.020078 3,875 261 218 -64
2021-09-03 22:05:06 GMT 5.862213 -0.007681 3,900 261 218 -64
2021-09-03 22:04:56 GMT 5.863860 0.002510 3,875 262 224 0
2021-09-03 22:04:43 GMT 5.866058 0.016247 3,875 261 233 0
2021-09-03 22:04:25 GMT 5.869166 0.035848 3,875 261 249 64
2021-09-03 22:04:07 GMT 5.872604 0.057166 3,875 261 262 -64
2021-09-03 22:03:57 GMT 5.874527 0.069177 3,900 261 267 -448
2021-09-03 22:03:16 GMT 5.883316 0.120291 5,125 261 271 -2176
We lost coverage of the aircraft here for a total of 343 minutes
2021-09-03 16:20:27 GMT 34.632771 0.661869 37,000 171 464 0
2021-09-03 16:17:33 GMT 35.005512 0.599556 37,000 172 469 0
2021-09-03 16:17:26 GMT 35.020020 0.597129 37,000 172 469 0
2021-09-03 16:17:16 GMT 35.040482 0.593710 37,000 172 469 0
2021-09-03 16:16:31 GMT 35.138096 0.577297 37,000 172 467 0
2021-09-03 16:16:21 GMT 35.171940 0.571632 37,000 172 467 0
2021-09-03 16:16:12 GMT 35.179249 0.570374 37,000 172 466 0
2021-09-03 16:16:02 GMT 35.199875 0.566917 37,000 172 466 0
2021-09-03 16:15:31 GMT 35.266254 0.555686 37,000 172 466 0
2021-09-03 16:15:01 GMT 35.329147 0.545082 37,000 172 465 0
2021-09-03 16:14:58 GMT 35.337570 0.543706 37,000 172 465 0
2021-09-03 16:14:50 GMT 35.354507 0.540848 37,000 172 464 0
2021-09-03 16:14:47 GMT 35.360752 0.539791 37,000 172 464 0
2021-09-03 16:14:38 GMT 35.380539 0.536577 37,000 172 463 0
2021-09-03 16:14:27 GMT 35.401932 0.533066 37,000 172 463 0
2021-09-03 16:14:15 GMT 35.427155 0.529003 37,000 172 461 -64
2021-09-03 16:14:06 GMT 35.446781 0.525532 37,000 169 464 64
2021-09-03 16:13:58 GMT 35.463169 0.521208 37,000 165 466 0
2021-09-03 16:13:48 GMT 35.484909 0.514254 37,000 165 466 0
2021-09-03 16:13:34 GMT 35.512840 0.505196 37,000 165 465 0
2021-09-03 16:13:25 GMT 35.535645 0.497761 37,000 165 465 -64
2021-09-03 16:13:15 GMT 35.552902 0.492096 37,025 165 465 0
2021-09-03 16:13:06 GMT 35.571960 0.485911 37,000 165 464 0
2021-09-03 16:12:38 GMT 35.629967 0.467036 37,000 165 464 0
2021-09-03 16:12:32 GMT 35.642021 0.463062 37,000 165 464 0
2021-09-03 16:12:26 GMT 35.656361 0.458445 37,000 165 464 0
2021-09-03 16:12:15 GMT 35.679108 0.451012 37,000 165 464 64
2021-09-03 16:11:51 GMT 35.727081 0.435276 37,000 165 464 0
2021-09-03 16:11:45 GMT 35.740898 0.430746 37,000 165 463 0
2021-09-03 16:11:25 GMT 35.781773 0.417364 37,000 165 463 0
2021-09-03 16:11:22 GMT 35.788010 0.415318 37,000 165 464 0
2021-09-03 16:11:11 GMT 35.810944 0.407810 37,000 165 464 0
2021-09-03 16:11:00 GMT 35.833492 0.400417 37,000 165 464 0
2021-09-03 16:10:49 GMT 35.855885 0.393053 37,000 165 464 0
2021-09-03 16:10:39 GMT 35.877110 0.386041 37,000 165 464 -64
2021-09-03 16:10:28 GMT 35.899734 0.378619 37,000 165 465 0
2021-09-03 16:10:23 GMT 35.911285 0.374794 37,000 165 465 -64
2021-09-03 16:10:18 GMT 35.920776 0.371724 37,000 165 464 64
2021-09-03 16:10:08 GMT 35.941772 0.364769 37,000 164 465 0
2021-09-03 16:10:01 GMT 35.956112 0.360094 37,000 165 464 64
2021-09-03 16:09:58 GMT 35.963516 0.357628 37,000 165 464 0
2021-09-03 16:09:52 GMT 35.975372 0.353737 37,000 165 464 64
2021-09-03 16:09:47 GMT 35.984600 0.350686 37,000 165 464 0
2021-09-03 16:09:42 GMT 35.996891 0.346712 37,000 165 464 -64
2021-09-03 16:09:37 GMT 36.006618 0.343498 37,000 165 464 0
2021-09-03 16:09:31 GMT 36.018490 0.339583 37,000 165 464 0
2021-09-03 16:09:27 GMT 36.027195 0.336719 37,000 165 463 -64
2021-09-03 16:09:21 GMT 36.039860 0.332512 37,000 165 463 0
2021-09-03 16:09:17 GMT 36.048431 0.329704 37,000 164 464 0
2021-09-03 16:09:11 GMT 36.061226 0.325441 37,000 165 463 0
2021-09-03 16:09:06 GMT 36.071190 0.322168 37,000 165 463 0
2021-09-03 16:09:01 GMT 36.081665 0.318718 37,000 164 465 0
2021-09-03 16:08:56 GMT 36.091904 0.315331 37,000 165 464 0
2021-09-03 16:08:50 GMT 36.103043 0.311623 37,000 165 464 0
2021-09-03 16:08:45 GMT 36.114529 0.307793 37,000 164 465 -64
2021-09-03 16:08:40 GMT 36.124832 0.304413 37,025 164 465 0
2021-09-03 16:08:35 GMT 36.135288 0.300897 37,025 164 465 0
2021-09-03 16:08:29 GMT 36.146744 0.297098 37,000 164 465 64
2021-09-03 16:08:25 GMT 36.155777 0.294056 37,000 164 465 0
2021-09-03 16:08:19 GMT 36.168575 0.289794 37,000 164 465 -64
2021-09-03 16:08:14 GMT 36.177933 0.286696 37,000 164 465 64
2021-09-03 16:08:09 GMT 36.188644 0.283127 37,000 164 467 0
2021-09-03 16:08:03 GMT 36.210472 0.275885 37,000 164 466 64
2021-09-03 16:08:00 GMT 36.210472 0.275885 37,000 164 466 64
2021-09-03 16:07:52 GMT 36.225174 0.270996 37,000 164 466 0
2021-09-03 16:07:49 GMT 36.231514 0.268931 37,000 164 466 0
2021-09-03 16:07:42 GMT 36.246460 0.263958 37,000 164 467 0
2021-09-03 16:07:38 GMT 36.253441 0.261627 37,000 164 466 0
2021-09-03 16:07:32 GMT 36.267452 0.257010 37,000 164 467 -64
2021-09-03 16:07:29 GMT 36.274529 0.254672 37,000 165 466 -64
2021-09-03 16:07:21 GMT 36.288849 0.249939 37,000 164 467 64
2021-09-03 16:07:17 GMT 36.297409 0.247078 37,000 164 467 0
2021-09-03 16:07:11 GMT 36.310234 0.242751 37,000 164 467 -64
2021-09-03 16:07:07 GMT 36.317871 0.240269 37,000 164 467 64
2021-09-03 16:07:01 GMT 36.331741 0.235622 37,000 164 468 0
2021-09-03 16:06:57 GMT 36.338516 0.233345 37,000 164 468 0
2021-09-03 16:06:51 GMT 36.359531 0.226330 37,000 165 467 0
2021-09-03 16:06:48 GMT 36.359531 0.226330 37,000 165 467 0
2021-09-03 16:06:40 GMT 36.375641 0.221012 37,000 164 468 0
2021-09-03 16:06:37 GMT 36.381409 0.219097 37,000 164 468 64
2021-09-03 16:06:33 GMT 36.391560 0.215694 37,000 164 468 64
2021-09-03 16:06:30 GMT 36.396881 0.213890 37,000 164 468 -64
2021-09-03 16:06:27 GMT 36.403290 0.211779 37,000 164 468 -64
2021-09-03 16:06:20 GMT 36.417847 0.206966 37,000 164 468 0
2021-09-03 16:06:16 GMT 36.425079 0.204533 37,000 164 468 64
2021-09-03 16:06:11 GMT 36.435608 0.201015 37,000 165 468 0
2021-09-03 16:06:07 GMT 36.446091 0.197525 37,000 165 468 0
2021-09-03 16:05:59 GMT 36.461109 0.192553 37,000 164 469 0
2021-09-03 16:05:56 GMT 36.467285 0.190487 37,000 164 469 0
2021-09-03 16:05:48 GMT 36.483734 0.184956 37,000 164 469 0
2021-09-03 16:05:45 GMT 36.489414 0.183028 37,000 164 470 0
2021-09-03 16:05:38 GMT 36.505150 0.177827 37,000 164 470 0
2021-09-03 16:05:35 GMT 36.510727 0.175953 37,000 164 470 0
2021-09-03 16:05:31 GMT 36.531635 0.169061 37,000 165 469 -64
2021-09-03 16:05:26 GMT 36.531635 0.169061 37,000 164 470 64
2021-09-03 16:05:21 GMT 36.541397 0.165768 37,000 164 471 0
2021-09-03 16:05:17 GMT 36.549278 0.163159 37,000 164 471 0
2021-09-03 16:05:14 GMT 36.554443 0.161419 37,000 164 471 0
2021-09-03 16:05:10 GMT 36.564220 0.158133 37,000 164 471 0
2021-09-03 16:05:07 GMT 36.570419 0.156040 37,000 164 471 0
2021-09-03 16:05:04 GMT 36.576141 0.154152 37,000 164 471 0
2021-09-03 16:04:59 GMT 36.586987 0.150478 37,000 164 471 0
2021-09-03 16:04:54 GMT 36.597794 0.146828 37,000 164 471 0
2021-09-03 16:04:49 GMT 36.607796 0.143465 37,000 164 471 0
2021-09-03 16:04:44 GMT 36.619572 0.139491 37,000 164 471 64
2021-09-03 16:04:38 GMT 36.631897 0.135326 37,000 164 471 0
2021-09-03 16:04:34 GMT 36.640244 0.132479 37,000 164 472 -64
2021-09-03 16:04:29 GMT 36.649841 0.129261 37,000 164 471 0
2021-09-03 16:04:24 GMT 36.661194 0.125427 37,000 164 472 0
2021-09-03 16:04:18 GMT 36.673004 0.121479 37,000 165 472 0
2021-09-03 16:04:13 GMT 36.683578 0.117989 37,000 164 472 0
2021-09-03 16:04:08 GMT 36.693825 0.114597 37,000 164 473 0
2021-09-03 16:04:04 GMT 36.704498 0.111008 37,000 164 473 0
2021-09-03 16:03:59 GMT 36.714432 0.107689 37,000 164 473 -64
2021-09-03 16:03:53 GMT 36.727112 0.103397 37,000 164 473 0
2021-09-03 16:03:48 GMT 36.736633 0.100250 37,000 164 474 0
2021-09-03 16:03:43 GMT 36.748196 0.096364 37,000 164 474 0
2021-09-03 16:03:38 GMT 36.757507 0.093208 37,000 164 474 0
2021-09-03 16:03:32 GMT 36.770634 0.088767 37,000 164 474 0
2021-09-03 16:03:28 GMT 36.779293 0.085904 37,000 164 474 0
2021-09-03 16:03:23 GMT 36.791702 0.081768 37,000 164 475 0
2021-09-03 16:03:18 GMT 36.801270 0.078621 37,000 165 474 0
2021-09-03 16:03:12 GMT 36.813400 0.074615 37,000 165 474 0
2021-09-03 16:03:07 GMT 36.823608 0.071239 37,000 165 476 0
2021-09-03 16:03:01 GMT 36.835510 0.067234 37,000 164 476 0
2021-09-03 16:02:58 GMT 36.843567 0.064545 37,000 164 476 0
2021-09-03 16:02:51 GMT 36.857315 0.059887 37,000 164 476 -64
2021-09-03 16:02:47 GMT 36.866135 0.056919 37,000 164 477 -64
2021-09-03 16:02:42 GMT 36.879547 0.052302 37,025 164 477 0
2021-09-03 16:02:37 GMT 36.888367 0.049259 37,000 164 477 0
2021-09-03 16:02:30 GMT 36.902756 0.044296 37,000 164 477 0
2021-09-03 16:02:26 GMT 36.910172 0.041725 37,000 164 477 0
2021-09-03 16:02:21 GMT 36.922024 0.037676 37,000 164 477 0
2021-09-03 16:02:17 GMT 36.930309 0.034810 37,000 164 477 64
2021-09-03 16:02:10 GMT 36.944458 0.029862 37,000 164 478 -64
2021-09-03 16:02:06 GMT 36.952888 0.026988 37,000 164 478 -64
2021-09-03 16:02:01 GMT 36.966431 0.022265 37,000 164 478 64
2021-09-03 16:01:57 GMT 36.973892 0.019694 37,000 164 478 0
2021-09-03 16:01:50 GMT 36.988174 0.014726 37,000 164 478 0
2021-09-03 16:01:47 GMT 36.996506 0.011863 37,000 164 478 0
2021-09-03 16:01:40 GMT 37.009689 0.007246 37,000 164 478 0
2021-09-03 16:01:35 GMT 37.020355 0.003506 37,000 164 478 0
2021-09-03 16:01:29 GMT 37.033051 -0.000896 37,000 164 477 0
2021-09-03 16:01:26 GMT 37.039536 -0.003156 37,000 164 477 0
2021-09-03 16:01:20 GMT 37.053589 -0.008064 37,000 164 477 0
2021-09-03 16:01:17 GMT 37.058979 -0.009971 37,000 164 476 0
2021-09-03 16:01:13 GMT 37.066242 -0.012539 37,000 164 477 -64
2021-09-03 16:01:09 GMT 37.075787 -0.015882 37,000 164 477 -64
2021-09-03 16:01:05 GMT 37.083652 -0.018689 37,000 164 477 0
2021-09-03 16:00:59 GMT 37.096779 -0.023346 37,000 164 477 64
2021-09-03 16:00:56 GMT 37.113968 -0.028927 37,000 166 476 0
2021-09-03 16:00:46 GMT 37.124153 -0.031526 37,000 172 472 -64
2021-09-03 16:00:43 GMT 37.129787 -0.032780 37,000 172 472 -64
2021-09-03 16:00:38 GMT 37.140701 -0.034654 37,000 173 471 -64
2021-09-03 16:00:35 GMT 37.148758 -0.035647 37,000 177 470 0
2021-09-03 16:00:27 GMT 37.164513 -0.036721 37,000 177 470 0
2021-09-03 16:00:24 GMT 37.171555 -0.037050 37,000 177 470 0
2021-09-03 16:00:17 GMT 37.186905 -0.037795 37,000 177 470 0
2021-09-03 16:00:13 GMT 37.194626 -0.038102 37,000 177 470 0
2021-09-03 16:00:07 GMT 37.208542 -0.038744 37,000 177 471 0
2021-09-03 16:00:04 GMT 37.215271 -0.039037 37,000 177 471 0
2021-09-03 15:59:57 GMT 37.230618 -0.039766 37,000 177 471 0
2021-09-03 15:59:54 GMT 37.237831 -0.040064 37,000 177 471 0
2021-09-03 15:59:46 GMT 37.254406 -0.040840 37,000 177 471 -64
2021-09-03 15:59:43 GMT 37.260086 -0.041079 37,000 177 471 0
2021-09-03 15:59:36 GMT 37.281872 -0.042094 37,000 177 471 0
2021-09-03 15:59:33 GMT 37.281872 -0.042094 37,000 177 471 0
2021-09-03 15:59:26 GMT 37.297375 -0.042751 37,000 177 471 0
2021-09-03 15:59:23 GMT 37.304443 -0.043069 37,000 177 471 0
2021-09-03 15:59:16 GMT 37.320145 -0.043828 37,000 177 471 0
2021-09-03 15:59:13 GMT 37.326645 -0.044121 37,000 177 471 0
2021-09-03 15:59:06 GMT 37.342251 -0.044841 37,000 177 470 0
2021-09-03 15:59:03 GMT 37.366287 -0.045932 37,000 177 470 -64
2021-09-03 15:58:55 GMT 37.372463 -0.046214 37,000 177 470 -64
2021-09-03 15:58:52 GMT 37.372463 -0.046214 37,000 177 470 -64
2021-09-03 15:58:45 GMT 37.386799 -0.046871 37,000 177 470 64
2021-09-03 15:58:42 GMT 37.393131 -0.047110 37,000 177 470 64
2021-09-03 15:58:35 GMT 37.409088 -0.047861 37,000 177 470 0
2021-09-03 15:58:32 GMT 37.415634 -0.048153 37,000 177 470 0
2021-09-03 15:58:25 GMT 37.432888 -0.048901 37,000 177 470 0
2021-09-03 15:58:22 GMT 37.437450 -0.049080 37,000 177 469 0
2021-09-03 15:58:15 GMT 37.453323 -0.049797 37,000 178 469 -64
2021-09-03 15:58:12 GMT 37.459946 -0.050081 37,000 178 469 -64
2021-09-03 15:58:04 GMT 37.476089 -0.050812 37,000 177 469 0
2021-09-03 15:58:00 GMT 37.484558 -0.051170 37,000 177 469 0
2021-09-03 15:57:55 GMT 37.498947 -0.051834 37,000 177 468 0
2021-09-03 15:57:51 GMT 37.504253 -0.052125 37,000 177 468 0
2021-09-03 15:57:43 GMT 37.523438 -0.053003 37,000 177 468 0
2021-09-03 15:57:34 GMT 37.542377 -0.053857 37,000 177 468 -64
2021-09-03 15:57:30 GMT 37.549919 -0.054215 37,000 177 468 -64
2021-09-03 15:57:23 GMT 37.571915 -0.055224 37,000 177 467 0
2021-09-03 15:57:20 GMT 37.571915 -0.055224 37,000 177 467 0
2021-09-03 15:57:12 GMT 37.588882 -0.055947 37,025 177 467 0
2021-09-03 15:57:09 GMT 37.594284 -0.056186 37,000 177 467 0
2021-09-03 15:57:02 GMT 37.609726 -0.056919 37,000 177 467 0
2021-09-03 15:56:59 GMT 37.616409 -0.057211 37,000 177 467 0
2021-09-03 15:56:52 GMT 37.631149 -0.057854 37,000 177 467 0
2021-09-03 15:56:48 GMT 37.640324 -0.058275 37,000 177 467 0
2021-09-03 15:56:43 GMT 37.652660 -0.058872 37,000 177 467 0
2021-09-03 15:56:38 GMT 37.661739 -0.059290 37,000 177 467 -64
2021-09-03 15:56:33 GMT 37.675232 -0.059899 37,000 177 467 0
2021-09-03 15:56:28 GMT 37.683525 -0.060246 37,000 177 467 0
2021-09-03 15:56:22 GMT 37.696884 -0.060843 37,000 177 466 0
2021-09-03 15:56:18 GMT 37.705856 -0.061243 37,000 177 466 0
2021-09-03 15:56:13 GMT 37.717300 -0.061769 37,000 178 466 0
2021-09-03 15:56:10 GMT 37.723839 -0.062037 37,000 178 466 0
2021-09-03 15:56:07 GMT 37.728516 -0.062236 37,000 178 466 0
2021-09-03 15:56:01 GMT 37.741528 -0.062813 37,000 177 465 0
2021-09-03 15:55:57 GMT 37.750031 -0.063230 37,000 177 465 64
2021-09-03 15:55:52 GMT 37.763920 -0.063888 37,000 177 465 -64
2021-09-03 15:55:47 GMT 37.772720 -0.064246 37,000 177 465 0
2021-09-03 15:55:42 GMT 37.783470 -0.064784 37,000 177 464 64
2021-09-03 15:55:39 GMT 37.789894 -0.065082 37,000 177 464 64
2021-09-03 15:55:36 GMT 37.795296 -0.065321 37,000 177 464 0
2021-09-03 15:55:32 GMT 37.804642 -0.065743 37,000 177 464 0
2021-09-03 15:55:29 GMT 37.811401 -0.066097 37,000 177 464 0
2021-09-03 15:55:26 GMT 37.817177 -0.066336 37,000 177 464 0
2021-09-03 15:55:20 GMT 37.832211 -0.067052 37,000 177 464 0
2021-09-03 15:55:16 GMT 37.838684 -0.067351 37,000 177 464 0
2021-09-03 15:55:11 GMT 37.851654 -0.067905 37,000 177 464 64
2021-09-03 15:55:08 GMT 37.855862 -0.068127 37,000 177 464 0
2021-09-03 15:55:05 GMT 37.863052 -0.068431 37,000 177 464 64
2021-09-03 15:55:02 GMT 37.869827 -0.068784 37,000 177 464 64
2021-09-03 15:54:58 GMT 37.877556 -0.069142 37,000 177 465 0
2021-09-03 15:54:55 GMT 37.883980 -0.069441 37,000 177 465 0
2021-09-03 15:54:52 GMT 37.891754 -0.069799 37,000 177 465 0
2021-09-03 15:54:48 GMT 37.898941 -0.070125 37,000 177 465 0
2021-09-03 15:54:45 GMT 37.907440 -0.070516 37,000 178 465 0
2021-09-03 15:54:40 GMT 37.917542 -0.070993 37,000 177 465 -64
2021-09-03 15:54:37 GMT 37.921738 -0.071177 37,000 177 465 0
2021-09-03 15:54:34 GMT 37.928833 -0.071470 37,000 177 465 0
2021-09-03 15:54:31 GMT 37.935371 -0.071829 37,000 177 464 0
2021-09-03 15:54:27 GMT 37.943100 -0.072187 37,000 177 464 -64
2021-09-03 15:54:24 GMT 37.951355 -0.072580 37,000 177 464 0
2021-09-03 15:54:21 GMT 37.957397 -0.072872 37,000 177 464 0
2021-09-03 15:54:17 GMT 37.965214 -0.073262 37,000 177 464 0
2021-09-03 15:54:14 GMT 37.972939 -0.073620 37,000 177 464 0
2021-09-03 15:54:10 GMT 37.980560 -0.073982 37,000 177 464 0
2021-09-03 15:54:07 GMT 37.986485 -0.074277 37,000 177 464 0
2021-09-03 15:54:04 GMT 37.994293 -0.074625 37,000 177 464 -64
2021-09-03 15:54:01 GMT 38.000824 -0.074934 37,000 177 464 0
2021-09-03 15:53:57 GMT 38.008896 -0.075268 37,000 177 463 0
2021-09-03 15:53:54 GMT 38.017349 -0.075650 37,000 177 463 0
2021-09-03 15:53:51 GMT 38.022472 -0.075889 37,025 177 463 0
2021-09-03 15:53:47 GMT 38.030434 -0.076248 37,025 177 463 0
2021-09-03 15:53:43 GMT 38.038651 -0.076612 37,000 178 463 0
2021-09-03 15:53:40 GMT 38.045189 -0.076904 37,000 177 463 0
2021-09-03 15:53:36 GMT 38.052685 -0.077263 37,000 177 463 0
2021-09-03 15:53:33 GMT 38.060181 -0.077621 37,000 177 463 0
2021-09-03 15:53:30 GMT 38.065430 -0.077839 37,000 177 463 0
2021-09-03 15:53:27 GMT 38.073807 -0.078248 37,000 177 463 0
2021-09-03 15:53:24 GMT 38.079163 -0.078482 37,000 177 463 64
2021-09-03 15:53:21 GMT 38.088017 -0.078934 37,000 177 463 64
2021-09-03 15:53:16 GMT 38.095642 -0.079300 37,000 177 464 0
2021-09-03 15:53:12 GMT 38.104122 -0.079711 37,000 177 464 0
2021-09-03 15:53:08 GMT 38.120544 -0.080469 37,000 178 464 0
2021-09-03 15:53:05 GMT 38.120544 -0.080469 37,000 178 464 0
2021-09-03 15:53:00 GMT 38.131256 -0.080937 37,000 178 464 0
2021-09-03 15:52:56 GMT 38.139736 -0.081323 37,000 177 464 0
2021-09-03 15:52:52 GMT 38.147369 -0.081638 37,000 177 464 0
2021-09-03 15:52:50 GMT 38.152908 -0.081930 37,000 177 464 0
2021-09-03 15:52:45 GMT 38.163895 -0.082397 37,000 177 464 0
2021-09-03 15:52:40 GMT 38.174278 -0.082875 37,000 178 464 0
2021-09-03 15:52:35 GMT 38.184906 -0.083391 37,000 177 464 0
2021-09-03 15:52:29 GMT 38.197041 -0.083950 37,000 177 465 0
2021-09-03 15:52:25 GMT 38.206421 -0.084384 37,000 177 465 0
2021-09-03 15:52:19 GMT 38.218460 -0.084910 37,000 177 465 -64
2021-09-03 15:52:15 GMT 38.227707 -0.085378 37,000 177 466 0
2021-09-03 15:52:12 GMT 38.236240 -0.085741 37,000 177 466 0
2021-09-03 15:52:09 GMT 38.240662 -0.085962 37,000 177 466 64
2021-09-03 15:52:04 GMT 38.250484 -0.086398 37,000 177 468 -64
2021-09-03 15:51:59 GMT 38.262039 -0.086956 37,000 177 468 -64
2021-09-03 15:51:54 GMT 38.271896 -0.087413 37,000 177 468 0
2021-09-03 15:51:49 GMT 38.283691 -0.087949 37,000 177 469 0
2021-09-03 15:51:45 GMT 38.293213 -0.088417 37,000 177 469 0
2021-09-03 15:51:42 GMT 38.299530 -0.088709 37,000 177 470 0
2021-09-03 15:51:39 GMT 38.306488 -0.089059 37,000 177 470 0
2021-09-03 15:51:34 GMT 38.315750 -0.089503 37,000 177 471 64
2021-09-03 15:51:29 GMT 38.328133 -0.090040 37,000 177 472 0
2021-09-03 15:51:25 GMT 38.336792 -0.090462 37,000 177 472 -64
2021-09-03 15:51:22 GMT 38.345406 -0.090876 37,000 177 472 -64
2021-09-03 15:51:19 GMT 38.349655 -0.091046 37,000 177 472 0
2021-09-03 15:51:15 GMT 38.358353 -0.091455 37,025 177 472 -128
2021-09-03 15:51:13 GMT 38.362976 -0.091689 37,025 177 471 -128
2021-09-03 15:51:09 GMT 38.371986 -0.092070 37,025 177 471 0
2021-09-03 15:51:04 GMT 38.382568 -0.092566 37,025 177 471 0
2021-09-03 15:50:58 GMT 38.394890 -0.093145 37,025 177 471 0
2021-09-03 15:50:53 GMT 38.404770 -0.093618 37,000 177 471 64
2021-09-03 15:50:47 GMT 38.417679 -0.094220 37,000 177 472 0
2021-09-03 15:50:43 GMT 38.426376 -0.094638 37,000 177 473 0
2021-09-03 15:50:40 GMT 38.436367 -0.095093 37,000 177 473 -64
2021-09-03 15:50:37 GMT 38.439972 -0.095294 37,000 177 473 64
2021-09-03 15:50:33 GMT 38.448944 -0.095653 37,000 177 473 0
2021-09-03 15:50:27 GMT 38.462723 -0.096309 37,000 177 473 0
2021-09-03 15:50:23 GMT 38.471794 -0.096741 37,000 177 473 0
2021-09-03 15:50:17 GMT 38.484501 -0.097351 37,000 177 473 -64
2021-09-03 15:50:12 GMT 38.495628 -0.097839 37,000 177 473 -64
2021-09-03 15:50:09 GMT 38.503189 -0.098220 37,000 177 473 128
2021-09-03 15:50:06 GMT 38.507221 -0.098389 37,000 177 473 64
2021-09-03 15:50:03 GMT 38.515869 -0.098758 37,000 177 473 0
2021-09-03 15:49:56 GMT 38.530334 -0.099474 37,000 177 473 0
2021-09-03 15:49:52 GMT 38.538502 -0.099854 37,000 177 473 0
2021-09-03 15:49:49 GMT 38.547592 -0.100250 37,000 177 473 0
2021-09-03 15:49:46 GMT 38.553085 -0.100489 37,000 177 473 -64
2021-09-03 15:49:42 GMT 38.560318 -0.100847 37,025 177 473 -128
2021-09-03 15:49:38 GMT 38.570251 -0.101318 37,000 177 473 -128
2021-09-03 15:49:35 GMT 38.576817 -0.101624 37,025 177 473 -64
2021-09-03 15:49:30 GMT 38.588928 -0.102161 37,000 177 473 0
2021-09-03 15:49:25 GMT 38.598587 -0.102639 37,025 177 472 -64
2021-09-03 15:49:22 GMT 38.605213 -0.102966 37,025 177 472 -64
2021-09-03 15:49:17 GMT 38.615082 -0.103394 37,025 177 472 0
2021-09-03 15:49:14 GMT 38.622620 -0.103773 37,025 177 472 0
2021-09-03 15:49:11 GMT 38.628067 -0.104012 37,025 177 472 0
2021-09-03 15:49:06 GMT 38.638870 -0.104492 37,000 177 473 64
2021-09-03 15:49:02 GMT 38.650360 -0.105027 37,000 177 473 -64
2021-09-03 15:48:58 GMT 38.666794 -0.105803 37,000 177 473 64
2021-09-03 15:48:54 GMT 38.666794 -0.105803 37,000 177 473 64
2021-09-03 15:48:51 GMT 38.673458 -0.106140 37,000 177 473 -64
2021-09-03 15:48:46 GMT 38.682442 -0.106567 37,000 177 473 -64
2021-09-03 15:48:41 GMT 38.694687 -0.107178 37,025 177 473 -64
2021-09-03 15:48:36 GMT 38.706276 -0.107727 37,000 177 473 0
2021-09-03 15:48:31 GMT 38.717102 -0.108191 37,000 177 473 64
2021-09-03 15:48:26 GMT 38.728577 -0.108765 37,000 177 473 0
2021-09-03 15:48:22 GMT 38.734722 -0.109009 37,000 177 473 -64
2021-09-03 15:48:19 GMT 38.744541 -0.109497 37,000 177 473 0
2021-09-03 15:48:16 GMT 38.750336 -0.109744 37,000 177 472 64
2021-09-03 15:48:10 GMT 38.761917 -0.110281 37,000 177 472 0
2021-09-03 15:48:07 GMT 38.770615 -0.110699 37,000 177 472 64
2021-09-03 15:48:04 GMT 38.784718 -0.111389 37,000 177 471 0
2021-09-03 15:48:00 GMT 38.784718 -0.111389 37,000 177 471 0
2021-09-03 15:47:56 GMT 38.795288 -0.111893 37,000 177 471 0
2021-09-03 15:47:50 GMT 38.808746 -0.112550 37,000 177 470 0
2021-09-03 15:47:44 GMT 38.817818 -0.112915 37,000 177 470 0
2021-09-03 15:47:38 GMT 38.831455 -0.113586 37,000 177 469 0
2021-09-03 15:47:34 GMT 38.840580 -0.114014 37,000 177 469 0
2021-09-03 15:47:29 GMT 38.850494 -0.114521 37,000 177 469 0
2021-09-03 15:47:24 GMT 38.862274 -0.115051 37,000 177 469 0
2021-09-03 15:47:19 GMT 38.873245 -0.115595 37,000 177 468 0
2021-09-03 15:47:14 GMT 38.884048 -0.116133 37,000 177 468 0
2021-09-03 15:47:08 GMT 38.895885 -0.116638 37,000 177 468 0
2021-09-03 15:47:04 GMT 38.905613 -0.117126 37,000 177 468 64
2021-09-03 15:46:59 GMT 38.918472 -0.117745 37,000 177 468 64
2021-09-03 15:46:55 GMT 38.927353 -0.118103 37,000 177 468 64
2021-09-03 15:46:48 GMT 38.940353 -0.118700 37,000 177 469 0
2021-09-03 15:46:45 GMT 38.946114 -0.118958 37,000 177 469 0
2021-09-03 15:46:42 GMT 38.952713 -0.119297 37,000 177 470 0
2021-09-03 15:46:38 GMT 38.961639 -0.119715 37,000 177 470 -128
2021-09-03 15:46:35 GMT 38.969879 -0.120133 37,025 177 470 -128
2021-09-03 15:46:32 GMT 38.974976 -0.120361 37,025 177 470 -64
2021-09-03 15:46:26 GMT 38.987228 -0.120969 37,000 177 470 0
2021-09-03 15:46:22 GMT 38.997322 -0.121460 37,025 177 469 64
2021-09-03 15:46:17 GMT 39.008514 -0.121984 37,000 177 470 0
2021-09-03 15:46:14 GMT 39.014732 -0.122253 37,000 177 470 -64
2021-09-03 15:46:11 GMT 39.019947 -0.122498 37,000 177 470 0
2021-09-03 15:46:07 GMT 39.029072 -0.122925 37,000 177 471 0
2021-09-03 15:46:04 GMT 39.036472 -0.123230 37,000 177 471 -64
2021-09-03 15:46:01 GMT 39.042805 -0.123535 37,000 177 471 -64
2021-09-03 15:45:53 GMT 39.059330 -0.124329 37,000 177 471 0
2021-09-03 15:45:50 GMT 39.065552 -0.124671 37,000 177 471 0
2021-09-03 15:45:46 GMT 39.075119 -0.125089 37,025 177 471 0
2021-09-03 15:45:43 GMT 39.082764 -0.125447 37,000 178 471 64
2021-09-03 15:45:37 GMT 39.096497 -0.126044 37,000 177 471 128
2021-09-03 15:45:33 GMT 39.103554 -0.126343 37,000 177 472 -64
2021-09-03 15:45:30 GMT 39.110229 -0.126701 37,000 177 472 0
2021-09-03 15:45:26 GMT 39.118057 -0.127059 37,000 177 472 -64
2021-09-03 15:45:23 GMT 39.126160 -0.127418 37,000 177 472 0
2021-09-03 15:45:19 GMT 39.133907 -0.127808 37,025 177 472 0
2021-09-03 15:45:16 GMT 39.141220 -0.128134 37,000 177 471 0
2021-09-03 15:45:13 GMT 39.147949 -0.128433 37,000 177 471 0
2021-09-03 15:45:09 GMT 39.156464 -0.128851 37,000 177 471 0
2021-09-03 15:45:03 GMT 39.170837 -0.129567 37,000 177 471 128
2021-09-03 15:44:57 GMT 39.182507 -0.130127 37,000 177 471 0
2021-09-03 15:44:54 GMT 39.189026 -0.130432 37,000 177 471 0
2021-09-03 15:44:51 GMT 39.194237 -0.130676 37,000 177 471 0
2021-09-03 15:44:46 GMT 39.215187 -0.131714 37,000 177 471 0
2021-09-03 15:44:42 GMT 39.215187 -0.131714 37,000 177 471 0
2021-09-03 15:44:38 GMT 39.223114 -0.132134 37,000 177 471 0
2021-09-03 15:44:32 GMT 39.236507 -0.132812 37,025 177 471 -128
2021-09-03 15:44:28 GMT 39.245132 -0.133329 37,025 177 471 -128
2021-09-03 15:44:21 GMT 39.260147 -0.134165 37,025 177 471 0
2021-09-03 15:44:16 GMT 39.270489 -0.134766 37,000 187 468 0
2021-09-03 15:44:11 GMT 39.284821 -0.135598 37,000 177 472 64
2021-09-03 15:44:07 GMT 39.290909 -0.135956 37,000 177 475 64
2021-09-03 15:44:01 GMT 39.304276 -0.136732 37,000 177 475 0
2021-09-03 15:43:58 GMT 39.313293 -0.137210 37,000 177 475 0
2021-09-03 15:43:55 GMT 39.317322 -0.137451 37,000 177 475 0
2021-09-03 15:43:52 GMT 39.325886 -0.137878 37,000 177 476 0
2021-09-03 15:43:49 GMT 39.330643 -0.138165 37,000 177 476 64
2021-09-03 15:43:46 GMT 39.349777 -0.139120 37,000 177 476 0
2021-09-03 15:43:40 GMT 39.349777 -0.139120 37,000 177 476 0
2021-09-03 15:43:36 GMT 39.365433 -0.139598 37,000 179 475 0
2021-09-03 15:43:29 GMT 39.374489 -0.139404 37,000 183 473 0
2021-09-03 15:43:25 GMT 39.384018 -0.138762 37,000 186 470 0
2021-09-03 15:43:20 GMT 39.399673 -0.136902 37,000 187 469 0
2021-09-03 15:43:14 GMT 39.406376 -0.135925 37,000 187 468 0
2021-09-03 15:43:08 GMT 39.418991 -0.134165 37,000 187 468 0
2021-09-03 15:43:05 GMT 39.425858 -0.133209 37,000 187 467 0
2021-09-03 15:42:58 GMT 39.441788 -0.130940 37,000 187 467 0
2021-09-03 15:42:54 GMT 39.449390 -0.129883 37,000 187 467 0
2021-09-03 15:42:49 GMT 39.460052 -0.128373 37,000 187 467 0
2021-09-03 15:42:44 GMT 39.470665 -0.126831 37,000 187 467 0
2021-09-03 15:42:39 GMT 39.481522 -0.125328 37,000 187 467 0
2021-09-03 15:42:32 GMT 39.498829 -0.122864 37,000 187 467 0
2021-09-03 15:42:29 GMT 39.503345 -0.122253 37,000 187 467 0
2021-09-03 15:42:22 GMT 39.517456 -0.120193 37,000 187 468 64
2021-09-03 15:42:19 GMT 39.525879 -0.118999 37,000 187 468 64
2021-09-03 15:42:13 GMT 39.538677 -0.117188 37,000 187 469 0
2021-09-03 15:42:09 GMT 39.547668 -0.115954 37,000 187 469 64
2021-09-03 15:42:01 GMT 39.565338 -0.113386 37,000 187 468 0
2021-09-03 15:41:58 GMT 39.569122 -0.112854 37,000 187 468 0
2021-09-03 15:41:55 GMT 39.577736 -0.111633 37,000 187 468 -64
2021-09-03 15:41:52 GMT 39.583553 -0.110779 37,000 187 468 -64
2021-09-03 15:41:49 GMT 39.591095 -0.109741 37,000 187 468 -64
2021-09-03 15:41:43 GMT 39.601429 -0.108276 37,000 187 467 0
2021-09-03 15:41:39 GMT 39.611298 -0.106873 37,025 187 467 -64
2021-09-03 15:41:36 GMT 39.616699 -0.106079 37,025 187 466 -64
2021-09-03 15:41:31 GMT 39.628830 -0.104370 37,025 187 466 64
2021-09-03 15:41:26 GMT 39.639771 -0.102818 37,000 187 466 64
2021-09-03 15:41:21 GMT 39.657898 -0.100281 37,000 187 468 -64
2021-09-03 15:41:17 GMT 39.657898 -0.100281 37,000 187 467 0
2021-09-03 15:41:11 GMT 39.680420 -0.097026 37,000 187 468 -64
2021-09-03 15:41:07 GMT 39.680420 -0.097026 37,000 187 468 0
2021-09-03 15:41:02 GMT 39.690205 -0.095642 37,000 187 468 0
2021-09-03 15:40:58 GMT 39.702030 -0.093933 37,000 187 467 0
2021-09-03 15:40:54 GMT 39.708267 -0.093079 37,000 187 467 0
2021-09-03 15:40:50 GMT 39.715714 -0.092010 37,000 187 466 0
2021-09-03 15:40:45 GMT 39.727818 -0.090271 37,000 187 466 64
2021-09-03 15:40:40 GMT 39.738155 -0.088806 37,000 187 466 0
2021-09-03 15:40:35 GMT 39.748764 -0.087294 37,000 187 466 -64
2021-09-03 15:40:30 GMT 39.759933 -0.085681 37,000 187 466 -64
2021-09-03 15:40:22 GMT 39.778152 -0.083114 37,025 187 465 0
2021-09-03 15:40:19 GMT 39.791317 -0.081177 37,025 187 465 0
2021-09-03 15:40:15 GMT 39.791317 -0.081177 37,025 187 465 0
2021-09-03 15:40:09 GMT 39.804886 -0.079293 37,025 187 465 0
2021-09-03 15:39:58 GMT 39.836563 -0.074755 37,000 187 465 0
2021-09-03 15:39:50 GMT 39.844807 -0.073547 37,000 187 465 0
2021-09-03 15:39:46 GMT 39.854443 -0.072205 37,000 187 465 0
2021-09-03 15:39:37 GMT 39.875748 -0.069142 37,000 187 465 0
2021-09-03 15:39:25 GMT 39.898106 -0.065857 37,000 187 465 0
2021-09-03 15:39:16 GMT 39.919601 -0.062753 37,000 187 465 64
2021-09-03 15:39:11 GMT 39.928505 -0.061486 37,000 187 466 0
2021-09-03 15:39:05 GMT 39.942005 -0.059488 37,000 187 466 64
2021-09-03 15:39:01 GMT 39.949860 -0.058411 37,000 187 466 0
2021-09-03 15:38:54 GMT 39.964005 -0.056335 37,000 187 467 -64
2021-09-03 15:38:51 GMT 39.972500 -0.055119 37,000 187 466 -64
2021-09-03 15:38:44 GMT 39.985394 -0.053309 37,025 187 466 -64
2021-09-03 15:38:41 GMT 39.991928 -0.052307 37,025 187 466 -64
2021-09-03 15:38:33 GMT 40.017746 -0.048645 37,025 187 467 64
2021-09-03 15:38:30 GMT 40.017746 -0.048645 37,025 187 467 64
2021-09-03 15:38:23 GMT 40.030548 -0.046754 37,000 187 468 0
2021-09-03 15:38:18 GMT 40.042740 -0.044983 37,000 187 470 -64
2021-09-03 15:38:13 GMT 40.053543 -0.043396 37,000 187 470 -64
2021-09-03 15:38:08 GMT 40.064575 -0.041809 37,000 187 470 0
2021-09-03 15:38:04 GMT 40.072357 -0.040710 37,000 187 471 0
2021-09-03 15:38:00 GMT 40.082455 -0.039264 37,000 187 471 0
2021-09-03 15:37:54 GMT 40.095909 -0.037329 37,000 187 471 0
2021-09-03 15:37:50 GMT 40.102524 -0.036377 37,000 187 471 0
2021-09-03 15:37:41 GMT 40.134201 -0.031799 37,000 187 472 0
2021-09-03 15:37:32 GMT 40.143082 -0.030518 37,000 187 472 0
2021-09-03 15:37:21 GMT 40.165596 -0.027341 37,000 187 473 0
2021-09-03 15:37:10 GMT 40.211884 -0.020752 37,000 187 473 0
2021-09-03 15:37:00 GMT 40.211884 -0.020752 37,000 187 473 0
2021-09-03 15:36:50 GMT 40.234447 -0.017603 37,000 187 474 0
2021-09-03 15:36:45 GMT 40.246582 -0.015930 37,000 187 474 0
2021-09-03 15:36:42 GMT 40.253021 -0.015044 37,000 187 475 0
2021-09-03 15:36:39 GMT 40.257523 -0.014404 37,000 186 475 0
2021-09-03 15:36:31 GMT 40.276108 -0.011841 37,000 186 475 0
2021-09-03 15:36:28 GMT 40.282654 -0.010986 37,000 186 475 0
2021-09-03 15:36:20 GMT 40.298813 -0.008789 37,000 186 475 0
2021-09-03 15:36:16 GMT 40.307442 -0.007678 37,000 186 475 -64
2021-09-03 15:36:11 GMT 40.320236 -0.005981 37,000 186 474 0
2021-09-03 15:36:06 GMT 40.328751 -0.004822 37,000 186 474 0
2021-09-03 15:35:59 GMT 40.345139 -0.002686 37,000 186 474 0
2021-09-03 15:35:55 GMT 40.352966 -0.001648 37,000 186 473 64
2021-09-03 15:35:50 GMT 40.365494 0.000000 37,000 186 473 64
2021-09-03 15:35:45 GMT 40.374664 0.001311 37,000 187 473 0
2021-09-03 15:35:40 GMT 40.389000 0.003371 37,000 188 471 0
2021-09-03 15:35:35 GMT 40.397892 0.004807 37,000 188 472 0
2021-09-03 15:35:24 GMT 40.431885 0.011047 37,000 189 471 0
2021-09-03 15:35:11 GMT 40.448273 0.014221 37,000 189 471 0
2021-09-03 15:35:06 GMT 40.459339 0.016355 37,025 189 471 -64
2021-09-03 15:35:02 GMT 40.469147 0.018250 37,025 189 471 0
2021-09-03 15:34:57 GMT 40.479404 0.020287 37,025 189 471 0
2021-09-03 15:34:48 GMT 40.500641 0.024536 37,000 189 472 64
2021-09-03 15:34:41 GMT 40.514320 0.027279 37,000 189 472 0
2021-09-03 15:34:36 GMT 40.523941 0.029236 37,000 189 472 0
2021-09-03 15:34:30 GMT 40.538109 0.032023 37,000 189 472 0
2021-09-03 15:34:25 GMT 40.547604 0.033895 37,000 189 472 0
2021-09-03 15:34:21 GMT 40.557522 0.035830 37,000 189 472 64
2021-09-03 15:34:16 GMT 40.568207 0.037964 37,000 189 472 0
2021-09-03 15:34:10 GMT 40.580845 0.040450 37,000 189 471 -64
2021-09-03 15:34:05 GMT 40.594070 0.043152 37,000 189 470 -64
2021-09-03 15:34:00 GMT 40.602448 0.044800 37,025 189 469 0
2021-09-03 15:33:56 GMT 40.611523 0.046692 37,000 189 468 0
2021-09-03 15:33:46 GMT 40.632797 0.051147 37,000 190 468 0
2021-09-03 15:33:38 GMT 40.649048 0.054688 37,000 190 467 0
2021-09-03 15:33:35 GMT 40.656693 0.056396 37,000 190 467 0
2021-09-03 15:33:24 GMT 40.677902 0.060987 37,000 190 467 -64
2021-09-03 15:33:18 GMT 40.692078 0.064026 37,025 190 466 0
2021-09-03 15:33:13 GMT 40.704300 0.066667 37,025 190 466 0
2021-09-03 15:33:05 GMT 40.720451 0.070163 37,025 190 465 -64
2021-09-03 15:32:53 GMT 40.747513 0.076233 37,000 190 465 64
2021-09-03 15:32:46 GMT 40.759781 0.078979 37,000 190 465 0
2021-09-03 15:32:42 GMT 40.768822 0.080962 37,000 190 466 0
2021-09-03 15:32:36 GMT 40.782120 0.083862 37,000 190 466 0
2021-09-03 15:32:33 GMT 40.787537 0.085019 37,000 190 466 0
2021-09-03 15:32:26 GMT 40.803406 0.088440 37,000 190 466 -64
2021-09-03 15:32:23 GMT 40.808945 0.089600 37,025 190 466 0
2021-09-03 15:32:16 GMT 40.822636 0.092510 37,000 190 466 0
2021-09-03 15:32:12 GMT 40.831284 0.094360 37,000 190 466 0
2021-09-03 15:32:03 GMT 40.854355 0.099182 37,000 189 467 0
2021-09-03 15:31:56 GMT 40.865433 0.101501 37,000 190 467 64
2021-09-03 15:31:51 GMT 40.875797 0.103683 37,000 190 467 64
2021-09-03 15:31:45 GMT 40.890137 0.106742 37,000 190 469 0
2021-09-03 15:31:41 GMT 40.897816 0.108365 37,000 190 469 0
2021-09-03 15:31:35 GMT 40.911316 0.111237 37,000 190 469 0
2021-09-03 15:31:31 GMT 40.919952 0.113098 37,000 190 469 0
2021-09-03 15:31:26 GMT 40.931007 0.115481 37,000 190 469 0
2021-09-03 15:31:22 GMT 40.941063 0.117666 37,000 190 469 -64
2021-09-03 15:31:16 GMT 40.951447 0.119934 37,025 190 469 -64
2021-09-03 15:31:11 GMT 40.963318 0.122535 37,025 190 469 0
2021-09-03 15:31:06 GMT 40.974022 0.124907 37,025 190 470 -64
2021-09-03 15:30:59 GMT 40.988937 0.128174 37,025 191 474 64
2021-09-03 15:30:55 GMT 40.997543 0.130127 37,025 190 471 0
2021-09-03 15:30:50 GMT 41.006424 0.132148 37,025 190 471 0
2021-09-03 15:30:45 GMT 41.017548 0.134644 37,000 190 472 0
2021-09-03 15:30:41 GMT 41.028629 0.137204 37,000 191 474 64
2021-09-03 15:30:37 GMT 41.035446 0.138794 37,000 191 474 64
2021-09-03 15:30:34 GMT 41.041260 0.140198 37,000 191 475 64
2021-09-03 15:30:30 GMT 41.050964 0.142639 37,000 191 475 64
2021-09-03 15:30:25 GMT 41.061539 0.145386 37,000 192 476 0
2021-09-03 15:30:20 GMT 41.073212 0.148438 37,000 192 476 0
2021-09-03 15:30:15 GMT 41.083099 0.151184 37,000 192 476 64
2021-09-03 15:30:10 GMT 41.095711 0.154683 37,000 192 476 0
2021-09-03 15:30:03 GMT 41.108963 0.158325 37,000 192 476 0
2021-09-03 15:29:57 GMT 41.123840 0.162537 37,000 193 475 0
2021-09-03 15:29:54 GMT 41.128967 0.163940 37,000 193 475 0
2021-09-03 15:29:49 GMT 41.139954 0.167053 37,000 193 475 0
2021-09-03 15:29:42 GMT 41.153503 0.170776 37,000 192 475 0
2021-09-03 15:29:38 GMT 41.162796 0.173157 37,000 191 476 64
2021-09-03 15:29:34 GMT 41.172775 0.175598 37,000 191 477 -64
2021-09-03 15:29:30 GMT 41.179363 0.177217 37,000 191 477 -64
2021-09-03 15:29:28 GMT 41.184677 0.178528 37,000 191 477 -64
2021-09-03 15:29:23 GMT 41.196262 0.181337 37,025 191 477 0
2021-09-03 15:29:19 GMT 41.202896 0.182983 37,000 191 477 0
2021-09-03 15:29:17 GMT 41.207428 0.184082 37,025 191 477 0
2021-09-03 15:29:12 GMT 41.219681 0.187080 37,000 191 477 64
2021-09-03 15:29:08 GMT 41.228149 0.189202 37,000 191 477 -64
2021-09-03 15:29:00 GMT 41.245934 0.193572 37,000 191 477 0
2021-09-03 15:28:57 GMT 41.251007 0.194824 37,000 191 478 0
2021-09-03 15:28:50 GMT 41.268513 0.199127 37,000 191 478 -64
2021-09-03 15:28:48 GMT 41.273804 0.200439 37,000 191 478 0
2021-09-03 15:28:43 GMT 41.285110 0.203247 37,000 191 477 0
2021-09-03 15:28:39 GMT 41.290512 0.204590 37,000 191 477 0
2021-09-03 15:28:37 GMT 41.294998 0.205682 37,025 191 477 0
2021-09-03 15:28:30 GMT 41.311798 0.209839 37,000 191 477 0
2021-09-03 15:28:22 GMT 41.327541 0.213734 37,000 191 477 0
2021-09-03 15:28:19 GMT 41.333405 0.215170 37,000 191 477 0
2021-09-03 15:28:16 GMT 41.340111 0.216793 37,000 191 477 -64
2021-09-03 15:28:12 GMT 41.349888 0.219227 37,000 191 477 -64
2021-09-03 15:28:09 GMT 41.355099 0.220476 37,000 191 477 0
2021-09-03 15:28:07 GMT 41.361923 0.222168 37,000 191 477 0
2021-09-03 15:27:59 GMT 41.376980 0.225906 37,000 191 477 64
2021-09-03 15:27:55 GMT 41.385727 0.228088 37,000 191 477 64
2021-09-03 15:27:52 GMT 41.393414 0.230010 37,000 191 477 0
2021-09-03 15:27:46 GMT 41.408066 0.233584 37,000 191 477 -64
2021-09-03 15:27:38 GMT 41.422691 0.237228 37,000 191 476 64
2021-09-03 15:27:35 GMT 41.429817 0.239017 37,000 191 476 0
2021-09-03 15:27:29 GMT 41.442150 0.242082 37,000 191 476 -64
2021-09-03 15:27:24 GMT 41.453186 0.244765 37,000 191 476 0
2021-09-03 15:27:18 GMT 41.465755 0.247895 37,000 191 476 0
2021-09-03 15:27:15 GMT 41.475815 0.250376 37,000 191 476 0
2021-09-03 15:27:11 GMT 41.483490 0.252302 37,025 191 476 0
2021-09-03 15:27:08 GMT 41.487587 0.253324 37,025 191 476 0
2021-09-03 15:27:01 GMT 41.503281 0.257180 37,000 191 476 64
2021-09-03 15:26:58 GMT 41.510536 0.259009 37,000 191 476 64
2021-09-03 15:26:53 GMT 41.520733 0.261500 37,000 191 476 0
2021-09-03 15:26:48 GMT 41.532303 0.264359 37,000 191 476 0
2021-09-03 15:26:44 GMT 41.540611 0.266482 37,000 191 476 0
2021-09-03 15:26:39 GMT 41.551876 0.269229 37,000 191 476 -64
2021-09-03 15:26:36 GMT 41.556858 0.270506 37,000 191 476 -64
2021-09-03 15:26:33 GMT 41.565170 0.272536 37,000 191 476 0
2021-09-03 15:26:29 GMT 41.572952 0.274471 37,025 191 475 0
2021-09-03 15:26:26 GMT 41.579529 0.276127 37,025 191 475 0
2021-09-03 15:26:21 GMT 41.590981 0.279002 37,000 191 475 0
2021-09-03 15:26:19 GMT 41.594425 0.279832 37,000 191 475 0
2021-09-03 15:26:15 GMT 41.601128 0.281493 37,000 191 476 0
2021-09-03 15:26:12 GMT 41.608902 0.283473 37,000 191 476 0
2021-09-03 15:26:06 GMT 41.622208 0.286768 37,000 191 476 -64
2021-09-03 15:26:01 GMT 41.632828 0.289390 37,000 191 476 0
2021-09-03 15:25:59 GMT 41.637486 0.290563 37,000 191 476 0
2021-09-03 15:25:55 GMT 41.645912 0.292671 37,000 191 476 0
2021-09-03 15:25:50 GMT 41.655872 0.295162 37,000 191 476 -64
2021-09-03 15:25:47 GMT 41.662346 0.296759 37,000 191 476 0
2021-09-03 15:25:43 GMT 41.672195 0.299190 37,000 191 476 64
2021-09-03 15:25:39 GMT 41.681618 0.301549 37,000 191 476 0
2021-09-03 15:25:35 GMT 41.690277 0.303721 37,000 191 476 0
2021-09-03 15:25:30 GMT 41.699020 0.305932 37,000 191 476 0
2021-09-03 15:25:27 GMT 41.705521 0.307555 37,000 191 476 0
2021-09-03 15:25:20 GMT 41.722000 0.311612 37,000 191 477 0
2021-09-03 15:25:18 GMT 41.728683 0.313298 37,000 191 477 0
2021-09-03 15:25:14 GMT 41.734314 0.314733 37,000 191 477 -64
2021-09-03 15:25:10 GMT 41.743423 0.316981 37,000 191 477 -64
2021-09-03 15:25:07 GMT 41.750282 0.318667 37,000 191 477 -64
2021-09-03 15:25:00 GMT 41.765350 0.322474 37,025 191 477 0
2021-09-03 15:24:55 GMT 41.775742 0.325095 37,025 191 477 0
2021-09-03 15:24:53 GMT 41.781052 0.326396 37,025 191 477 0
2021-09-03 15:24:50 GMT 41.789291 0.328440 37,000 191 477 0
2021-09-03 15:24:46 GMT 41.794830 0.329840 37,000 191 477 0
2021-09-03 15:24:43 GMT 41.802746 0.331825 37,000 191 478 -64
2021-09-03 15:24:39 GMT 41.810146 0.333678 37,000 191 478 0
2021-09-03 15:24:36 GMT 41.817444 0.335520 37,000 191 478 0
2021-09-03 15:24:33 GMT 41.824486 0.337255 37,000 191 478 0
2021-09-03 15:24:29 GMT 41.832870 0.339390 37,000 191 478 64
2021-09-03 15:24:26 GMT 41.839828 0.341138 37,000 191 479 64
2021-09-03 15:24:22 GMT 41.846691 0.342812 37,000 191 479 64
2021-09-03 15:24:19 GMT 41.852978 0.344409 37,000 191 479 64
2021-09-03 15:24:16 GMT 41.861031 0.346453 37,000 191 479 0
2021-09-03 15:24:11 GMT 41.871368 0.349066 37,000 191 479 0
2021-09-03 15:24:08 GMT 41.877274 0.350501 37,000 191 479 0
2021-09-03 15:24:05 GMT 41.883701 0.352137 37,000 191 479 0
2021-09-03 15:24:02 GMT 41.890778 0.353935 37,000 191 479 0
2021-09-03 15:23:59 GMT 41.897617 0.355650 37,000 191 479 0
2021-09-03 15:23:56 GMT 41.906139 0.357758 37,000 191 479 0
2021-09-03 15:23:52 GMT 41.912521 0.359365 37,000 191 479 0
2021-09-03 15:23:49 GMT 41.919296 0.361051 37,000 191 479 0
2021-09-03 15:23:45 GMT 41.928993 0.363507 37,025 191 479 0
2021-09-03 15:23:42 GMT 41.934540 0.364921 37,025 191 479 0
2021-09-03 15:23:39 GMT 41.941040 0.366544 37,025 191 479 0
2021-09-03 15:23:37 GMT 41.944336 0.367418 37,000 191 479 0
2021-09-03 15:23:35 GMT 41.949898 0.368808 37,000 191 479 0
2021-09-03 15:23:31 GMT 41.958370 0.370916 37,000 191 479 0
2021-09-03 15:23:28 GMT 41.966888 0.373088 37,000 191 479 0
2021-09-03 15:23:22 GMT 41.980621 0.376537 37,000 191 480 0
2021-09-03 15:23:19 GMT 41.984531 0.377559 37,000 191 480 0
2021-09-03 15:23:15 GMT 41.995892 0.380370 37,000 191 480 0
2021-09-03 15:23:12 GMT 42.001106 0.381711 37,000 191 480 0
2021-09-03 15:23:10 GMT 42.005669 0.382861 37,000 191 480 0
2021-09-03 15:23:05 GMT 42.014511 0.385083 37,000 191 480 0
2021-09-03 15:23:02 GMT 42.022705 0.387140 37,000 191 480 0
2021-09-03 15:23:00 GMT 42.027191 0.388267 37,000 191 480 0
2021-09-03 15:22:57 GMT 42.039413 0.391388 37,000 191 480 0
2021-09-03 15:22:52 GMT 42.044769 0.392697 37,025 191 480 0
2021-09-03 15:22:50 GMT 42.049564 0.393911 37,000 191 480 0
2021-09-03 15:22:45 GMT 42.059574 0.396466 37,025 191 480 0
2021-09-03 15:22:42 GMT 42.066925 0.398317 37,025 191 480 0
2021-09-03 15:22:40 GMT 42.071167 0.399404 37,025 191 480 0
2021-09-03 15:22:36 GMT 42.079147 0.401376 37,025 191 481 0
2021-09-03 15:22:33 GMT 42.084713 0.402789 37,025 191 481 0
2021-09-03 15:22:30 GMT 42.093109 0.404934 37,000 191 481 0
2021-09-03 15:22:23 GMT 42.105244 0.408027 37,000 191 481 0
2021-09-03 15:22:21 GMT 42.110596 0.409366 37,000 191 481 0
2021-09-03 15:22:19 GMT 42.115631 0.410614 37,000 191 482 0
2021-09-03 15:22:15 GMT 42.128769 0.413985 37,000 191 482 0
2021-09-03 15:22:10 GMT 42.134151 0.415309 37,000 191 482 0
2021-09-03 15:22:08 GMT 42.137642 0.416203 37,000 191 482 0
2021-09-03 15:22:05 GMT 42.146626 0.418502 37,000 191 482 0
2021-09-03 15:22:01 GMT 42.155193 0.420674 37,000 191 483 0
2021-09-03 15:21:59 GMT 42.159569 0.421760 37,000 191 483 64
2021-09-03 15:21:54 GMT 42.177933 0.426407 37,000 191 482 0
2021-09-03 15:21:51 GMT 42.177933 0.426407 37,000 191 483 0
2021-09-03 15:21:49 GMT 42.182327 0.427530 37,000 191 483 0
2021-09-03 15:21:45 GMT 42.190758 0.429617 37,000 191 483 0
2021-09-03 15:21:43 GMT 42.197708 0.431401 37,000 191 483 0
2021-09-03 15:21:39 GMT 42.206268 0.433585 37,000 191 483 0
2021-09-03 15:21:34 GMT 42.216156 0.436082 37,000 191 483 0
2021-09-03 15:21:30 GMT 42.222832 0.437792 37,000 191 483 0
2021-09-03 15:21:28 GMT 42.228325 0.439198 37,000 191 483 0
2021-09-03 15:21:24 GMT 42.236984 0.441388 37,000 191 483 0
2021-09-03 15:21:20 GMT 42.245457 0.443541 37,000 191 482 0
2021-09-03 15:21:18 GMT 42.250019 0.444691 37,000 191 482 0
2021-09-03 15:21:14 GMT 42.258911 0.446944 37,025 191 482 0
2021-09-03 15:21:10 GMT 42.267471 0.449129 37,000 191 482 0
2021-09-03 15:21:07 GMT 42.273251 0.450631 37,000 191 482 0
2021-09-03 15:21:03 GMT 42.282166 0.452874 37,000 191 482 0
2021-09-03 15:20:58 GMT 42.295593 0.456316 37,000 191 482 0
2021-09-03 15:20:54 GMT 42.309540 0.459865 37,000 191 482 0
2021-09-03 15:20:52 GMT 42.309540 0.459865 37,000 191 482 0
2021-09-03 15:20:49 GMT 42.314030 0.460979 37,000 191 482 0
2021-09-03 15:20:47 GMT 42.317413 0.461863 37,000 191 482 0
2021-09-03 15:20:44 GMT 42.325058 0.463798 37,000 191 481 0
2021-09-03 15:20:40 GMT 42.333023 0.465833 37,000 191 481 0
2021-09-03 15:20:37 GMT 42.339821 0.467558 37,000 191 481 0
2021-09-03 15:20:32 GMT 42.349220 0.469985 37,000 191 481 0
2021-09-03 15:20:29 GMT 42.358208 0.472284 37,000 191 481 0
2021-09-03 15:20:23 GMT 42.368916 0.475031 37,000 191 481 0
2021-09-03 15:20:20 GMT 42.380814 0.478093 37,000 191 481 0
2021-09-03 15:20:16 GMT 42.385487 0.479247 37,000 191 480 0
2021-09-03 15:20:13 GMT 42.391819 0.480907 37,025 191 480 0
2021-09-03 15:20:09 GMT 42.402191 0.483523 37,000 191 480 0
2021-09-03 15:20:05 GMT 42.408737 0.485209 37,000 191 480 0
2021-09-03 15:20:02 GMT 42.416489 0.487231 37,000 191 480 0
2021-09-03 15:19:59 GMT 42.423386 0.488954 37,000 191 481 0
2021-09-03 15:19:52 GMT 42.438446 0.492824 37,000 191 481 0
2021-09-03 15:19:49 GMT 42.444885 0.494449 37,000 191 481 0
2021-09-03 15:19:42 GMT 42.461971 0.498856 37,000 191 481 0
2021-09-03 15:19:39 GMT 42.467419 0.500197 37,000 191 481 0
2021-09-03 15:19:31 GMT 42.484085 0.504477 37,000 191 482 0
2021-09-03 15:19:27 GMT 42.491409 0.506370 37,000 191 482 0
2021-09-03 15:19:23 GMT 42.501480 0.508929 37,000 191 482 0
2021-09-03 15:19:20 GMT 42.509125 0.510864 37,000 191 482 0
2021-09-03 15:19:17 GMT 42.513519 0.511988 37,000 191 482 0
2021-09-03 15:19:11 GMT 42.529541 0.516045 37,000 191 482 0
2021-09-03 15:19:07 GMT 42.535339 0.517507 37,000 191 482 0
2021-09-03 15:19:02 GMT 42.550236 0.521340 37,000 191 482 0
2021-09-03 15:18:58 GMT 42.560757 0.524022 37,000 191 483 0
2021-09-03 15:18:52 GMT 42.568542 0.526033 37,000 191 483 0
2021-09-03 15:18:49 GMT 42.576462 0.528030 37,000 191 483 0
2021-09-03 15:18:42 GMT 42.590408 0.531559 37,000 191 483 0
2021-09-03 15:18:39 GMT 42.598324 0.533603 37,000 191 483 0
2021-09-03 15:18:30 GMT 42.617409 0.538458 37,000 191 484 0
2021-09-03 15:18:28 GMT 42.621834 0.539608 37,000 191 484 0
2021-09-03 15:18:20 GMT 42.640594 0.544385 37,000 191 483 -64
2021-09-03 15:18:17 GMT 42.647110 0.546059 37,000 191 483 0
2021-09-03 15:18:15 GMT 42.651066 0.547081 37,000 192 484 -64
2021-09-03 15:18:10 GMT 42.668850 0.551744 37,025 191 483 -64
2021-09-03 15:18:07 GMT 42.668850 0.551744 37,025 192 484 -64
2021-09-03 15:18:03 GMT 42.676296 0.553724 37,025 192 484 0
2021-09-03 15:17:57 GMT 42.690125 0.557428 37,025 192 484 0
2021-09-03 15:17:53 GMT 42.699005 0.559803 37,025 192 484 0
2021-09-03 15:17:48 GMT 42.710514 0.562858 37,000 192 484 0
2021-09-03 15:17:43 GMT 42.719963 0.565413 37,000 192 484 0
2021-09-03 15:17:38 GMT 42.739285 0.570523 37,000 192 485 0
2021-09-03 15:17:35 GMT 42.739285 0.570523 37,000 192 485 0
2021-09-03 15:17:33 GMT 42.741703 0.571225 37,000 192 485 0
2021-09-03 15:17:28 GMT 42.755577 0.574930 37,000 192 485 0
2021-09-03 15:17:25 GMT 42.760300 0.576158 37,000 192 485 0
2021-09-03 15:17:22 GMT 42.766750 0.577932 37,000 192 484 64
2021-09-03 15:17:18 GMT 42.782272 0.582088 37,000 192 484 0
2021-09-03 15:17:15 GMT 42.782272 0.582088 37,000 192 484 0
2021-09-03 15:17:11 GMT 42.790958 0.584383 37,000 192 484 0
2021-09-03 15:17:07 GMT 42.800491 0.586957 37,000 192 484 0
2021-09-03 15:17:04 GMT 42.804886 0.588143 37,000 192 484 0
2021-09-03 15:17:01 GMT 42.812698 0.590188 37,000 192 484 0
2021-09-03 15:16:57 GMT 42.820724 0.592367 37,000 192 484 0
2021-09-03 15:16:55 GMT 42.826401 0.593900 37,000 192 484 0
2021-09-03 15:16:52 GMT 42.832123 0.595433 37,000 192 484 0
2021-09-03 15:16:47 GMT 42.842770 0.598297 37,000 192 483 0
2021-09-03 15:16:45 GMT 42.856247 0.601885 37,000 192 483 0
2021-09-03 15:16:41 GMT 42.856247 0.601885 37,000 192 483 0
2021-09-03 15:16:38 GMT 42.863708 0.603929 37,000 192 483 0
2021-09-03 15:16:36 GMT 42.868607 0.605229 37,000 192 483 0
2021-09-03 15:16:31 GMT 42.877945 0.607761 37,000 192 483 0
2021-09-03 15:16:29 GMT 42.882198 0.608891 37,000 192 483 0
2021-09-03 15:16:27 GMT 42.887878 0.610461 37,000 192 483 0
2021-09-03 15:16:24 GMT 42.894676 0.612292 37,000 192 483 0
2021-09-03 15:16:21 GMT 42.909943 0.616384 37,000 192 484 0
2021-09-03 15:16:17 GMT 42.909943 0.616384 37,000 192 483 0
2021-09-03 15:16:15 GMT 42.912876 0.617196 37,000 192 484 0
2021-09-03 15:16:11 GMT 42.922325 0.619681 37,000 192 484 0
2021-09-03 15:16:08 GMT 42.930893 0.621970 37,000 192 484 0
2021-09-03 15:16:06 GMT 42.934849 0.623082 37,000 192 484 0
2021-09-03 15:16:01 GMT 42.943726 0.625454 37,000 192 484 0
2021-09-03 15:15:59 GMT 42.949402 0.626987 37,000 192 484 0
2021-09-03 15:15:57 GMT 42.954895 0.628456 37,000 192 484 0
2021-09-03 15:15:52 GMT 42.965195 0.631267 37,000 192 484 0
2021-09-03 15:15:49 GMT 42.969589 0.632416 37,000 192 484 0
2021-09-03 15:15:46 GMT 42.975311 0.633949 37,000 192 484 0
2021-09-03 15:15:44 GMT 42.980804 0.635482 37,000 192 484 0
2021-09-03 15:15:41 GMT 42.987625 0.637271 37,000 192 484 0
2021-09-03 15:15:38 GMT 42.994762 0.639234 37,000 192 484 0
2021-09-03 15:15:35 GMT 43.001678 0.641103 37,025 192 484 0
2021-09-03 15:15:29 GMT 43.016502 0.645054 37,000 192 485 0
2021-09-03 15:15:25 GMT 43.024418 0.647212 37,000 192 484 0
2021-09-03 15:15:18 GMT 43.038574 0.651004 37,000 192 485 0
2021-09-03 15:15:15 GMT 43.048462 0.653687 37,000 192 485 0
2021-09-03 15:15:11 GMT 43.054825 0.655411 37,000 192 485 0
2021-09-03 15:15:09 GMT 43.059448 0.656689 37,000 192 485 64
2021-09-03 15:15:07 GMT 43.064941 0.658158 37,000 192 485 64
2021-09-03 15:15:04 GMT 43.069382 0.659371 37,000 192 485 64
2021-09-03 15:15:01 GMT 43.075104 0.660904 37,000 192 485 64
2021-09-03 15:14:59 GMT 43.081348 0.662580 37,000 192 485 0
2021-09-03 15:14:57 GMT 43.092152 0.665523 37,000 192 485 0
2021-09-03 15:14:54 GMT 43.092152 0.665523 37,000 192 485 0
2021-09-03 15:14:50 GMT 43.099091 0.667419 37,000 192 485 64
2021-09-03 15:14:46 GMT 43.110077 0.670358 37,000 192 485 0
2021-09-03 15:14:43 GMT 43.115799 0.671954 37,000 192 485 0
2021-09-03 15:14:39 GMT 43.124588 0.674318 37,000 192 485 0
2021-09-03 15:14:36 GMT 43.137028 0.677686 37,000 192 484 0
2021-09-03 15:14:34 GMT 43.137028 0.677686 37,000 192 484 0
2021-09-03 15:14:32 GMT 43.140331 0.678602 37,000 192 484 0
2021-09-03 15:14:30 GMT 43.142284 0.679125 37,000 192 484 0
2021-09-03 15:14:27 GMT 43.151737 0.681741 37,000 192 484 0
2021-09-03 15:14:24 GMT 43.164139 0.685049 37,025 192 483 0
2021-09-03 15:14:21 GMT 43.164139 0.685049 37,025 192 483 0
2021-09-03 15:14:17 GMT 43.174313 0.687823 37,025 192 483 0
2021-09-03 15:14:12 GMT 43.193893 0.693161 37,025 192 483 0
2021-09-03 15:14:08 GMT 43.193893 0.693161 37,025 192 483 0
2021-09-03 15:14:06 GMT 43.204193 0.695971 37,025 192 483 0
2021-09-03 15:14:03 GMT 43.204193 0.695971 37,025 192 483 0
2021-09-03 15:13:58 GMT 43.215931 0.699136 37,000 192 484 0
2021-09-03 15:13:56 GMT 43.223282 0.701145 37,000 192 484 0
2021-09-03 15:13:54 GMT 43.223282 0.701145 37,000 192 484 0
2021-09-03 15:13:50 GMT 43.230412 0.703060 37,000 192 484 0
2021-09-03 15:13:47 GMT 43.237904 0.705087 37,000 192 485 0
2021-09-03 15:13:45 GMT 43.251545 0.708814 37,000 192 485 0
2021-09-03 15:13:41 GMT 43.251545 0.708814 37,000 192 485 0
2021-09-03 15:13:36 GMT 43.262764 0.711823 37,000 192 486 0
2021-09-03 15:13:34 GMT 43.266174 0.712770 37,000 192 486 0
2021-09-03 15:13:31 GMT 43.274323 0.715006 37,000 192 486 0
2021-09-03 15:13:26 GMT 43.285995 0.718199 37,000 192 486 0
2021-09-03 15:13:23 GMT 43.291393 0.719670 37,000 192 486 0
2021-09-03 15:13:20 GMT 43.299911 0.721968 37,000 192 486 64
2021-09-03 15:13:17 GMT 43.308701 0.724395 37,000 192 485 64
2021-09-03 15:13:15 GMT 43.315182 0.726144 37,000 192 485 0
2021-09-03 15:13:12 GMT 43.315182 0.726144 37,000 192 485 0
2021-09-03 15:13:10 GMT 43.319504 0.727333 37,000 192 485 0
2021-09-03 15:13:05 GMT 43.331589 0.730655 37,000 192 485 128
2021-09-03 15:13:02 GMT 43.343903 0.734040 36,975 192 485 896
2021-09-03 15:12:59 GMT 43.343903 0.734040 36,975 192 485 896
2021-09-03 15:12:56 GMT 43.352562 0.736411 36,950 192 484 576
2021-09-03 15:12:52 GMT 43.363449 0.739342 36,850 192 485 1152
2021-09-03 15:12:48 GMT 43.368855 0.740858 36,775 192 486 1216
2021-09-03 15:12:45 GMT 43.375351 0.742599 36,750 192 487 1216
2021-09-03 15:12:40 GMT 43.386967 0.745762 36,650 192 488 1088
2021-09-03 15:12:35 GMT 43.396133 0.748284 36,575 192 489 1024
2021-09-03 15:12:33 GMT 43.402466 0.750013 36,525 192 489 960
2021-09-03 15:12:30 GMT 43.409122 0.751844 36,475 192 489 960
2021-09-03 15:12:26 GMT 43.420670 0.754983 36,400 192 490 896
2021-09-03 15:12:20 GMT 43.433212 0.758440 36,225 192 491 896
2021-09-03 15:12:15 GMT 43.441452 0.760675 36,250 192 491 896
2021-09-03 15:12:13 GMT 43.445938 0.761953 36,225 192 491 896
2021-09-03 15:12:10 GMT 43.452698 0.763811 36,100 192 491 832
2021-09-03 15:12:06 GMT 43.462055 0.766362 36,125 192 491 832
2021-09-03 15:12:04 GMT 43.465302 0.767191 36,100 192 491 832
2021-09-03 15:12:01 GMT 43.471642 0.768978 36,050 192 491 832
2021-09-03 15:11:59 GMT 43.478210 0.770768 36,025 192 491 768
2021-09-03 15:11:55 GMT 43.487705 0.773359 35,950 192 491 768
2021-09-03 15:11:51 GMT 43.496365 0.775713 35,900 192 491 768
2021-09-03 15:11:48 GMT 43.502930 0.777538 35,875 192 491 768
2021-09-03 15:11:45 GMT 43.508186 0.778983 35,850 192 491 704
2021-09-03 15:11:41 GMT 43.522850 0.782972 35,775 192 490 704
2021-09-03 15:11:39 GMT 43.522850 0.782972 35,725 192 490 640
2021-09-03 15:11:37 GMT 43.527088 0.784149 35,725 192 490 640
2021-09-03 15:11:34 GMT 43.533417 0.785842 35,725 192 490 640
2021-09-03 15:11:31 GMT 43.540215 0.787746 35,675 192 490 640
2021-09-03 15:11:28 GMT 43.545753 0.789250 35,650 192 490 640
2021-09-03 15:11:25 GMT 43.553993 0.791473 35,600 192 489 704
2021-09-03 15:11:20 GMT 43.564655 0.794416 35,550 192 489 768
2021-09-03 15:11:17 GMT 43.571499 0.796313 35,450 192 489 832
2021-09-03 15:11:14 GMT 43.577179 0.797850 35,475 192 489 832
2021-09-03 15:11:12 GMT 43.580704 0.798808 35,300 192 489 896
2021-09-03 15:11:09 GMT 43.598648 0.803790 35,350 192 489 896
2021-09-03 15:11:05 GMT 43.598648 0.803790 35,350 192 488 832
2021-09-03 15:11:03 GMT 43.601898 0.804683 35,325 192 488 768
2021-09-03 15:10:58 GMT 43.617352 0.808934 35,225 192 488 640
2021-09-03 15:10:55 GMT 43.620804 0.809922 35,225 192 487 512
2021-09-03 15:10:51 GMT 43.629734 0.812400 35,200 192 487 448
2021-09-03 15:10:48 GMT 43.635361 0.813946 35,175 192 486 448
2021-09-03 15:10:45 GMT 43.643097 0.816054 35,150 192 486 640
2021-09-03 15:10:41 GMT 43.651569 0.818416 35,100 192 485 768
2021-09-03 15:10:37 GMT 43.661362 0.821100 35,050 192 485 576
2021-09-03 15:10:34 GMT 43.664886 0.822058 35,025 192 485 448
2021-09-03 15:10:32 GMT 43.670380 0.823591 35,000 192 485 0
2021-09-03 15:10:29 GMT 43.678986 0.825955 35,000 192 485 0
2021-09-03 15:10:26 GMT 43.682850 0.827048 35,000 192 485 0
2021-09-03 15:10:23 GMT 43.689461 0.828879 35,000 192 486 0
2021-09-03 15:10:20 GMT 43.696152 0.830745 35,000 192 485 0
2021-09-03 15:10:18 GMT 43.701645 0.832278 35,000 192 486 0
2021-09-03 15:10:14 GMT 43.709381 0.834386 35,000 192 485 64
2021-09-03 15:10:11 GMT 43.716507 0.836400 35,000 192 486 0
2021-09-03 15:10:06 GMT 43.730194 0.840127 35,000 192 486 -64
2021-09-03 15:10:03 GMT 43.733597 0.841093 35,000 192 486 -64
2021-09-03 15:09:59 GMT 43.743713 0.843903 35,000 192 485 -64
2021-09-03 15:09:56 GMT 43.749329 0.845490 35,000 192 485 0
2021-09-03 15:09:53 GMT 43.755615 0.847225 35,000 192 485 64
2021-09-03 15:09:50 GMT 43.762131 0.849021 35,000 192 485 64
2021-09-03 15:09:48 GMT 43.769028 0.850929 35,000 192 485 0
2021-09-03 15:09:46 GMT 43.772465 0.851898 35,000 192 486 -64
2021-09-03 15:09:43 GMT 43.788570 0.856345 35,000 192 486 -64
2021-09-03 15:09:39 GMT 43.788570 0.856345 35,025 192 486 -64
2021-09-03 15:09:35 GMT 43.804214 0.860726 35,025 192 486 0
2021-09-03 15:09:32 GMT 43.804214 0.860726 35,025 192 487 0
2021-09-03 15:09:29 GMT 43.810501 0.862427 35,025 192 487 -64
2021-09-03 15:09:24 GMT 43.821350 0.865429 35,025 192 489 0
2021-09-03 15:09:20 GMT 43.837280 0.869836 35,000 192 489 0
2021-09-03 15:09:17 GMT 43.837280 0.869836 35,000 192 489 0
2021-09-03 15:09:14 GMT 43.851372 0.873805 35,000 192 490 0
2021-09-03 15:09:10 GMT 43.851372 0.873805 35,000 192 491 64
2021-09-03 15:09:04 GMT 43.865295 0.877629 35,000 192 492 64
2021-09-03 15:09:00 GMT 43.878788 0.881391 35,000 192 492 0
2021-09-03 15:08:54 GMT 43.887634 0.883825 35,000 192 493 0
2021-09-03 15:08:52 GMT 43.891205 0.884847 35,000 192 493 0
2021-09-03 15:08:49 GMT 43.898945 0.886950 35,000 192 493 0
2021-09-03 15:08:47 GMT 43.901047 0.887529 35,000 192 493 0
2021-09-03 15:08:45 GMT 43.906631 0.889062 35,000 192 493 0
2021-09-03 15:08:42 GMT 43.913589 0.891042 35,000 192 493 0
2021-09-03 15:08:39 GMT 43.919289 0.892639 35,000 192 493 0
2021-09-03 15:08:36 GMT 43.929016 0.895322 35,000 192 493 0
2021-09-03 15:08:33 GMT 43.936844 0.897494 35,000 192 493 0
2021-09-03 15:08:30 GMT 43.941101 0.898707 35,000 192 493 0
2021-09-03 15:08:28 GMT 43.944443 0.899601 35,000 192 493 0
2021-09-03 15:08:26 GMT 43.950386 0.901271 35,000 192 493 0
2021-09-03 15:08:23 GMT 43.963562 0.904933 35,000 192 493 0
2021-09-03 15:08:20 GMT 43.963562 0.904933 35,000 192 493 0
2021-09-03 15:08:15 GMT 43.974197 0.907905 35,000 192 493 0
2021-09-03 15:08:12 GMT 43.985489 0.911080 35,000 192 493 0
2021-09-03 15:08:10 GMT 43.985489 0.911080 35,000 192 493 0
2021-09-03 15:08:08 GMT 43.990189 0.912388 35,000 192 493 0
2021-09-03 15:08:06 GMT 43.996536 0.914229 35,000 192 493 0
2021-09-03 15:08:03 GMT 44.000664 0.915397 35,000 192 493 0
2021-09-03 15:08:01 GMT 44.009720 0.917933 35,000 192 493 0
2021-09-03 15:07:59 GMT 44.009720 0.917933 35,000 192 493 0
2021-09-03 15:07:55 GMT 44.025707 0.922394 35,000 192 493 0
2021-09-03 15:07:52 GMT 44.025707 0.922394 35,000 192 493 0
2021-09-03 15:07:49 GMT 44.032745 0.924321 35,000 192 492 0
2021-09-03 15:07:45 GMT 44.041351 0.926775 35,000 192 492 0
2021-09-03 15:07:42 GMT 44.047943 0.928600 35,000 192 492 0
2021-09-03 15:07:40 GMT 44.052658 0.929942 35,000 192 492 0
2021-09-03 15:07:37 GMT 44.058426 0.931538 35,000 192 492 0
2021-09-03 15:07:35 GMT 44.064159 0.933184 35,000 192 492 0
2021-09-03 15:07:32 GMT 44.070282 0.934860 35,000 192 492 0
2021-09-03 15:07:30 GMT 44.074867 0.936192 35,000 192 492 0
2021-09-03 15:07:27 GMT 44.080456 0.937696 35,000 192 491 0
2021-09-03 15:07:23 GMT 44.090607 0.940545 35,000 192 491 0
2021-09-03 15:07:20 GMT 44.102188 0.943802 35,000 192 491 0
2021-09-03 15:07:15 GMT 44.110107 0.946001 35,000 192 491 0
2021-09-03 15:07:12 GMT 44.115784 0.947635 35,000 192 491 0
2021-09-03 15:07:09 GMT 44.121552 0.949232 35,000 192 491 0
2021-09-03 15:07:03 GMT 44.137016 0.953587 35,000 192 490 0
2021-09-03 15:07:00 GMT 44.142601 0.955091 35,000 192 490 0
2021-09-03 15:06:57 GMT 44.147141 0.956385 35,000 192 490 0
2021-09-03 15:06:52 GMT 44.158905 0.959707 35,000 192 490 0
2021-09-03 15:06:50 GMT 44.165359 0.961495 35,000 192 490 0
2021-09-03 15:06:47 GMT 44.170811 0.963004 35,000 192 490 0
2021-09-03 15:06:44 GMT 44.184494 0.966861 35,000 192 490 0
2021-09-03 15:06:41 GMT 44.184494 0.966861 35,000 192 490 0
2021-09-03 15:06:38 GMT 44.190903 0.968649 35,000 192 490 -64
2021-09-03 15:06:34 GMT 44.198788 0.970883 35,000 192 490 0
2021-09-03 15:06:31 GMT 44.206566 0.973094 35,000 192 489 0
2021-09-03 15:06:29 GMT 44.211136 0.974383 35,000 192 489 64
2021-09-03 15:06:24 GMT 44.222996 0.977716 35,000 192 489 64
2021-09-03 15:06:21 GMT 44.227234 0.978922 35,000 192 489 64
2021-09-03 15:06:19 GMT 44.237549 0.981838 35,000 192 489 0
2021-09-03 15:06:16 GMT 44.245667 0.984080 35,000 192 490 -64
2021-09-03 15:06:13 GMT 44.245667 0.984080 35,000 192 489 -64
2021-09-03 15:06:10 GMT 44.252426 0.986023 35,000 192 489 -64
2021-09-03 15:06:08 GMT 44.256409 0.987135 35,000 192 489 0
2021-09-03 15:06:05 GMT 44.263405 0.989104 35,000 192 489 0
2021-09-03 15:06:01 GMT 44.273598 0.991985 35,000 192 489 64
2021-09-03 15:05:59 GMT 44.278069 0.993191 35,000 192 489 64
2021-09-03 15:05:55 GMT 44.286392 0.995571 35,000 192 489 -64
2021-09-03 15:05:52 GMT 44.293339 0.997545 35,000 192 489 -64
2021-09-03 15:05:50 GMT 44.296688 0.998483 35,000 192 489 0
2021-09-03 15:05:48 GMT 44.301109 0.999689 35,000 192 489 0
2021-09-03 15:05:42 GMT 44.315960 1.003909 35,000 192 489 0
2021-09-03 15:05:38 GMT 44.322849 1.005852 35,000 192 489 0
2021-09-03 15:05:35 GMT 44.329044 1.007594 35,000 192 489 0
2021-09-03 15:05:32 GMT 44.337887 1.010072 35,000 192 489 0
2021-09-03 15:05:28 GMT 44.346127 1.012417 35,000 192 489 0
2021-09-03 15:05:25 GMT 44.352318 1.014159 35,000 192 489 0
2021-09-03 15:05:22 GMT 44.359955 1.016301 35,000 192 489 0
2021-09-03 15:05:18 GMT 44.369171 1.018915 35,000 192 490 0
2021-09-03 15:05:15 GMT 44.372292 1.019786 35,000 192 489 0
2021-09-03 15:05:11 GMT 44.383026 1.022840 35,000 192 489 0
2021-09-03 15:05:09 GMT 44.388256 1.024274 35,000 192 490 0
2021-09-03 15:05:07 GMT 44.392822 1.025587 35,000 192 489 0
2021-09-03 15:05:00 GMT 44.406460 1.029432 35,000 192 490 0
2021-09-03 15:04:58 GMT 44.411114 1.030772 35,000 192 490 0
2021-09-03 15:04:56 GMT 44.417038 1.032453 35,000 192 490 0
2021-09-03 15:04:51 GMT 44.427475 1.035396 35,000 192 490 0
2021-09-03 15:04:48 GMT 44.434483 1.037337 35,000 192 490 0
2021-09-03 15:04:46 GMT 44.439240 1.038731 35,000 192 490 0
2021-09-03 15:04:41 GMT 44.450264 1.041825 35,000 192 491 -64
2021-09-03 15:04:39 GMT 44.454849 1.043178 35,000 192 491 -64
2021-09-03 15:04:37 GMT 44.459061 1.044355 35,000 192 491 0
2021-09-03 15:04:34 GMT 44.465973 1.046317 35,000 192 491 -64
2021-09-03 15:04:31 GMT 44.472515 1.048189 35,000 192 491 0
2021-09-03 15:04:27 GMT 44.480438 1.050437 35,000 192 491 0
2021-09-03 15:04:24 GMT 44.488220 1.052595 35,000 192 491 0
2021-09-03 15:04:20 GMT 44.497280 1.055156 35,000 192 492 0
2021-09-03 15:04:18 GMT 44.501404 1.056322 35,000 192 491 0
2021-09-03 15:04:13 GMT 44.512299 1.059461 35,000 192 492 0
2021-09-03 15:04:10 GMT 44.519348 1.061453 35,000 192 492 0
2021-09-03 15:04:07 GMT 44.526051 1.063329 35,000 192 492 0
2021-09-03 15:04:04 GMT 44.531822 1.065004 35,000 192 492 0
2021-09-03 15:04:01 GMT 44.540634 1.067505 35,000 192 492 0
2021-09-03 15:03:58 GMT 44.547466 1.069425 35,000 192 492 0
2021-09-03 15:03:55 GMT 44.554401 1.071435 35,000 192 492 0
2021-09-03 15:03:50 GMT 44.563431 1.073979 35,000 192 492 0
2021-09-03 15:03:47 GMT 44.571812 1.076325 35,000 192 492 0
2021-09-03 15:03:44 GMT 44.585640 1.080278 35,000 192 493 0
2021-09-03 15:03:40 GMT 44.585640 1.080278 35,000 192 494 0
2021-09-03 15:03:37 GMT 44.593460 1.082488 35,000 192 494 0
2021-09-03 15:03:34 GMT 44.600395 1.084498 35,000 192 493 0
2021-09-03 15:03:30 GMT 44.608566 1.086796 35,000 192 494 0
2021-09-03 15:03:27 GMT 44.616085 1.088919 35,000 192 493 0
2021-09-03 15:03:24 GMT 44.622555 1.090795 35,000 192 493 0
2021-09-03 15:03:20 GMT 44.639313 1.095618 35,000 192 495 0
2021-09-03 15:03:17 GMT 44.639313 1.095618 35,000 192 494 0
2021-09-03 15:03:15 GMT 44.641434 1.096213 35,000 192 494 0
2021-09-03 15:03:10 GMT 44.655350 1.100137 35,000 192 494 0
2021-09-03 15:03:06 GMT 44.662949 1.102360 35,000 192 495 0
2021-09-03 15:03:02 GMT 44.670223 1.104461 35,000 192 495 0
2021-09-03 15:02:59 GMT 44.678192 1.106742 35,000 192 495 0
2021-09-03 15:02:55 GMT 44.687119 1.109292 35,000 192 495 64
2021-09-03 15:02:51 GMT 44.696434 1.111964 35,000 192 495 -64
2021-09-03 15:02:48 GMT 44.701366 1.113371 35,000 192 495 -64
2021-09-03 15:02:44 GMT 44.711933 1.116385 35,000 192 495 -64
2021-09-03 15:02:39 GMT 44.723572 1.119735 35,025 192 496 64
2021-09-03 15:02:36 GMT 44.729393 1.121409 35,000 192 496 0
2021-09-03 15:02:33 GMT 44.735138 1.123090 35,000 192 496 0
2021-09-03 15:02:30 GMT 44.741776 1.124960 35,000 192 497 64
2021-09-03 15:02:27 GMT 44.750885 1.127603 35,000 192 497 64
2021-09-03 15:02:25 GMT 44.753925 1.128443 35,000 192 497 0
2021-09-03 15:02:22 GMT 44.760590 1.130349 35,000 192 498 0
2021-09-03 15:02:16 GMT 44.774452 1.134338 35,000 192 498 0
2021-09-03 15:02:13 GMT 44.781143 1.136235 35,000 192 499 0
2021-09-03 15:02:11 GMT 44.785858 1.137608 35,000 192 499 0
2021-09-03 15:02:07 GMT 44.796707 1.140747 35,000 192 499 64
2021-09-03 15:02:03 GMT 44.803410 1.142645 35,000 192 500 0
2021-09-03 15:01:59 GMT 44.812908 1.145392 35,000 192 500 0
2021-09-03 15:01:56 GMT 44.818771 1.147066 35,000 192 500 0
2021-09-03 15:01:53 GMT 44.826687 1.149344 35,000 192 500 128
2021-09-03 15:01:51 GMT 44.839279 1.152976 35,000 192 500 128
2021-09-03 15:01:47 GMT 44.839279 1.152976 35,000 192 500 -64
2021-09-03 15:01:43 GMT 44.850815 1.156246 35,000 192 500 -64
2021-09-03 15:01:38 GMT 44.860336 1.158992 35,000 192 501 0
2021-09-03 15:01:35 GMT 44.868397 1.161268 35,000 192 501 -64
2021-09-03 15:01:32 GMT 44.874435 1.162981 35,025 192 501 0
2021-09-03 15:01:29 GMT 44.881210 1.164943 35,000 192 501 64
2021-09-03 15:01:24 GMT 44.892929 1.168302 35,000 192 502 64
2021-09-03 15:01:21 GMT 44.897678 1.169709 35,000 192 502 0
2021-09-03 15:01:17 GMT 44.907455 1.172523 35,000 192 503 64
2021-09-03 15:01:12 GMT 44.920349 1.176256 35,000 192 503 0
2021-09-03 15:01:07 GMT 44.931149 1.179356 35,000 192 503 0
2021-09-03 15:01:04 GMT 44.937881 1.181292 35,000 192 503 64
2021-09-03 15:01:01 GMT 44.945301 1.183442 35,000 192 503 0
2021-09-03 15:00:58 GMT 44.951866 1.185385 35,000 192 503 0
2021-09-03 15:00:55 GMT 44.958389 1.187243 35,000 192 503 0
2021-09-03 15:00:52 GMT 44.966019 1.189404 35,000 192 504 0
2021-09-03 15:00:48 GMT 44.973091 1.191481 35,000 192 504 0
2021-09-03 15:00:45 GMT 44.983566 1.194495 35,000 192 504 0
2021-09-03 15:00:42 GMT 44.990753 1.196594 35,000 192 504 0
2021-09-03 15:00:38 GMT 44.996933 1.198360 35,000 192 504 64
2021-09-03 15:00:34 GMT 45.005173 1.200780 35,000 192 504 0
2021-09-03 15:00:31 GMT 45.013500 1.203137 35,000 192 504 0
2021-09-03 15:00:28 GMT 45.019646 1.204946 35,000 192 505 0
2021-09-03 15:00:24 GMT 45.029934 1.207893 35,000 192 505 0
2021-09-03 15:00:20 GMT 45.037582 1.210131 35,000 192 504 0
2021-09-03 15:00:17 GMT 45.044678 1.212158 35,000 192 505 0
2021-09-03 15:00:15 GMT 45.049255 1.213531 35,000 192 505 0
2021-09-03 15:00:11 GMT 45.059555 1.216474 35,000 192 505 0
2021-09-03 15:00:08 GMT 45.066376 1.218501 35,000 192 505 0
2021-09-03 15:00:05 GMT 45.074387 1.220790 35,000 192 504 0
2021-09-03 15:00:01 GMT 45.092194 1.225957 35,000 192 505 -64
2021-09-03 14:59:57 GMT 45.092194 1.225957 35,000 192 505 -64
2021-09-03 14:59:54 GMT 45.097000 1.227330 35,000 192 505 0
2021-09-03 14:59:51 GMT 45.106277 1.230067 35,000 192 505 0
2021-09-03 14:59:46 GMT 45.114166 1.232365 35,000 192 505 0
2021-09-03 14:59:44 GMT 45.121216 1.234392 35,000 192 505 0
2021-09-03 14:59:40 GMT 45.129456 1.236812 35,000 192 505 0
2021-09-03 14:59:36 GMT 45.137562 1.239177 35,000 192 505 0
2021-09-03 14:59:33 GMT 45.146732 1.241790 35,000 192 505 0
2021-09-03 14:59:30 GMT 45.152225 1.243398 35,000 192 505 0
2021-09-03 14:59:26 GMT 45.160309 1.245771 35,000 192 505 0
2021-09-03 14:59:23 GMT 45.169357 1.248355 35,000 192 504 0
2021-09-03 14:59:19 GMT 45.176201 1.250365 35,000 192 504 0
2021-09-03 14:59:16 GMT 45.184860 1.252910 35,000 192 504 0
2021-09-03 14:59:13 GMT 45.191750 1.254853 35,000 192 504 -64
2021-09-03 14:59:10 GMT 45.199356 1.257084 35,000 192 504 -64
2021-09-03 14:59:07 GMT 45.204971 1.258738 35,000 192 504 0
2021-09-03 14:59:05 GMT 45.208603 1.259810 35,000 192 504 0
2021-09-03 14:59:01 GMT 45.218994 1.262839 35,000 192 503 0
2021-09-03 14:58:59 GMT 45.223343 1.264082 35,000 192 503 0
2021-09-03 14:58:55 GMT 45.232109 1.266643 35,000 192 503 0
2021-09-03 14:58:52 GMT 45.239372 1.268787 35,000 192 503 0
2021-09-03 14:58:49 GMT 45.251476 1.272337 35,000 192 503 0
2021-09-03 14:58:46 GMT 45.251476 1.272337 35,000 192 503 0
2021-09-03 14:58:42 GMT 45.274338 1.278992 35,000 192 503 64
2021-09-03 14:58:37 GMT 45.274338 1.278992 35,000 192 503 0
2021-09-03 14:58:34 GMT 45.280151 1.280711 35,000 192 502 0
2021-09-03 14:58:31 GMT 45.287460 1.282788 35,000 192 502 0
2021-09-03 14:58:29 GMT 45.293606 1.284597 35,000 192 502 0
2021-09-03 14:58:25 GMT 45.301517 1.286874 35,000 192 502 0
2021-09-03 14:58:22 GMT 45.308945 1.289062 35,000 192 502 0
2021-09-03 14:58:17 GMT 45.319382 1.292071 35,000 192 501 0
2021-09-03 14:58:12 GMT 45.329132 1.294948 35,000 192 501 0
2021-09-03 14:58:09 GMT 45.339691 1.297994 35,000 192 500 -64
2021-09-03 14:58:06 GMT 45.342857 1.298932 35,000 192 500 0
2021-09-03 14:58:01 GMT 45.355518 1.302684 35,000 192 500 -64
2021-09-03 14:57:56 GMT 45.365570 1.305607 35,000 192 499 0
2021-09-03 14:57:51 GMT 45.384567 1.311166 35,000 192 499 0
2021-09-03 14:57:48 GMT 45.384567 1.311166 35,000 192 499 64
2021-09-03 14:57:44 GMT 45.395042 1.314273 35,000 192 498 0
2021-09-03 14:57:41 GMT 45.401047 1.316005 35,000 192 498 64
2021-09-03 14:57:38 GMT 45.407238 1.317823 35,000 192 498 0
2021-09-03 14:57:35 GMT 45.411987 1.319230 35,000 192 498 -64
2021-09-03 14:57:33 GMT 45.418968 1.321240 35,000 192 498 0
2021-09-03 14:57:30 GMT 45.434052 1.325661 35,000 192 498 64
2021-09-03 14:57:27 GMT 45.434052 1.325661 35,000 192 498 0
2021-09-03 14:57:24 GMT 45.439266 1.327202 35,000 192 497 0
2021-09-03 14:57:20 GMT 45.446671 1.329413 35,000 192 497 -64
2021-09-03 14:57:18 GMT 45.453781 1.331504 35,000 192 497 0
2021-09-03 14:57:15 GMT 45.458588 1.332896 35,000 192 497 0
2021-09-03 14:57:12 GMT 45.465336 1.334906 35,000 192 497 64
2021-09-03 14:57:09 GMT 45.472321 1.336916 35,000 192 496 0
2021-09-03 14:57:06 GMT 45.479187 1.338959 35,000 192 496 0
2021-09-03 14:57:00 GMT 45.493378 1.343079 35,000 192 497 64
2021-09-03 14:56:58 GMT 45.496853 1.344083 35,000 192 497 0
2021-09-03 14:56:55 GMT 45.505280 1.346545 35,000 192 496 0
2021-09-03 14:56:52 GMT 45.513702 1.349041 35,000 192 496 0
2021-09-03 14:56:49 GMT 45.517941 1.350314 35,000 192 496 0
2021-09-03 14:56:46 GMT 45.524826 1.352299 35,000 192 496 -64
2021-09-03 14:56:43 GMT 45.536140 1.355673 35,000 192 496 0
2021-09-03 14:56:40 GMT 45.536140 1.355673 35,000 192 495 0
2021-09-03 14:56:37 GMT 45.550140 1.359826 35,000 192 496 0
2021-09-03 14:56:34 GMT 45.550140 1.359826 35,000 192 496 0
2021-09-03 14:56:31 GMT 45.558014 1.362171 35,000 192 495 0
2021-09-03 14:56:28 GMT 45.565098 1.364296 35,000 192 495 0
2021-09-03 14:56:25 GMT 45.572033 1.366356 35,000 192 495 0
2021-09-03 14:56:19 GMT 45.594471 1.373016 35,000 192 495 0
2021-09-03 14:56:15 GMT 45.594471 1.373016 35,000 192 495 0
2021-09-03 14:56:12 GMT 45.602646 1.375435 35,000 192 495 0
2021-09-03 14:56:09 GMT 45.606110 1.376518 35,000 192 495 0
2021-09-03 14:56:05 GMT 45.615829 1.379454 35,000 192 495 0
2021-09-03 14:56:01 GMT 45.626266 1.382629 35,000 192 495 0
2021-09-03 14:55:58 GMT 45.630615 1.383942 35,000 192 495 0
2021-09-03 14:55:54 GMT 45.639587 1.386689 35,000 192 495 0
2021-09-03 14:55:50 GMT 45.649776 1.389771 35,000 192 495 0
2021-09-03 14:55:46 GMT 45.658760 1.392448 35,000 192 495 0
2021-09-03 14:55:43 GMT 45.666348 1.394783 35,000 192 495 0
2021-09-03 14:55:40 GMT 45.672867 1.396706 35,000 192 495 0
2021-09-03 14:55:35 GMT 45.682159 1.399551 35,000 192 495 0
2021-09-03 14:55:29 GMT 45.697308 1.404121 35,000 192 495 0
2021-09-03 14:55:24 GMT 45.708206 1.407389 35,000 192 495 0
2021-09-03 14:55:22 GMT 45.711643 1.408447 35,000 193 496 0
2021-09-03 14:55:19 GMT 45.718395 1.410507 35,000 193 496 0
2021-09-03 14:55:14 GMT 45.729614 1.413940 35,000 193 496 64
2021-09-03 14:55:11 GMT 45.735897 1.415863 35,000 193 497 0
2021-09-03 14:55:07 GMT 45.746521 1.419112 35,000 192 496 0
2021-09-03 14:55:04 GMT 45.754395 1.421524 35,000 192 496 0
2021-09-03 14:55:00 GMT 45.764854 1.424652 35,000 193 497 0
2021-09-03 14:54:55 GMT 45.773373 1.427261 35,000 193 497 0
2021-09-03 14:54:52 GMT 45.781193 1.429665 35,000 193 497 0
2021-09-03 14:54:49 GMT 45.785797 1.431103 35,000 193 497 0
2021-09-03 14:54:46 GMT 45.798386 1.434922 35,000 193 497 0
2021-09-03 14:54:43 GMT 45.798386 1.434922 35,000 193 497 0
2021-09-03 14:54:41 GMT 45.803631 1.436531 35,000 192 496 -64
2021-09-03 14:54:38 GMT 45.811501 1.438934 35,025 192 496 0
2021-09-03 14:54:34 GMT 45.819599 1.441406 35,000 192 496 0
2021-09-03 14:54:30 GMT 45.829376 1.444367 35,000 192 496 0
2021-09-03 14:54:27 GMT 45.835648 1.446243 35,000 193 497 0
2021-09-03 14:54:23 GMT 45.844738 1.449028 35,000 193 497 0
2021-09-03 14:54:19 GMT 45.854141 1.451912 35,000 193 497 0
2021-09-03 14:54:14 GMT 45.863823 1.454865 35,000 193 497 0
2021-09-03 14:54:11 GMT 45.871765 1.457296 35,025 192 496 0
2021-09-03 14:54:08 GMT 45.881096 1.460152 35,000 193 497 0
2021-09-03 14:54:05 GMT 45.885910 1.461584 35,000 193 497 0
2021-09-03 14:54:01 GMT 45.895012 1.464409 35,025 193 497 0
2021-09-03 14:53:58 GMT 45.900600 1.466125 35,000 193 497 0
2021-09-03 14:53:53 GMT 45.912052 1.469559 35,000 193 497 0
2021-09-03 14:53:48 GMT 45.929901 1.475049 35,000 193 497 0
2021-09-03 14:53:45 GMT 45.929901 1.475049 35,000 193 497 64
2021-09-03 14:53:42 GMT 45.936630 1.477125 35,000 193 497 0
2021-09-03 14:53:38 GMT 45.945755 1.479927 35,000 193 497 0
2021-09-03 14:53:32 GMT 45.958878 1.483958 35,000 193 497 0
2021-09-03 14:53:27 GMT 45.972565 1.488112 35,000 192 496 0
2021-09-03 14:53:22 GMT 45.979523 1.490255 35,000 192 496 0
2021-09-03 14:53:20 GMT 45.986397 1.492287 35,000 192 496 0
2021-09-03 14:53:16 GMT 46.004242 1.497758 35,000 192 496 0
2021-09-03 14:53:13 GMT 46.004242 1.497758 35,000 192 496 64
2021-09-03 14:53:09 GMT 46.017773 1.501900 35,000 193 496 -64
2021-09-03 14:53:06 GMT 46.017773 1.501900 35,000 193 495 -64
2021-09-03 14:53:03 GMT 46.037842 1.508075 35,000 192 495 0
2021-09-03 14:52:58 GMT 46.037842 1.508075 35,000 192 495 0
2021-09-03 14:52:55 GMT 46.041279 1.509109 35,000 193 494 0
2021-09-03 14:52:50 GMT 46.054035 1.513023 35,025 193 494 0
2021-09-03 14:52:46 GMT 46.062653 1.515644 35,000 193 495 0
2021-09-03 14:52:40 GMT 46.076294 1.519865 35,000 193 495 0
2021-09-03 14:52:37 GMT 46.088299 1.523529 35,000 193 495 0
2021-09-03 14:52:31 GMT 46.095978 1.525894 35,000 193 494 -64
2021-09-03 14:52:28 GMT 46.104263 1.528439 35,000 193 495 0
2021-09-03 14:52:25 GMT 46.111862 1.530784 35,000 193 495 0
2021-09-03 14:52:20 GMT 46.123489 1.534335 35,000 193 495 0
2021-09-03 14:52:17 GMT 46.127060 1.535473 35,000 193 495 0
2021-09-03 14:52:14 GMT 46.134804 1.537811 35,000 193 496 0
2021-09-03 14:52:11 GMT 46.140621 1.539597 35,000 193 496 0
2021-09-03 14:52:09 GMT 46.145325 1.541039 35,000 193 496 0
2021-09-03 14:52:06 GMT 46.151459 1.542976 35,000 193 496 0
2021-09-03 14:52:03 GMT 46.159515 1.545455 35,000 193 496 -64
2021-09-03 14:51:59 GMT 46.167618 1.547933 35,000 193 496 0
2021-09-03 14:51:56 GMT 46.176235 1.550583 35,000 193 496 64
2021-09-03 14:51:53 GMT 46.181717 1.552288 35,000 193 496 64
2021-09-03 14:51:49 GMT 46.190575 1.555046 35,000 193 497 0
2021-09-03 14:51:45 GMT 46.199661 1.557848 35,000 193 497 0
2021-09-03 14:51:42 GMT 46.205246 1.559590 35,000 193 497 0
2021-09-03 14:51:39 GMT 46.212780 1.561913 35,000 193 497 0
2021-09-03 14:51:35 GMT 46.222092 1.564748 35,000 193 496 -64
2021-09-03 14:51:31 GMT 46.229736 1.567160 35,000 193 496 -64
2021-09-03 14:51:29 GMT 46.235451 1.568916 35,000 193 496 -64
2021-09-03 14:51:25 GMT 46.246437 1.572281 35,025 193 496 0
2021-09-03 14:51:21 GMT 46.250793 1.573658 35,000 193 496 0
2021-09-03 14:51:19 GMT 46.257751 1.575801 35,000 193 496 0
2021-09-03 14:51:13 GMT 46.272079 1.580290 35,000 193 496 0
2021-09-03 14:51:08 GMT 46.280594 1.582902 35,000 193 496 0
2021-09-03 14:51:04 GMT 46.290665 1.586051 35,000 193 496 0
2021-09-03 14:51:00 GMT 46.298721 1.588529 35,000 193 495 0
2021-09-03 14:50:57 GMT 46.305222 1.590539 35,000 193 495 64
2021-09-03 14:50:54 GMT 46.313965 1.593286 35,000 193 495 0
2021-09-03 14:50:51 GMT 46.320782 1.595421 35,000 193 495 0
2021-09-03 14:50:44 GMT 46.342575 1.602128 35,000 193 495 0
2021-09-03 14:50:41 GMT 46.342575 1.602128 35,000 193 495 0
2021-09-03 14:50:38 GMT 46.348846 1.604138 35,000 193 495 0
2021-09-03 14:50:33 GMT 46.361115 1.607889 35,000 193 494 0
2021-09-03 14:50:30 GMT 46.367157 1.609765 35,000 193 494 0
2021-09-03 14:50:27 GMT 46.373711 1.611832 35,000 193 494 0
2021-09-03 14:50:23 GMT 46.382309 1.614521 35,000 193 494 0
2021-09-03 14:50:20 GMT 46.387894 1.616196 35,000 193 494 0
2021-09-03 14:50:18 GMT 46.393707 1.618005 35,000 193 494 0
2021-09-03 14:50:14 GMT 46.402176 1.620684 35,000 193 494 -64
2021-09-03 14:50:11 GMT 46.408630 1.622694 35,000 193 494 0
2021-09-03 14:50:08 GMT 46.416538 1.625153 35,000 193 494 -64
2021-09-03 14:50:03 GMT 46.426781 1.628311 35,000 193 493 0
2021-09-03 14:50:00 GMT 46.432480 1.630063 35,000 193 493 0
2021-09-03 14:49:58 GMT 46.438602 1.632019 35,000 193 493 0
2021-09-03 14:49:53 GMT 46.450058 1.635556 35,000 193 493 0
2021-09-03 14:49:50 GMT 46.461868 1.639241 35,000 193 493 0
2021-09-03 14:49:47 GMT 46.461868 1.639241 35,000 193 493 0
2021-09-03 14:49:44 GMT 46.469563 1.641632 35,000 193 494 -64
2021-09-03 14:49:41 GMT 46.476265 1.643761 35,000 193 493 0
2021-09-03 14:49:37 GMT 46.485260 1.646542 35,025 193 494 0
2021-09-03 14:49:34 GMT 46.500687 1.651366 35,000 193 494 64
2021-09-03 14:49:30 GMT 46.500687 1.651366 35,000 193 494 64
2021-09-03 14:49:28 GMT 46.506454 1.653174 35,000 193 494 0
2021-09-03 14:49:24 GMT 46.516392 1.656258 35,000 193 494 0
2021-09-03 14:49:21 GMT 46.521095 1.657700 35,000 193 494 0
2021-09-03 14:49:17 GMT 46.529663 1.660409 35,000 193 494 0
2021-09-03 14:49:13 GMT 46.547745 1.666103 35,000 193 494 0
2021-09-03 14:49:10 GMT 46.547745 1.666103 35,000 193 494 0
2021-09-03 14:49:06 GMT 46.553513 1.667912 35,000 193 494 0
2021-09-03 14:49:03 GMT 46.560337 1.670059 35,000 193 494 0
2021-09-03 14:49:00 GMT 46.567039 1.672119 35,000 193 494 0
2021-09-03 14:48:57 GMT 46.573696 1.674248 35,000 193 493 64
2021-09-03 14:48:54 GMT 46.590317 1.679434 35,000 193 493 0
2021-09-03 14:48:50 GMT 46.596542 1.681377 35,000 193 493 0
2021-09-03 14:48:47 GMT 46.596542 1.681377 35,000 193 493 0
2021-09-03 14:48:42 GMT 46.612709 1.686470 35,000 193 493 0
2021-09-03 14:48:39 GMT 46.612709 1.686470 35,000 193 493 0
2021-09-03 14:48:37 GMT 46.619366 1.688530 35,000 193 492 0
2021-09-03 14:48:33 GMT 46.629795 1.691826 35,000 193 492 0
2021-09-03 14:48:29 GMT 46.636139 1.693837 35,000 193 492 -64
2021-09-03 14:48:26 GMT 46.642689 1.695877 35,000 193 492 -64
2021-09-03 14:48:23 GMT 46.649689 1.698125 35,025 193 491 0
2021-09-03 14:48:20 GMT 46.657539 1.700546 35,000 193 491 0
2021-09-03 14:48:16 GMT 46.666077 1.703283 35,000 193 491 0
2021-09-03 14:48:12 GMT 46.673740 1.705696 35,000 193 491 0
2021-09-03 14:48:09 GMT 46.681747 1.708168 35,000 193 491 0
2021-09-03 14:48:06 GMT 46.687054 1.709885 35,000 193 491 0
2021-09-03 14:48:03 GMT 46.694363 1.712151 35,000 193 491 0
2021-09-03 14:48:00 GMT 46.702240 1.714604 35,000 193 491 0
2021-09-03 14:47:58 GMT 46.704483 1.715341 35,000 193 491 0
2021-09-03 14:47:55 GMT 46.712448 1.717820 35,000 193 491 0
2021-09-03 14:47:52 GMT 46.725178 1.721832 35,000 193 491 0
2021-09-03 14:47:49 GMT 46.725178 1.721832 35,000 193 491 0
2021-09-03 14:47:44 GMT 46.735607 1.725128 35,000 193 491 0
2021-09-03 14:47:41 GMT 46.743668 1.727667 35,025 193 490 0
2021-09-03 14:47:38 GMT 46.748688 1.729248 35,000 193 490 0
2021-09-03 14:47:32 GMT 46.762840 1.733711 35,000 193 490 0
2021-09-03 14:47:29 GMT 46.769394 1.735773 35,000 193 491 0
2021-09-03 14:47:27 GMT 46.772800 1.736801 35,000 193 491 0
2021-09-03 14:47:23 GMT 46.783768 1.740261 35,000 193 491 -64
2021-09-03 14:47:19 GMT 46.791656 1.742775 35,025 193 490 -64
2021-09-03 14:47:17 GMT 46.796078 1.744148 35,025 193 491 -64
2021-09-03 14:47:11 GMT 46.811462 1.749037 35,025 193 491 0
2021-09-03 14:47:08 GMT 46.815769 1.750465 35,025 193 491 0
2021-09-03 14:47:02 GMT 46.829178 1.754664 35,000 193 491 0
2021-09-03 14:46:58 GMT 46.837509 1.757332 35,000 193 491 0
2021-09-03 14:46:55 GMT 46.844238 1.759420 35,000 193 491 0
2021-09-03 14:46:52 GMT 46.851791 1.761832 35,000 193 491 0
2021-09-03 14:46:48 GMT 46.860786 1.764679 35,000 193 491 0
2021-09-03 14:46:45 GMT 46.867443 1.766756 35,000 193 491 0
2021-09-03 14:46:42 GMT 46.873764 1.768799 35,000 193 491 0
2021-09-03 14:46:38 GMT 46.886063 1.772672 35,000 193 490 -64
2021-09-03 14:46:32 GMT 46.894821 1.775459 35,000 193 491 0
2021-09-03 14:46:29 GMT 46.903931 1.778343 35,000 193 491 0
2021-09-03 14:46:24 GMT 46.913223 1.781296 35,000 193 491 0
2021-09-03 14:46:21 GMT 46.920650 1.783659 35,000 193 491 0
2021-09-03 14:46:18 GMT 46.928284 1.786102 35,000 193 491 0
2021-09-03 14:46:16 GMT 46.931580 1.787132 35,000 193 490 -64
2021-09-03 14:46:11 GMT 46.942017 1.790428 35,000 193 490 0
2021-09-03 14:46:08 GMT 46.948116 1.792391 35,000 193 490 0
2021-09-03 14:46:05 GMT 46.955750 1.794823 35,000 193 490 64
2021-09-03 14:46:00 GMT 46.966141 1.798119 35,000 193 489 64
2021-09-03 14:45:57 GMT 46.976532 1.801414 35,000 193 489 0
2021-09-03 14:45:54 GMT 46.979729 1.802462 35,000 193 489 64
2021-09-03 14:45:51 GMT 46.986568 1.804645 35,000 193 489 0
2021-09-03 14:45:48 GMT 46.993179 1.806758 35,000 193 489 0
2021-09-03 14:45:44 GMT 47.002350 1.809654 35,000 193 489 64
2021-09-03 14:45:41 GMT 47.009399 1.811920 35,000 193 489 0
2021-09-03 14:45:37 GMT 47.016365 1.814153 35,000 193 489 0
2021-09-03 14:45:34 GMT 47.024323 1.816688 35,000 193 489 64
2021-09-03 14:45:30 GMT 47.032791 1.819336 35,000 193 489 64
2021-09-03 14:45:27 GMT 47.039082 1.821406 35,000 193 489 64
2021-09-03 14:45:24 GMT 47.046936 1.823868 35,000 193 489 -64
2021-09-03 14:45:21 GMT 47.053417 1.825914 35,000 193 489 -64
2021-09-03 14:45:17 GMT 47.067757 1.830491 35,000 193 488 0
2021-09-03 14:45:14 GMT 47.067757 1.830491 35,000 193 487 0
2021-09-03 14:45:11 GMT 47.075592 1.833000 35,000 193 487 0
2021-09-03 14:45:08 GMT 47.082329 1.835139 35,000 193 487 0
2021-09-03 14:45:05 GMT 47.090008 1.837604 35,000 193 487 0
2021-09-03 14:44:58 GMT 47.104721 1.842323 35,000 193 487 0
2021-09-03 14:44:52 GMT 47.116360 1.846055 35,000 193 487 0
2021-09-03 14:44:48 GMT 47.126926 1.849436 35,000 193 487 0
2021-09-03 14:44:46 GMT 47.137260 1.852746 35,000 193 487 0
2021-09-03 14:44:42 GMT 47.137260 1.852746 35,000 193 487 0
2021-09-03 14:44:37 GMT 47.148479 1.856337 35,025 193 487 -64
2021-09-03 14:44:34 GMT 47.156158 1.858802 35,025 193 487 -64
2021-09-03 14:44:28 GMT 47.169250 1.862938 35,025 193 487 0
2021-09-03 14:44:25 GMT 47.174828 1.864788 35,025 193 487 0
2021-09-03 14:44:22 GMT 47.191635 1.870148 35,025 193 487 0
2021-09-03 14:44:18 GMT 47.191635 1.870148 35,025 193 488 0
2021-09-03 14:44:15 GMT 47.199455 1.872676 35,025 193 489 0
2021-09-03 14:44:09 GMT 47.210068 1.876056 35,025 193 491 0
2021-09-03 14:44:06 GMT 47.218323 1.878731 35,000 193 489 0
2021-09-03 14:44:03 GMT 47.225830 1.881134 35,000 193 490 64
2021-09-03 14:43:57 GMT 47.244644 1.887177 35,000 193 491 0
2021-09-03 14:43:54 GMT 47.244644 1.887177 35,000 193 491 0
2021-09-03 14:43:50 GMT 47.253220 1.889930 35,000 193 492 0
2021-09-03 14:43:47 GMT 47.260296 1.892254 35,000 193 492 0
2021-09-03 14:43:44 GMT 47.267303 1.894455 35,000 193 492 64
2021-09-03 14:43:40 GMT 47.277428 1.897747 35,000 193 491 384
2021-09-03 14:43:36 GMT 47.285435 1.900283 35,000 193 493 0
2021-09-03 14:43:33 GMT 47.291519 1.902283 35,000 193 492 0
2021-09-03 14:43:27 GMT 47.305115 1.906609 35,000 193 491 128
2021-09-03 14:43:24 GMT 47.312298 1.908945 34,975 193 491 320
2021-09-03 14:43:17 GMT 47.327042 1.913750 34,850 193 490 896
2021-09-03 14:43:14 GMT 47.333267 1.915741 34,925 193 490 576
2021-09-03 14:43:11 GMT 47.340229 1.917959 34,925 193 490 704
2021-09-03 14:43:08 GMT 47.345768 1.919720 34,900 193 490 832
2021-09-03 14:43:05 GMT 47.351212 1.921509 34,850 193 490 896
2021-09-03 14:43:02 GMT 47.360275 1.924393 34,750 193 490 960
2021-09-03 14:42:59 GMT 47.366810 1.926551 34,750 193 490 960
2021-09-03 14:42:56 GMT 47.372452 1.928375 34,700 193 490 960
2021-09-03 14:42:53 GMT 47.379730 1.930710 34,625 193 490 960
2021-09-03 14:42:48 GMT 47.389709 1.933937 34,550 193 490 1024
2021-09-03 14:42:45 GMT 47.398884 1.936904 34,525 193 490 1024
2021-09-03 14:42:41 GMT 47.409729 1.940425 34,425 193 491 1088
2021-09-03 14:42:36 GMT 47.417816 1.943001 34,200 193 491 960
2021-09-03 14:42:33 GMT 47.424580 1.945214 34,200 193 491 1024
2021-09-03 14:42:29 GMT 47.434776 1.948524 34,150 193 491 960
2021-09-03 14:42:23 GMT 47.446426 1.952271 34,125 193 491 960
2021-09-03 14:42:20 GMT 47.453396 1.954510 34,100 193 491 960
2021-09-03 14:42:15 GMT 47.464706 1.958172 34,000 193 491 960
2021-09-03 14:42:12 GMT 47.471283 1.960304 33,900 193 491 960
2021-09-03 14:42:09 GMT 47.478378 1.962639 33,900 193 491 960
2021-09-03 14:42:04 GMT 47.495682 1.968201 33,800 193 491 960
2021-09-03 14:41:55 GMT 47.508423 1.972398 33,650 193 491 960
2021-09-03 14:41:52 GMT 47.515640 1.974724 33,650 193 491 960
2021-09-03 14:41:47 GMT 47.524521 1.977608 33,600 193 491 960
2021-09-03 14:41:44 GMT 47.531464 1.979863 33,550 193 491 1152
2021-09-03 14:41:41 GMT 47.539005 1.982328 33,450 193 492 1152
2021-09-03 14:41:38 GMT 47.546219 1.984749 33,425 193 491 1152
2021-09-03 14:41:35 GMT 47.552971 1.986906 33,375 193 491 1152
2021-09-03 14:41:31 GMT 47.561966 1.989830 33,225 193 492 1152
2021-09-03 14:41:28 GMT 47.568985 1.992117 33,225 193 492 1152
2021-09-03 14:41:23 GMT 47.580872 1.995941 33,100 193 492 1152
2021-09-03 14:41:20 GMT 47.588535 1.998455 33,025 193 493 960
2021-09-03 14:41:14 GMT 47.598080 2.001554 32,975 193 493 1088
2021-09-03 14:41:10 GMT 47.621567 2.009193 31,825 193 493 960
2021-09-03 14:41:05 GMT 47.621567 2.009193 32,800 193 493 960
2021-09-03 14:41:02 GMT 47.626152 2.010709 32,725 193 493 960
2021-09-03 14:40:59 GMT 47.631458 2.012400 32,050 193 493 960
2021-09-03 14:40:56 GMT 47.639374 2.015030 32,675 193 493 960
2021-09-03 14:40:52 GMT 47.648403 2.017963 32,600 193 493 896
2021-09-03 14:40:49 GMT 47.654938 2.020111 32,525 193 492 896
2021-09-03 14:40:46 GMT 47.668076 2.024368 32,525 193 492 960
2021-09-03 14:40:43 GMT 47.676956 2.027321 32,400 193 492 960
2021-09-03 14:40:40 GMT 47.676956 2.027321 32,400 193 492 960
2021-09-03 14:40:36 GMT 47.683968 2.029583 32,350 193 492 960
2021-09-03 14:40:32 GMT 47.694717 2.033089 32,250 193 492 1024
2021-09-03 14:40:29 GMT 47.701630 2.035355 32,225 193 492 960
2021-09-03 14:40:25 GMT 47.707397 2.037209 32,175 193 492 960
2021-09-03 14:40:21 GMT 47.717606 2.040573 32,025 193 491 1024
2021-09-03 14:40:18 GMT 47.724243 2.042770 32,050 193 491 1024
2021-09-03 14:40:14 GMT 47.731567 2.045174 32,000 193 491 1024
2021-09-03 14:40:11 GMT 47.738575 2.047471 31,950 193 491 1152
2021-09-03 14:40:08 GMT 47.746216 2.049980 31,875 193 491 1088
2021-09-03 14:40:04 GMT 47.756310 2.053317 31,800 193 492 1152
2021-09-03 14:40:01 GMT 47.762421 2.055336 31,750 193 492 1152
2021-09-03 14:39:58 GMT 47.768005 2.057121 31,625 193 492 1152
2021-09-03 14:39:55 GMT 47.776562 2.059937 31,625 193 492 1152
2021-09-03 14:39:49 GMT 47.797649 2.066909 31,350 193 492 1216
2021-09-03 14:39:45 GMT 47.797649 2.066909 31,425 193 492 1216
2021-09-03 14:39:41 GMT 47.806309 2.069726 31,325 193 493 1216
2021-09-03 14:39:38 GMT 47.812080 2.071698 31,250 193 494 1280
2021-09-03 14:39:35 GMT 47.818909 2.073875 31,225 193 493 1216
2021-09-03 14:39:30 GMT 47.832458 2.078407 31,100 193 493 1216
2021-09-03 14:39:25 GMT 47.840515 2.081017 30,975 193 493 1216
2021-09-03 14:39:20 GMT 47.853195 2.085205 30,800 193 494 1280
2021-09-03 14:39:15 GMT 47.863800 2.088670 30,825 193 494 1280
2021-09-03 14:39:12 GMT 47.870819 2.091042 30,750 193 494 1280
2021-09-03 14:39:08 GMT 47.878830 2.093651 30,650 193 494 1216
2021-09-03 14:39:05 GMT 47.884872 2.095642 30,575 193 495 1216
2021-09-03 14:39:01 GMT 47.895924 2.099234 30,525 193 495 1280
2021-09-03 14:38:58 GMT 47.902542 2.101410 30,450 193 495 1344
2021-09-03 14:38:55 GMT 47.909561 2.103741 30,350 193 495 1472
2021-09-03 14:38:52 GMT 47.915150 2.105572 30,250 193 495 1472
2021-09-03 14:38:47 GMT 47.926086 2.109234 30,200 193 496 1536
2021-09-03 14:38:42 GMT 47.938423 2.113319 29,925 193 498 1600
2021-09-03 14:38:39 GMT 47.946293 2.115925 29,950 193 499 1536
2021-09-03 14:38:35 GMT 47.954041 2.118507 29,825 193 499 1536
2021-09-03 14:38:32 GMT 47.963013 2.121529 29,750 193 500 1472
2021-09-03 14:38:29 GMT 47.967659 2.123037 29,450 193 499 1024
2021-09-03 14:38:25 GMT 47.982975 2.128179 29,450 193 499 1024
2021-09-03 14:38:22 GMT 47.982975 2.128179 29,575 193 500 1024
2021-09-03 14:38:19 GMT 47.989304 2.130291 29,450 193 499 1024
2021-09-03 14:38:16 GMT 47.996056 2.132615 29,450 193 499 1024
2021-09-03 14:38:13 GMT 48.003036 2.134939 29,425 193 499 960
2021-09-03 14:38:09 GMT 48.012024 2.137968 29,350 193 499 1024
2021-09-03 14:38:05 GMT 48.024174 2.142052 29,250 193 498 1024
2021-09-03 14:38:00 GMT 48.032272 2.144728 29,225 193 498 1024
2021-09-03 14:37:57 GMT 48.038979 2.147052 29,150 193 498 1088
2021-09-03 14:37:54 GMT 48.045959 2.149377 29,100 193 497 704
2021-09-03 14:37:51 GMT 48.052895 2.151701 29,050 193 497 704
2021-09-03 14:37:48 GMT 48.058296 2.153532 29,025 193 497 512
2021-09-03 14:37:45 GMT 48.065781 2.155998 29,000 193 496 256
2021-09-03 14:37:42 GMT 48.071518 2.157898 29,000 193 496 64
2021-09-03 14:37:39 GMT 48.082039 2.161419 29,000 193 496 0
2021-09-03 14:37:36 GMT 48.085052 2.162384 29,000 193 496 0
2021-09-03 14:37:33 GMT 48.093796 2.165268 29,000 193 496 64
2021-09-03 14:37:30 GMT 48.099728 2.167124 29,000 192 495 0
2021-09-03 14:37:27 GMT 48.106430 2.169307 29,000 192 495 0
2021-09-03 14:37:24 GMT 48.116066 2.172335 29,000 192 495 0
2021-09-03 14:37:21 GMT 48.121353 2.174057 29,000 193 494 0
2021-09-03 14:37:18 GMT 48.125935 2.175504 29,000 193 494 0
2021-09-03 14:37:14 GMT 48.142044 2.180575 29,000 192 494 0
2021-09-03 14:37:07 GMT 48.151634 2.183603 29,000 192 494 0
2021-09-03 14:37:04 GMT 48.156334 2.185082 29,000 192 494 0
2021-09-03 14:37:01 GMT 48.164158 2.187508 29,000 192 494 0
2021-09-03 14:36:58 GMT 48.179489 2.192265 29,000 192 494 0
2021-09-03 14:36:54 GMT 48.179489 2.192265 29,000 192 494 0
2021-09-03 14:36:51 GMT 48.188316 2.194953 29,000 192 493 0
2021-09-03 14:36:47 GMT 48.194916 2.196913 29,000 192 493 0
2021-09-03 14:36:44 GMT 48.201721 2.199000 29,000 192 494 0
2021-09-03 14:36:40 GMT 48.210476 2.201602 29,000 192 494 0
2021-09-03 14:36:36 GMT 48.228584 2.207023 29,000 194 494 0
2021-09-03 14:36:33 GMT 48.228584 2.207023 29,000 193 494 0
2021-09-03 14:36:28 GMT 48.237396 2.209872 29,000 193 494 0
2021-09-03 14:36:25 GMT 48.244949 2.212548 29,000 196 495 0
2021-09-03 14:36:22 GMT 48.250603 2.214685 29,000 198 495 0
2021-09-03 14:36:19 GMT 48.258636 2.218182 29,000 198 495 0
2021-09-03 14:36:16 GMT 48.265182 2.221281 29,000 199 496 64
2021-09-03 14:36:13 GMT 48.269989 2.223675 29,000 199 496 64
2021-09-03 14:36:10 GMT 48.278255 2.228201 29,000 202 497 -64
2021-09-03 14:36:08 GMT 48.280396 2.229502 29,000 203 497 -64
2021-09-03 14:36:05 GMT 48.291199 2.236224 29,000 204 497 0
2021-09-03 14:35:59 GMT 48.302444 2.243676 29,000 204 497 0
2021-09-03 14:35:54 GMT 48.311920 2.249944 29,000 204 497 0
2021-09-03 14:35:48 GMT 48.324619 2.258413 29,000 204 497 0
2021-09-03 14:35:44 GMT 48.332474 2.263677 29,000 204 497 0
2021-09-03 14:35:41 GMT 48.338791 2.267832 29,000 204 497 0
2021-09-03 14:35:37 GMT 48.345932 2.272621 29,000 204 497 0
2021-09-03 14:35:34 GMT 48.354309 2.278184 29,000 204 497 0
2021-09-03 14:35:31 GMT 48.361862 2.283255 29,000 204 497 0
2021-09-03 14:35:28 GMT 48.365772 2.285879 29,000 204 497 0
2021-09-03 14:35:25 GMT 48.371033 2.289348 29,000 204 497 0
2021-09-03 14:35:22 GMT 48.379532 2.295016 29,000 204 497 0
2021-09-03 14:35:16 GMT 48.393890 2.304671 29,000 204 497 0
2021-09-03 14:35:12 GMT 48.399803 2.308574 29,000 204 497 0
2021-09-03 14:35:09 GMT 48.406174 2.312833 29,000 204 497 0
2021-09-03 14:35:06 GMT 48.412674 2.317200 29,000 204 497 0
2021-09-03 14:35:03 GMT 48.416981 2.320067 29,000 204 497 0
2021-09-03 14:35:00 GMT 48.423615 2.324524 29,000 204 497 0
2021-09-03 14:34:57 GMT 48.430527 2.329172 29,000 205 497 0
2021-09-03 14:34:54 GMT 48.437790 2.334016 29,000 205 497 0
2021-09-03 14:34:50 GMT 48.449203 2.341708 29,000 205 498 0
2021-09-03 14:34:46 GMT 48.454361 2.345147 29,000 205 497 0
2021-09-03 14:34:43 GMT 48.461609 2.349947 29,000 205 498 0
2021-09-03 14:34:41 GMT 48.464539 2.351919 29,000 205 498 0
2021-09-03 14:34:36 GMT 48.475250 2.359103 29,000 205 498 0
2021-09-03 14:34:32 GMT 48.483444 2.364596 29,000 205 498 0
2021-09-03 14:34:27 GMT 48.495209 2.372483 29,000 205 498 0
2021-09-03 14:34:24 GMT 48.506516 2.380160 29,000 205 498 0
2021-09-03 14:34:21 GMT 48.506516 2.380160 29,000 205 497 0
2021-09-03 14:34:18 GMT 48.515018 2.385840 29,000 205 498 0
2021-09-03 14:34:14 GMT 48.521210 2.390019 29,000 205 498 0
2021-09-03 14:34:11 GMT 48.529861 2.395794 29,000 205 498 0
2021-09-03 14:34:06 GMT 48.538010 2.401358 29,000 205 498 0
2021-09-03 14:34:03 GMT 48.543503 2.405020 29,000 205 498 0
2021-09-03 14:34:00 GMT 48.555569 2.413161 29,000 205 498 0
2021-09-03 14:33:58 GMT 48.555569 2.413161 29,000 205 498 0
2021-09-03 14:33:54 GMT 48.562923 2.418149 29,000 205 498 0
2021-09-03 14:33:51 GMT 48.568909 2.422204 29,000 205 498 0
2021-09-03 14:33:48 GMT 48.583733 2.432171 29,000 205 499 0
2021-09-03 14:33:45 GMT 48.583733 2.432171 29,000 205 499 0
2021-09-03 14:33:42 GMT 48.587860 2.434951 29,000 205 499 0
2021-09-03 14:33:39 GMT 48.596348 2.440772 29,000 205 499 0
2021-09-03 14:33:36 GMT 48.603096 2.445325 29,000 205 499 0
2021-09-03 14:33:33 GMT 48.608356 2.448867 29,000 205 499 0
2021-09-03 14:33:29 GMT 48.615479 2.453782 29,000 205 499 0
2021-09-03 14:33:26 GMT 48.623905 2.459492 29,000 205 499 0
2021-09-03 14:33:23 GMT 48.628326 2.462528 29,000 205 499 0
2021-09-03 14:33:20 GMT 48.634552 2.466712 29,000 205 499 0
2021-09-03 14:33:17 GMT 48.640640 2.470867 29,000 205 499 0
2021-09-03 14:33:14 GMT 48.647881 2.475827 29,000 205 499 0
2021-09-03 14:33:11 GMT 48.660496 2.484500 29,000 205 499 0
2021-09-03 14:33:08 GMT 48.660496 2.484500 29,000 205 499 0
2021-09-03 14:33:05 GMT 48.671623 2.492162 29,000 204 498 0
2021-09-03 14:33:03 GMT 48.677116 2.495920 29,000 205 499 0
2021-09-03 14:33:00 GMT 48.677116 2.495920 29,000 205 499 0
2021-09-03 14:32:58 GMT 48.680050 2.497872 29,000 205 494 0
2021-09-03 14:32:55 GMT 48.687820 2.503220 29,000 205 499 0
2021-09-03 14:32:52 GMT 48.694572 2.507774 29,000 205 499 0
2021-09-03 14:32:49 GMT 48.700253 2.511677 29,000 204 499 0
2021-09-03 14:32:46 GMT 48.706650 2.516010 29,000 204 498 0
2021-09-03 14:32:43 GMT 48.713196 2.520376 29,000 204 498 0
2021-09-03 14:32:40 GMT 48.719971 2.524813 29,000 205 498 64
2021-09-03 14:32:37 GMT 48.726334 2.528898 29,000 204 498 -128
2021-09-03 14:32:34 GMT 48.731533 2.532204 29,000 203 498 -64
2021-09-03 14:32:31 GMT 48.738831 2.536856 29,000 204 498 -64
2021-09-03 14:32:28 GMT 48.744095 2.540307 29,000 205 498 64
2021-09-03 14:32:24 GMT 48.753414 2.546732 29,000 205 498 0
2021-09-03 14:32:21 GMT 48.759930 2.551213 29,000 205 498 0
2021-09-03 14:32:18 GMT 48.764122 2.554104 29,000 205 498 0
2021-09-03 14:32:15 GMT 48.770405 2.558369 29,000 205 496 0
2021-09-03 14:32:12 GMT 48.786850 2.569604 29,000 205 497 0
2021-09-03 14:32:09 GMT 48.789909 2.571668 29,000 205 497 0
2021-09-03 14:32:06 GMT 48.789909 2.571668 29,000 205 497 0
2021-09-03 14:32:03 GMT 48.805115 2.581998 29,000 205 497 0
2021-09-03 14:31:59 GMT 48.805115 2.581998 29,000 205 496 0
2021-09-03 14:31:55 GMT 48.814316 2.588266 29,000 205 496 0
2021-09-03 14:31:52 GMT 48.818710 2.591295 29,000 205 496 0
2021-09-03 14:31:49 GMT 48.832718 2.600802 29,000 205 495 0
2021-09-03 14:31:46 GMT 48.832718 2.600802 29,000 205 495 0
2021-09-03 14:31:43 GMT 48.839813 2.605661 29,000 205 495 0
2021-09-03 14:31:40 GMT 48.844517 2.608892 29,000 205 495 0
2021-09-03 14:31:38 GMT 48.849125 2.612000 29,000 205 495 0
2021-09-03 14:31:35 GMT 48.854462 2.615591 29,000 205 495 0
2021-09-03 14:31:33 GMT 48.860916 2.620028 29,000 205 495 0
2021-09-03 14:31:30 GMT 48.865952 2.623408 29,000 205 495 0
2021-09-03 14:31:27 GMT 48.873642 2.628690 29,000 205 495 0
2021-09-03 14:31:24 GMT 48.878780 2.632165 29,000 205 494 0
2021-09-03 14:31:21 GMT 48.883896 2.635662 29,000 205 494 0
2021-09-03 14:31:18 GMT 48.898796 2.645826 29,000 205 494 0
2021-09-03 14:31:15 GMT 48.898796 2.645826 29,000 205 494 0
2021-09-03 14:31:12 GMT 48.903778 2.649223 29,000 205 494 0
2021-09-03 14:31:09 GMT 48.911819 2.654677 29,000 205 494 0
2021-09-03 14:31:06 GMT 48.920444 2.660571 29,000 205 494 0
2021-09-03 14:31:04 GMT 48.920444 2.660571 29,000 205 494 0
2021-09-03 14:31:01 GMT 48.927521 2.665341 29,000 205 494 0
2021-09-03 14:30:58 GMT 48.933472 2.669396 29,000 205 494 0
2021-09-03 14:30:55 GMT 48.939514 2.673481 29,000 205 492 0
2021-09-03 14:30:52 GMT 48.944687 2.677002 29,000 205 492 0
2021-09-03 14:30:49 GMT 48.957596 2.685735 29,000 205 492 0
2021-09-03 14:30:46 GMT 48.957596 2.685735 29,000 205 492 0
2021-09-03 14:30:44 GMT 48.961990 2.688693 29,000 204 492 0
2021-09-03 14:30:40 GMT 48.969864 2.694045 29,000 204 492 0
2021-09-03 14:30:37 GMT 48.975189 2.697650 29,000 204 492 0
2021-09-03 14:30:33 GMT 48.986221 2.705094 29,000 204 492 0
2021-09-03 14:30:30 GMT 48.991516 2.708693 29,000 204 492 0
2021-09-03 14:30:27 GMT 48.996506 2.712074 29,000 204 492 0
2021-09-03 14:30:24 GMT 49.001495 2.715384 29,000 204 492 0
2021-09-03 14:30:22 GMT 49.006752 2.718972 29,000 205 491 0
2021-09-03 14:30:20 GMT 49.011967 2.722513 29,000 205 491 0
2021-09-03 14:30:18 GMT 49.017971 2.726633 29,000 205 491 0
2021-09-03 14:30:15 GMT 49.027588 2.733201 29,000 206 496 0
2021-09-03 14:30:12 GMT 49.027588 2.733201 29,000 206 496 0
2021-09-03 14:30:09 GMT 49.040131 2.741812 29,000 205 492 0
2021-09-03 14:30:06 GMT 49.040131 2.741812 29,000 205 492 0
2021-09-03 14:30:03 GMT 49.048183 2.747449 29,000 205 492 0
2021-09-03 14:30:00 GMT 49.053165 2.750919 29,000 206 492 0
2021-09-03 14:29:57 GMT 49.061588 2.756990 29,000 206 493 0
2021-09-03 14:29:54 GMT 49.066818 2.760737 29,000 206 493 0
2021-09-03 14:29:51 GMT 49.071274 2.763929 29,000 206 494 0
2021-09-03 14:29:48 GMT 49.078354 2.769118 29,000 206 495 0
2021-09-03 14:29:45 GMT 49.084534 2.773625 29,000 206 495 0
2021-09-03 14:29:42 GMT 49.090824 2.778168 29,000 206 495 0
2021-09-03 14:29:39 GMT 49.097122 2.782781 29,000 206 495 0
2021-09-03 14:29:35 GMT 49.103207 2.787203 29,000 206 496 0
2021-09-03 14:29:31 GMT 49.113235 2.794471 29,000 206 496 0
2021-09-03 14:29:28 GMT 49.118637 2.798345 29,000 206 496 0
2021-09-03 14:29:25 GMT 49.133419 2.809103 29,000 206 496 0
2021-09-03 14:29:21 GMT 49.133419 2.809103 29,000 206 496 0
2021-09-03 14:29:18 GMT 49.139797 2.813801 29,000 206 496 0
2021-09-03 14:29:15 GMT 49.145802 2.818138 29,000 206 496 0
2021-09-03 14:29:12 GMT 49.153904 2.823992 29,000 206 496 0
2021-09-03 14:29:09 GMT 49.164734 2.831867 29,000 206 496 0
2021-09-03 14:29:06 GMT 49.172607 2.837571 29,000 206 493 448
2021-09-03 14:29:02 GMT 49.172607 2.837571 29,000 206 496 0
2021-09-03 14:28:59 GMT 49.178715 2.841990 29,000 206 496 0
2021-09-03 14:28:56 GMT 49.185242 2.846727 29,000 206 495 64
2021-09-03 14:28:53 GMT 49.192356 2.851964 29,000 206 495 64
2021-09-03 14:28:50 GMT 49.197102 2.855361 29,000 206 495 128
2021-09-03 14:28:47 GMT 49.204010 2.860389 28,975 206 495 192
2021-09-03 14:28:44 GMT 49.211533 2.865914 28,975 206 494 192
2021-09-03 14:28:41 GMT 49.215591 2.868840 28,975 206 494 256
2021-09-03 14:28:38 GMT 49.229782 2.879193 28,775 206 493 448
2021-09-03 14:28:35 GMT 49.229782 2.879193 28,250 206 493 448
2021-09-03 14:28:32 GMT 49.234203 2.882393 28,900 206 493 448
2021-09-03 14:28:29 GMT 49.241272 2.887573 28,900 206 493 448
2021-09-03 14:28:27 GMT 49.246857 2.891587 28,850 206 492 512
2021-09-03 14:28:24 GMT 49.250107 2.893982 28,825 206 492 512
2021-09-03 14:28:21 GMT 49.257523 2.899405 28,825 206 492 576
2021-09-03 14:28:18 GMT 49.263428 2.903771 28,800 206 491 576
2021-09-03 14:28:15 GMT 49.269608 2.908278 28,750 206 491 640
2021-09-03 14:28:11 GMT 49.277870 2.914340 28,725 206 491 640
2021-09-03 14:28:08 GMT 49.290161 2.923375 28,675 206 491 640
2021-09-03 14:28:05 GMT 49.297329 2.928579 28,625 206 491 704
2021-09-03 14:28:02 GMT 49.297329 2.928579 28,600 206 491 704
2021-09-03 14:27:59 GMT 49.304581 2.933913 28,575 206 491 704
2021-09-03 14:27:56 GMT 49.307465 2.936026 28,550 206 491 768
2021-09-03 14:27:53 GMT 49.316666 2.942787 28,500 206 491 768
2021-09-03 14:27:50 GMT 49.319321 2.944688 28,500 206 491 768
2021-09-03 14:27:47 GMT 49.326984 2.950335 28,450 206 491 704
2021-09-03 14:27:45 GMT 49.331081 2.953298 28,400 206 491 704
2021-09-03 14:27:42 GMT 49.339088 2.959153 28,375 206 491 704
2021-09-03 14:27:39 GMT 49.343369 2.962261 28,225 206 491 640
2021-09-03 14:27:36 GMT 49.348724 2.966164 28,275 206 491 640
2021-09-03 14:27:33 GMT 49.354935 2.970675 28,300 206 491 640
2021-09-03 14:27:30 GMT 49.361198 2.975199 28,200 206 490 640
2021-09-03 14:27:27 GMT 49.367249 2.979619 28,200 206 490 640
2021-09-03 14:27:24 GMT 49.372971 2.983774 28,200 206 490 640
2021-09-03 14:27:21 GMT 49.385780 2.993124 28,150 206 490 640
2021-09-03 14:27:18 GMT 49.385780 2.993124 28,075 206 489 640
2021-09-03 14:27:15 GMT 49.393742 2.998906 28,025 206 489 704
2021-09-03 14:27:10 GMT 49.402405 3.005254 27,950 206 489 640
2021-09-03 14:27:07 GMT 49.410187 3.010888 27,925 206 489 640
2021-09-03 14:27:03 GMT 49.416180 3.015241 27,950 206 489 640
2021-09-03 14:27:01 GMT 49.421486 3.019144 27,925 206 489 640
2021-09-03 14:26:58 GMT 49.426895 3.023071 27,900 206 489 576
2021-09-03 14:26:56 GMT 49.430969 3.026011 27,875 206 488 576
2021-09-03 14:26:53 GMT 49.438801 3.031781 27,850 206 488 576
2021-09-03 14:26:48 GMT 49.447083 3.037792 27,800 206 487 576
2021-09-03 14:26:46 GMT 49.453171 3.042201 27,775 206 487 576
2021-09-03 14:26:43 GMT 49.458168 3.045885 27,750 206 487 576
2021-09-03 14:26:40 GMT 49.469948 3.054422 27,700 206 487 576
2021-09-03 14:26:37 GMT 49.469948 3.054422 27,650 206 485 576
2021-09-03 14:26:34 GMT 49.474915 3.058102 27,675 206 486 576
2021-09-03 14:26:31 GMT 49.483307 3.064221 27,525 206 483 576
2021-09-03 14:26:27 GMT 49.488613 3.068081 27,600 206 485 576
2021-09-03 14:26:24 GMT 49.503368 3.078844 27,525 206 484 576
2021-09-03 14:26:21 GMT 49.503368 3.078844 27,525 206 483 576
2021-09-03 14:26:18 GMT 49.508865 3.082779 27,500 206 484 576
2021-09-03 14:26:15 GMT 49.513287 3.086045 27,425 206 483 576
2021-09-03 14:26:12 GMT 49.522411 3.092577 27,450 206 483 576
2021-09-03 14:26:09 GMT 49.531303 3.099035 27,425 205 483 576
2021-09-03 14:26:06 GMT 49.531303 3.099035 27,375 205 483 576
2021-09-03 14:26:03 GMT 49.539505 3.104866 27,275 205 482 640
2021-09-03 14:26:00 GMT 49.545452 3.109131 27,325 205 481 704
2021-09-03 14:25:57 GMT 49.549576 3.112094 27,300 205 481 704
2021-09-03 14:25:54 GMT 49.565918 3.123803 27,175 205 480 704
2021-09-03 14:25:50 GMT 49.565918 3.123803 27,200 205 480 704
2021-09-03 14:25:47 GMT 49.576504 3.131400 27,100 205 480 704
2021-09-03 14:25:44 GMT 49.576504 3.131400 27,125 205 480 704
2021-09-03 14:25:41 GMT 49.590004 3.140976 27,075 205 480 704
2021-09-03 14:25:38 GMT 49.594238 3.144020 26,950 206 480 704
2021-09-03 14:25:35 GMT 49.594238 3.144020 26,975 205 480 704
2021-09-03 14:25:32 GMT 49.599792 3.148017 27,000 206 479 704
2021-09-03 14:25:29 GMT 49.607090 3.153225 26,925 206 480 704
2021-09-03 14:25:25 GMT 49.615448 3.159220 26,875 206 479 704
2021-09-03 14:25:22 GMT 49.622452 3.164279 26,875 206 479 704
2021-09-03 14:25:19 GMT 49.627384 3.167774 26,825 205 478 704
2021-09-03 14:25:16 GMT 49.639297 3.176350 26,725 206 477 704
2021-09-03 14:25:13 GMT 49.639297 3.176350 26,675 206 477 704
2021-09-03 14:25:10 GMT 49.644379 3.180022 26,725 206 477 704
2021-09-03 14:25:07 GMT 49.657700 3.189577 26,675 206 476 768
2021-09-03 14:25:04 GMT 49.657700 3.189577 26,675 206 476 768
2021-09-03 14:25:01 GMT 49.661789 3.192493 26,575 206 476 768
2021-09-03 14:24:58 GMT 49.676357 3.203034 26,525 206 475 704
2021-09-03 14:24:55 GMT 49.676357 3.203034 26,475 206 475 704
2021-09-03 14:24:51 GMT 49.682735 3.207562 26,525 206 475 704
2021-09-03 14:24:48 GMT 49.689720 3.212610 26,450 206 475 704
2021-09-03 14:24:45 GMT 49.695190 3.216537 26,400 206 474 704
2021-09-03 14:24:42 GMT 49.702148 3.221596 26,400 206 474 704
2021-09-03 14:24:39 GMT 49.708385 3.226120 26,350 206 474 704
2021-09-03 14:24:36 GMT 49.713367 3.229684 26,175 206 474 704
2021-09-03 14:24:33 GMT 49.720722 3.234954 26,275 206 473 704
2021-09-03 14:24:30 GMT 49.724579 3.237787 26,250 206 473 768
2021-09-03 14:24:28 GMT 49.728745 3.240750 26,125 206 473 768
2021-09-03 14:24:24 GMT 49.735657 3.245737 26,025 206 472 832
2021-09-03 14:24:20 GMT 49.744949 3.252459 26,100 206 471 832
2021-09-03 14:24:17 GMT 49.749298 3.255639 26,050 206 472 832
2021-09-03 14:24:14 GMT 49.763645 3.265983 25,875 206 471 832
2021-09-03 14:24:11 GMT 49.768845 3.269734 25,975 206 471 832
2021-09-03 14:24:08 GMT 49.768845 3.269734 25,925 206 471 768
2021-09-03 14:24:04 GMT 49.775940 3.274865 25,750 206 470 768
2021-09-03 14:24:00 GMT 49.787567 3.283250 25,800 206 470 768
2021-09-03 14:23:55 GMT 49.792694 3.286936 25,775 206 470 768
2021-09-03 14:23:52 GMT 49.805401 3.296121 25,675 206 469 768
2021-09-03 14:23:49 GMT 49.805401 3.296121 25,675 205 468 768
2021-09-03 14:23:46 GMT 49.810410 3.299729 25,650 206 467 768
2021-09-03 14:23:43 GMT 49.817131 3.304584 25,550 206 467 768
2021-09-03 14:23:39 GMT 49.828812 3.313028 25,575 206 467 768
2021-09-03 14:23:37 GMT 49.832703 3.315847 25,550 206 467 768
2021-09-03 14:23:35 GMT 49.832703 3.315847 25,500 206 467 768
2021-09-03 14:23:32 GMT 49.839569 3.320762 25,425 206 465 896
2021-09-03 14:23:29 GMT 49.853210 3.330664 25,425 206 466 768
2021-09-03 14:23:26 GMT 49.853210 3.330664 25,400 206 466 832
2021-09-03 14:23:22 GMT 49.857399 3.333682 25,375 206 465 896
2021-09-03 14:23:20 GMT 49.862366 3.337314 25,200 206 464 896
2021-09-03 14:23:17 GMT 49.867130 3.340735 25,275 206 464 896
2021-09-03 14:23:14 GMT 49.876144 3.347288 25,225 206 464 896
2021-09-03 14:23:09 GMT 49.888126 3.355952 25,025 206 463 960
2021-09-03 14:23:07 GMT 49.888126 3.355952 25,075 206 463 960
2021-09-03 14:23:04 GMT 49.893265 3.359720 25,075 206 463 960
2021-09-03 14:22:59 GMT 49.904186 3.367681 24,950 206 463 896
2021-09-03 14:22:56 GMT 49.907959 3.370418 24,925 206 463 896
2021-09-03 14:22:53 GMT 49.914139 3.374899 24,925 206 463 896
2021-09-03 14:22:49 GMT 49.922653 3.381115 24,850 206 461 896
2021-09-03 14:22:47 GMT 49.926437 3.383789 24,850 206 461 896
2021-09-03 14:22:45 GMT 49.929245 3.385813 24,800 206 460 896
2021-09-03 14:22:42 GMT 49.935516 3.390396 24,700 206 457 896
2021-09-03 14:22:39 GMT 49.942154 3.395281 24,725 206 460 896
2021-09-03 14:22:36 GMT 49.947510 3.399184 24,675 206 459 896
2021-09-03 14:22:34 GMT 49.950439 3.401280 24,650 206 459 896
2021-09-03 14:22:31 GMT 49.958496 3.407135 24,550 206 459 896
2021-09-03 14:22:27 GMT 49.964035 3.411183 24,500 206 458 896
2021-09-03 14:22:24 GMT 49.971268 3.416451 24,425 206 457 896
2021-09-03 14:22:19 GMT 49.986649 3.427662 24,400 206 457 896
2021-09-03 14:22:16 GMT 49.986649 3.427662 24,375 206 457 896
2021-09-03 14:22:14 GMT 49.989609 3.429813 24,350 206 457 896
2021-09-03 14:22:11 GMT 49.995522 3.434118 24,300 206 455 960
2021-09-03 14:22:07 GMT 50.002899 3.439516 24,000 206 454 960
2021-09-03 14:22:04 GMT 50.008694 3.443768 24,000 206 455 960
2021-09-03 14:22:01 GMT 50.021530 3.453104 24,100 206 455 960
2021-09-03 14:21:58 GMT 50.021530 3.453104 24,025 206 454 960
2021-09-03 14:21:55 GMT 50.026474 3.456718 23,925 206 454 960
2021-09-03 14:21:48 GMT 50.039749 3.466403 23,925 206 453 960
2021-09-03 14:21:46 GMT 50.048962 3.473164 23,850 206 453 1024
2021-09-03 14:21:43 GMT 50.048962 3.473164 23,850 206 452 960
2021-09-03 14:21:40 GMT 50.064194 3.484256 23,750 206 452 960
2021-09-03 14:21:36 GMT 50.064194 3.484256 23,625 206 450 896
2021-09-03 14:21:33 GMT 50.067169 3.486497 23,625 206 450 896
2021-09-03 14:21:29 GMT 50.077267 3.493875 23,600 206 450 960
2021-09-03 14:21:25 GMT 50.082825 3.497917 23,475 206 449 1024
2021-09-03 14:21:22 GMT 50.095699 3.507385 23,475 206 448 1088
2021-09-03 14:21:19 GMT 50.095699 3.507385 23,425 206 448 1088
2021-09-03 14:21:16 GMT 50.099716 3.510276 23,375 206 448 1088
2021-09-03 14:21:13 GMT 50.105530 3.514541 23,300 206 447 1152
2021-09-03 14:21:09 GMT 50.113403 3.520323 23,275 206 447 1152
2021-09-03 14:21:05 GMT 50.125580 3.529213 23,150 206 447 1216
2021-09-03 14:21:02 GMT 50.131638 3.533663 23,150 206 447 1216
2021-09-03 14:20:59 GMT 50.131638 3.533663 22,900 206 446 1280
2021-09-03 14:20:55 GMT 50.140549 3.540127 22,950 206 446 1280
2021-09-03 14:20:49 GMT 50.150726 3.547619 22,750 206 446 1280
2021-09-03 14:20:46 GMT 50.155754 3.551331 22,750 206 446 1344
2021-09-03 14:20:43 GMT 50.161526 3.555562 22,750 206 446 1344
2021-09-03 14:20:39 GMT 50.168602 3.560758 22,575 206 446 1472
2021-09-03 14:20:36 GMT 50.174187 3.564915 22,600 206 446 1408
2021-09-03 14:20:33 GMT 50.181126 3.569963 22,500 206 446 1472
2021-09-03 14:20:30 GMT 50.186337 3.573823 22,400 206 446 1472
2021-09-03 14:20:27 GMT 50.192780 3.578507 22,275 206 446 1408
2021-09-03 14:20:24 GMT 50.198547 3.582772 22,175 206 446 1408
2021-09-03 14:20:20 GMT 50.205093 3.587542 22,175 206 446 1408
2021-09-03 14:20:18 GMT 50.213654 3.593830 22,125 206 446 1408
2021-09-03 14:20:15 GMT 50.213654 3.593830 22,075 206 446 1408
2021-09-03 14:20:12 GMT 50.219528 3.598097 22,000 206 446 1408
2021-09-03 14:20:08 GMT 50.225967 3.602793 21,925 206 446 1344
2021-09-03 14:20:05 GMT 50.231865 3.607079 21,850 205 445 1344
2021-09-03 14:20:03 GMT 50.234756 3.609153 21,750 205 445 1344
2021-09-03 14:20:00 GMT 50.240707 3.613490 21,750 205 445 1344
2021-09-03 14:19:58 GMT 50.244827 3.616453 21,500 205 445 1280
2021-09-03 14:19:54 GMT 50.253281 3.622593 21,625 205 445 1280
2021-09-03 14:19:50 GMT 50.260483 3.627873 21,525 206 444 1216
2021-09-03 14:19:47 GMT 50.274834 3.638479 21,425 206 443 1216
2021-09-03 14:19:43 GMT 50.274834 3.638479 21,300 209 442 1152
2021-09-03 14:19:40 GMT 50.280624 3.642907 21,300 208 442 1152
2021-09-03 14:19:37 GMT 50.285156 3.646666 21,225 212 440 1152
2021-09-03 14:19:34 GMT 50.291245 3.651870 21,200 211 441 1152
2021-09-03 14:19:31 GMT 50.294853 3.655107 21,100 211 441 1152
2021-09-03 14:19:28 GMT 50.300217 3.660110 21,100 212 441 1152
2021-09-03 14:19:25 GMT 50.311378 3.670844 20,975 214 438 1216
2021-09-03 14:19:22 GMT 50.311378 3.670844 20,975 213 439 1152
2021-09-03 14:19:17 GMT 50.318687 3.678193 20,900 214 438 1216
2021-09-03 14:19:14 GMT 50.325809 3.685542 20,750 215 437 1280
2021-09-03 14:19:11 GMT 50.334091 3.694297 20,675 216 436 1344
2021-09-03 14:19:08 GMT 50.334091 3.694297 20,700 215 436 1280
2021-09-03 14:19:03 GMT 50.341915 3.702912 20,575 218 435 1472
2021-09-03 14:19:00 GMT 50.352585 3.715041 20,450 216 436 1408
2021-09-03 14:18:57 GMT 50.352585 3.715041 20,450 218 435 1472
2021-09-03 14:18:54 GMT 50.358856 3.722486 20,350 218 435 1472
2021-09-03 14:18:51 GMT 50.361141 3.725256 20,225 220 435 1536
2021-09-03 14:18:48 GMT 50.367416 3.732894 20,200 220 435 1536
2021-09-03 14:18:43 GMT 50.374687 3.742107 20,050 221 435 1536
2021-09-03 14:18:40 GMT 50.378448 3.747061 20,050 221 435 1536
2021-09-03 14:18:38 GMT 50.382614 3.752554 19,950 221 434 1472
2021-09-03 14:18:36 GMT 50.384125 3.754578 19,875 229 432 1408
2021-09-03 14:18:33 GMT 50.390717 3.763757 19,825 223 434 1472
2021-09-03 14:18:30 GMT 50.393692 3.768021 19,625 224 434 1408
2021-09-03 14:18:26 GMT 50.398849 3.775734 19,700 227 433 1536
2021-09-03 14:18:23 GMT 50.403969 3.783677 19,600 226 433 1472
2021-09-03 14:18:20 GMT 50.408478 3.791006 19,550 227 433 1536
2021-09-03 14:18:17 GMT 50.412537 3.797781 19,300 229 432 1408
2021-09-03 14:18:12 GMT 50.419472 3.809806 19,275 229 432 1408
2021-09-03 14:18:09 GMT 50.422684 3.815448 19,275 229 432 1408
2021-09-03 14:18:06 GMT 50.426270 3.821758 19,125 229 432 1408
2021-09-03 14:18:03 GMT 50.431019 3.830146 19,125 229 418 1472
2021-09-03 14:18:00 GMT 50.435715 3.838421 18,950 229 430 1408
2021-09-03 14:17:57 GMT 50.440559 3.846922 18,950 229 430 1408
2021-09-03 14:17:53 GMT 50.444099 3.853232 18,025 229 429 1536
2021-09-03 14:17:50 GMT 50.448986 3.861843 18,800 229 429 1472
2021-09-03 14:17:47 GMT 50.452194 3.867549 18,675 229 429 1536
2021-09-03 14:17:43 GMT 50.457870 3.877523 18,625 229 429 1408
2021-09-03 14:17:40 GMT 50.462021 3.884855 18,550 229 427 1408
2021-09-03 14:17:38 GMT 50.463913 3.888221 18,375 229 428 1472
2021-09-03 14:17:35 GMT 50.467793 3.895024 18,400 229 427 1408
2021-09-03 14:17:32 GMT 50.471695 3.901881 18,275 229 426 1408
2021-09-03 14:17:29 GMT 50.476410 3.910121 18,275 229 426 1408
2021-09-03 14:17:27 GMT 50.478745 3.914313 18,250 229 426 1408
2021-09-03 14:17:24 GMT 50.482224 3.920412 18,150 229 425 1472
2021-09-03 14:17:21 GMT 50.486832 3.928429 18,025 229 424 1536
2021-09-03 14:17:18 GMT 50.493439 3.939972 17,925 229 424 1536
2021-09-03 14:17:15 GMT 50.493439 3.939972 17,825 229 424 1536
2021-09-03 14:17:12 GMT 50.498520 3.948934 17,875 229 424 1472
2021-09-03 14:17:09 GMT 50.501038 3.953271 17,750 229 422 1408
2021-09-03 14:17:06 GMT 50.507084 3.963837 17,725 229 422 1408
2021-09-03 14:17:03 GMT 50.509689 3.968440 17,650 229 421 1408
2021-09-03 14:17:00 GMT 50.518116 3.983212 17,350 229 419 1408
2021-09-03 14:16:57 GMT 50.518116 3.983212 17,500 229 419 1408
2021-09-03 14:16:53 GMT 50.526634 3.998133 17,375 229 419 1408
2021-09-03 14:16:51 GMT 50.526634 3.998133 17,325 229 417 1536
2021-09-03 14:16:47 GMT 50.530777 4.005407 17,275 229 418 1536
2021-09-03 14:16:45 GMT 50.533058 4.009490 17,225 229 417 1536
2021-09-03 14:16:42 GMT 50.537296 4.016913 17,150 229 417 1600
2021-09-03 14:16:40 GMT 50.539482 4.020773 17,000 229 415 1664
2021-09-03 14:16:37 GMT 50.545910 4.031982 16,650 229 415 1600
2021-09-03 14:16:32 GMT 50.550476 4.040005 16,600 229 415 1600
2021-09-03 14:16:29 GMT 50.557175 4.051802 16,750 229 415 1600
2021-09-03 14:16:27 GMT 50.557175 4.051802 16,725 229 415 1600
2021-09-03 14:16:23 GMT 50.561462 4.059304 16,500 229 414 1536
2021-09-03 14:16:20 GMT 50.565125 4.065809 16,425 229 413 1536
2021-09-03 14:16:17 GMT 50.575375 4.083796 16,400 229 412 1472
2021-09-03 14:16:13 GMT 50.575375 4.083796 16,350 229 412 1536
2021-09-03 14:16:09 GMT 50.580311 4.092481 16,250 229 411 1600
2021-09-03 14:16:06 GMT 50.583103 4.097381 16,175 229 410 1664
2021-09-03 14:16:03 GMT 50.586872 4.104062 16,125 229 410 1664
2021-09-03 14:16:00 GMT 50.590347 4.110188 16,075 229 410 1600
2021-09-03 14:15:57 GMT 50.594555 4.117646 15,900 229 407 1728
2021-09-03 14:15:54 GMT 50.599182 4.125728 15,825 229 407 1728
2021-09-03 14:15:51 GMT 50.602982 4.132418 15,725 229 407 1664
2021-09-03 14:15:48 GMT 50.606827 4.139171 12,900 229 406 1600
2021-09-03 14:15:45 GMT 50.609573 4.144014 15,600 229 406 1600
2021-09-03 14:15:42 GMT 50.612961 4.149941 15,550 229 406 1536
2021-09-03 14:15:39 GMT 50.621277 4.164561 15,400 229 405 1472
2021-09-03 14:15:36 GMT 50.621277 4.164561 15,375 229 405 1472
2021-09-03 14:15:33 GMT 50.625183 4.171480 15,250 229 402 1600
2021-09-03 14:15:30 GMT 50.629002 4.178071 15,225 229 402 1600
2021-09-03 14:15:26 GMT 50.633194 4.185357 15,125 229 402 1728
2021-09-03 14:15:22 GMT 50.638313 4.194402 14,975 228 401 1856
2021-09-03 14:15:19 GMT 50.641251 4.199452 14,825 228 400 1920
2021-09-03 14:15:16 GMT 50.645737 4.207258 14,600 228 399 0
2021-09-03 14:15:13 GMT 50.650791 4.215929 14,675 228 399 1920
2021-09-03 14:15:10 GMT 50.653198 4.220123 14,600 228 399 1920
2021-09-03 14:15:07 GMT 50.656952 4.226556 14,525 228 399 1920
2021-09-03 14:15:03 GMT 50.661804 4.234940 13,975 228 393 1920
2021-09-03 14:15:00 GMT 50.665501 4.241168 14,275 227 398 1664
2021-09-03 14:14:57 GMT 50.670090 4.248962 14,075 227 396 1728
2021-09-03 14:14:54 GMT 50.673412 4.254532 13,975 227 395 1792
2021-09-03 14:14:51 GMT 50.676300 4.259415 13,975 227 395 1792
2021-09-03 14:14:48 GMT 50.680756 4.266852 13,975 227 395 1792
2021-09-03 14:14:44 GMT 50.685287 4.274350 13,825 227 395 1920
2021-09-03 14:14:41 GMT 50.689224 4.280808 13,775 227 395 1920
2021-09-03 14:14:38 GMT 50.693058 4.287109 13,625 227 395 1920
2021-09-03 14:14:35 GMT 50.696640 4.293056 13,375 229 393 1984
2021-09-03 14:14:32 GMT 50.701035 4.300331 13,425 227 394 1920
2021-09-03 14:14:29 GMT 50.704792 4.306717 13,275 229 393 1984
2021-09-03 14:14:26 GMT 50.708633 4.313470 13,250 229 393 1984
2021-09-03 14:14:23 GMT 50.712147 4.319839 13,175 231 394 1920
2021-09-03 14:14:21 GMT 50.713943 4.323269 13,075 234 393 1920
2021-09-03 14:14:18 GMT 50.717972 4.331434 13,000 236 393 1920
2021-09-03 14:14:14 GMT 50.721409 4.339294 12,775 239 393 1856
2021-09-03 14:14:11 GMT 50.724747 4.347691 12,775 241 393 1984
2021-09-03 14:14:08 GMT 50.727741 4.355698 12,500 241 393 1984
2021-09-03 14:14:05 GMT 50.730698 4.363799 12,500 240 393 1920
2021-09-03 14:14:02 GMT 50.732529 4.368699 12,550 235 390 1728
2021-09-03 14:13:59 GMT 50.738960 4.384384 12,350 235 390 1728
2021-09-03 14:13:56 GMT 50.738960 4.384384 12,325 235 389 1728
2021-09-03 14:13:53 GMT 50.741100 4.388962 12,275 234 389 1728
2021-09-03 14:13:50 GMT 50.745026 4.397204 12,150 232 388 1728
2021-09-03 14:13:47 GMT 50.748505 4.404033 12,050 234 385 1856
2021-09-03 14:13:44 GMT 50.752487 4.411605 11,975 230 385 1920
2021-09-03 14:13:41 GMT 50.754974 4.416275 11,900 231 385 1984
2021-09-03 14:13:38 GMT 50.758392 4.422888 11,675 233 385 1856
2021-09-03 14:13:35 GMT 50.762421 4.431305 11,725 236 385 1664
2021-09-03 14:13:32 GMT 50.768475 4.445801 11,575 238 385 1472
2021-09-03 14:13:29 GMT 50.768475 4.445801 11,400 241 384 1216
2021-09-03 14:13:26 GMT 50.769928 4.449834 11,400 241 384 1216
2021-09-03 14:13:23 GMT 50.772942 4.458771 11,425 244 381 1024
2021-09-03 14:13:19 GMT 50.776016 4.468460 11,350 244 377 704
2021-09-03 14:13:16 GMT 50.779129 4.478488 11,325 244 374 704
2021-09-03 14:13:13 GMT 50.783295 4.491701 11,250 244 372 704
2021-09-03 14:13:10 GMT 50.785629 4.499198 11,250 244 369 704
2021-09-03 14:13:07 GMT 50.785629 4.499198 11,225 244 368 704
2021-09-03 14:13:04 GMT 50.787506 4.505211 11,175 244 365 768
2021-09-03 14:13:01 GMT 50.791855 4.519241 10,925 244 353 832
2021-09-03 14:12:58 GMT 50.791855 4.519241 11,000 244 360 768
2021-09-03 14:12:55 GMT 50.794403 4.527359 11,075 244 357 768
2021-09-03 14:12:52 GMT 50.795837 4.531935 11,050 244 356 768
2021-09-03 14:12:48 GMT 50.799198 4.542694 10,950 244 350 768
2021-09-03 14:12:45 GMT 50.802132 4.552078 10,925 244 347 768
2021-09-03 14:12:42 GMT 50.803062 4.555054 10,925 244 346 768
2021-09-03 14:12:38 GMT 50.806412 4.565784 10,850 244 341 768
2021-09-03 14:12:35 GMT 50.810230 4.578171 10,775 244 336 704
2021-09-03 14:12:32 GMT 50.812592 4.585679 10,775 244 336 704
2021-09-03 14:12:29 GMT 50.812592 4.585679 10,700 244 326 768
2021-09-03 14:12:26 GMT 50.815166 4.593887 10,700 244 327 768
2021-09-03 14:12:23 GMT 50.816284 4.597549 10,675 244 326 768
2021-09-03 14:12:20 GMT 50.818703 4.605255 10,650 244 323 768
2021-09-03 14:12:17 GMT 50.822708 4.618073 10,525 244 314 768
2021-09-03 14:12:14 GMT 50.823730 4.621429 10,450 244 307 768
2021-09-03 14:12:12 GMT 50.826233 4.629327 10,450 244 307 768
2021-09-03 14:12:09 GMT 50.826233 4.629327 10,500 244 312 704
2021-09-03 14:12:06 GMT 50.827469 4.633410 10,475 244 310 704
2021-09-03 14:12:03 GMT 50.829300 4.639348 10,400 244 307 768
2021-09-03 14:12:00 GMT 50.831314 4.645732 10,375 244 301 1088
2021-09-03 14:11:57 GMT 50.833191 4.651671 10,250 244 298 1856
2021-09-03 14:11:54 GMT 50.834885 4.657238 10,150 244 298 2112
2021-09-03 14:11:51 GMT 50.837036 4.664067 10,150 244 298 2112
2021-09-03 14:11:47 GMT 50.839188 4.671119 9,975 244 297 2048
2021-09-03 14:11:44 GMT 50.841236 4.677658 9,850 244 296 1920
2021-09-03 14:11:41 GMT 50.843239 4.683990 9,800 244 295 2048
2021-09-03 14:11:38 GMT 50.845139 4.690123 9,650 244 295 2304
2021-09-03 14:11:35 GMT 50.846916 4.695816 9,525 244 294 2304
2021-09-03 14:11:32 GMT 50.848480 4.700961 9,475 244 294 2304
2021-09-03 14:11:29 GMT 50.850033 4.705887 9,250 244 294 2304
2021-09-03 14:11:26 GMT 50.851959 4.712096 9,275 244 293 2304
2021-09-03 14:11:23 GMT 50.854130 4.719162 9,050 244 292 2368
2021-09-03 14:11:20 GMT 50.855991 4.725113 8,975 244 292 2432
2021-09-03 14:11:16 GMT 50.857903 4.731216 8,850 244 292 2560
2021-09-03 14:11:12 GMT 50.860245 4.738819 8,600 244 292 2624
2021-09-03 14:11:09 GMT 50.861984 4.744386 8,550 244 293 2496
2021-09-03 14:11:06 GMT 50.867065 4.760940 8,175 244 293 2496
2021-09-03 14:11:01 GMT 50.867065 4.760940 8,200 245 293 2304
2021-09-03 14:10:58 GMT 50.868607 4.765930 8,075 245 293 2304
2021-09-03 14:10:55 GMT 50.870052 4.770737 8,025 245 292 2112
2021-09-03 14:10:52 GMT 50.872055 4.777345 7,900 245 291 1984
2021-09-03 14:10:49 GMT 50.873447 4.782104 7,825 238 286 2176
2021-09-03 14:10:46 GMT 50.875717 4.789668 7,575 243 287 2112
2021-09-03 14:10:43 GMT 50.877777 4.796275 7,550 243 287 2112
2021-09-03 14:10:40 GMT 50.882263 4.808374 6,950 238 286 2176
2021-09-03 14:10:35 GMT 50.882263 4.808374 7,250 229 285 2240
2021-09-03 14:10:32 GMT 50.885971 4.815426 7,150 227 284 2240
2021-09-03 14:10:29 GMT 50.891560 4.823074 6,950 189 279 2304
2021-09-03 14:10:25 GMT 50.891560 4.823074 6,900 213 282 2432
2021-09-03 14:10:22 GMT 50.896072 4.827499 6,775 207 281 2496
2021-09-03 14:10:19 GMT 50.898869 4.829636 6,400 189 279 2304
2021-09-03 14:10:15 GMT 50.903687 4.832351 6,350 189 279 2304
2021-09-03 14:10:12 GMT 50.907524 4.833679 6,250 185 278 2176
2021-09-03 14:10:09 GMT 50.911560 4.834430 6,225 171 275 2176
2021-09-03 14:10:06 GMT 50.915298 4.834442 6,150 175 275 2048
2021-09-03 14:10:03 GMT 50.919907 4.833832 6,025 173 275 2112
2021-09-03 14:10:00 GMT 50.921814 4.833242 5,600 131 269 1728
2021-09-03 14:09:57 GMT 50.926987 4.831238 5,675 160 273 2432
2021-09-03 14:09:53 GMT 50.931408 4.828568 5,275 157 273 2496
2021-09-03 14:09:50 GMT 50.935921 4.825058 5,300 148 272 2432
2021-09-03 14:09:47 GMT 50.937378 4.823740 5,450 148 272 2432
2021-09-03 14:09:44 GMT 50.940533 4.820633 5,325 143 272 2240
2021-09-03 14:09:41 GMT 50.944210 4.816132 5,175 134 270 1856
2021-09-03 14:09:38 GMT 50.946854 4.812086 5,075 125 268 1600
2021-09-03 14:09:35 GMT 50.949097 4.808044 5,000 125 268 1600
2021-09-03 14:09:32 GMT 50.951889 4.801788 4,925 120 267 1664
2021-09-03 14:09:29 GMT 50.955429 4.790039 4,550 100 262 1920
2021-09-03 14:09:25 GMT 50.955429 4.790039 4,700 105 263 1856
2021-09-03 14:09:19 GMT 50.957058 4.780197 4,475 95 261 2112
2021-09-03 14:09:16 GMT 50.957523 4.774323 4,400 90 260 2368
2021-09-03 14:09:13 GMT 50.957661 4.768600 4,025 73 254 1088
2021-09-03 14:09:08 GMT 50.957104 4.757614 4,025 80 215 320
2021-09-03 14:09:05 GMT 50.956730 4.753876 4,025 76 259 1536
2021-09-03 14:09:02 GMT 50.954956 4.742828 3,975 73 254 1088
2021-09-03 14:08:59 GMT 50.954956 4.742828 3,925 73 254 1088
2021-09-03 14:08:54 GMT 50.953217 4.733252 3,825 73 249 1088
2021-09-03 14:08:50 GMT 50.952076 4.727097 3,750 73 241 1088
2021-09-03 14:08:47 GMT 50.950790 4.720187 3,675 80 211 64
2021-09-03 14:08:42 GMT 50.949795 4.714203 3,625 75 237 1152
2021-09-03 14:08:39 GMT 50.948730 4.706974 3,550 77 231 960
2021-09-03 14:08:33 GMT 50.947449 4.697175 3,475 79 222 640
2021-09-03 14:08:30 GMT 50.946579 4.689752 3,450 80 215 320
2021-09-03 14:08:27 GMT 50.946579 4.689752 3,450 80 215 320
2021-09-03 14:08:24 GMT 50.946072 4.685059 3,425 75 188 512
2021-09-03 14:08:21 GMT 50.945572 4.679879 3,425 75 188 512
2021-09-03 14:08:18 GMT 50.945141 4.675446 3,425 81 199 448
2021-09-03 14:08:15 GMT 50.944580 4.669571 3,375 81 194 704
2021-09-03 14:08:12 GMT 50.944393 4.667587 3,300 75 188 512
2021-09-03 14:08:08 GMT 50.943558 4.660263 3,300 76 189 576
2021-09-03 14:08:03 GMT 50.942577 4.654694 3,250 70 185 448
2021-09-03 14:08:00 GMT 50.941696 4.650955 3,250 64 180 384
2021-09-03 14:07:57 GMT 50.940624 4.647217 3,225 62 178 320
2021-09-03 14:07:53 GMT 50.939228 4.643097 3,175 60 162 960
2021-09-03 14:07:50 GMT 50.937969 4.639511 3,200 61 167 320
2021-09-03 14:07:47 GMT 50.936874 4.636379 3,175 61 164 512
2021-09-03 14:07:43 GMT 50.935364 4.631925 3,125 61 161 1024
2021-09-03 14:07:39 GMT 50.934128 4.628436 3,025 60 160 1024
2021-09-03 14:07:36 GMT 50.932892 4.624947 3,000 60 160 1024
2021-09-03 14:07:33 GMT 50.931793 4.621755 2,925 61 158 1280
2021-09-03 14:07:30 GMT 50.930523 4.618149 2,850 61 159 1600
2021-09-03 14:07:26 GMT 50.929550 4.615371 2,775 60 160 1728
2021-09-03 14:07:23 GMT 50.927948 4.610769 2,650 61 163 1600
2021-09-03 14:07:19 GMT 50.926849 4.607651 2,600 60 163 1152
2021-09-03 14:07:12 GMT 50.923073 4.597244 2,450 60 162 1088
2021-09-03 14:07:09 GMT 50.923073 4.597244 2,400 59 161 1088
2021-09-03 14:07:02 GMT 50.920235 4.589310 2,300 60 159 1152
2021-09-03 14:06:59 GMT 50.919296 4.586718 2,250 60 159 1152
2021-09-03 14:06:51 GMT 50.916325 4.578629 2,075 60 159 1408
2021-09-03 14:06:48 GMT 50.913071 4.569496 1,825 60 160 1216
2021-09-03 14:06:42 GMT 50.911808 4.565887 1,800 61 159 1280
2021-09-03 14:06:39 GMT 50.911808 4.565887 1,800 61 160 1600
2021-09-03 14:06:31 GMT 50.909389 4.558716 1,450 61 162 1856
2021-09-03 14:06:28 GMT 50.908173 4.555169 1,450 61 161 1664
2021-09-03 14:06:22 GMT 50.906036 4.548798 1,225 62 157 1920
2021-09-03 14:06:19 GMT 50.904877 4.545296 1,100 62 155 1984
2021-09-03 14:06:12 GMT 50.902771 4.538541 875 66 157 2048
2021-09-03 14:06:07 GMT 50.901535 4.534236 775 68 156 2112
2021-09-03 14:06:02 GMT 50.900024 4.527926 525 69 156 2496
2021-09-03 14:05:58 GMT 50.898869 4.523087 350 69 160 2496
2021-09-03 14:05:44 GMT 50.895447 4.508106 0 69 161 320
2021-09-03 14:05:37 GMT 50.893890 4.501351 25 70 131 0
2021-09-03 14:05:23 GMT 50.891453 4.490884 0 70 84
2021-09-03 14:05:20 GMT 50.891029 4.489029 0 70 72
2021-09-03 14:05:10 GMT 50.890209 4.485493 0 70 35
2021-09-03 14:04:54 GMT 50.889938 4.484329 0 70 0
2021-09-03 14:04:38 GMT 50.889942 4.484333 0 70 0
2021-09-03 14:04:19 GMT 50.889938 4.484329 0 70 0
2021-09-03 14:03:39 GMT 50.889942 4.484333 0 70 0
2021-09-03 14:03:28 GMT 50.889931 4.484291 0 70 4
2021-09-03 14:03:18 GMT 50.889839 4.483907 0 70 8
2021-09-03 14:03:10 GMT 50.889759 4.483517 0 70 7
2021-09-03 14:03:07 GMT 50.889732 4.483376 0 70 6
2021-09-03 14:03:03 GMT 50.889690 4.483201 0 70 5
2021-09-03 14:02:56 GMT 50.889633 4.482979 0 70 4
2021-09-03 14:02:46 GMT 50.889568 4.482708 0 70 6
2021-09-03 14:02:35 GMT 50.889427 4.482162 0 73 8
2021-09-03 14:02:28 GMT 50.889347 4.481850 0 81 7
2021-09-03 14:02:25 GMT 50.889313 4.481716 0 84 6
2021-09-03 14:02:22 GMT 50.889301 4.481602 0 87 6
2021-09-03 14:02:13 GMT 50.889278 4.481271 0 95 4
2021-09-03 14:02:04 GMT 50.889278 4.481049 0 101 4
2021-09-03 14:02:01 GMT 50.889290 4.480972 0 101 4
2021-09-03 14:01:50 GMT 50.889324 4.480648 0 104 5
2021-09-03 14:01:33 GMT 50.889416 4.479942 0 115 8
2021-09-03 14:01:25 GMT 50.889500 4.479504 0 146 10
2021-09-03 14:01:17 GMT 50.889870 4.479103 0 171 13
2021-09-03 14:01:11 GMT 50.890102 4.478989 0 188 16
2021-09-03 14:01:05 GMT 50.890617 4.479211 0 239 17
2021-09-03 14:00:53 GMT 50.890995 4.480529 0 250 20
2021-09-03 14:00:44 GMT 50.891293 4.481809 0 250 19
2021-09-03 14:00:33 GMT 50.891613 4.483220 0 250 18
2021-09-03 14:00:26 GMT 50.891815 4.484043 0 250 18
2021-09-03 14:00:20 GMT 50.891956 4.484723 0 250 17
2021-09-03 14:00:11 GMT 50.892197 4.485741 0 250 16
2021-09-03 14:00:08 GMT 50.892265 4.486022 0 250 16
2021-09-03 13:59:58 GMT 50.892506 4.487043 0 250 15
2021-09-03 13:59:49 GMT 50.892723 4.488008 0 250 14
2021-09-03 13:59:42 GMT 50.892849 4.488544 0 250 11
2021-09-03 13:59:39 GMT 50.892906 4.488869 0 244 9
2021-09-03 13:59:27 GMT 50.893044 4.489437 0 213 9
2021-09-03 13:59:17 GMT 50.893375 4.489771 0 194 9
2021-09-03 13:59:07 GMT 50.893764 4.489919 0 194 9
2021-09-03 13:58:54 GMT 50.894257 4.490108 0 194 9
2021-09-03 13:56:46 GMT 50.894806 4.490337 0 194 3
2021-09-03 13:56:26 GMT 50.895226 4.490490 0 196 8
2021-09-03 13:56:21 GMT 50.895409 4.490566 0 196 11
2021-09-03 13:56:13 GMT 50.895824 4.490773 0 208 15
2021-09-03 13:56:06 GMT 50.896271 4.491215 0 208 15
2021-09-03 13:55:58 GMT 50.896751 4.491571 0 194 14
2021-09-03 13:55:50 GMT 50.897179 4.491749 0 194 13
2021-09-03 13:55:39 GMT 50.897770 4.491979 0 194 12
2021-09-03 13:55:28 GMT 50.898331 4.492226 0 194 11
2021-09-03 13:55:23 GMT 50.898621 4.492340 0 194 11
2021-09-03 13:55:17 GMT 50.898857 4.492443 0 188 11
2021-09-03 13:55:09 GMT 50.899216 4.492607 0 146 11
2021-09-03 13:54:57 GMT 50.899624 4.492111 0 81 10
2021-09-03 13:54:49 GMT 50.899578 4.491571 0 67 8
2021-09-03 13:54:38 GMT 50.899437 4.491043 0 64 7
2021-09-03 13:54:28 GMT 50.899349 4.490773 0 64 0
2021-09-03 13:54:17 GMT 50.899345 4.490757 0 64 0
2021-09-03 13:54:07 GMT 50.899361 4.490754 0 64 0
2021-09-03 13:53:57 GMT 50.899345 4.490757 0 64 0
2021-09-03 13:53:48 GMT 50.899349 4.490754 0 64 0
2021-09-03 13:53:22 GMT 50.899357 4.490757 0 64 0
2021-09-03 13:52:37 GMT 50.899349 4.490754 0 64 0
2021-09-03 13:52:17 GMT 50.899345 4.490757 0 64 0
2021-09-03 13:51:47 GMT 50.899349 4.490754 0 64 0
2021-09-03 13:51:44 GMT 50.899345 4.490757 0 64 0
2021-09-03 13:51:39 GMT 50.899349 4.490754 0 64 0
2021-09-03 13:51:33 GMT 50.899345 4.490757 0 64 0
2021-09-03 13:51:25 GMT 50.899372 4.490847 0 64 5
We lost coverage of the aircraft here for a total of 64 minutes
2021-09-03 12:47:37 GMT 50.900612 4.490776 0 334 0 0
2021-09-03 12:47:16 GMT 50.900608 4.490773 0 334 0 0
2021-09-03 12:47:06 GMT 50.900612 4.490776 0 334 0 0
2021-09-03 12:46:32 GMT 50.900608 4.490773 0 334 0 0
2021-09-03 12:46:17 GMT 50.900612 4.490776 0 334 0 0
2021-09-03 12:45:47 GMT 50.900612 4.490757 0 334 0 0
2021-09-03 12:44:37 GMT 50.900612 4.490757 0 334 0 0
2021-09-03 12:44:22 GMT 50.900608 4.490754 0 334 0 0
We lost coverage of the aircraft here for a total of 6 minutes
2021-09-03 12:38:41 GMT 50.900600 4.490776 0 334 0 0
2021-09-03 12:38:41 GMT 50.900600 4.490776 0 334 0 0
2021-09-03 12:38:41 GMT 50.900600 4.490776 0 334 0 0
2021-09-03 12:38:41 GMT 50.900600 4.490776 0 334 0 0
2021-09-03 12:38:31 GMT 50.900600 4.490776 0 334 0 0
2021-09-03 12:38:31 GMT 50.900600 4.490776 0 334 0 0
2021-09-03 12:38:22 GMT 50.900597 4.490773 0 334 0 0
2021-09-03 12:38:11 GMT 50.900600 4.490776 0 334 0 0
2021-09-03 12:37:31 GMT 50.900597 4.490773 0 334 0 0
2021-09-03 12:34:51 GMT 50.900597 4.490773 0 334 0 0
2021-09-03 12:34:27 GMT 50.900589 4.490776 0 334 0 0
2021-09-03 12:33:46 GMT 50.900585 4.490773 0 334 0 0
2021-09-03 12:33:10 GMT 50.900597 4.490773 0 334 0 0
2021-09-03 12:32:45 GMT 50.900600 4.490776 0 334 0 0
2021-09-03 12:31:54 GMT 50.900597 4.490773 0 334 0 0
2021-09-03 12:31:25 GMT 50.900600 4.490776 0 334 0 0
2021-09-03 12:31:15 GMT 50.900597 4.490773 0 334 0 0
2021-09-03 12:28:09 GMT 50.900608 4.490792 0 334 0 0
2021-09-03 12:27:20 GMT 50.900600 4.490795 0 334 0 0
2021-09-03 12:24:25 GMT 50.900597 4.490773 0 334 0 0
2021-09-03 12:23:50 GMT 50.900589 4.490776 0 334 0 0
2021-09-03 12:22:55 GMT 50.900600 4.490776 0 334 0 0
2021-09-03 12:22:21 GMT 50.900589 4.490776 0 334 0 0
We lost coverage of the aircraft here for a total of 10 minutes
2021-09-03 12:12:33 GMT 50.900600 4.490776 0 334 0 0
2021-09-03 12:12:33 GMT 50.900600 4.490776 0 334 0 0
2021-09-03 12:12:33 GMT 50.900600 4.490776 0 334 0 0
2021-09-03 12:12:33 GMT 50.900600 4.490776 0 334 0 0
2021-09-03 12:12:33 GMT 50.900600 4.490776 0 334 0 0
2021-09-03 12:12:33 GMT 50.900600 4.490776 0 334 0 0
2021-09-03 12:12:18 GMT 50.900597 4.490773 0 334 0 0
2021-09-03 12:11:50 GMT 50.900600 4.490776 0 334 0 0
2021-09-03 12:11:39 GMT 50.900574 4.490792 0 334 2 0
2021-09-03 12:11:28 GMT 50.900448 4.490884 0 334 3 0
2021-09-03 12:11:22 GMT 50.900368 4.490929 0 334 6 0
2021-09-03 12:11:13 GMT 50.900101 4.491100 0 334 8 0
2021-09-03 12:11:05 GMT 50.899818 4.491181 0 309 8 0
2021-09-03 12:10:54 GMT 50.899567 4.491515 0 250 11 0
2021-09-03 12:10:48 GMT 50.899658 4.491959 0 247 12 0
2021-09-03 12:10:43 GMT 50.899738 4.492397 0 230 13 0
2021-09-03 12:10:38 GMT 50.899887 4.492796 0 199 12 0
2021-09-03 12:10:28 GMT 50.900585 4.493130 0 194 17 0
2021-09-03 12:10:23 GMT 50.901020 4.493297 0 194 16 0
2021-09-03 12:10:16 GMT 50.901382 4.493446 0 194 16 0
2021-09-03 12:10:13 GMT 50.901611 4.493542 0 194 15 0
2021-09-03 12:10:08 GMT 50.902027 4.493705 0 194 15 0
2021-09-03 12:09:59 GMT 50.902519 4.493904 0 194 15 0
2021-09-03 12:09:52 GMT 50.902920 4.494076 0 194 16 0
2021-09-03 12:09:47 GMT 50.903343 4.494243 0 194 19 0
2021-09-03 12:09:43 GMT 50.903721 4.494392 0 194 19 0
2021-09-03 12:09:37 GMT 50.904270 4.494614 0 194 19 0
2021-09-03 12:09:32 GMT 50.904606 4.494762 0 194 19 0
2021-09-03 12:09:27 GMT 50.904999 4.494934 0 194 19 0
2021-09-03 12:09:22 GMT 50.905396 4.495087 0 194 18 0
2021-09-03 12:09:15 GMT 50.905930 4.495301 0 194 18 0
2021-09-03 12:09:11 GMT 50.906239 4.495412 0 194 18 0
2021-09-03 12:09:01 GMT 50.907024 4.495754 0 194 16 0
2021-09-03 12:08:52 GMT 50.907665 4.495983 0 208 14 0
2021-09-03 12:08:41 GMT 50.908150 4.496582 0 244 14 0
2021-09-03 12:08:31 GMT 50.908421 4.497471 0 247 13 0
2021-09-03 12:08:25 GMT 50.908596 4.498005 0 270 13 0
2021-09-03 12:08:20 GMT 50.908665 4.498308 0 295 13 0
2021-09-03 12:08:10 GMT 50.908329 4.498978 0 343 15 0
2021-09-03 12:08:00 GMT 50.907452 4.499273 0 357 25 0
2021-09-03 12:07:53 GMT 50.906616 4.499310 0 8 29 0
2021-09-03 12:07:48 GMT 50.905945 4.499149 0 14 27 0
2021-09-03 12:07:39 GMT 50.904350 4.498530 0 14 52 0
2021-09-03 12:07:34 GMT 50.903263 4.498066 0 14 59 0
2021-09-03 12:07:27 GMT 50.900974 4.497138 0 14 80 0
2021-09-03 12:07:23 GMT 50.899845 4.496708 -25 14 92 0
2021-09-03 12:07:12 GMT 50.893932 4.494247 -50 14 142 -384
2021-09-03 12:07:03 GMT 50.888580 4.492072 0 14 142 -512
2021-09-03 12:06:59 GMT 50.885880 4.490959 50 14 143 -704
2021-09-03 12:06:52 GMT 50.881783 4.489288 125 14 147 -896
2021-09-03 12:06:48 GMT 50.878693 4.488064 200 14 149 -960
2021-09-03 12:06:39 GMT 50.871964 4.485317 350 14 151 -576
2021-09-03 12:06:33 GMT 50.868439 4.483907 400 14 149 -832
2021-09-03 12:06:28 GMT 50.865490 4.482651 475 14 149 -832
2021-09-03 12:06:24 GMT 50.863113 4.481735 525 14 149 -704
2021-09-03 12:06:20 GMT 50.859695 4.480343 575 14 152 -576
2021-09-03 12:06:17 GMT 50.857819 4.479527 600 15 151 -576
2021-09-03 12:06:08 GMT 50.851524 4.476929 725 14 144 -768
2021-09-03 12:06:03 GMT 50.848663 4.475815 775 14 144 -896
2021-09-03 12:05:59 GMT 50.846237 4.474776 825 14 146 -832
2021-09-03 12:05:56 GMT 50.841888 4.473038 1,050 14 150 -1024
2021-09-03 12:05:53 GMT 50.841888 4.473038 925 14 149 -960
2021-09-03 12:05:47 GMT 50.837372 4.471130 1,050 14 151 -704
2021-09-03 12:05:40 GMT 50.830761 4.468460 1,250 14 153 -640
2021-09-03 12:05:36 GMT 50.830761 4.468460 1,150 14 153 -640
2021-09-03 12:05:33 GMT 50.827881 4.467279 2,025 14 152 -640
2021-09-03 12:05:29 GMT 50.825912 4.466462 1,250 14 151 -768
2021-09-03 12:05:25 GMT 50.823578 4.465571 1,275 13 151 -704
2021-09-03 12:05:19 GMT 50.819077 4.463730 1,350 14 148 -640
2021-09-03 12:05:15 GMT 50.816895 4.462825 1,400 14 148 -832
2021-09-03 12:05:12 GMT 50.813862 4.461594 1,475 13 150 -1024
2021-09-03 12:05:08 GMT 50.812092 4.460907 1,600 14 151 -1088
2021-09-03 12:05:05 GMT 50.810139 4.460144 1,550 14 151 -1088
2021-09-03 12:05:01 GMT 50.807251 4.459000 1,625 13 153 -960
2021-09-03 12:04:58 GMT 50.804787 4.458084 1,675 13 153 -896
2021-09-03 12:04:55 GMT 50.803062 4.457397 1,725 13 154 -768
2021-09-03 12:04:52 GMT 50.800175 4.456253 1,800 14 153 -704
2021-09-03 12:04:48 GMT 50.798264 4.455476 1,800 15 150 -640
2021-09-03 12:04:44 GMT 50.793869 4.453620 1,875 14 145 -576
2021-09-03 12:04:39 GMT 50.792450 4.453026 1,900 14 144 -640
2021-09-03 12:04:35 GMT 50.789383 4.451764 2,100 15 146 -640
2021-09-03 12:04:32 GMT 50.786816 4.450684 2,000 14 145 -640
2021-09-03 12:04:28 GMT 50.784897 4.449834 2,025 13 148 -640
2021-09-03 12:04:25 GMT 50.783279 4.449234 2,100 13 151 -1088
2021-09-03 12:04:20 GMT 50.779881 4.447937 2,125 14 153 -960
2021-09-03 12:04:17 GMT 50.777782 4.447174 2,175 14 153 -960
2021-09-03 12:04:14 GMT 50.776016 4.446419 2,275 14 159 -768
2021-09-03 12:04:11 GMT 50.773224 4.445267 2,250 14 159 -832
2021-09-03 12:04:08 GMT 50.770752 4.444267 2,325 14 162 -896
2021-09-03 12:04:03 GMT 50.767494 4.442902 2,375 14 164 -896
2021-09-03 12:04:00 GMT 50.765587 4.442139 2,425 14 164 -896
2021-09-03 12:03:55 GMT 50.761585 4.440460 2,625 14 169 -1024
2021-09-03 12:03:50 GMT 50.758347 4.439219 2,625 14 171 -1216
2021-09-03 12:03:47 GMT 50.755627 4.438095 2,675 14 176 -704
2021-09-03 12:03:44 GMT 50.753723 4.437289 2,700 14 176 -704
2021-09-03 12:03:41 GMT 50.747498 4.434839 2,850 13 186 0
2021-09-03 12:03:37 GMT 50.747498 4.434839 2,850 13 178 -1152
2021-09-03 12:03:33 GMT 50.744156 4.433577 2,850 13 178 -896
2021-09-03 12:03:30 GMT 50.742081 4.432755 2,900 13 186 0
2021-09-03 12:03:27 GMT 50.739212 4.431647 2,900 13 180 -704
2021-09-03 12:03:23 GMT 50.736282 4.430534 2,950 14 181 -832
2021-09-03 12:03:19 GMT 50.733536 4.429420 2,975 14 183 -640
2021-09-03 12:03:16 GMT 50.730743 4.428233 3,450 14 197 -448
2021-09-03 12:03:13 GMT 50.728020 4.427185 3,075 14 187 -960
2021-09-03 12:03:10 GMT 50.725159 4.426006 3,150 14 186 -1088
2021-09-03 12:03:06 GMT 50.721542 4.424521 3,225 13 186 -1152
2021-09-03 12:03:03 GMT 50.719826 4.423904 3,250 13 186 -1152
2021-09-03 12:02:59 GMT 50.716381 4.422531 3,325 14 186 -1024
2021-09-03 12:02:54 GMT 50.711586 4.420624 3,425 14 188 -704
2021-09-03 12:02:50 GMT 50.708588 4.419473 3,450 14 190 -448
2021-09-03 12:02:46 GMT 50.705612 4.418211 3,475 14 195 -384
2021-09-03 12:02:42 GMT 50.701996 4.416727 4,775 14 195 -384
2021-09-03 12:02:39 GMT 50.699112 4.415588 3,500 14 196 -448
2021-09-03 12:02:36 GMT 50.696365 4.414444 3,550 14 200 -448
2021-09-03 12:02:32 GMT 50.693153 4.413147 3,550 14 202 -448
2021-09-03 12:02:29 GMT 50.690128 4.411850 3,575 14 207 -448
2021-09-03 12:02:25 GMT 50.686478 4.410343 3,625 14 211 -640
2021-09-03 12:02:22 GMT 50.684170 4.409409 3,650 14 211 -704
2021-09-03 12:02:19 GMT 50.679886 4.407654 3,700 14 214 -576
2021-09-03 12:02:16 GMT 50.677872 4.406854 3,825 14 220 -1088
2021-09-03 12:02:13 GMT 50.674625 4.405441 3,725 15 218 -640
2021-09-03 12:02:08 GMT 50.670109 4.403588 3,800 14 220 -1024
2021-09-03 12:02:04 GMT 50.665649 4.401687 3,925 15 223 -1024
2021-09-03 12:02:01 GMT 50.663776 4.400915 3,925 15 223 -1024
2021-09-03 12:01:56 GMT 50.657776 4.398362 4,000 15 229 -960
2021-09-03 12:01:52 GMT 50.654617 4.396989 4,075 15 231 -960
2021-09-03 12:01:49 GMT 50.647522 4.393953 4,200 14 237 -640
2021-09-03 12:01:46 GMT 50.647522 4.393953 4,200 14 237 -640
2021-09-03 12:01:42 GMT 50.643436 4.392230 4,200 14 242 -960
2021-09-03 12:01:37 GMT 50.637955 4.389978 4,275 15 243 -1024
2021-09-03 12:01:34 GMT 50.635162 4.388821 4,300 15 245 -896
2021-09-03 12:01:30 GMT 50.630028 4.386663 4,375 14 248 -960
2021-09-03 12:01:27 GMT 50.627003 4.385401 4,425 14 248 -1216
2021-09-03 12:01:23 GMT 50.622620 4.383617 4,575 14 248 -1280
2021-09-03 12:01:19 GMT 50.618088 4.381738 4,600 13 250 -1216
2021-09-03 12:01:15 GMT 50.613968 4.380076 4,675 14 248 -960
2021-09-03 12:01:12 GMT 50.611221 4.379017 4,775 14 249 -896
2021-09-03 12:01:09 GMT 50.606369 4.377040 4,775 14 249 -832
2021-09-03 12:01:06 GMT 50.604126 4.376173 4,800 14 249 -832
2021-09-03 12:01:02 GMT 50.600048 4.374563 4,850 13 250 -704
2021-09-03 12:00:58 GMT 50.595154 4.372703 4,925 13 250 -896
2021-09-03 12:00:54 GMT 50.589981 4.370679 5,000 13 251 -1216
2021-09-03 12:00:51 GMT 50.585526 4.368921 5,200 13 250 -1856
2021-09-03 12:00:48 GMT 50.583893 4.368294 5,200 13 250 -1856
2021-09-03 12:00:44 GMT 50.575050 4.365061 5,350 12 250 -1408
2021-09-03 12:00:40 GMT 50.575050 4.365061 5,350 12 250 -1344
2021-09-03 12:00:37 GMT 50.570938 4.363524 5,425 13 251 -1152
2021-09-03 12:00:34 GMT 50.566948 4.361943 5,475 15 251 -960
2021-09-03 12:00:30 GMT 50.563843 4.360560 5,575 20 250 -1152
2021-09-03 12:00:27 GMT 50.559826 4.358529 5,575 20 250 -1152
2021-09-03 12:00:24 GMT 50.557129 4.356896 5,750 23 249 -1024
2021-09-03 12:00:21 GMT 50.550098 4.351922 5,750 27 250 -832
2021-09-03 12:00:18 GMT 50.550098 4.351922 5,750 27 250 -832
2021-09-03 12:00:14 GMT 50.546448 4.348924 5,825 28 250 -896
2021-09-03 12:00:10 GMT 50.541367 4.344659 5,875 28 250 -960
2021-09-03 12:00:05 GMT 50.537338 4.341334 5,925 27 251 -896
2021-09-03 12:00:02 GMT 50.533127 4.337793 5,975 28 252 -640
2021-09-03 11:59:55 GMT 50.526913 4.332548 6,050 28 253 -1088
2021-09-03 11:59:51 GMT 50.521912 4.328396 6,350 28 251 -1728
2021-09-03 11:59:47 GMT 50.518433 4.325433 6,350 28 251 -1728
2021-09-03 11:59:43 GMT 50.514633 4.322253 6,450 28 251 -1344
2021-09-03 11:59:40 GMT 50.511414 4.319557 6,450 28 251 -1344
2021-09-03 11:59:36 GMT 50.507858 4.316543 6,625 28 253 -896
2021-09-03 11:59:33 GMT 50.500938 4.310723 6,575 28 255 -576
2021-09-03 11:59:30 GMT 50.500938 4.310723 6,575 28 255 -512
2021-09-03 11:59:25 GMT 50.496323 4.306857 6,625 28 259 -192
2021-09-03 11:59:21 GMT 50.488998 4.300714 6,625 28 263 -128
2021-09-03 11:59:15 GMT 50.485199 4.297606 6,675 27 272 -1216
2021-09-03 11:59:12 GMT 50.481400 4.294426 6,650 27 267 -640
2021-09-03 11:59:08 GMT 50.478424 4.291968 7,050 28 284 -1408
2021-09-03 11:59:04 GMT 50.473938 4.288305 6,775 27 272 -1216
2021-09-03 11:59:01 GMT 50.470165 4.285113 6,825 27 274 -1088
2021-09-03 11:58:58 GMT 50.466797 4.282355 7,050 28 284 -1408
2021-09-03 11:58:55 GMT 50.462532 4.278878 6,975 27 280 -576
2021-09-03 11:58:49 GMT 50.454853 4.272494 7,000 28 283 -448
2021-09-03 11:58:45 GMT 50.451187 4.269417 7,050 28 284 -768
2021-09-03 11:58:42 GMT 50.448380 4.267075 7,075 28 284 -1152
2021-09-03 11:58:39 GMT 50.445053 4.264285 7,250 28 283 -1472
2021-09-03 11:58:35 GMT 50.439442 4.259578 7,250 28 283 -1472
2021-09-03 11:58:32 GMT 50.432922 4.254094 7,700 28 282 -1344
2021-09-03 11:58:29 GMT 50.429947 4.251564 7,700 28 282 -1216
2021-09-03 11:58:26 GMT 50.429947 4.251564 7,700 28 282 -1216
2021-09-03 11:58:21 GMT 50.422638 4.245399 12,375 28 284 -704
2021-09-03 11:58:16 GMT 50.417332 4.240945 12,375 56 285 -896
2021-09-03 11:58:13 GMT 50.414154 4.238265 7,650 28 284 -704
2021-09-03 11:58:09 GMT 50.409531 4.234290 7,725 28 286 -1152
2021-09-03 11:58:05 GMT 50.405041 4.230553 7,775 28 286 -1152
2021-09-03 11:58:01 GMT 50.400238 4.226412 7,850 28 286 -1280
2021-09-03 11:57:58 GMT 50.397446 4.224026 7,925 28 286 -1728
2021-09-03 11:57:55 GMT 50.394516 4.221569 8,550 34 285 -1728
2021-09-03 11:57:51 GMT 50.388657 4.216437 8,550 34 285 -1728
2021-09-03 11:57:48 GMT 50.386421 4.214445 8,550 34 285 -1728
2021-09-03 11:57:45 GMT 50.383026 4.211161 8,550 34 285 -1728
2021-09-03 11:57:41 GMT 50.375336 4.202054 8,550 45 284 -1216
2021-09-03 11:57:38 GMT 50.375336 4.202054 8,550 45 284 -1216
2021-09-03 11:57:36 GMT 50.372410 4.197520 8,625 48 284 -1280
2021-09-03 11:57:33 GMT 50.370590 4.194253 8,675 55 282 -1344
2021-09-03 11:57:30 GMT 50.367939 4.188909 8,925 56 282 -1344
2021-09-03 11:57:27 GMT 50.365997 4.184418 8,875 56 282 -1216
2021-09-03 11:57:24 GMT 50.363796 4.179259 8,875 56 282 -1216
2021-09-03 11:57:22 GMT 50.361877 4.174732 8,975 56 282 -1216
2021-09-03 11:57:19 GMT 50.357300 4.163818 8,975 56 282 -1216
2021-09-03 11:57:15 GMT 50.357300 4.163818 9,400 56 282 -1152
2021-09-03 11:57:12 GMT 50.355652 4.159915 9,150 56 282 -1216
2021-09-03 11:57:08 GMT 50.349319 4.145038 9,550 56 282 -1216
2021-09-03 11:57:05 GMT 50.349319 4.145038 9,275 56 282 -1152
2021-09-03 11:57:02 GMT 50.347874 4.141623 9,325 56 282 -1152
2021-09-03 11:56:58 GMT 50.344849 4.134423 9,425 56 285 -768
2021-09-03 11:56:55 GMT 50.342800 4.129597 9,500 56 285 -768
2021-09-03 11:56:52 GMT 50.340683 4.124571 9,500 56 285 -768
2021-09-03 11:56:49 GMT 50.336842 4.115419 9,550 56 288 -1088
2021-09-03 11:56:47 GMT 50.336842 4.115419 9,550 56 288 -1088
2021-09-03 11:56:45 GMT 50.335400 4.112004 9,600 56 289 -1408
2021-09-03 11:56:43 GMT 50.333679 4.107875 9,625 56 289 -1408
2021-09-03 11:56:41 GMT 50.331535 4.102725 9,700 56 288 -1408
2021-09-03 11:56:36 GMT 50.328873 4.096383 9,775 56 287 -1344
2021-09-03 11:56:33 GMT 50.327438 4.093001 9,850 56 287 -1344
2021-09-03 11:56:30 GMT 50.324039 4.084761 9,925 56 288 -1024
2021-09-03 11:56:27 GMT 50.322968 4.082288 9,925 56 287 -192
2021-09-03 11:56:25 GMT 50.321091 4.077735 10,000 56 287 -192
2021-09-03 11:56:21 GMT 50.318127 4.070657 10,000 56 287 -192
2021-09-03 11:56:17 GMT 50.313538 4.059593 10,000 56 286 0
2021-09-03 11:56:15 GMT 50.313538 4.059593 10,000 56 286 0
2021-09-03 11:56:10 GMT 50.310516 4.052365 10,000 56 286 0
2021-09-03 11:56:08 GMT 50.308304 4.047052 10,000 56 286 0
2021-09-03 11:56:04 GMT 50.303043 4.034358 10,000 56 286 0
2021-09-03 11:56:00 GMT 50.303043 4.034358 10,000 56 286 0
2021-09-03 11:55:57 GMT 50.300903 4.029308 10,000 56 286 0
2021-09-03 11:55:54 GMT 50.298386 4.023237 10,000 56 286 -64
2021-09-03 11:55:50 GMT 50.295547 4.016515 10,050 56 286 -320
2021-09-03 11:55:47 GMT 50.293762 4.012178 10,050 56 286 -320
2021-09-03 11:55:42 GMT 50.289265 4.001547 10,125 56 288 -320
2021-09-03 11:55:39 GMT 50.287857 3.998156 10,125 56 288 -320
2021-09-03 11:55:36 GMT 50.283554 3.987893 10,125 56 289 -640
2021-09-03 11:55:33 GMT 50.280624 3.980882 10,125 56 289 -640
2021-09-03 11:55:30 GMT 50.278381 3.975461 10,250 56 290 -1024
2021-09-03 11:55:27 GMT 50.278381 3.975461 10,225 56 290 -1152
2021-09-03 11:55:23 GMT 50.273529 3.963896 10,400 56 291 -1856
2021-09-03 11:55:20 GMT 50.273529 3.963896 10,400 56 291 -1856
2021-09-03 11:55:17 GMT 50.267525 3.949659 10,925 56 299 -1792
2021-09-03 11:55:12 GMT 50.265198 3.944236 10,925 56 299 -1792
2021-09-03 11:55:09 GMT 50.265198 3.944236 10,925 56 299 -1792
2021-09-03 11:55:06 GMT 50.263779 3.940839 10,925 56 299 -1792
2021-09-03 11:55:03 GMT 50.261242 3.934813 10,925 56 299 -1792
2021-09-03 11:55:00 GMT 50.258450 3.928132 11,125 56 303 -1408
2021-09-03 11:54:57 GMT 50.256958 3.924643 11,150 56 307 -1280
2021-09-03 11:54:53 GMT 50.253792 3.917146 11,175 56 308 -1152
2021-09-03 11:54:51 GMT 50.249680 3.907302 11,325 56 316 -1152
2021-09-03 11:54:48 GMT 50.249680 3.907302 11,325 56 316 -1152
2021-09-03 11:54:46 GMT 50.247849 3.902965 11,325 56 316 -1152
2021-09-03 11:54:43 GMT 50.244667 3.895396 11,400 56 319 -1152
2021-09-03 11:54:42 GMT 50.244667 3.895396 11,400 56 320 -1152
2021-09-03 11:54:40 GMT 50.243412 3.892278 11,425 56 321 -1152
2021-09-03 11:54:39 GMT 50.242447 3.890027 11,450 56 324 -1152
2021-09-03 11:54:35 GMT 50.238922 3.881571 11,550 56 361 -2624
2021-09-03 11:54:32 GMT 50.236012 3.874685 11,925 56 361 -2624
2021-09-03 11:54:27 GMT 50.232513 3.866248 11,825 57 348 -1536
2021-09-03 11:54:24 GMT 50.229214 3.858354 11,825 57 348 -1536
2021-09-03 11:54:21 GMT 50.226791 3.852490 11,825 57 348 -1536
2021-09-03 11:54:19 GMT 50.225098 3.848395 11,975 57 354 -1344
2021-09-03 11:54:16 GMT 50.221939 3.840661 11,975 57 354 -1344
2021-09-03 11:54:13 GMT 50.220154 3.836397 12,075 56 356 -3904
2021-09-03 11:54:08 GMT 50.215988 3.826133 12,175 57 362 -1088
2021-09-03 11:54:05 GMT 50.212082 3.816561 12,175 57 363 -1408
2021-09-03 11:54:02 GMT 50.209381 3.809955 12,450 57 363 -1856
2021-09-03 11:53:58 GMT 50.205563 3.800676 12,450 57 363 -2240
2021-09-03 11:53:54 GMT 50.202667 3.793753 12,550 56 361 -2496
2021-09-03 11:53:50 GMT 50.199509 3.786019 12,625 56 361 -2496
2021-09-03 11:53:47 GMT 50.196442 3.778703 12,750 56 360 -2752
2021-09-03 11:53:45 GMT 50.194019 3.773061 13,475 56 360 -2752
2021-09-03 11:53:41 GMT 50.190857 3.765636 13,475 56 358 -3264
2021-09-03 11:53:38 GMT 50.188107 3.759032 13,475 56 354 -4480
2021-09-03 11:53:35 GMT 50.184895 3.751534 13,475 56 354 -4480
2021-09-03 11:53:32 GMT 50.182205 3.745254 13,675 56 354 -4480
2021-09-03 11:53:29 GMT 50.179504 3.738821 14,000 56 354 -4480
2021-09-03 11:53:26 GMT 50.177765 3.734846 14,000 56 354 -4544
2021-09-03 11:53:24 GMT 50.175980 3.730581 14,175 56 351 -4928
2021-09-03 11:53:23 GMT 50.172745 3.723103 14,375 56 351 -4928
2021-09-03 11:53:21 GMT 50.172745 3.723103 14,425 56 343 -4608
2021-09-03 11:53:20 GMT 50.171814 3.720896 14,550 56 343 -4608
2021-09-03 11:53:19 GMT 50.169533 3.715532 14,975 56 343 -4608
2021-09-03 11:53:14 GMT 50.166824 3.709259 15,175 56 343 -4608
2021-09-03 11:53:11 GMT 50.164131 3.702912 15,300 56 341 -3584
2021-09-03 11:53:07 GMT 50.160175 3.693707 15,525 56 341 -3584
2021-09-03 11:53:04 GMT 50.157944 3.688443 15,675 56 338 -2048
2021-09-03 11:53:01 GMT 50.155243 3.682155 15,975 56 338 -2048
2021-09-03 11:52:57 GMT 50.150772 3.671735 15,975 56 338 -384
2021-09-03 11:52:54 GMT 50.148926 3.667338 15,975 56 338 -384
2021-09-03 11:52:49 GMT 50.144581 3.657111 16,000 56 349 0
2021-09-03 11:52:46 GMT 50.142426 3.652159 16,000 56 349 0
2021-09-03 11:52:43 GMT 50.139599 3.645531 16,000 56 349 0
2021-09-03 11:52:39 GMT 50.133175 3.630462 16,025 56 349 0
2021-09-03 11:52:36 GMT 50.133175 3.630462 16,025 56 349 0
2021-09-03 11:52:33 GMT 50.128658 3.619921 16,025 56 349 0
2021-09-03 11:52:30 GMT 50.124332 3.609751 16,025 56 349 0
2021-09-03 11:52:26 GMT 50.124332 3.609751 16,000 56 349 0
2021-09-03 11:52:23 GMT 50.122147 3.604600 16,000 56 352 -64
2021-09-03 11:52:20 GMT 50.119308 3.598095 16,000 56 360 0
2021-09-03 11:52:18 GMT 50.117523 3.593830 16,000 56 360 0
2021-09-03 11:52:16 GMT 50.115719 3.589708 16,025 56 360 0
2021-09-03 11:52:13 GMT 50.113129 3.583567 16,025 56 360 0
2021-09-03 11:52:10 GMT 50.110039 3.576347 16,025 56 364 -64
2021-09-03 11:52:06 GMT 50.105759 3.566364 16,025 56 367 -128
2021-09-03 11:52:03 GMT 50.101776 3.557113 16,025 56 371 -192
2021-09-03 11:52:01 GMT 50.101776 3.557113 16,025 56 380 -640
2021-09-03 11:51:54 GMT 50.094727 3.540561 16,075 56 379 -576
2021-09-03 11:51:50 GMT 50.091743 3.533663 16,125 56 381 -1216
2021-09-03 11:51:45 GMT 50.085648 3.519262 16,200 56 382 -1280
2021-09-03 11:51:41 GMT 50.081818 3.510132 16,300 57 383 -1472
2021-09-03 11:51:38 GMT 50.078987 3.503302 16,600 57 385 -2688
2021-09-03 11:51:35 GMT 50.076569 3.497512 16,500 57 384 -2176
2021-09-03 11:51:32 GMT 50.073776 3.490757 16,575 57 385 -2240
2021-09-03 11:51:29 GMT 50.070740 3.483461 16,725 57 385 -2624
2021-09-03 11:51:26 GMT 50.067856 3.476522 16,950 57 386 -3520
2021-09-03 11:51:23 GMT 50.065491 3.470789 16,975 57 385 -3328
2021-09-03 11:51:20 GMT 50.062138 3.462623 17,200 57 386 -3520
2021-09-03 11:51:15 GMT 50.057343 3.451192 18,100 56 391 -3200
2021-09-03 11:51:11 GMT 50.053337 3.441616 17,725 56 391 -3136
2021-09-03 11:51:08 GMT 50.050781 3.435613 18,050 56 395 -3328
2021-09-03 11:51:05 GMT 50.047394 3.427518 18,075 56 395 -3328
2021-09-03 11:51:02 GMT 50.041168 3.412773 18,725 56 406 -2496
2021-09-03 11:50:55 GMT 50.037045 3.403015 18,625 56 404 -2688
2021-09-03 11:50:52 GMT 50.033936 3.395570 18,925 56 406 -2560
2021-09-03 11:50:49 GMT 50.030109 3.386461 18,925 56 406 -2560
2021-09-03 11:50:44 GMT 50.025921 3.376366 19,500 57 406 -2496
2021-09-03 11:50:40 GMT 50.021126 3.364786 19,650 57 406 -2752
2021-09-03 11:50:36 GMT 50.018097 3.357437 19,625 57 401 -3648
2021-09-03 11:50:33 GMT 50.014465 3.348603 19,825 57 401 -3584
2021-09-03 11:50:30 GMT 50.012093 3.342739 19,825 57 401 -3584
2021-09-03 11:50:25 GMT 50.006699 3.329436 20,700 57 397 -704
2021-09-03 11:50:22 GMT 50.003574 3.321880 20,575 57 394 -3712
2021-09-03 11:50:19 GMT 50.001160 3.315992 20,575 57 394 -3712
2021-09-03 11:50:16 GMT 49.996033 3.303544 20,725 57 391 -2816
2021-09-03 11:50:13 GMT 49.994961 3.300946 21,075 57 390 -2176
2021-09-03 11:50:09 GMT 49.990959 3.291222 21,200 57 390 -2304
2021-09-03 11:50:04 GMT 49.985420 3.277786 21,125 57 393 -768
2021-09-03 11:50:00 GMT 49.982487 3.270660 21,200 57 395 -768
2021-09-03 11:49:56 GMT 49.978436 3.260861 21,225 57 395 -768
2021-09-03 11:49:54 GMT 49.976440 3.256001 21,250 57 399 -640
2021-09-03 11:49:51 GMT 49.973316 3.248390 21,250 57 399 -640
2021-09-03 11:49:49 GMT 49.972137 3.245665 21,325 57 401 -704
2021-09-03 11:49:46 GMT 49.969032 3.237998 21,325 57 403 -704
2021-09-03 11:49:44 GMT 49.966553 3.232077 21,350 57 404 -704
2021-09-03 11:49:41 GMT 49.963852 3.225427 21,375 57 407 -704
2021-09-03 11:49:38 GMT 49.960602 3.217621 21,400 57 407 -704
2021-09-03 11:49:35 GMT 49.957031 3.208947 21,425 57 411 -704
2021-09-03 11:49:32 GMT 49.954510 3.202886 21,475 57 417 -1088
2021-09-03 11:49:29 GMT 49.950851 3.194058 21,500 57 414 -768
2021-09-03 11:49:26 GMT 49.948318 3.187891 21,550 57 416 -1024
2021-09-03 11:49:22 GMT 49.944214 3.177940 21,625 57 419 -1344
2021-09-03 11:49:19 GMT 49.941010 3.170298 21,700 57 419 -1664
2021-09-03 11:49:16 GMT 49.937748 3.162429 21,775 57 421 -1728
2021-09-03 11:49:13 GMT 49.933655 3.152557 21,875 57 421 -1280
2021-09-03 11:49:10 GMT 49.931091 3.146470 21,975 57 421 -128
2021-09-03 11:49:06 GMT 49.926994 3.136597 21,975 57 421 -576
2021-09-03 11:49:02 GMT 49.923084 3.127243 22,000 57 421 -64
2021-09-03 11:48:59 GMT 49.919083 3.117732 22,000 56 422 0
2021-09-03 11:48:55 GMT 49.915031 3.108017 22,000 56 422 0
2021-09-03 11:48:51 GMT 49.911804 3.100313 22,000 56 421 0
2021-09-03 11:48:48 GMT 49.908562 3.092577 22,000 57 420 64
2021-09-03 11:48:44 GMT 49.904186 3.082185 22,000 57 420 0
2021-09-03 11:48:42 GMT 49.901764 3.076395 22,000 57 420 64
2021-09-03 11:48:39 GMT 49.898758 3.069233 22,000 57 420 0
2021-09-03 11:48:35 GMT 49.894913 3.060198 22,000 57 420 0
2021-09-03 11:48:33 GMT 49.892639 3.054719 22,000 57 420 0
2021-09-03 11:48:30 GMT 49.889477 3.047147 22,000 58 418 64
2021-09-03 11:48:26 GMT 49.884613 3.035407 22,000 57 419 0
2021-09-03 11:48:22 GMT 49.880127 3.024565 22,000 57 418 64
2021-09-03 11:48:19 GMT 49.877464 3.018122 21,975 58 417 128
2021-09-03 11:48:16 GMT 49.873856 3.009097 21,975 58 418 64
2021-09-03 11:48:13 GMT 49.871704 3.003821 21,975 58 417 0
2021-09-03 11:48:09 GMT 49.866898 2.991770 22,000 58 416 -64
2021-09-03 11:48:06 GMT 49.864838 2.986547 22,000 58 416 -64
2021-09-03 11:48:04 GMT 49.859169 2.972544 22,000 57 415 128
2021-09-03 11:48:01 GMT 49.859169 2.972544 22,000 55 416 128
2021-09-03 11:47:58 GMT 49.855537 2.964156 22,000 50 415 -128
2021-09-03 11:47:54 GMT 49.851814 2.956287 22,025 48 416 -192
2021-09-03 11:47:50 GMT 49.846252 2.945854 22,025 46 417 -192
2021-09-03 11:47:48 GMT 49.844227 2.942406 22,025 44 417 -256
2021-09-03 11:47:44 GMT 49.838608 2.933566 22,050 41 419 -320
2021-09-03 11:47:41 GMT 49.834030 2.927134 22,100 36 422 -832
2021-09-03 11:47:38 GMT 49.830002 2.922002 22,100 37 421 -768
2021-09-03 11:47:35 GMT 49.825371 2.916722 22,250 33 423 -1088
2021-09-03 11:47:32 GMT 49.820995 2.912119 22,425 27 426 -1600
2021-09-03 11:47:28 GMT 49.813797 2.905595 22,325 28 425 -1664
2021-09-03 11:47:25 GMT 49.807938 2.900680 22,350 27 428 -1600
2021-09-03 11:47:22 GMT 49.802750 2.896605 22,825 27 430 -1920
2021-09-03 11:47:17 GMT 49.793839 2.889477 22,600 27 429 -1728
2021-09-03 11:47:14 GMT 49.788643 2.885396 22,650 27 430 -1920
2021-09-03 11:47:11 GMT 49.783218 2.881092 22,800 27 431 -1920
2021-09-03 11:47:07 GMT 49.775330 2.874855 22,925 27 431 -2048
2021-09-03 11:47:04 GMT 49.770813 2.871262 23,100 27 432 -2240
2021-09-03 11:47:01 GMT 49.766556 2.867865 23,100 27 432 -2240
2021-09-03 11:46:58 GMT 49.760433 2.862978 23,300 27 432 -2304
2021-09-03 11:46:55 GMT 49.754940 2.858598 23,575 27 431 -2368
2021-09-03 11:46:52 GMT 49.748512 2.853550 23,525 27 431 -2368
2021-09-03 11:46:48 GMT 49.742569 2.848856 23,625 27 432 -2432
2021-09-03 11:46:45 GMT 49.731583 2.840110 23,900 27 432 -2112
2021-09-03 11:46:42 GMT 49.731583 2.840110 23,900 27 432 -2112
2021-09-03 11:46:39 GMT 49.726227 2.835918 23,975 27 432 -1856
2021-09-03 11:46:36 GMT 49.721420 2.832087 24,050 27 434 -1408
2021-09-03 11:46:33 GMT 49.716431 2.828112 24,150 27 436 -1216
2021-09-03 11:46:30 GMT 49.703777 2.818142 24,250 27 439 -1216
2021-09-03 11:46:27 GMT 49.703777 2.818142 24,250 27 439 -1280
2021-09-03 11:46:24 GMT 49.699310 2.814596 24,575 27 440 -1344
2021-09-03 11:46:21 GMT 49.694778 2.811054 24,575 27 440 -1344
2021-09-03 11:46:19 GMT 49.687065 2.804928 24,500 27 443 -1792
2021-09-03 11:46:14 GMT 49.681686 2.800719 24,800 27 445 -2176
2021-09-03 11:46:11 GMT 49.676311 2.796466 24,675 27 445 -2240
2021-09-03 11:46:09 GMT 49.672821 2.793719 24,825 27 445 -2240
2021-09-03 11:46:06 GMT 49.666901 2.789009 25,350 27 447 -2112
2021-09-03 11:46:02 GMT 49.657085 2.781323 25,525 27 447 -1984
2021-09-03 11:45:59 GMT 49.654449 2.779180 25,525 27 447 -1984
2021-09-03 11:45:56 GMT 49.650055 2.775710 25,250 27 447 -1984
2021-09-03 11:45:53 GMT 49.643234 2.770362 25,525 27 447 -1984
2021-09-03 11:45:49 GMT 49.636276 2.764868 25,450 27 447 -2048
2021-09-03 11:45:46 GMT 49.625381 2.756267 25,825 27 448 -2176
2021-09-03 11:45:43 GMT 49.625381 2.756267 25,800 27 449 -2112
2021-09-03 11:45:40 GMT 49.619843 2.751931 25,800 27 449 -2048
2021-09-03 11:45:37 GMT 49.608170 2.742751 26,025 27 450 -1984
2021-09-03 11:45:34 GMT 49.608170 2.742751 26,025 27 451 -1984
2021-09-03 11:45:31 GMT 49.602154 2.737971 26,100 27 451 -2048
2021-09-03 11:45:28 GMT 49.590729 2.729018 26,525 27 451 -2048
2021-09-03 11:45:25 GMT 49.590729 2.729018 26,350 27 453 -2112
2021-09-03 11:45:22 GMT 49.584778 2.724320 26,525 27 453 -2112
2021-09-03 11:45:19 GMT 49.581024 2.721429 26,475 27 453 -2112
2021-09-03 11:45:16 GMT 49.575527 2.717038 26,625 27 453 -2112
2021-09-03 11:45:13 GMT 49.570038 2.712756 26,800 27 454 -2240
2021-09-03 11:45:10 GMT 49.564224 2.708202 26,875 27 454 -2304
2021-09-03 11:45:07 GMT 49.556946 2.702492 27,000 27 455 -2368
2021-09-03 11:45:04 GMT 49.551132 2.697866 27,125 27 455 -2304
2021-09-03 11:45:01 GMT 49.545502 2.693457 27,275 27 455 -2368
2021-09-03 11:44:58 GMT 49.541824 2.690611 27,275 26 456 -2304
2021-09-03 11:44:54 GMT 49.532547 2.683338 27,475 26 456 -2304
2021-09-03 11:44:52 GMT 49.528881 2.680516 27,700 27 457 -2304
2021-09-03 11:44:49 GMT 49.525223 2.677628 27,625 27 457 -2304
2021-09-03 11:44:46 GMT 49.519409 2.673003 28,000 27 457 -2304
2021-09-03 11:44:44 GMT 49.515472 2.669967 27,975 27 457 -2304
2021-09-03 11:44:42 GMT 49.511490 2.666859 27,950 27 457 -2240
2021-09-03 11:44:39 GMT 49.505493 2.662088 28,000 27 457 -2240
2021-09-03 11:44:36 GMT 49.493687 2.652901 28,150 26 458 -2176
2021-09-03 11:44:33 GMT 49.493687 2.652901 28,350 26 458 -2176
2021-09-03 11:44:29 GMT 49.487823 2.648299 28,350 27 461 -2048
2021-09-03 11:44:27 GMT 49.482056 2.643802 28,475 27 460 -2048
2021-09-03 11:44:23 GMT 49.474926 2.638203 28,650 27 461 -2112
2021-09-03 11:44:20 GMT 49.468964 2.633538 28,775 27 462 -2112
2021-09-03 11:44:18 GMT 49.464203 2.629780 28,875 27 462 -2112
2021-09-03 11:44:15 GMT 49.459332 2.626029 28,925 26 465 -1920
2021-09-03 11:44:12 GMT 49.453720 2.621613 29,075 27 464 -1984
2021-09-03 11:44:09 GMT 49.448486 2.617493 29,075 27 464 -2048
2021-09-03 11:44:06 GMT 49.434708 2.606729 29,325 27 466 -1920
2021-09-03 11:44:03 GMT 49.434708 2.606729 29,325 27 466 -1920
2021-09-03 11:44:00 GMT 49.429726 2.602869 29,450 27 466 -1984
2021-09-03 11:43:57 GMT 49.424606 2.598830 29,500 26 467 -2048
2021-09-03 11:43:54 GMT 49.418060 2.593759 29,725 27 469 -2112
2021-09-03 11:43:50 GMT 49.410507 2.587844 29,800 26 470 -2176
2021-09-03 11:43:47 GMT 49.406590 2.584751 29,750 26 470 -2176
2021-09-03 11:43:44 GMT 49.401512 2.580847 33,500 26 474 -2944
2021-09-03 11:43:41 GMT 49.394157 2.575137 30,175 26 471 -2304
2021-09-03 11:43:38 GMT 49.388626 2.570801 30,250 26 471 -2304
2021-09-03 11:43:35 GMT 49.382755 2.566175 30,375 26 472 -2304
2021-09-03 11:43:32 GMT 49.376888 2.561621 30,500 26 472 -2304
2021-09-03 11:43:29 GMT 49.370773 2.556857 30,550 26 472 -2368
2021-09-03 11:43:25 GMT 49.362396 2.550377 30,700 26 473 -2304
2021-09-03 11:43:22 GMT 49.356354 2.545659 31,175 26 475 -2240
2021-09-03 11:43:19 GMT 49.352356 2.542540 31,175 26 475 -2240
2021-09-03 11:43:16 GMT 49.346302 2.537842 31,025 26 475 -2240
2021-09-03 11:43:12 GMT 49.336990 2.530588 31,350 26 476 -2368
2021-09-03 11:43:09 GMT 49.326599 2.522560 31,325 26 478 -3200
2021-09-03 11:43:06 GMT 49.326599 2.522560 31,625 26 478 -3200
2021-09-03 11:43:04 GMT 49.316463 2.514640 31,500 26 477 -2240
2021-09-03 11:43:01 GMT 49.316463 2.514640 31,625 26 478 -2752
2021-09-03 11:42:59 GMT 49.306686 2.507066 31,800 26 478 -2752
2021-09-03 11:42:56 GMT 49.306686 2.507066 31,825 26 478 -2752
2021-09-03 11:42:54 GMT 49.302685 2.503943 31,925 26 478 -2880
2021-09-03 11:42:51 GMT 49.296661 2.499319 32,175 26 478 -3008
2021-09-03 11:42:48 GMT 49.290756 2.494671 32,275 26 478 -3200
2021-09-03 11:42:45 GMT 49.285133 2.490355 33,950 26 478 -3200
2021-09-03 11:42:42 GMT 49.279221 2.485729 32,650 26 477 -3264
2021-09-03 11:42:39 GMT 49.273407 2.481290 32,725 26 475 -3072
2021-09-03 11:42:36 GMT 49.263115 2.473297 32,825 26 476 -3264
2021-09-03 11:42:34 GMT 49.263115 2.473297 32,925 26 476 -3264
2021-09-03 11:42:31 GMT 49.254269 2.466431 33,525 26 474 -2944
2021-09-03 11:42:28 GMT 49.251663 2.464388 33,625 26 474 -2368
2021-09-03 11:42:25 GMT 49.246582 2.460445 33,375 26 474 -2368
2021-09-03 11:42:21 GMT 49.237564 2.453472 33,625 26 473 -1664
2021-09-03 11:42:18 GMT 49.231750 2.448965 33,675 26 473 -2048
2021-09-03 11:42:15 GMT 49.227036 2.445303 33,825 26 472 -1344
2021-09-03 11:42:13 GMT 49.217400 2.437881 33,950 26 472 -1024
2021-09-03 11:42:08 GMT 49.212326 2.433978 33,950 26 472 -832
2021-09-03 11:42:05 GMT 49.207397 2.430162 33,950 26 472 -576
2021-09-03 11:42:02 GMT 49.201355 2.425443 34,000 26 472 0
2021-09-03 11:41:59 GMT 49.195381 2.420895 34,000 26 472 0
2021-09-03 11:41:56 GMT 49.184116 2.412150 34,000 26 472 0
2021-09-03 11:41:53 GMT 49.184116 2.412150 34,000 26 472 0
2021-09-03 11:41:50 GMT 49.179153 2.408330 34,000 26 472 0
2021-09-03 11:41:48 GMT 49.172802 2.403476 34,000 26 472 0
2021-09-03 11:41:45 GMT 49.167355 2.399284 34,000 26 472 0
2021-09-03 11:41:42 GMT 49.155762 2.390371 34,000 26 472 0
2021-09-03 11:41:39 GMT 49.155762 2.390371 34,000 26 472 0
2021-09-03 11:41:36 GMT 49.150681 2.386498 34,000 26 472 0
2021-09-03 11:41:33 GMT 49.145050 2.382202 34,000 26 472 0
2021-09-03 11:41:30 GMT 49.138824 2.377413 34,000 26 472 0
2021-09-03 11:41:28 GMT 49.132782 2.372765 34,000 26 472 0
2021-09-03 11:41:23 GMT 49.125916 2.367554 34,000 26 472 0
2021-09-03 11:41:20 GMT 49.119781 2.362856 34,000 26 472 0
2021-09-03 11:41:17 GMT 49.113647 2.358117 34,000 26 472 0
2021-09-03 11:41:14 GMT 49.106373 2.352520 34,000 26 472 0
2021-09-03 11:41:11 GMT 49.101379 2.348750 34,000 26 472 0
2021-09-03 11:41:08 GMT 49.094269 2.343268 34,000 26 472 0
2021-09-03 11:41:05 GMT 49.089890 2.339877 34,000 26 472 0
2021-09-03 11:41:03 GMT 49.085098 2.336257 34,000 26 472 0
2021-09-03 11:41:00 GMT 49.080257 2.332499 34,000 26 472 0
2021-09-03 11:40:57 GMT 49.073730 2.327552 34,000 26 472 0
2021-09-03 11:40:54 GMT 49.069550 2.324331 34,000 26 472 0
2021-09-03 11:40:51 GMT 49.062012 2.318538 34,000 26 472 0
2021-09-03 11:40:48 GMT 49.056095 2.313995 34,000 26 472 0
2021-09-03 11:40:45 GMT 49.043518 2.304312 34,000 26 472 0
2021-09-03 11:40:42 GMT 49.038548 2.300552 34,000 26 472 0
2021-09-03 11:40:39 GMT 49.038548 2.300552 34,000 26 472 0
2021-09-03 11:40:37 GMT 49.033890 2.296938 34,000 26 472 0
2021-09-03 11:40:34 GMT 49.028915 2.293185 34,000 26 472 0
2021-09-03 11:40:31 GMT 49.023186 2.288770 34,000 26 472 0
2021-09-03 11:40:28 GMT 49.016052 2.283325 34,000 26 472 0
2021-09-03 11:40:25 GMT 49.011749 2.280015 34,000 26 472 0
2021-09-03 11:40:22 GMT 49.005821 2.275471 34,000 26 472 0
2021-09-03 11:40:19 GMT 48.999298 2.270508 34,000 26 472 0
2021-09-03 11:40:16 GMT 48.993439 2.266001 34,000 26 472 0
2021-09-03 11:40:13 GMT 48.986546 2.260726 34,000 26 472 0
2021-09-03 11:40:10 GMT 48.982544 2.257690 34,000 26 472 0
2021-09-03 11:40:07 GMT 48.971371 2.249089 34,000 26 472 0
2021-09-03 11:40:04 GMT 48.971371 2.249089 34,000 26 472 0
2021-09-03 11:40:01 GMT 48.965134 2.244319 34,000 26 472 0
2021-09-03 11:39:58 GMT 48.951260 2.233766 34,000 26 472 0
2021-09-03 11:39:54 GMT 48.951260 2.233766 34,000 26 472 0
2021-09-03 11:39:51 GMT 48.939808 2.224948 34,000 26 472 0
2021-09-03 11:39:48 GMT 48.939808 2.224948 34,000 26 472 0
2021-09-03 11:39:46 GMT 48.935806 2.221914 34,000 26 472 0
2021-09-03 11:39:43 GMT 48.929947 2.217407 34,000 26 472 64
2021-09-03 11:39:40 GMT 48.923794 2.212733 34,000 26 472 64
2021-09-03 11:39:37 GMT 48.918163 2.208397 34,000 26 472 -64
2021-09-03 11:39:34 GMT 48.912415 2.204026 34,000 26 472 0
2021-09-03 11:39:30 GMT 48.904633 2.198040 34,000 26 472 0
2021-09-03 11:39:26 GMT 48.895844 2.191350 34,000 26 472 0
2021-09-03 11:39:23 GMT 48.892365 2.188674 34,000 26 472 0
2021-09-03 11:39:20 GMT 48.884766 2.182899 34,000 26 472 0
2021-09-03 11:39:17 GMT 48.879803 2.179124 34,000 26 472 0
2021-09-03 11:39:14 GMT 48.873825 2.174589 34,000 26 472 0
2021-09-03 11:39:12 GMT 48.869751 2.171490 34,000 26 472 0
2021-09-03 11:39:09 GMT 48.856201 2.161199 34,000 26 468 0
2021-09-03 11:39:06 GMT 48.856201 2.161199 34,000 26 472 0
2021-09-03 11:39:03 GMT 48.853268 2.158958 34,000 26 472 0
2021-09-03 11:39:01 GMT 48.847321 2.154447 34,000 26 472 0
2021-09-03 11:38:58 GMT 48.841026 2.149634 34,000 26 472 0
2021-09-03 11:38:54 GMT 48.833130 2.143602 34,000 26 472 0
2021-09-03 11:38:51 GMT 48.827339 2.139226 34,000 26 472 0
2021-09-03 11:38:48 GMT 48.821594 2.134869 34,000 26 472 0
2021-09-03 11:38:45 GMT 48.815655 2.130336 34,000 26 472 0
2021-09-03 11:38:42 GMT 48.811844 2.127474 34,000 26 472 0
2021-09-03 11:38:39 GMT 48.803970 2.121518 34,000 26 472 0
2021-09-03 11:38:36 GMT 48.799988 2.118460 34,000 26 472 0
2021-09-03 11:38:33 GMT 48.790237 2.111065 34,000 26 472 0
2021-09-03 11:38:31 GMT 48.790237 2.111065 34,000 26 471 0
2021-09-03 11:38:28 GMT 48.784561 2.106769 34,000 26 471 0
2021-09-03 11:38:25 GMT 48.778831 2.102436 34,000 26 472 0
2021-09-03 11:38:22 GMT 48.773010 2.097955 34,000 26 472 0
2021-09-03 11:38:19 GMT 48.766960 2.093401 34,000 26 471 0
2021-09-03 11:38:16 GMT 48.760025 2.088177 34,000 26 471 0
2021-09-03 11:38:13 GMT 48.754066 2.083644 34,000 26 471 0
2021-09-03 11:38:10 GMT 48.744461 2.076346 34,000 26 471 0
2021-09-03 11:38:08 GMT 48.744461 2.076346 34,000 26 471 0
2021-09-03 11:38:05 GMT 48.737411 2.071064 34,000 26 471 0
2021-09-03 11:38:02 GMT 48.734299 2.068669 34,000 26 471 0
2021-09-03 11:37:59 GMT 48.726929 2.063106 34,000 26 471 0
2021-09-03 11:37:56 GMT 48.721153 2.058708 34,000 26 471 0
2021-09-03 11:37:54 GMT 48.716125 2.054877 34,000 26 471 0
2021-09-03 11:37:50 GMT 48.709213 2.049725 34,000 26 471 0
2021-09-03 11:37:48 GMT 48.705505 2.046908 34,000 26 471 0
2021-09-03 11:37:44 GMT 48.697224 2.040638 34,000 26 471 0
2021-09-03 11:37:41 GMT 48.692276 2.036907 34,000 26 470 0
2021-09-03 11:37:37 GMT 48.684006 2.030664 34,000 26 470 0
2021-09-03 11:37:32 GMT 48.674835 2.023797 34,000 26 470 0
2021-09-03 11:37:29 GMT 48.669891 2.020076 34,000 26 470 0
2021-09-03 11:37:26 GMT 48.663483 2.015217 34,000 26 470 -64
2021-09-03 11:37:22 GMT 48.656662 2.010075 34,000 26 470 0
2021-09-03 11:37:20 GMT 48.650620 2.005568 34,000 26 470 0
2021-09-03 11:37:16 GMT 48.643250 2.000005 34,000 26 470 0
2021-09-03 11:37:13 GMT 48.633820 1.992934 34,000 26 470 0
2021-09-03 11:37:11 GMT 48.633820 1.992934 34,000 26 470 0
2021-09-03 11:37:09 GMT 48.629837 1.989934 34,000 26 470 0
2021-09-03 11:37:05 GMT 48.621765 1.983900 34,000 26 470 0
2021-09-03 11:37:01 GMT 48.612534 1.976976 34,000 26 470 0
2021-09-03 11:36:56 GMT 48.603424 1.970074 34,000 26 470 0
2021-09-03 11:36:52 GMT 48.597466 1.965685 34,000 26 470 0
2021-09-03 11:36:50 GMT 48.593307 1.962538 34,000 26 469 0
2021-09-03 11:36:47 GMT 48.587177 1.957952 34,000 26 469 0
2021-09-03 11:36:44 GMT 48.581543 1.953759 34,000 26 469 0
2021-09-03 11:36:42 GMT 48.577560 1.950777 34,000 26 469 0
2021-09-03 11:36:39 GMT 48.571861 1.946459 34,000 26 469 0
2021-09-03 11:36:37 GMT 48.567856 1.943453 34,000 26 469 0
2021-09-03 11:36:34 GMT 48.555267 1.934016 34,000 26 469 0
2021-09-03 11:36:31 GMT 48.550304 1.930341 34,000 26 469 0
2021-09-03 11:36:28 GMT 48.550304 1.930341 34,000 26 468 0
2021-09-03 11:36:25 GMT 48.544674 1.926077 34,000 26 468 0
2021-09-03 11:36:22 GMT 48.539646 1.922318 34,000 26 468 0
2021-09-03 11:36:18 GMT 48.531235 1.915987 34,000 26 468 0
2021-09-03 11:36:15 GMT 48.526657 1.912561 34,000 26 468 0
2021-09-03 11:36:12 GMT 48.517456 1.905635 34,000 26 468 0
2021-09-03 11:36:08 GMT 48.511459 1.901128 34,000 26 468 0
2021-09-03 11:36:05 GMT 48.498917 1.891620 34,000 26 468 0
2021-09-03 11:36:01 GMT 48.498917 1.891620 34,000 26 468 0
2021-09-03 11:35:58 GMT 48.491959 1.886409 34,000 26 468 0
2021-09-03 11:35:55 GMT 48.487152 1.882747 34,000 26 467 0
2021-09-03 11:35:52 GMT 48.481457 1.878373 34,000 26 467 0
2021-09-03 11:35:49 GMT 48.476101 1.874253 34,000 27 467 0
2021-09-03 11:35:46 GMT 48.468235 1.868109 34,000 17 469 0
2021-09-03 11:35:43 GMT 48.456738 1.859147 34,000 27 467 -64
2021-09-03 11:35:40 GMT 48.456738 1.859147 34,000 27 467 0
2021-09-03 11:35:37 GMT 48.450485 1.854295 34,000 27 467 64
2021-09-03 11:35:34 GMT 48.444534 1.849717 34,000 26 467 0
2021-09-03 11:35:31 GMT 48.440048 1.846478 34,000 23 468 0
2021-09-03 11:35:28 GMT 48.429131 1.839126 34,000 21 469 0
2021-09-03 11:35:25 GMT 48.429131 1.839126 34,000 21 469 0
2021-09-03 11:35:22 GMT 48.422974 1.835421 34,000 19 469 0
2021-09-03 11:35:20 GMT 48.418945 1.833097 34,000 20 469 0
2021-09-03 11:35:17 GMT 48.412994 1.829928 34,000 17 469 0
2021-09-03 11:35:14 GMT 48.406925 1.826911 34,000 17 469 0
2021-09-03 11:35:11 GMT 48.400501 1.823875 34,000 17 469 0
2021-09-03 11:35:07 GMT 48.392635 1.820117 34,000 17 469 0
2021-09-03 11:35:05 GMT 48.387886 1.817876 34,000 17 469 0
2021-09-03 11:35:01 GMT 48.378342 1.813395 34,000 17 469 0
2021-09-03 11:34:58 GMT 48.372070 1.810420 34,000 17 469 0
2021-09-03 11:34:55 GMT 48.366566 1.807829 34,000 17 469 0
2021-09-03 11:34:52 GMT 48.361164 1.805227 34,000 17 469 0
2021-09-03 11:34:50 GMT 48.356647 1.803059 34,000 17 469 0
2021-09-03 11:34:46 GMT 48.348129 1.799084 34,000 17 469 0
2021-09-03 11:34:44 GMT 48.343872 1.797039 34,000 17 469 0
2021-09-03 11:34:41 GMT 48.330826 1.790912 34,000 17 469 0
2021-09-03 11:34:38 GMT 48.324829 1.788025 34,000 17 469 0
2021-09-03 11:34:34 GMT 48.324829 1.788025 34,000 17 469 0
2021-09-03 11:34:30 GMT 48.314301 1.783095 34,000 17 469 0
2021-09-03 11:34:28 GMT 48.312332 1.782170 34,000 17 469 0
2021-09-03 11:34:25 GMT 48.305374 1.778870 34,000 17 469 0
2021-09-03 11:34:22 GMT 48.299904 1.776316 34,000 17 469 0
2021-09-03 11:34:17 GMT 48.289444 1.771334 34,000 17 469 0
2021-09-03 11:34:15 GMT 48.284271 1.768869 34,000 17 469 0
2021-09-03 11:34:12 GMT 48.277267 1.765559 34,000 17 469 0
2021-09-03 11:34:09 GMT 48.273228 1.763667 34,000 17 469 0
2021-09-03 11:34:06 GMT 48.264942 1.759764 34,000 17 469 0
2021-09-03 11:34:02 GMT 48.256577 1.755841 34,000 17 469 0
2021-09-03 11:33:56 GMT 48.244877 1.750296 34,000 17 468 0
2021-09-03 11:33:53 GMT 48.238686 1.747404 34,000 17 468 0
2021-09-03 11:33:50 GMT 48.233414 1.744925 34,000 17 468 0
2021-09-03 11:33:47 GMT 48.226116 1.741478 34,000 17 468 0
2021-09-03 11:33:44 GMT 48.220001 1.738586 34,000 17 468 0
2021-09-03 11:33:41 GMT 48.212242 1.734900 34,000 17 468 0
2021-09-03 11:33:38 GMT 48.207729 1.732804 34,000 17 468 0
2021-09-03 11:33:34 GMT 48.199585 1.728938 34,000 17 468 0
2021-09-03 11:33:31 GMT 48.184639 1.721890 34,000 17 468 0
2021-09-03 11:33:27 GMT 48.184639 1.721890 34,000 17 468 0
2021-09-03 11:33:24 GMT 48.176697 1.718163 34,000 17 468 0
2021-09-03 11:33:21 GMT 48.172443 1.716180 34,000 17 468 0
2021-09-03 11:33:17 GMT 48.164108 1.712318 34,000 17 467 0
2021-09-03 11:33:14 GMT 48.158615 1.709712 34,000 17 467 0
2021-09-03 11:33:10 GMT 48.143875 1.702812 34,000 17 467 0
2021-09-03 11:33:07 GMT 48.143875 1.702812 34,000 17 467 0
2021-09-03 11:33:03 GMT 48.135223 1.698761 34,000 17 467 0
2021-09-03 11:32:58 GMT 48.125237 1.694078 34,000 17 467 0
2021-09-03 11:32:55 GMT 48.118332 1.690865 34,000 17 467 64
2021-09-03 11:32:52 GMT 48.113205 1.688530 34,000 17 467 64
2021-09-03 11:32:47 GMT 48.102615 1.683584 34,000 17 467 -64
2021-09-03 11:32:44 GMT 48.096130 1.680565 34,000 17 467 64
2021-09-03 11:32:41 GMT 48.091599 1.678436 34,000 17 467 64
2021-09-03 11:32:38 GMT 48.084087 1.674992 34,000 17 467 -64
2021-09-03 11:32:34 GMT 48.076637 1.671542 34,000 17 467 -64
2021-09-03 11:32:31 GMT 48.068024 1.667527 34,000 17 467 -64
2021-09-03 11:32:27 GMT 48.060810 1.664147 34,000 17 467 0
2021-09-03 11:32:24 GMT 48.049393 1.658867 34,000 17 467 0
2021-09-03 11:32:21 GMT 48.049393 1.658867 34,000 17 467 0
2021-09-03 11:32:18 GMT 48.043442 1.656052 34,000 17 467 0
2021-09-03 11:32:14 GMT 48.035202 1.652275 34,000 17 467 0
2021-09-03 11:32:11 GMT 48.027969 1.648911 34,000 17 467 0
2021-09-03 11:32:07 GMT 48.020782 1.645546 34,000 17 467 0
2021-09-03 11:32:04 GMT 48.013550 1.642181 34,000 17 467 0
2021-09-03 11:32:00 GMT 47.998241 1.635061 34,000 17 467 0
2021-09-03 11:31:57 GMT 47.998241 1.635061 34,000 17 467 0
2021-09-03 11:31:53 GMT 47.991943 1.632156 34,000 17 467 0
2021-09-03 11:31:50 GMT 47.985764 1.629272 34,000 17 467 0
2021-09-03 11:31:47 GMT 47.978531 1.625908 34,000 17 467 0
2021-09-03 11:31:43 GMT 47.971115 1.622475 34,000 17 467 0
2021-09-03 11:31:40 GMT 47.959465 1.617103 34,000 17 467 0
2021-09-03 11:31:37 GMT 47.959465 1.617103 34,000 17 467 0
2021-09-03 11:31:34 GMT 47.952484 1.613863 34,000 17 467 0
2021-09-03 11:31:31 GMT 47.937027 1.606680 34,000 17 467 0
2021-09-03 11:31:27 GMT 47.937027 1.606680 34,000 17 467 0
2021-09-03 11:31:24 GMT 47.930836 1.603863 34,000 17 467 0
2021-09-03 11:31:18 GMT 47.919106 1.598370 34,000 17 467 0
2021-09-03 11:31:15 GMT 47.914032 1.596039 34,000 17 467 0
2021-09-03 11:31:12 GMT 47.907978 1.593229 34,000 17 467 0
2021-09-03 11:31:09 GMT 47.893314 1.586398 34,000 17 467 0
2021-09-03 11:31:05 GMT 47.893314 1.586398 34,000 17 467 0
2021-09-03 11:31:02 GMT 47.885605 1.582855 34,000 17 467 0
2021-09-03 11:30:58 GMT 47.872738 1.576890 34,000 17 468 -64
2021-09-03 11:30:51 GMT 47.861984 1.571890 34,000 17 468 -64
2021-09-03 11:30:47 GMT 47.855072 1.568710 34,000 17 468 0
2021-09-03 11:30:43 GMT 47.846764 1.564777 34,000 17 468 0
2021-09-03 11:30:40 GMT 47.841293 1.562256 34,000 17 468 0
2021-09-03 11:30:37 GMT 47.835892 1.559784 34,000 17 468 0
2021-09-03 11:30:33 GMT 47.823860 1.554143 34,000 17 468 0
2021-09-03 11:30:27 GMT 47.812180 1.548729 34,000 17 468 0
2021-09-03 11:30:24 GMT 47.799408 1.542755 34,000 17 469 0
2021-09-03 11:30:20 GMT 47.787083 1.537030 34,000 17 469 0
2021-09-03 11:30:15 GMT 47.787083 1.537030 34,000 17 469 0
2021-09-03 11:30:12 GMT 47.782837 1.535065 34,000 17 469 0
2021-09-03 11:30:10 GMT 47.778797 1.533227 34,000 17 469 0
2021-09-03 11:30:07 GMT 47.772720 1.530396 34,000 17 469 0
2021-09-03 11:30:03 GMT 47.764252 1.526482 34,000 17 469 -64
2021-09-03 11:29:59 GMT 47.757202 1.523254 34,000 17 469 -64
2021-09-03 11:29:56 GMT 47.747864 1.518997 34,000 17 470 64
2021-09-03 11:29:52 GMT 47.739807 1.515289 34,000 17 469 0
2021-09-03 11:29:49 GMT 47.735550 1.513296 34,000 17 469 64
2021-09-03 11:29:46 GMT 47.729050 1.510345 34,000 17 469 0
2021-09-03 11:29:43 GMT 47.722595 1.507393 34,000 17 470 0
2021-09-03 11:29:39 GMT 47.708221 1.500761 34,000 17 470 0
2021-09-03 11:29:36 GMT 47.708221 1.500761 34,000 17 470 0
2021-09-03 11:29:33 GMT 47.702824 1.498296 34,000 17 470 0
2021-09-03 11:29:29 GMT 47.694351 1.494352 34,000 17 470 0
2021-09-03 11:29:26 GMT 47.688530 1.491676 34,000 17 470 0
2021-09-03 11:29:23 GMT 47.682713 1.489000 34,000 17 470 0
2021-09-03 11:29:19 GMT 47.672882 1.484528 34,000 17 470 0
2021-09-03 11:29:15 GMT 47.663628 1.480267 34,000 17 470 0
2021-09-03 11:29:12 GMT 47.657017 1.477239 34,000 17 470 64
2021-09-03 11:29:09 GMT 47.652786 1.475258 34,000 17 470 0
2021-09-03 11:29:06 GMT 47.644772 1.471605 34,000 17 469 0
2021-09-03 11:29:03 GMT 47.634338 1.466812 34,000 17 469 0
2021-09-03 11:29:00 GMT 47.634338 1.466812 34,000 17 469 0
2021-09-03 11:28:57 GMT 47.627884 1.463860 34,000 17 469 0
2021-09-03 11:28:54 GMT 47.612885 1.456956 34,000 17 469 0
2021-09-03 11:28:50 GMT 47.612885 1.456956 34,000 17 469 0
2021-09-03 11:28:47 GMT 47.607193 1.454384 34,000 17 469 -64
2021-09-03 11:28:44 GMT 47.601196 1.451637 34,000 17 469 -64
2021-09-03 11:28:42 GMT 47.596436 1.449440 34,000 17 469 0
2021-09-03 11:28:38 GMT 47.589516 1.446252 34,000 17 469 0
2021-09-03 11:28:35 GMT 47.583206 1.443398 34,000 17 469 0
2021-09-03 11:28:33 GMT 47.577923 1.440970 34,000 17 469 0
2021-09-03 11:28:29 GMT 47.568195 1.436533 34,000 17 468 0
2021-09-03 11:28:26 GMT 47.563679 1.434420 34,000 17 467 0
2021-09-03 11:28:23 GMT 47.557159 1.431450 34,000 17 467 0
2021-09-03 11:28:18 GMT 47.546547 1.426603 34,000 17 467 0
2021-09-03 11:28:14 GMT 47.539936 1.423575 34,000 17 467 0
2021-09-03 11:28:11 GMT 47.530624 1.419349 34,000 17 467 0
2021-09-03 11:28:08 GMT 47.519211 1.414146 34,000 17 466 -64
2021-09-03 11:28:05 GMT 47.519211 1.414146 34,000 17 466 -64
2021-09-03 11:28:01 GMT 47.504974 1.407623 34,000 17 466 0
2021-09-03 11:27:58 GMT 47.498692 1.404771 34,000 17 466 0
2021-09-03 11:27:54 GMT 47.498692 1.404771 34,000 17 465 0
2021-09-03 11:27:49 GMT 47.488312 1.400002 34,000 17 465 64
2021-09-03 11:27:46 GMT 47.481537 1.396912 34,000 17 465 0
2021-09-03 11:27:43 GMT 47.474438 1.393714 34,000 17 465 0
2021-09-03 11:27:38 GMT 47.463730 1.388785 34,000 17 465 0
2021-09-03 11:27:35 GMT 47.459400 1.386813 34,000 17 465 0
2021-09-03 11:27:32 GMT 47.443085 1.379402 34,000 17 465 -64
2021-09-03 11:27:27 GMT 47.443085 1.379402 34,000 17 464 0
2021-09-03 11:27:24 GMT 47.433655 1.375076 34,000 17 464 0
2021-09-03 11:27:19 GMT 47.419785 1.368784 34,000 17 464 0
2021-09-03 11:27:16 GMT 47.419785 1.368784 34,000 17 464 0
2021-09-03 11:27:13 GMT 47.413330 1.365807 34,000 17 464 0
2021-09-03 11:27:10 GMT 47.406143 1.362511 34,000 17 464 0
2021-09-03 11:27:07 GMT 47.400833 1.360107 34,000 17 464 0
2021-09-03 11:27:03 GMT 47.392410 1.356262 34,000 17 464 0
2021-09-03 11:27:01 GMT 47.382496 1.351670 34,000 17 464 0
2021-09-03 11:26:58 GMT 47.382496 1.351670 34,000 17 464 0
2021-09-03 11:26:55 GMT 47.376434 1.348915 34,000 17 464 0
2021-09-03 11:26:52 GMT 47.372131 1.346992 34,000 17 464 0
2021-09-03 11:26:50 GMT 47.367599 1.344933 34,000 17 464 0
2021-09-03 11:26:46 GMT 47.355927 1.339645 34,000 17 464 0
2021-09-03 11:26:42 GMT 47.349792 1.336830 34,000 17 464 0
2021-09-03 11:26:39 GMT 47.343113 1.333782 34,000 17 464 0
2021-09-03 11:26:35 GMT 47.335339 1.330261 34,000 17 464 0
2021-09-03 11:26:32 GMT 47.323421 1.324909 34,000 17 464 0
2021-09-03 11:26:26 GMT 47.314087 1.320694 34,000 17 465 0
2021-09-03 11:26:21 GMT 47.304428 1.316299 34,000 17 464 0
2021-09-03 11:26:16 GMT 47.296749 1.312866 34,000 16 465 0
2021-09-03 11:26:13 GMT 47.289230 1.309502 34,000 16 465 0
2021-09-03 11:26:11 GMT 47.287399 1.308678 34,000 16 465 0
2021-09-03 11:26:08 GMT 47.280624 1.305588 34,000 17 465 0
2021-09-03 11:26:05 GMT 47.274261 1.302773 34,000 17 465 0
2021-09-03 11:26:02 GMT 47.262253 1.297302 34,000 17 465 0
2021-09-03 11:25:59 GMT 47.262253 1.297302 34,000 17 465 0
2021-09-03 11:25:56 GMT 47.252884 1.293091 34,000 17 465 0
2021-09-03 11:25:51 GMT 47.245697 1.289864 34,000 17 465 -64
2021-09-03 11:25:48 GMT 47.239441 1.287020 34,000 17 465 -64
2021-09-03 11:25:45 GMT 47.233154 1.284164 34,000 17 465 -64
2021-09-03 11:25:42 GMT 47.221146 1.278710 34,000 17 465 0
2021-09-03 11:25:39 GMT 47.221146 1.278710 34,000 17 465 -64
2021-09-03 11:25:35 GMT 47.212830 1.274963 34,000 16 465 0
2021-09-03 11:25:33 GMT 47.208939 1.273247 34,000 16 465 0
2021-09-03 11:25:30 GMT 47.200287 1.269333 34,000 16 465 0
2021-09-03 11:25:25 GMT 47.191353 1.265329 34,000 17 465 0
2021-09-03 11:25:21 GMT 47.184975 1.262442 34,000 17 465 0
2021-09-03 11:25:18 GMT 47.178596 1.259554 34,000 17 466 0
2021-09-03 11:25:15 GMT 47.170174 1.255822 34,000 17 465 0
2021-09-03 11:25:11 GMT 47.163982 1.253005 34,000 17 465 0
2021-09-03 11:25:08 GMT 47.156250 1.249557 34,000 17 465 0
2021-09-03 11:25:05 GMT 47.150806 1.247089 34,000 17 465 0
2021-09-03 11:25:02 GMT 47.144531 1.244270 34,000 17 465 0
2021-09-03 11:24:57 GMT 47.135399 1.240187 34,000 17 466 0
2021-09-03 11:24:52 GMT 47.123432 1.234765 34,000 17 466 0
2021-09-03 11:24:49 GMT 47.116638 1.231736 34,000 17 466 0
2021-09-03 11:24:46 GMT 47.112728 1.229976 34,000 17 466 0
2021-09-03 11:24:42 GMT 47.102966 1.225594 34,000 17 466 0
2021-09-03 11:24:40 GMT 47.099854 1.224220 34,000 17 466 0
2021-09-03 11:24:37 GMT 47.086899 1.218384 34,000 17 466 0
2021-09-03 11:24:34 GMT 47.079254 1.214951 34,000 17 466 0
2021-09-03 11:24:31 GMT 47.079254 1.214951 34,000 17 466 0
2021-09-03 11:24:27 GMT 47.073303 1.212273 34,000 17 466 0
2021-09-03 11:24:24 GMT 47.065659 1.208839 34,000 17 467 0
2021-09-03 11:24:21 GMT 47.059479 1.206093 34,000 17 467 0
2021-09-03 11:24:18 GMT 47.053299 1.203346 34,000 17 467 0
2021-09-03 11:24:15 GMT 47.046661 1.200394 34,000 17 467 0
2021-09-03 11:24:10 GMT 47.037003 1.195999 34,000 17 467 0
2021-09-03 11:24:07 GMT 47.031418 1.193527 34,000 17 467 0
2021-09-03 11:24:04 GMT 47.025116 1.190749 34,000 17 467 0
2021-09-03 11:24:01 GMT 47.018738 1.187862 34,000 17 467 0
2021-09-03 11:23:57 GMT 47.010033 1.183988 34,000 17 467 0
2021-09-03 11:23:54 GMT 47.003952 1.181236 34,000 17 467 0
2021-09-03 11:23:51 GMT 46.997955 1.178558 34,000 17 467 0
2021-09-03 11:23:47 GMT 46.989365 1.174762 34,000 17 467 0
2021-09-03 11:23:44 GMT 46.983406 1.172086 34,000 17 467 0
2021-09-03 11:23:40 GMT 46.975021 1.168327 34,000 17 467 0
2021-09-03 11:23:37 GMT 46.968742 1.165537 34,000 17 467 -64
2021-09-03 11:23:33 GMT 46.960327 1.161804 34,000 17 467 0
2021-09-03 11:23:30 GMT 46.953552 1.158714 34,000 17 467 0
2021-09-03 11:23:27 GMT 46.948257 1.156381 34,000 17 467 0
2021-09-03 11:23:24 GMT 46.941147 1.153221 34,000 17 467 0
2021-09-03 11:23:21 GMT 46.931313 1.148846 34,000 17 467 0
2021-09-03 11:23:19 GMT 46.931313 1.148846 34,000 17 467 0
2021-09-03 11:23:15 GMT 46.923862 1.145536 34,000 17 467 0
2021-09-03 11:23:11 GMT 46.914917 1.141479 34,000 17 467 0
2021-09-03 11:23:09 GMT 46.911804 1.140106 34,000 17 467 0
2021-09-03 11:23:06 GMT 46.905396 1.137222 34,000 16 467 0
2021-09-03 11:23:03 GMT 46.899216 1.134476 34,000 16 467 0
2021-09-03 11:23:00 GMT 46.893219 1.131798 34,000 17 468 0
2021-09-03 11:22:58 GMT 46.889465 1.130150 34,000 17 467 64
2021-09-03 11:22:55 GMT 46.880711 1.126239 34,000 17 467 0
2021-09-03 11:22:52 GMT 46.877701 1.124931 34,000 17 467 0
2021-09-03 11:22:49 GMT 46.869415 1.121223 34,000 17 467 64
2021-09-03 11:22:46 GMT 46.857468 1.115916 34,000 17 467 0
2021-09-03 11:22:43 GMT 46.857468 1.115916 34,000 17 467 0
2021-09-03 11:22:39 GMT 46.849522 1.112366 34,000 7 465 64
2021-09-03 11:22:36 GMT 46.843414 1.109619 34,000 16 466 0
2021-09-03 11:22:32 GMT 46.827942 1.102786 34,000 16 466 0
2021-09-03 11:22:29 GMT 46.827942 1.102786 34,000 16 467 0
2021-09-03 11:22:26 GMT 46.814236 1.096642 34,000 16 467 0
2021-09-03 11:22:23 GMT 46.814236 1.096642 35,000 16 466 0
2021-09-03 11:22:20 GMT 46.810276 1.094925 34,000 16 465 0
2021-09-03 11:22:18 GMT 46.806366 1.093208 34,000 16 465 0
2021-09-03 11:22:14 GMT 46.798546 1.089775 34,000 16 466 0
2021-09-03 11:22:10 GMT 46.790306 1.086067 34,000 16 466 0
2021-09-03 11:22:08 GMT 46.786057 1.084230 34,000 7 465 64
2021-09-03 11:22:05 GMT 46.777405 1.080412 34,000 16 466 0
2021-09-03 11:22:02 GMT 46.773102 1.078469 34,000 16 466 0
2021-09-03 11:21:59 GMT 46.767635 1.076042 34,000 16 466 0
2021-09-03 11:21:56 GMT 46.760147 1.072708 34,000 16 465 0
2021-09-03 11:21:52 GMT 46.752731 1.069425 34,000 16 466 0
2021-09-03 11:21:49 GMT 46.746220 1.066566 34,000 16 466 0
2021-09-03 11:21:46 GMT 46.733047 1.060730 34,000 16 465 0
2021-09-03 11:21:43 GMT 46.733047 1.060730 34,000 16 465 0
2021-09-03 11:21:39 GMT 46.725540 1.057434 34,000 16 465 0
2021-09-03 11:21:36 GMT 46.717712 1.053951 34,000 16 465 0
2021-09-03 11:21:32 GMT 46.711262 1.051117 34,000 16 465 0
2021-09-03 11:21:29 GMT 46.705994 1.048792 34,000 16 465 0
2021-09-03 11:21:26 GMT 46.697853 1.045212 34,000 16 465 0
2021-09-03 11:21:22 GMT 46.689697 1.041624 34,000 16 465 0
2021-09-03 11:21:18 GMT 46.681686 1.038141 34,000 16 465 0
2021-09-03 11:21:16 GMT 46.679626 1.037203 34,000 7 465 64
2021-09-03 11:21:13 GMT 46.673134 1.034363 34,000 16 465 0
2021-09-03 11:21:09 GMT 46.662846 1.029831 34,000 16 465 0
2021-09-03 11:21:06 GMT 46.657494 1.027428 34,000 16 465 0
2021-09-03 11:21:03 GMT 46.652252 1.025145 34,000 16 465 0
2021-09-03 11:21:00 GMT 46.644924 1.021935 34,000 16 465 0
2021-09-03 11:20:57 GMT 46.636497 1.018158 34,000 16 465 0
2021-09-03 11:20:54 GMT 46.630726 1.015686 34,000 16 465 0
2021-09-03 11:20:50 GMT 46.624950 1.013145 34,000 16 465 -64
2021-09-03 11:20:47 GMT 46.619522 1.010742 34,000 7 465 64
2021-09-03 11:20:44 GMT 46.612198 1.007515 34,000 16 465 0
2021-09-03 11:20:41 GMT 46.606052 1.004768 34,000 16 465 -64
2021-09-03 11:20:36 GMT 46.596313 1.000493 34,000 17 464 64
2021-09-03 11:20:32 GMT 46.587383 0.996529 34,000 17 463 0
2021-09-03 11:20:28 GMT 46.579193 0.992889 34,000 17 463 0
2021-09-03 11:20:22 GMT 46.566715 0.987328 34,000 17 463 0
2021-09-03 11:20:19 GMT 46.559963 0.984238 34,000 17 463 64
2021-09-03 11:20:15 GMT 46.552505 0.980865 34,000 17 462 0
2021-09-03 11:20:12 GMT 46.546417 0.977984 34,000 17 463 0
2021-09-03 11:20:08 GMT 46.537674 0.973898 34,000 18 462 0
2021-09-03 11:20:04 GMT 46.530762 0.970682 34,000 16 463 0
2021-09-03 11:20:01 GMT 46.524628 0.967936 34,000 16 463 0
2021-09-03 11:19:58 GMT 46.518036 0.965189 34,000 13 464 -64
2021-09-03 11:19:55 GMT 46.511738 0.962746 34,000 12 464 0
2021-09-03 11:19:52 GMT 46.504944 0.960500 34,000 12 464 0
2021-09-03 11:19:48 GMT 46.494282 0.957458 34,000 8 465 0
2021-09-03 11:19:46 GMT 46.494282 0.957458 34,000 9 465 -64
2021-09-03 11:19:42 GMT 46.484970 0.955261 34,000 8 465 0
2021-09-03 11:19:38 GMT 46.476452 0.953476 34,000 7 465 0
2021-09-03 11:19:36 GMT 46.470154 0.952260 34,000 8 465 0
2021-09-03 11:19:32 GMT 46.463791 0.950920 34,000 8 465 0
2021-09-03 11:19:28 GMT 46.453220 0.948807 34,000 8 465 -64
2021-09-03 11:19:25 GMT 46.448986 0.947914 34,000 8 464 0
2021-09-03 11:19:22 GMT 46.442505 0.946633 34,000 8 464 0
2021-09-03 11:19:18 GMT 46.433990 0.944891 34,000 8 464 0
2021-09-03 11:19:15 GMT 46.426640 0.943382 34,600 7 464 0
2021-09-03 11:19:12 GMT 46.421333 0.942352 34,000 7 464 0
2021-09-03 11:19:08 GMT 46.412109 0.940470 34,000 8 464 -64
2021-09-03 11:19:05 GMT 46.406342 0.939331 34,000 8 464 -64
2021-09-03 11:19:02 GMT 46.399639 0.937958 34,000 8 464 -64
2021-09-03 11:18:59 GMT 46.388306 0.935647 34,000 7 463 0
2021-09-03 11:18:54 GMT 46.381714 0.934307 34,000 7 463 0
2021-09-03 11:18:51 GMT 46.376083 0.933220 34,000 7 463 0
2021-09-03 11:18:47 GMT 46.368576 0.931694 34,000 7 463 0
2021-09-03 11:18:44 GMT 46.360519 0.930019 34,000 7 463 0
2021-09-03 11:18:37 GMT 46.345505 0.927005 34,000 8 462 64
2021-09-03 11:18:34 GMT 46.335026 0.924843 34,000 8 462 0
2021-09-03 11:18:31 GMT 46.335026 0.924843 34,000 8 462 0
2021-09-03 11:18:28 GMT 46.327206 0.923264 34,000 7 462 0
2021-09-03 11:18:26 GMT 46.322845 0.922383 34,000 8 462 64
2021-09-03 11:18:23 GMT 46.313965 0.920574 34,000 7 461 0
2021-09-03 11:18:19 GMT 46.307327 0.919212 34,000 8 461 -64
2021-09-03 11:18:16 GMT 46.302902 0.918320 34,000 7 461 0
2021-09-03 11:18:12 GMT 46.294785 0.916689 34,000 7 461 0
2021-09-03 11:18:09 GMT 46.288521 0.915436 34,000 7 461 0
2021-09-03 11:18:06 GMT 46.278835 0.913445 34,000 7 461 0
2021-09-03 11:18:02 GMT 46.271667 0.912003 34,000 7 460 0
2021-09-03 11:17:59 GMT 46.267548 0.911195 34,000 7 460 0
2021-09-03 11:17:56 GMT 46.260494 0.909737 34,000 7 460 0
2021-09-03 11:17:53 GMT 46.255234 0.908707 34,000 7 460 0
2021-09-03 11:17:50 GMT 46.246391 0.906921 34,000 7 460 64
2021-09-03 11:17:47 GMT 46.242050 0.906037 34,000 7 460 0
2021-09-03 11:17:44 GMT 46.233124 0.904243 34,000 7 460 0
2021-09-03 11:17:40 GMT 46.227722 0.903157 34,000 7 460 0
2021-09-03 11:17:37 GMT 46.218971 0.901428 34,000 7 460 0
2021-09-03 11:17:33 GMT 46.211105 0.899874 34,000 7 460 0
2021-09-03 11:17:27 GMT 46.199604 0.897514 34,000 7 460 64
2021-09-03 11:17:25 GMT 46.194443 0.896525 34,000 7 460 0
2021-09-03 11:17:20 GMT 46.183823 0.894356 34,000 7 460 -64
2021-09-03 11:17:16 GMT 46.176544 0.892907 34,000 7 460 64
2021-09-03 11:17:13 GMT 46.166885 0.890964 34,000 7 460 0
2021-09-03 11:17:10 GMT 46.162781 0.890167 34,000 7 460 -64
2021-09-03 11:17:07 GMT 46.156452 0.888863 34,000 7 460 -64
2021-09-03 11:17:05 GMT 46.150223 0.887682 34,000 7 460 0
2021-09-03 11:17:00 GMT 46.139832 0.885567 34,000 7 460 0
2021-09-03 11:16:57 GMT 46.135410 0.884674 34,000 7 460 0
2021-09-03 11:16:55 GMT 46.131172 0.883850 34,000 7 460 0
2021-09-03 11:16:52 GMT 46.124889 0.882614 34,000 8 459 -128
2021-09-03 11:16:49 GMT 46.119396 0.881516 34,000 7 460 0
2021-09-03 11:16:46 GMT 46.112041 0.880074 34,000 7 460 0
2021-09-03 11:16:42 GMT 46.104538 0.878571 34,000 7 460 64
2021-09-03 11:16:38 GMT 46.096027 0.876915 34,000 7 460 0
2021-09-03 11:16:34 GMT 46.088104 0.875356 34,000 7 460 -64
2021-09-03 11:16:29 GMT 46.068653 0.871559 34,000 7 459 -64
2021-09-03 11:16:25 GMT 46.068653 0.871559 34,000 7 459 0
2021-09-03 11:16:22 GMT 46.062138 0.870255 34,000 7 459 0
2021-09-03 11:16:19 GMT 46.055740 0.869059 34,000 7 459 -64
2021-09-03 11:16:16 GMT 46.047611 0.867439 34,000 7 459 -64
2021-09-03 11:16:12 GMT 46.039185 0.865791 34,000 7 460 0
2021-09-03 11:16:08 GMT 46.032578 0.864570 34,000 7 459 0
2021-09-03 11:16:05 GMT 46.026382 0.863319 34,000 7 459 0
2021-09-03 11:16:01 GMT 46.005432 0.859211 34,000 7 460 0
2021-09-03 11:15:55 GMT 46.005432 0.859211 34,000 7 460 0
2021-09-03 11:15:53 GMT 46.001450 0.858407 34,000 8 460 0
2021-09-03 11:15:45 GMT 45.982910 0.854656 34,000 8 459 -128
2021-09-03 11:15:42 GMT 45.978470 0.853718 34,000 7 460 128
2021-09-03 11:15:38 GMT 45.969776 0.851921 34,000 7 460 128
2021-09-03 11:15:33 GMT 45.960571 0.850235 34,000 5 462 64
2021-09-03 11:15:30 GMT 45.952179 0.849174 34,000 0 464 0
2021-09-03 11:15:27 GMT 45.945148 0.848694 34,000 0 464 0
2021-09-03 11:15:24 GMT 45.940636 0.848625 34,000 0 464 0
2021-09-03 11:15:22 GMT 45.930038 0.848895 34,000 357 464 64
2021-09-03 11:15:19 GMT 45.930038 0.848895 34,000 355 464 128
2021-09-03 11:15:14 GMT 45.918152 0.850136 34,000 354 464 64
2021-09-03 11:15:11 GMT 45.912094 0.851239 34,000 352 465 -64
2021-09-03 11:15:06 GMT 45.900192 0.853986 34,000 349 466 0
2021-09-03 11:15:03 GMT 45.895851 0.855286 34,000 348 467 -64
2021-09-03 11:14:59 GMT 45.887329 0.858273 34,025 343 470 -64
2021-09-03 11:14:54 GMT 45.876438 0.862839 34,025 342 470 -128
2021-09-03 11:14:51 GMT 45.870346 0.865776 34,975 322 474 -1344
2021-09-03 11:14:47 GMT 45.861729 0.870529 34,100 338 472 -256
2021-09-03 11:14:44 GMT 45.854782 0.874753 34,050 336 473 -384
2021-09-03 11:14:41 GMT 45.841782 0.883863 34,975 322 474 -1344
2021-09-03 11:14:38 GMT 45.841782 0.883863 34,100 331 476 -832
2021-09-03 11:14:33 GMT 45.833954 0.890295 34,150 329 477 -1024
2021-09-03 11:14:30 GMT 45.830017 0.893778 34,175 327 477 -1344
2021-09-03 11:14:26 GMT 45.821552 0.902115 34,300 324 478 -1664
2021-09-03 11:14:23 GMT 45.816055 0.908181 34,575 322 478 -2240
2021-09-03 11:14:19 GMT 45.807220 0.918229 34,575 322 477 -2304
2021-09-03 11:14:15 GMT 45.802189 0.924088 34,700 322 475 -2048
2021-09-03 11:14:12 GMT 45.798477 0.928278 34,950 322 474 -1344
2021-09-03 11:14:08 GMT 45.790176 0.937820 34,950 322 473 -640
2021-09-03 11:14:04 GMT 45.782497 0.946678 34,975 322 473 -640
2021-09-03 11:14:01 GMT 45.777832 0.952059 35,000 322 473 -128
2021-09-03 11:13:58 GMT 45.772816 0.957802 35,000 322 473 -128
2021-09-03 11:13:55 GMT 45.768127 0.963179 35,000 322 472 0
2021-09-03 11:13:53 GMT 45.764622 0.967209 35,000 322 473 0
2021-09-03 11:13:50 GMT 45.759361 0.973251 35,000 322 472 0
2021-09-03 11:13:45 GMT 45.751026 0.982864 35,000 322 472 -128
2021-09-03 11:13:43 GMT 45.741997 0.993164 35,000 322 471 0
2021-09-03 11:13:39 GMT 45.741997 0.993164 35,000 322 471 0
2021-09-03 11:13:33 GMT 45.730591 1.006210 35,000 322 470 0
2021-09-03 11:13:30 GMT 45.724594 1.013087 35,000 322 471 0
2021-09-03 11:13:24 GMT 45.716297 1.022415 35,000 322 470 -64
2021-09-03 11:13:21 GMT 45.710293 1.029076 35,000 323 469 0
2021-09-03 11:13:18 GMT 45.705597 1.034256 35,000 323 469 64
2021-09-03 11:13:15 GMT 45.701172 1.039032 35,000 324 469 64
2021-09-03 11:13:12 GMT 45.695072 1.045418 35,000 326 468 -192
2021-09-03 11:13:09 GMT 45.689163 1.051405 35,000 325 468 128
2021-09-03 11:13:06 GMT 45.683487 1.057099 35,000 324 469 128
2021-09-03 11:13:02 GMT 45.677536 1.063329 35,000 320 469 0
2021-09-03 11:12:59 GMT 45.670727 1.071167 35,025 304 474 -64
2021-09-03 11:12:52 GMT 45.661137 1.083801 35,000 313 472 0
2021-09-03 11:12:49 GMT 45.657440 1.089321 35,000 312 473 0
2021-09-03 11:12:45 GMT 45.650986 1.099906 35,000 307 474 -64
2021-09-03 11:12:42 GMT 45.647030 1.107147 35,025 306 474 -64
2021-09-03 11:12:39 GMT 45.643021 1.115179 35,025 304 474 -64
2021-09-03 11:12:37 GMT 45.640457 1.120605 35,000 299 476 64
2021-09-03 11:12:33 GMT 45.635437 1.132553 35,025 298 476 64
2021-09-03 11:12:30 GMT 45.632812 1.139631 35,025 295 477 0
2021-09-03 11:12:27 GMT 45.629387 1.149651 35,000 295 477 0
2021-09-03 11:12:24 GMT 45.627274 1.156713 35,000 293 477 0
2021-09-03 11:12:21 GMT 45.625198 1.164207 35,000 290 478 0
2021-09-03 11:12:17 GMT 45.622192 1.176944 35,000 286 479 0
2021-09-03 11:12:13 GMT 45.619751 1.189545 35,000 283 480 0
2021-09-03 11:12:11 GMT 45.618958 1.194489 35,000 282 480 0
2021-09-03 11:12:08 GMT 45.617607 1.203758 35,025 281 480 0
2021-09-03 11:12:04 GMT 45.616150 1.218344 35,000 277 481 0
2021-09-03 11:12:02 GMT 45.615608 1.226418 35,025 274 482 0
2021-09-03 11:11:57 GMT 45.615143 1.238575 35,025 271 482 0
2021-09-03 11:11:54 GMT 45.615143 1.251303 35,000 267 482 64
2021-09-03 11:11:51 GMT 45.615326 1.257935 35,000 267 483 64
2021-09-03 11:11:48 GMT 45.615841 1.267342 35,000 263 483 0
2021-09-03 11:11:42 GMT 45.617798 1.287343 35,000 259 484 0
2021-09-03 11:11:38 GMT 45.619751 1.300232 35,000 226 483 0
2021-09-03 11:11:31 GMT 45.623932 1.320637 35,000 251 485 0
2021-09-03 11:11:28 GMT 45.626312 1.329882 35,000 250 484 0
2021-09-03 11:11:25 GMT 45.629425 1.340533 35,000 246 484 0
2021-09-03 11:11:22 GMT 45.631805 1.347768 35,000 243 485 64
2021-09-03 11:11:19 GMT 45.634602 1.355576 35,000 241 484 0
2021-09-03 11:11:16 GMT 45.637482 1.362975 35,000 239 485 0
2021-09-03 11:11:11 GMT 45.645679 1.381050 35,000 235 484 0
2021-09-03 11:11:06 GMT 45.650620 1.390373 35,000 231 484 0
2021-09-03 11:11:02 GMT 45.657532 1.402097 35,000 228 484 64
2021-09-03 11:10:59 GMT 45.661514 1.408126 35,000 226 483 -64
2021-09-03 11:10:54 GMT 45.669468 1.419022 35,000 220 483 0
2021-09-03 11:10:49 GMT 45.678040 1.429361 35,000 218 482 0
2021-09-03 11:10:44 GMT 45.691582 1.443054 35,000 213 481 64
2021-09-03 11:10:39 GMT 45.696327 1.447105 35,000 210 480 0
2021-09-03 11:10:36 GMT 45.700985 1.450882 35,000 208 480 0
2021-09-03 11:10:32 GMT 45.709084 1.456718 35,000 205 478 -128
2021-09-03 11:10:30 GMT 45.714249 1.460043 35,000 202 478 64
2021-09-03 11:10:26 GMT 45.722260 1.464598 35,000 197 476 0
2021-09-03 11:10:23 GMT 45.728714 1.467747 35,000 196 476 -128
2021-09-03 11:10:20 GMT 45.734207 1.470024 35,000 195 475 -128
2021-09-03 11:10:17 GMT 45.739857 1.472099 35,000 194 475 -64
2021-09-03 11:10:13 GMT 45.749443 1.475395 35,025 194 475 64
2021-09-03 11:10:10 GMT 45.757462 1.478063 35,000 194 475 -64
2021-09-03 11:10:05 GMT 45.766155 1.480957 35,000 193 476 0
2021-09-03 11:10:00 GMT 45.777145 1.484561 35,000 194 475 0
2021-09-03 11:09:58 GMT 45.780262 1.485558 35,000 194 475 64
2021-09-03 11:09:55 GMT 45.788177 1.488167 35,000 193 474 0
2021-09-03 11:09:50 GMT 45.798569 1.491595 35,000 193 475 0
2021-09-03 11:09:46 GMT 45.807262 1.494415 35,000 193 476 0
2021-09-03 11:09:42 GMT 45.816013 1.497368 35,000 194 476 0
2021-09-03 11:09:38 GMT 45.823322 1.499771 35,000 194 476 -64
2021-09-03 11:09:35 GMT 45.830475 1.502179 35,000 194 475 0
2021-09-03 11:09:30 GMT 45.841526 1.505951 35,000 194 476 0
2021-09-03 11:09:26 GMT 45.851669 1.509414 35,000 194 477 0
2021-09-03 11:09:23 GMT 45.855743 1.510821 35,000 194 477 0
2021-09-03 11:09:20 GMT 45.862381 1.513099 35,000 194 477 0
2021-09-03 11:09:16 GMT 45.871273 1.516182 35,000 194 477 -64
2021-09-03 11:09:13 GMT 45.877808 1.518391 35,000 194 477 -64
2021-09-03 11:09:10 GMT 45.883514 1.520370 35,025 194 477 0
2021-09-03 11:09:06 GMT 45.891541 1.523214 35,025 194 477 0
2021-09-03 11:09:03 GMT 45.898087 1.525452 35,000 194 478 0
2021-09-03 11:09:00 GMT 45.906326 1.528305 35,000 194 477 0
2021-09-03 11:08:56 GMT 45.914703 1.531186 35,000 194 477 0
2021-09-03 11:08:52 GMT 45.921921 1.533554 35,000 194 478 0
2021-09-03 11:08:48 GMT 45.932907 1.537262 35,000 194 478 64
2021-09-03 11:08:45 GMT 45.951324 1.543378 35,000 194 478 64
2021-09-03 11:08:39 GMT 45.951324 1.543378 35,000 194 478 0
2021-09-03 11:08:36 GMT 45.957672 1.545502 35,000 194 478 0
2021-09-03 11:08:33 GMT 45.964096 1.547630 35,000 194 478 0
2021-09-03 11:08:30 GMT 45.970459 1.549809 35,000 194 478 0
2021-09-03 11:08:26 GMT 45.982391 1.553810 35,000 194 478 0
2021-09-03 11:08:22 GMT 45.987900 1.555704 35,000 194 477 0
2021-09-03 11:08:19 GMT 45.992615 1.557245 35,000 194 477 0
2021-09-03 11:08:15 GMT 46.005203 1.561501 35,000 194 478 0
2021-09-03 11:08:08 GMT 46.019402 1.566307 35,000 194 477 0
2021-09-03 11:08:05 GMT 46.023914 1.567818 35,000 194 477 0
2021-09-03 11:07:59 GMT 46.036160 1.571938 35,000 194 477 -64
2021-09-03 11:07:55 GMT 46.045074 1.574997 35,000 194 477 -64
2021-09-03 11:07:52 GMT 46.053802 1.577911 35,000 194 477 64
2021-09-03 11:07:49 GMT 46.058167 1.579419 35,000 194 477 0
2021-09-03 11:07:45 GMT 46.066048 1.582031 35,000 194 477 -64
2021-09-03 11:07:42 GMT 46.072052 1.584091 35,000 194 477 -64
2021-09-03 11:07:39 GMT 46.079594 1.586632 35,025 194 477 0
2021-09-03 11:07:34 GMT 46.090851 1.590472 35,000 194 478 64
2021-09-03 11:07:29 GMT 46.101101 1.593910 35,000 194 478 0
2021-09-03 11:07:26 GMT 46.108597 1.596451 35,000 194 478 64
2021-09-03 11:07:23 GMT 46.114227 1.598373 35,000 194 478 64
2021-09-03 11:07:19 GMT 46.123493 1.601532 35,000 194 478 -64
2021-09-03 11:07:16 GMT 46.129730 1.603661 35,000 194 478 0
2021-09-03 11:07:12 GMT 46.137360 1.606215 35,000 194 479 0
2021-09-03 11:07:09 GMT 46.144913 1.608827 35,000 194 479 0
2021-09-03 11:07:06 GMT 46.151703 1.611145 35,000 194 478 0
2021-09-03 11:07:03 GMT 46.158691 1.613516 35,000 194 478 0
2021-09-03 11:06:59 GMT 46.166428 1.616129 35,000 194 478 -64
2021-09-03 11:06:55 GMT 46.174164 1.618742 35,000 194 478 0
2021-09-03 11:06:52 GMT 46.181171 1.621170 35,000 194 478 64
2021-09-03 11:06:48 GMT 46.189911 1.624101 35,000 194 478 0
2021-09-03 11:06:45 GMT 46.196255 1.626251 35,000 194 478 0
2021-09-03 11:06:42 GMT 46.202591 1.628388 35,000 194 478 64
2021-09-03 11:06:39 GMT 46.210327 1.631068 35,000 194 478 0
2021-09-03 11:06:34 GMT 46.219902 1.634354 35,000 194 478 0
2021-09-03 11:06:31 GMT 46.225300 1.636139 35,000 194 478 0
2021-09-03 11:06:27 GMT 46.233810 1.639040 35,000 194 478 0
2021-09-03 11:06:24 GMT 46.246620 1.643417 35,000 194 478 64
2021-09-03 11:06:21 GMT 46.246620 1.643417 35,000 194 478 64
2021-09-03 11:06:18 GMT 46.254044 1.645940 35,000 194 478 64
2021-09-03 11:06:15 GMT 46.260727 1.648217 35,000 194 478 0
2021-09-03 11:06:12 GMT 46.268780 1.650970 35,000 194 478 64
2021-09-03 11:06:09 GMT 46.272457 1.652206 35,000 194 478 0
2021-09-03 11:06:06 GMT 46.279118 1.654472 35,000 194 479 0
2021-09-03 11:06:03 GMT 46.285675 1.656725 35,000 194 478 0
2021-09-03 11:06:00 GMT 46.295609 1.660141 35,000 194 478 64
2021-09-03 11:05:56 GMT 46.301086 1.662025 35,000 194 479 -64
2021-09-03 11:05:53 GMT 46.309158 1.664764 35,000 194 478 0
2021-09-03 11:05:48 GMT 46.317993 1.667778 35,000 194 478 -64
2021-09-03 11:05:45 GMT 46.326828 1.670793 35,000 194 479 0
2021-09-03 11:05:42 GMT 46.332092 1.672600 35,000 194 479 0
2021-09-03 11:05:37 GMT 46.341248 1.675750 35,000 194 478 0
2021-09-03 11:05:33 GMT 46.350574 1.678986 35,000 194 477 0
2021-09-03 11:05:30 GMT 46.358002 1.681511 35,000 194 477 0
2021-09-03 11:05:27 GMT 46.362633 1.683105 35,000 194 477 0
2021-09-03 11:05:23 GMT 46.372314 1.686401 35,000 194 477 -64
2021-09-03 11:05:20 GMT 46.379391 1.688805 35,000 194 477 0
2021-09-03 11:05:17 GMT 46.384872 1.690689 35,000 194 477 64
2021-09-03 11:05:14 GMT 46.392517 1.693336 35,000 194 477 0
2021-09-03 11:05:11 GMT 46.398834 1.695445 35,000 194 477 0
2021-09-03 11:05:08 GMT 46.404648 1.697455 35,000 194 477 0
2021-09-03 11:05:05 GMT 46.412384 1.700134 35,000 194 477 -64
2021-09-03 11:05:02 GMT 46.417610 1.701920 35,000 194 478 0
2021-09-03 11:04:58 GMT 46.434788 1.707825 35,000 194 477 0
2021-09-03 11:04:54 GMT 46.434788 1.707825 35,000 194 476 -64
2021-09-03 11:04:51 GMT 46.443695 1.710853 35,000 194 476 -64
2021-09-03 11:04:47 GMT 46.449051 1.712728 35,000 194 477 -64
2021-09-03 11:04:43 GMT 46.458481 1.716011 35,000 194 476 0
2021-09-03 11:04:40 GMT 46.465881 1.718536 35,000 194 476 0
2021-09-03 11:04:36 GMT 46.474136 1.721370 35,000 194 476 0
2021-09-03 11:04:31 GMT 46.485077 1.725121 35,000 194 476 0
2021-09-03 11:04:27 GMT 46.492466 1.727669 35,000 194 477 0
2021-09-03 11:04:23 GMT 46.501144 1.730682 35,000 194 477 0
2021-09-03 11:04:20 GMT 46.507599 1.732892 35,000 194 476 0
2021-09-03 11:04:15 GMT 46.518162 1.736526 35,000 194 476 64
2021-09-03 11:04:12 GMT 46.525589 1.739055 35,000 194 475 64
2021-09-03 11:04:09 GMT 46.531998 1.741333 35,000 194 476 0
2021-09-03 11:04:05 GMT 46.538635 1.743611 35,000 194 475 0
2021-09-03 11:04:02 GMT 46.546234 1.746208 35,000 194 475 64
2021-09-03 11:03:59 GMT 46.552734 1.748434 35,000 194 475 64
2021-09-03 11:03:56 GMT 46.558197 1.750328 35,000 194 475 64
2021-09-03 11:03:53 GMT 46.564621 1.752525 35,000 194 475 0
2021-09-03 11:03:49 GMT 46.574490 1.755959 35,000 194 475 0
2021-09-03 11:03:46 GMT 46.580566 1.758080 35,000 194 475 0
2021-09-03 11:03:43 GMT 46.586563 1.760090 35,000 194 475 0
2021-09-03 11:03:39 GMT 46.602127 1.765516 35,000 194 474 0
2021-09-03 11:03:33 GMT 46.607254 1.767258 35,000 194 474 0
2021-09-03 11:03:30 GMT 46.614201 1.769691 35,000 194 474 0
2021-09-03 11:03:25 GMT 46.625610 1.773622 35,000 194 474 0
2021-09-03 11:03:20 GMT 46.636402 1.777313 35,000 194 474 0
2021-09-03 11:03:17 GMT 46.650192 1.782130 35,000 194 474 0
2021-09-03 11:03:14 GMT 46.650192 1.782130 35,000 194 474 0
2021-09-03 11:03:11 GMT 46.655399 1.783905 35,000 194 474 0
2021-09-03 11:03:08 GMT 46.660751 1.785759 35,000 194 474 0
2021-09-03 11:03:06 GMT 46.665218 1.787270 35,025 194 474 0
2021-09-03 11:03:03 GMT 46.679325 1.792145 35,000 194 474 0
2021-09-03 11:03:00 GMT 46.686035 1.794456 35,000 194 474 0
2021-09-03 11:02:57 GMT 46.686035 1.794456 35,000 194 474 0
2021-09-03 11:02:53 GMT 46.693382 1.797020 35,000 194 474 0
2021-09-03 11:02:49 GMT 46.701298 1.799698 35,000 194 474 0
2021-09-03 11:02:44 GMT 46.718151 1.805534 35,000 194 474 64
2021-09-03 11:02:41 GMT 46.718151 1.805534 35,000 194 475 0
2021-09-03 11:02:38 GMT 46.724670 1.807854 35,000 194 475 0
2021-09-03 11:02:34 GMT 46.734818 1.811371 35,000 194 476 0
2021-09-03 11:02:31 GMT 46.740280 1.813280 35,000 194 476 0
2021-09-03 11:02:28 GMT 46.747433 1.815765 35,000 194 476 0
2021-09-03 11:02:25 GMT 46.752869 1.817701 35,000 194 476 0
2021-09-03 11:02:22 GMT 46.761536 1.820709 35,000 194 477 0
2021-09-03 11:02:19 GMT 46.765587 1.822151 35,000 194 476 0
2021-09-03 11:02:16 GMT 46.772243 1.824417 35,000 194 476 0
2021-09-03 11:02:13 GMT 46.779739 1.827026 35,000 194 476 64
2021-09-03 11:02:08 GMT 46.790314 1.830697 35,000 194 476 0
2021-09-03 11:02:02 GMT 46.801895 1.834717 35,000 194 476 0
2021-09-03 11:01:58 GMT 46.811813 1.838219 35,000 194 476 0
2021-09-03 11:01:55 GMT 46.819656 1.840947 35,000 194 477 0
2021-09-03 11:01:51 GMT 46.827038 1.843575 35,000 194 477 0
2021-09-03 11:01:48 GMT 46.832520 1.845435 35,000 194 477 0
2021-09-03 11:01:45 GMT 46.838928 1.847713 35,000 194 477 -64
2021-09-03 11:01:41 GMT 46.849937 1.851540 35,000 194 477 -64
2021-09-03 11:01:38 GMT 46.857014 1.854012 35,000 194 477 0
2021-09-03 11:01:35 GMT 46.862045 1.855752 35,000 194 477 64
2021-09-03 11:01:32 GMT 46.866467 1.857307 35,000 194 477 0
2021-09-03 11:01:29 GMT 46.874146 1.859999 35,000 194 477 0
2021-09-03 11:01:27 GMT 46.877701 1.861221 35,000 194 477 0
2021-09-03 11:01:24 GMT 46.884109 1.863487 35,000 194 477 0
2021-09-03 11:01:21 GMT 46.889694 1.865410 35,000 194 476 0
2021-09-03 11:01:18 GMT 46.896027 1.867605 35,000 194 477 0
2021-09-03 11:01:15 GMT 46.902328 1.869804 35,000 194 476 0
2021-09-03 11:01:12 GMT 46.909607 1.872414 35,000 194 476 0
2021-09-03 11:01:09 GMT 46.916557 1.874789 35,000 194 476 0
2021-09-03 11:01:05 GMT 46.923523 1.877220 35,000 194 476 0
2021-09-03 11:01:02 GMT 46.931854 1.880173 35,000 194 476 0
2021-09-03 11:00:59 GMT 46.938808 1.882606 35,000 194 476 0
2021-09-03 11:00:56 GMT 46.942978 1.884087 35,000 194 476 0
2021-09-03 11:00:52 GMT 46.953049 1.887589 35,000 194 476 0
2021-09-03 11:00:48 GMT 46.960640 1.890282 35,000 194 476 0
2021-09-03 11:00:46 GMT 46.965042 1.891846 35,000 194 476 0
2021-09-03 11:00:43 GMT 46.973675 1.894860 35,000 194 476 0
2021-09-03 11:00:40 GMT 46.976990 1.896034 35,000 194 476 64
2021-09-03 11:00:37 GMT 46.983963 1.898452 35,025 194 476 0
2021-09-03 11:00:34 GMT 46.994019 1.901973 35,000 194 476 0
2021-09-03 11:00:31 GMT 46.998184 1.903450 35,000 194 476 0
2021-09-03 11:00:28 GMT 47.003952 1.905441 35,000 194 476 64
2021-09-03 11:00:26 GMT 47.007568 1.906746 35,000 194 476 0
2021-09-03 11:00:23 GMT 47.013710 1.908875 35,000 194 476 0
2021-09-03 11:00:19 GMT 47.024185 1.912537 35,000 194 476 64
2021-09-03 11:00:14 GMT 47.034119 1.916084 35,000 194 476 0
2021-09-03 11:00:11 GMT 47.040298 1.918213 35,000 194 476 -64
2021-09-03 11:00:08 GMT 47.046936 1.920547 35,000 194 476 0
2021-09-03 11:00:05 GMT 47.053345 1.922813 35,000 194 476 64
2021-09-03 11:00:02 GMT 47.068176 1.928030 35,000 194 475 0
2021-09-03 10:59:58 GMT 47.068176 1.928030 35,000 194 475 0
2021-09-03 10:59:54 GMT 47.076508 1.930988 35,000 194 475 0
2021-09-03 10:59:51 GMT 47.083118 1.933312 35,000 194 475 0
2021-09-03 10:59:48 GMT 47.089645 1.935585 35,000 194 475 0
2021-09-03 10:59:46 GMT 47.094246 1.937185 35,000 194 475 0
2021-09-03 10:59:41 GMT 47.104488 1.940777 35,000 194 475 0
2021-09-03 10:59:38 GMT 47.113426 1.943946 35,000 194 474 0
2021-09-03 10:59:33 GMT 47.121002 1.946640 35,000 194 474 0
2021-09-03 10:59:30 GMT 47.136421 1.952045 35,000 194 474 0
2021-09-03 10:59:26 GMT 47.136421 1.952045 35,000 194 474 0
2021-09-03 10:59:24 GMT 47.140823 1.953644 35,000 194 474 0
2021-09-03 10:59:21 GMT 47.147415 1.955910 35,000 194 474 0
2021-09-03 10:59:17 GMT 47.155930 1.958931 35,000 194 474 0
2021-09-03 10:59:13 GMT 47.163933 1.961764 35,000 194 474 -64
2021-09-03 10:59:10 GMT 47.170212 1.963943 35,000 194 474 -64
2021-09-03 10:59:06 GMT 47.178268 1.966827 35,000 194 474 -64
2021-09-03 10:59:03 GMT 47.184975 1.969229 35,000 194 474 0
2021-09-03 10:59:00 GMT 47.191586 1.971553 35,000 194 474 0
2021-09-03 10:58:56 GMT 47.199554 1.974380 35,000 194 474 0
2021-09-03 10:58:54 GMT 47.203922 1.975919 35,000 194 474 0
2021-09-03 10:58:50 GMT 47.212784 1.979050 35,000 194 474 0
2021-09-03 10:58:47 GMT 47.219051 1.981272 35,000 194 474 0
2021-09-03 10:58:44 GMT 47.225143 1.983444 35,000 194 474 0
2021-09-03 10:58:39 GMT 47.236633 1.987495 35,000 194 474 0
2021-09-03 10:58:36 GMT 47.243042 1.989761 35,000 194 474 0
2021-09-03 10:58:32 GMT 47.250801 1.992540 35,000 194 474 -64
2021-09-03 10:58:29 GMT 47.257736 1.994980 35,000 194 474 0
2021-09-03 10:58:26 GMT 47.264442 1.997329 35,000 194 474 0
2021-09-03 10:58:23 GMT 47.271889 2.000005 35,000 194 474 64
2021-09-03 10:58:19 GMT 47.281292 2.003315 35,000 194 474 0
2021-09-03 10:58:16 GMT 47.285530 2.004864 35,000 194 474 0
2021-09-03 10:58:14 GMT 47.289688 2.006310 35,000 194 474 0
2021-09-03 10:58:09 GMT 47.300240 2.010075 35,000 194 474 0
2021-09-03 10:58:06 GMT 47.306534 2.012283 35,000 194 474 0
2021-09-03 10:58:04 GMT 47.310665 2.013738 35,000 194 474 0
2021-09-03 10:57:59 GMT 47.321560 2.017611 35,025 194 474 0
2021-09-03 10:57:55 GMT 47.329102 2.020317 35,000 194 474 64
2021-09-03 10:57:53 GMT 47.334412 2.022171 35,000 194 474 0
2021-09-03 10:57:50 GMT 47.339436 2.023949 35,000 194 474 0
2021-09-03 10:57:47 GMT 47.345814 2.026203 35,000 194 474 -64
2021-09-03 10:57:44 GMT 47.354332 2.029231 35,000 194 474 0
2021-09-03 10:57:41 GMT 47.358803 2.030851 35,000 194 474 0
2021-09-03 10:57:35 GMT 47.371372 2.035288 35,000 194 474 0
2021-09-03 10:57:33 GMT 47.377899 2.037621 35,000 194 474 0
2021-09-03 10:57:27 GMT 47.390030 2.041946 35,000 194 474 0
2021-09-03 10:57:24 GMT 47.397766 2.044725 35,000 194 474 0
2021-09-03 10:57:20 GMT 47.403854 2.046890 35,000 194 474 0
2021-09-03 10:57:17 GMT 47.412289 2.049866 35,000 194 474 0
2021-09-03 10:57:10 GMT 47.425369 2.054581 35,000 194 474 0
2021-09-03 10:57:06 GMT 47.435055 2.058035 35,000 194 474 0
2021-09-03 10:57:02 GMT 47.442581 2.060692 35,000 194 474 64
2021-09-03 10:56:59 GMT 47.450790 2.063669 35,000 194 474 0
2021-09-03 10:56:55 GMT 47.458374 2.066322 35,000 194 474 0
2021-09-03 10:56:52 GMT 47.464008 2.068317 35,000 194 474 -64
2021-09-03 10:56:49 GMT 47.477280 2.073120 35,000 194 474 0
2021-09-03 10:56:46 GMT 47.477280 2.073120 35,000 194 474 0
2021-09-03 10:56:42 GMT 47.486122 2.076275 35,025 194 473 0
2021-09-03 10:56:38 GMT 47.494308 2.079163 35,000 194 473 0
2021-09-03 10:56:35 GMT 47.500259 2.081291 35,000 194 474 0
2021-09-03 10:56:32 GMT 47.505569 2.083214 35,000 194 473 0
2021-09-03 10:56:29 GMT 47.513031 2.085892 35,000 194 474 0
2021-09-03 10:56:25 GMT 47.521873 2.089022 35,000 194 474 64
2021-09-03 10:56:22 GMT 47.529831 2.091934 35,000 194 475 0
2021-09-03 10:56:19 GMT 47.533264 2.093170 35,000 194 475 0
2021-09-03 10:56:15 GMT 47.542961 2.096628 35,000 194 475 0
2021-09-03 10:56:12 GMT 47.555576 2.101135 35,000 194 475 0
2021-09-03 10:56:09 GMT 47.563026 2.103811 35,000 194 478 0
2021-09-03 10:56:05 GMT 47.563026 2.103811 35,000 194 476 0
2021-09-03 10:56:02 GMT 47.571175 2.106769 35,000 194 476 0
2021-09-03 10:55:59 GMT 47.577896 2.109169 35,000 194 476 0
2021-09-03 10:55:56 GMT 47.583252 2.111092 35,000 194 477 -64
2021-09-03 10:55:53 GMT 47.590530 2.113701 35,000 194 477 -64
2021-09-03 10:55:50 GMT 47.598358 2.116558 35,000 194 477 0
2021-09-03 10:55:46 GMT 47.605621 2.119164 35,000 194 477 0
2021-09-03 10:55:41 GMT 47.615307 2.122615 35,000 194 478 0
2021-09-03 10:55:38 GMT 47.623638 2.125643 35,000 194 478 0
2021-09-03 10:55:35 GMT 47.629120 2.127571 35,025 194 478 -64
2021-09-03 10:55:30 GMT 47.640629 2.131700 35,025 194 478 0
2021-09-03 10:55:26 GMT 47.648026 2.134369 34,975 194 478 576
2021-09-03 10:55:22 GMT 47.658554 2.138145 35,000 194 479 0
2021-09-03 10:55:17 GMT 47.666336 2.140961 35,000 194 479 0
2021-09-03 10:55:14 GMT 47.673843 2.143707 35,000 194 480 0
2021-09-03 10:55:10 GMT 47.681969 2.146559 35,000 194 480 0
2021-09-03 10:55:05 GMT 47.693138 2.150644 34,975 194 478 576
2021-09-03 10:55:01 GMT 47.701904 2.153732 35,000 194 480 0
2021-09-03 10:54:58 GMT 47.707489 2.155792 35,000 194 480 0
2021-09-03 10:54:55 GMT 47.715271 2.158539 35,000 194 479 64
2021-09-03 10:54:51 GMT 47.723537 2.161560 35,000 194 479 64
2021-09-03 10:54:48 GMT 47.728706 2.163391 34,975 194 479 192
2021-09-03 10:54:44 GMT 47.740948 2.167828 34,975 194 479 192
2021-09-03 10:54:39 GMT 47.761337 2.175152 34,900 194 478 640
2021-09-03 10:54:33 GMT 47.761337 2.175152 34,850 194 477 1024
2021-09-03 10:54:30 GMT 47.767578 2.177406 34,800 194 478 1088
2021-09-03 10:54:27 GMT 47.776474 2.180649 34,775 194 478 1088
2021-09-03 10:54:24 GMT 47.781963 2.182617 34,500 194 478 1088
2021-09-03 10:54:21 GMT 47.790665 2.185799 34,650 194 478 1088
2021-09-03 10:54:16 GMT 47.797417 2.188251 34,600 194 478 1088
2021-09-03 10:54:13 GMT 47.807518 2.191913 34,525 194 478 1024
2021-09-03 10:54:10 GMT 47.811195 2.193251 34,475 194 478 1024
2021-09-03 10:54:06 GMT 47.820831 2.196702 34,125 194 479 1024
2021-09-03 10:54:02 GMT 47.829117 2.199738 34,125 194 479 1024
2021-09-03 10:53:58 GMT 47.837723 2.202827 34,250 194 479 1024
2021-09-03 10:53:55 GMT 47.842991 2.204801 34,175 194 479 1024
2021-09-03 10:53:52 GMT 47.852905 2.208393 34,175 194 479 1024
2021-09-03 10:53:47 GMT 47.861206 2.211411 34,075 194 479 960
2021-09-03 10:53:44 GMT 47.866562 2.213333 33,975 194 479 896
2021-09-03 10:53:40 GMT 47.876450 2.216972 33,400 194 479 896
2021-09-03 10:53:35 GMT 47.889030 2.221562 33,850 194 478 896
2021-09-03 10:53:31 GMT 47.895504 2.223886 33,800 194 478 896
2021-09-03 10:53:28 GMT 47.904114 2.227055 33,775 194 478 896
2021-09-03 10:53:25 GMT 47.908585 2.228675 33,700 194 478 896
2021-09-03 10:53:22 GMT 47.915359 2.231117 33,675 194 478 896
2021-09-03 10:53:18 GMT 47.923096 2.233932 33,650 194 478 896
2021-09-03 10:53:15 GMT 47.930374 2.236542 33,575 194 478 960
2021-09-03 10:53:12 GMT 47.935631 2.238464 33,500 194 477 896
2021-09-03 10:53:09 GMT 47.942287 2.240929 33,500 194 477 896
2021-09-03 10:53:05 GMT 47.950790 2.243958 33,425 194 477 960
2021-09-03 10:53:02 GMT 47.956860 2.246211 33,225 194 477 960
2021-09-03 10:52:59 GMT 47.964478 2.248970 33,275 194 477 896
2021-09-03 10:52:56 GMT 47.970173 2.251070 33,250 194 477 896
2021-09-03 10:52:52 GMT 47.980774 2.254944 33,225 194 477 960
2021-09-03 10:52:49 GMT 47.985394 2.256564 33,175 194 477 960
2021-09-03 10:52:45 GMT 48.001225 2.262338 33,075 194 476 1024
2021-09-03 10:52:42 GMT 48.001225 2.262338 32,925 194 481 0
2021-09-03 10:52:39 GMT 48.007648 2.264733 32,975 194 477 1088
2021-09-03 10:52:36 GMT 48.013321 2.266754 32,875 194 477 1152
2021-09-03 10:52:32 GMT 48.023575 2.270531 32,875 194 477 1216
2021-09-03 10:52:27 GMT 48.034515 2.274513 32,750 194 477 1216
2021-09-03 10:52:24 GMT 48.047031 2.279100 32,700 194 477 1280
2021-09-03 10:52:21 GMT 48.047031 2.279100 32,625 194 478 1280
2021-09-03 10:52:16 GMT 48.056351 2.282478 32,525 194 477 1280
2021-09-03 10:52:12 GMT 48.063858 2.285225 32,475 194 478 1216
2021-09-03 10:52:10 GMT 48.069561 2.287339 32,425 194 478 1216
2021-09-03 10:52:07 GMT 48.074078 2.288959 32,375 194 478 1216
2021-09-03 10:52:04 GMT 48.082123 2.291954 32,300 194 478 1216
2021-09-03 10:51:59 GMT 48.092094 2.295579 32,200 194 479 1344
2021-09-03 10:51:55 GMT 48.100891 2.298819 32,075 194 478 1344
2021-09-03 10:51:52 GMT 48.108852 2.301777 32,000 194 479 1344
2021-09-03 10:51:49 GMT 48.114250 2.303748 31,925 194 479 1344
2021-09-03 10:51:46 GMT 48.121445 2.306374 31,900 194 479 1344
2021-09-03 10:51:43 GMT 48.125977 2.308022 31,850 194 479 1344
2021-09-03 10:51:40 GMT 48.133713 2.310905 31,775 194 479 1344
2021-09-03 10:51:37 GMT 48.139984 2.313171 31,675 194 480 1344
2021-09-03 10:51:33 GMT 48.148701 2.316355 31,650 194 480 1344
2021-09-03 10:51:30 GMT 48.154175 2.318390 31,500 194 480 1344
2021-09-03 10:51:27 GMT 48.161640 2.321151 31,475 194 481 1344
2021-09-03 10:51:24 GMT 48.167770 2.323397 31,425 194 480 1344
2021-09-03 10:51:21 GMT 48.175236 2.326138 31,175 194 481 1280
2021-09-03 10:51:17 GMT 48.183010 2.328957 31,250 194 481 1216
2021-09-03 10:51:14 GMT 48.191017 2.331920 31,175 194 481 1152
2021-09-03 10:51:10 GMT 48.199768 2.335158 31,125 194 481 960
2021-09-03 10:51:07 GMT 48.207214 2.337920 31,075 194 481 768
2021-09-03 10:51:04 GMT 48.210430 2.339076 31,000 194 481 448
2021-09-03 10:51:01 GMT 48.220276 2.342694 31,025 194 481 320
2021-09-03 10:50:58 GMT 48.224720 2.344352 31,025 194 481 64
2021-09-03 10:50:55 GMT 48.230850 2.346637 31,000 194 481 0
2021-09-03 10:50:52 GMT 48.238449 2.349384 31,000 194 482 0
2021-09-03 10:50:50 GMT 48.241573 2.350568 31,000 194 482 0
2021-09-03 10:50:47 GMT 48.248154 2.352976 31,000 194 482 0
2021-09-03 10:50:43 GMT 48.255863 2.355772 31,000 194 483 0
2021-09-03 10:50:40 GMT 48.263870 2.358736 31,000 194 484 0
2021-09-03 10:50:37 GMT 48.270264 2.361145 31,000 194 484 0
2021-09-03 10:50:33 GMT 48.278503 2.364173 31,000 194 484 0
2021-09-03 10:50:30 GMT 48.284134 2.366216 31,000 194 484 0
2021-09-03 10:50:27 GMT 48.292034 2.369144 31,000 194 484 0
2021-09-03 10:50:24 GMT 48.298233 2.371427 31,000 194 484 0
2021-09-03 10:50:20 GMT 48.306702 2.374596 31,000 194 484 0
2021-09-03 10:50:16 GMT 48.314613 2.377528 31,000 194 484 0
2021-09-03 10:50:13 GMT 48.322014 2.380202 31,000 194 484 0
2021-09-03 10:50:09 GMT 48.329086 2.382836 31,000 194 484 64
2021-09-03 10:50:05 GMT 48.339066 2.386569 31,000 194 484 0
2021-09-03 10:50:02 GMT 48.344513 2.388540 31,000 194 484 0
2021-09-03 10:49:58 GMT 48.354721 2.392343 31,000 194 484 -64
2021-09-03 10:49:55 GMT 48.360466 2.394441 31,000 194 484 0
2021-09-03 10:49:51 GMT 48.370743 2.398259 31,000 194 483 64
2021-09-03 10:49:46 GMT 48.386581 2.404175 31,000 194 483 -64
2021-09-03 10:49:43 GMT 48.386581 2.404175 31,000 194 483 0
2021-09-03 10:49:40 GMT 48.394264 2.407018 31,000 194 483 0
2021-09-03 10:49:36 GMT 48.401505 2.409668 31,000 194 483 0
2021-09-03 10:49:33 GMT 48.410278 2.412945 31,000 194 483 64
2021-09-03 10:49:30 GMT 48.416656 2.415302 31,000 194 482 0
2021-09-03 10:49:27 GMT 48.425537 2.418612 31,000 194 482 0
2021-09-03 10:49:22 GMT 48.432156 2.421040 31,000 194 482 0
2021-09-03 10:49:16 GMT 48.452267 2.428557 31,000 194 482 0
2021-09-03 10:49:13 GMT 48.452267 2.428557 31,000 194 481 0
2021-09-03 10:49:10 GMT 48.457668 2.430581 31,000 194 481 0
2021-09-03 10:49:06 GMT 48.466511 2.433833 31,000 194 482 0
2021-09-03 10:49:03 GMT 48.473030 2.436218 31,000 194 482 0
2021-09-03 10:49:00 GMT 48.480572 2.439037 31,000 194 482 64
2021-09-03 10:48:58 GMT 48.485229 2.440796 31,000 194 482 64
2021-09-03 10:48:55 GMT 48.489464 2.442362 31,000 194 482 64
2021-09-03 10:48:53 GMT 48.494980 2.444388 31,000 194 483 0
2021-09-03 10:48:50 GMT 48.500683 2.446554 31,000 194 483 0
2021-09-03 10:48:48 GMT 48.506882 2.448824 31,000 194 483 0
2021-09-03 10:48:45 GMT 48.512924 2.451078 31,000 194 483 0
2021-09-03 10:48:41 GMT 48.522141 2.454505 31,000 194 482 0
2021-09-03 10:48:38 GMT 48.528614 2.456962 31,000 194 482 0
2021-09-03 10:48:35 GMT 48.540951 2.461588 31,000 194 482 0
2021-09-03 10:48:32 GMT 48.540951 2.461588 31,000 194 482 0
2021-09-03 10:48:29 GMT 48.546349 2.463612 31,000 194 482 0
2021-09-03 10:48:26 GMT 48.553574 2.466290 31,000 194 482 0
2021-09-03 10:48:22 GMT 48.561172 2.469107 31,000 194 483 0
2021-09-03 10:48:19 GMT 48.567951 2.471635 31,000 194 482 0
2021-09-03 10:48:16 GMT 48.576187 2.474743 31,000 194 482 0
2021-09-03 10:48:13 GMT 48.582596 2.477135 31,000 194 483 0
2021-09-03 10:48:10 GMT 48.589279 2.479600 31,000 194 483 0
2021-09-03 10:48:07 GMT 48.595882 2.482115 31,000 194 483 0
2021-09-03 10:48:03 GMT 48.604122 2.485151 31,000 194 483 0
2021-09-03 10:48:00 GMT 48.612488 2.488262 31,000 194 484 0
2021-09-03 10:47:56 GMT 48.628098 2.494108 31,000 194 484 0
2021-09-03 10:47:52 GMT 48.628098 2.494108 31,000 194 484 0
2021-09-03 10:47:48 GMT 48.637436 2.497629 31,000 194 484 0
2021-09-03 10:47:45 GMT 48.641968 2.499319 31,000 194 484 0
2021-09-03 10:47:42 GMT 48.648579 2.501775 31,000 194 484 0
2021-09-03 10:47:39 GMT 48.655426 2.504390 31,000 194 484 0
2021-09-03 10:47:37 GMT 48.660076 2.506112 31,000 194 484 0
2021-09-03 10:47:33 GMT 48.668884 2.509460 31,000 194 484 0
2021-09-03 10:47:30 GMT 48.684082 2.515165 31,000 195 485 64
2021-09-03 10:47:26 GMT 48.684082 2.515165 31,000 195 485 64
2021-09-03 10:47:24 GMT 48.689529 2.517207 31,000 195 485 0
2021-09-03 10:47:20 GMT 48.696808 2.519989 31,000 195 485 0
2021-09-03 10:47:17 GMT 48.704674 2.522952 31,000 195 485 0
2021-09-03 10:47:14 GMT 48.710220 2.525024 31,000 195 485 0
2021-09-03 10:47:11 GMT 48.716721 2.527489 31,000 195 485 0
2021-09-03 10:47:09 GMT 48.726181 2.531120 31,000 195 485 0
2021-09-03 10:47:06 GMT 48.726181 2.531120 31,000 195 485 0
2021-09-03 10:47:03 GMT 48.735901 2.534814 31,000 195 485 0
2021-09-03 10:47:00 GMT 48.740433 2.536574 31,000 195 486 0
2021-09-03 10:46:57 GMT 48.748619 2.539649 31,000 195 486 0
2021-09-03 10:46:54 GMT 48.753296 2.541504 31,000 195 486 0
2021-09-03 10:46:51 GMT 48.760025 2.544110 31,000 195 486 0
2021-09-03 10:46:48 GMT 48.765701 2.546293 31,000 195 486 0
2021-09-03 10:46:45 GMT 48.773430 2.549262 31,000 195 486 0
2021-09-03 10:46:42 GMT 48.779160 2.551575 31,000 195 486 0
2021-09-03 10:46:39 GMT 48.785397 2.553960 31,000 195 486 0
2021-09-03 10:46:36 GMT 48.792564 2.556779 31,000 195 486 0
2021-09-03 10:46:32 GMT 48.800720 2.560026 31,000 195 486 0
2021-09-03 10:46:29 GMT 48.808548 2.563124 31,000 195 486 0
2021-09-03 10:46:26 GMT 48.813766 2.565167 31,000 195 486 0
2021-09-03 10:46:23 GMT 48.826172 2.570097 31,000 195 486 0
2021-09-03 10:46:20 GMT 48.826172 2.570097 31,000 195 486 0
2021-09-03 10:46:16 GMT 48.836609 2.574181 31,000 195 486 0
2021-09-03 10:46:14 GMT 48.840000 2.575499 31,000 195 486 0
2021-09-03 10:46:11 GMT 48.848938 2.578968 31,000 195 487 0
2021-09-03 10:46:08 GMT 48.855103 2.581365 31,000 195 486 0
2021-09-03 10:46:05 GMT 48.859600 2.583088 31,000 195 486 0
2021-09-03 10:46:03 GMT 48.864716 2.585027 31,000 192 485 0
2021-09-03 10:46:00 GMT 48.870724 2.587208 31,000 193 485 0
2021-09-03 10:45:57 GMT 48.879135 2.590238 31,000 193 486 0
2021-09-03 10:45:53 GMT 48.887466 2.593055 31,000 192 486 0
2021-09-03 10:45:50 GMT 48.892914 2.594886 31,000 192 485 0
2021-09-03 10:45:47 GMT 48.898331 2.596532 31,000 192 485 0
2021-09-03 10:45:44 GMT 48.906372 2.598900 31,000 191 485 0
2021-09-03 10:45:41 GMT 48.914520 2.601154 31,000 190 485 0
2021-09-03 10:45:38 GMT 48.919231 2.602386 31,000 190 485 0
2021-09-03 10:45:35 GMT 48.926193 2.604253 31,000 191 484 0
2021-09-03 10:45:32 GMT 48.931618 2.605711 31,000 191 484 0
2021-09-03 10:45:28 GMT 48.940109 2.608126 31,000 193 485 0
2021-09-03 10:45:25 GMT 48.947678 2.610337 31,000 194 485 0
2021-09-03 10:45:22 GMT 48.955490 2.612704 31,000 193 485 0
2021-09-03 10:45:19 GMT 48.960983 2.614464 31,000 193 486 0
2021-09-03 10:45:16 GMT 48.967300 2.616648 31,000 194 486 0
2021-09-03 10:45:13 GMT 48.973663 2.618972 31,000 198 486 0
2021-09-03 10:45:11 GMT 48.977142 2.620310 31,000 196 486 0
2021-09-03 10:45:08 GMT 48.986130 2.624070 31,000 198 486 0
2021-09-03 10:45:05 GMT 48.991379 2.626507 31,000 200 487 0
2021-09-03 10:45:02 GMT 48.996834 2.629202 31,000 200 487 0
2021-09-03 10:44:59 GMT 49.010197 2.636430 30,825 214 488 -64
2021-09-03 10:44:56 GMT 49.010197 2.636430 31,000 202 488 0
2021-09-03 10:44:53 GMT 49.015457 2.639538 31,000 205 489 0
2021-09-03 10:44:50 GMT 49.023930 2.645103 31,000 206 489 0
2021-09-03 10:44:46 GMT 49.037102 2.655077 31,000 209 489 64
2021-09-03 10:44:43 GMT 49.037102 2.655077 31,000 211 489 -64
2021-09-03 10:44:40 GMT 49.043201 2.660282 31,000 212 489 -128
2021-09-03 10:44:37 GMT 49.049206 2.665775 31,000 213 490 64
2021-09-03 10:44:34 GMT 49.055119 2.671557 31,000 214 489 64
2021-09-03 10:44:31 GMT 49.060501 2.676932 31,000 214 490 0
2021-09-03 10:44:28 GMT 49.065811 2.682213 31,000 214 490 0
2021-09-03 10:44:25 GMT 49.071671 2.688059 31,000 214 490 0
2021-09-03 10:44:22 GMT 49.077465 2.693819 31,000 214 489 0
2021-09-03 10:44:19 GMT 49.083096 2.699456 31,000 214 488 0
2021-09-03 10:44:16 GMT 49.089149 2.705528 31,000 214 488 0
2021-09-03 10:44:13 GMT 49.098412 2.714780 31,000 214 488 0
2021-09-03 10:44:11 GMT 49.103989 2.720313 31,000 214 488 0
2021-09-03 10:44:08 GMT 49.103989 2.720313 31,000 214 488 0
2021-09-03 10:44:05 GMT 49.117638 2.734006 31,000 214 488 0
2021-09-03 10:44:01 GMT 49.117638 2.734006 31,000 214 488 0
2021-09-03 10:43:58 GMT 49.122849 2.739187 31,000 214 488 0
2021-09-03 10:43:55 GMT 49.128391 2.744703 31,000 214 488 0
2021-09-03 10:43:53 GMT 49.131416 2.747738 31,000 214 488 0
2021-09-03 10:43:49 GMT 49.147060 2.763423 31,000 214 488 0
2021-09-03 10:43:46 GMT 49.147060 2.763423 31,000 214 489 0
2021-09-03 10:43:42 GMT 49.154648 2.770940 31,000 214 489 0
2021-09-03 10:43:39 GMT 49.158325 2.774682 31,000 214 489 0
2021-09-03 10:43:36 GMT 49.166245 2.782640 31,000 214 489 0
2021-09-03 10:43:33 GMT 49.174393 2.790739 31,000 214 490 128
2021-09-03 10:43:30 GMT 49.174393 2.790739 31,000 214 490 -64
2021-09-03 10:43:27 GMT 49.180252 2.796654 31,000 214 490 -64
2021-09-03 10:43:24 GMT 49.186890 2.803274 31,000 214 490 -64
2021-09-03 10:43:22 GMT 49.190094 2.806514 31,000 214 490 -64
2021-09-03 10:43:18 GMT 49.199020 2.815458 31,000 214 492 0
2021-09-03 10:43:15 GMT 49.204697 2.821233 31,000 214 492 0
2021-09-03 10:43:11 GMT 49.213028 2.829613 31,000 214 492 0
2021-09-03 10:43:08 GMT 49.217678 2.834256 31,000 214 492 0
2021-09-03 10:43:05 GMT 49.224335 2.840978 31,000 214 492 0
2021-09-03 10:43:03 GMT 49.228226 2.844896 31,000 214 492 0
2021-09-03 10:43:00 GMT 49.233089 2.849796 31,000 214 493 0
2021-09-03 10:42:57 GMT 49.238766 2.855506 31,000 214 493 0
2021-09-03 10:42:54 GMT 49.242691 2.859474 31,000 214 493 0
2021-09-03 10:42:52 GMT 49.247147 2.863962 31,000 214 493 0
2021-09-03 10:42:48 GMT 49.257294 2.874263 31,000 214 492 0
2021-09-03 10:42:45 GMT 49.266327 2.883333 31,000 214 492 64
2021-09-03 10:42:42 GMT 49.266327 2.883333 31,000 214 491 192
2021-09-03 10:42:40 GMT 49.272190 2.889332 31,000 214 492 64
2021-09-03 10:42:37 GMT 49.281372 2.898630 30,975 214 491 192
2021-09-03 10:42:34 GMT 49.281372 2.898630 30,975 214 491 192
2021-09-03 10:42:32 GMT 49.291279 2.908703 30,975 214 491 192
2021-09-03 10:42:29 GMT 49.291279 2.908703 30,975 214 489 192
2021-09-03 10:42:26 GMT 49.297989 2.915462 30,950 214 488 448
2021-09-03 10:42:23 GMT 49.301559 2.919124 30,875 214 488 448
2021-09-03 10:42:21 GMT 49.305943 2.923592 30,925 214 488 512
2021-09-03 10:42:19 GMT 49.310532 2.928279 30,825 214 484 448
2021-09-03 10:42:16 GMT 49.314369 2.932193 30,825 214 484 448
2021-09-03 10:42:13 GMT 49.320053 2.938068 30,825 215 483 640
2021-09-03 10:42:11 GMT 49.328705 2.946938 30,800 215 483 512
2021-09-03 10:42:09 GMT 49.328705 2.946938 30,825 215 483 512
2021-09-03 10:42:06 GMT 49.335361 2.953877 30,800 215 483 768
2021-09-03 10:42:03 GMT 49.341648 2.960382 30,775 215 481 896
2021-09-03 10:42:00 GMT 49.345230 2.964125 30,725 215 482 896
2021-09-03 10:41:57 GMT 49.351822 2.971027 30,675 215 482 896
2021-09-03 10:41:54 GMT 49.355713 2.975041 30,600 215 481 896
2021-09-03 10:41:52 GMT 49.359375 2.978915 30,625 215 480 1024
2021-09-03 10:41:47 GMT 49.368973 2.989004 30,525 215 479 1024
2021-09-03 10:41:44 GMT 49.374840 2.995148 30,400 215 480 1024
2021-09-03 10:41:40 GMT 49.382767 3.003564 30,400 215 480 1024
2021-09-03 10:41:37 GMT 49.393272 3.014591 30,350 215 479 1024
2021-09-03 10:41:34 GMT 49.393272 3.014591 30,300 215 479 1024
2021-09-03 10:41:31 GMT 49.397976 3.019650 30,175 214 477 960
2021-09-03 10:41:28 GMT 49.403549 3.025466 30,100 215 478 1024
2021-09-03 10:41:25 GMT 49.410217 3.032443 30,100 215 478 960
2021-09-03 10:41:22 GMT 49.416084 3.038515 29,950 214 477 896
2021-09-03 10:41:19 GMT 49.421814 3.044410 30,025 214 477 896
2021-09-03 10:41:16 GMT 49.425396 3.048056 29,950 214 476 896
2021-09-03 10:41:13 GMT 49.431381 3.054127 29,975 214 476 896
2021-09-03 10:41:11 GMT 49.435356 3.058059 29,900 213 475 960
2021-09-03 10:41:09 GMT 49.439781 3.062439 29,900 213 475 960
2021-09-03 10:41:06 GMT 49.444435 3.066967 29,850 212 474 1024
2021-09-03 10:41:03 GMT 49.449921 3.072197 29,800 212 474 960
2021-09-03 10:41:00 GMT 49.454819 3.076678 29,675 210 473 1024
2021-09-03 10:40:58 GMT 49.458679 3.080180 29,725 210 473 1024
2021-09-03 10:40:55 GMT 49.465027 3.085785 29,625 210 472 1024
2021-09-03 10:40:52 GMT 49.471893 3.091639 29,550 208 472 1024
2021-09-03 10:40:49 GMT 49.475739 3.094820 29,425 207 470 1024
2021-09-03 10:40:46 GMT 49.482563 3.100371 29,400 207 470 1024
2021-09-03 10:40:43 GMT 49.488098 3.104722 29,450 207 470 1024
2021-09-03 10:40:40 GMT 49.492851 3.108389 29,400 204 461 1088
2021-09-03 10:40:37 GMT 49.500778 3.114335 29,350 206 470 1088
2021-09-03 10:40:34 GMT 49.504768 3.117296 29,300 205 469 1088
2021-09-03 10:40:30 GMT 49.512867 3.123012 29,225 205 469 1088
2021-09-03 10:40:26 GMT 49.522736 3.129842 29,150 204 468 1088
2021-09-03 10:40:23 GMT 49.526646 3.132588 29,050 204 467 1088
2021-09-03 10:40:21 GMT 49.531906 3.136091 29,025 203 466 1152
2021-09-03 10:40:18 GMT 49.536797 3.139269 28,975 203 466 1152
2021-09-03 10:40:15 GMT 49.542755 3.143203 28,900 203 466 1152
2021-09-03 10:40:12 GMT 49.548294 3.146841 28,900 203 466 1152
2021-09-03 10:40:10 GMT 49.553459 3.150181 28,700 204 465 1152
2021-09-03 10:40:06 GMT 49.567520 3.159386 28,800 204 465 1152
2021-09-03 10:40:03 GMT 49.567520 3.159386 28,725 204 465 1152
2021-09-03 10:39:59 GMT 49.574596 3.163988 28,650 204 464 1152
2021-09-03 10:39:56 GMT 49.580742 3.167997 28,575 204 464 1152
2021-09-03 10:39:53 GMT 49.586334 3.171724 28,550 203 463 1088
2021-09-03 10:39:51 GMT 49.592194 3.175494 28,450 204 462 1088
2021-09-03 10:39:46 GMT 49.600433 3.180913 28,400 204 462 1088
2021-09-03 10:39:43 GMT 49.607925 3.185812 28,350 204 461 1088
2021-09-03 10:39:39 GMT 49.614670 3.190227 28,100 204 457 1408
2021-09-03 10:39:36 GMT 49.620941 3.194347 28,225 204 461 1088
2021-09-03 10:39:33 GMT 49.625755 3.197467 28,175 204 459 1088
2021-09-03 10:39:31 GMT 49.635719 3.203999 28,100 204 459 1088
2021-09-03 10:39:28 GMT 49.635719 3.203999 27,850 204 466 1152
2021-09-03 10:39:25 GMT 49.641769 3.208008 28,000 204 458 1280
2021-09-03 10:39:22 GMT 49.649544 3.213130 27,950 204 457 1472
2021-09-03 10:39:18 GMT 49.655781 3.217213 27,700 204 457 1600
2021-09-03 10:39:15 GMT 49.660858 3.220553 27,750 204 457 1728
2021-09-03 10:39:12 GMT 49.676033 3.230500 26,675 204 465 1152
2021-09-03 10:39:08 GMT 49.676033 3.230500 27,450 204 458 2560
2021-09-03 10:39:05 GMT 49.682373 3.234679 27,450 204 458 2560
2021-09-03 10:39:02 GMT 49.686367 3.237329 27,025 204 466 2624
2021-09-03 10:38:58 GMT 49.693130 3.241762 27,025 204 466 2624
2021-09-03 10:38:55 GMT 49.699814 3.246171 26,975 204 465 2944
2021-09-03 10:38:52 GMT 49.706059 3.250246 26,850 204 467 1920
2021-09-03 10:38:49 GMT 49.711784 3.254032 26,700 204 467 1920
2021-09-03 10:38:46 GMT 49.722912 3.261381 26,575 204 467 1408
2021-09-03 10:38:43 GMT 49.722912 3.261381 26,500 204 466 1152
2021-09-03 10:38:41 GMT 49.727894 3.264647 26,550 204 464 960
2021-09-03 10:38:38 GMT 49.732826 3.267913 26,425 204 465 1152
2021-09-03 10:38:35 GMT 49.739685 3.272408 26,400 204 465 1152
2021-09-03 10:38:32 GMT 49.745407 3.276166 26,350 204 465 1088
2021-09-03 10:38:29 GMT 49.752426 3.280829 26,275 204 464 832
2021-09-03 10:38:26 GMT 49.757446 3.284117 26,250 204 464 768
2021-09-03 10:38:24 GMT 49.761566 3.286864 26,250 204 464 768
2021-09-03 10:38:21 GMT 49.769073 3.291779 25,700 204 462 704
2021-09-03 10:38:18 GMT 49.773281 3.294636 26,150 204 463 704
2021-09-03 10:38:15 GMT 49.779282 3.298573 26,125 204 463 704
2021-09-03 10:38:12 GMT 49.785416 3.302548 26,075 204 462 704
2021-09-03 10:38:08 GMT 49.793343 3.307850 26,025 204 461 704
2021-09-03 10:38:05 GMT 49.799927 3.312161 26,000 204 461 768
2021-09-03 10:38:01 GMT 49.808716 3.318016 25,950 204 459 832
2021-09-03 10:37:58 GMT 49.812836 3.320690 25,925 204 460 768
2021-09-03 10:37:55 GMT 49.818695 3.324593 25,875 204 459 832
2021-09-03 10:37:52 GMT 49.826817 3.329897 25,750 204 459 832
2021-09-03 10:37:50 GMT 49.826817 3.329897 25,750 204 459 832
2021-09-03 10:37:46 GMT 49.835449 3.335652 25,750 204 457 960
2021-09-03 10:37:43 GMT 49.841991 3.339992 25,675 204 457 960
2021-09-03 10:37:40 GMT 49.846088 3.342665 25,600 204 457 960
2021-09-03 10:37:36 GMT 49.855133 3.348662 25,600 204 457 960
2021-09-03 10:37:34 GMT 49.859573 3.351625 25,425 204 456 1152
2021-09-03 10:37:31 GMT 49.865433 3.355528 25,450 204 456 1216
2021-09-03 10:37:27 GMT 49.874359 3.361455 25,425 204 456 1152
2021-09-03 10:37:24 GMT 49.884659 3.368249 25,300 204 457 1216
2021-09-03 10:37:21 GMT 49.884659 3.368249 24,700 204 457 1280
2021-09-03 10:37:17 GMT 49.892128 3.373248 25,200 204 457 1280
2021-09-03 10:37:14 GMT 49.897945 3.377108 25,150 204 458 1344
2021-09-03 10:37:11 GMT 49.906139 3.382527 25,050 204 458 1344
2021-09-03 10:37:06 GMT 49.920639 3.392173 24,950 204 459 1280
2021-09-03 10:37:03 GMT 49.920639 3.392173 24,875 204 459 1216
2021-09-03 10:37:00 GMT 49.924530 3.394703 24,825 204 459 1152
2021-09-03 10:36:55 GMT 49.934830 3.401570 24,700 204 459 1088
2021-09-03 10:36:51 GMT 49.942730 3.406801 24,675 204 458 1088
2021-09-03 10:36:48 GMT 49.947388 3.409919 24,650 204 458 1088
2021-09-03 10:36:45 GMT 49.955292 3.415158 24,500 204 458 1024
2021-09-03 10:36:42 GMT 49.959000 3.417615 24,550 204 458